<?xml version='1.0' encoding='UTF-8'?><gpx version="1.1" creator="JPX - https://github.com/jenetics/jpx" xmlns="http://www.topografix.com/GPX/1/1"><trk><trkseg><trkpt lat="43.5932958" lon="13.4503134"><ele>130.0</ele><time>2026-03-22T05:56:03.31Z</time></trkpt><trkpt lat="43.5933148" lon="13.4501926"><ele>130.0</ele><time>2026-03-22T05:56:06.31Z</time></trkpt><trkpt lat="43.5933264" lon="13.4500326"><ele>130.0</ele><time>2026-03-22T05:56:08.308Z</time></trkpt><trkpt lat="43.5933696" lon="13.4499603"><ele>130.0</ele><time>2026-03-22T05:56:09.309Z</time></trkpt><trkpt lat="43.5934433" lon="13.4499036"><ele>130.0</ele><time>2026-03-22T05:56:10.309Z</time></trkpt><trkpt lat="43.5935332" lon="13.4498518"><ele>130.0</ele><time>2026-03-22T05:56:11.31Z</time></trkpt><trkpt lat="43.5936428" lon="13.4497941"><ele>130.0</ele><time>2026-03-22T05:56:12.309Z</time></trkpt><trkpt lat="43.5937587" lon="13.4497257"><ele>130.0</ele><time>2026-03-22T05:56:13.309Z</time></trkpt><trkpt lat="43.5938821" lon="13.4496536"><ele>130.0</ele><time>2026-03-22T05:56:14.307Z</time></trkpt><trkpt lat="43.5940057" lon="13.4495783"><ele>127.25</ele><time>2026-03-22T05:56:15.31Z</time></trkpt><trkpt lat="43.5941326" lon="13.4495043"><ele>124.5</ele><time>2026-03-22T05:56:16.31Z</time></trkpt><trkpt lat="43.5942549" lon="13.4494342"><ele>121.75</ele><time>2026-03-22T05:56:17.31Z</time></trkpt><trkpt lat="43.5943765" lon="13.4493565"><ele>119.0</ele><time>2026-03-22T05:56:18.31Z</time></trkpt><trkpt lat="43.5944963" lon="13.4492801"><ele>116.75</ele><time>2026-03-22T05:56:19.31Z</time></trkpt><trkpt lat="43.5946113" lon="13.4492113"><ele>114.5</ele><time>2026-03-22T05:56:20.309Z</time></trkpt><trkpt lat="43.5947292" lon="13.4491483"><ele>112.25</ele><time>2026-03-22T05:56:21.309Z</time></trkpt><trkpt lat="43.594842" lon="13.4490915"><ele>110.0</ele><time>2026-03-22T05:56:22.309Z</time></trkpt><trkpt lat="43.5949507" lon="13.4490448"><ele>110.0</ele><time>2026-03-22T05:56:23.308Z</time></trkpt><trkpt lat="43.5950652" lon="13.4490209"><ele>110.0</ele><time>2026-03-22T05:56:24.308Z</time></trkpt><trkpt lat="43.595176" lon="13.4489925"><ele>110.0</ele><time>2026-03-22T05:56:25.31Z</time></trkpt><trkpt lat="43.5952829" lon="13.4489626"><ele>110.0</ele><time>2026-03-22T05:56:26.31Z</time></trkpt><trkpt lat="43.5953888" lon="13.4489396"><ele>110.0</ele><time>2026-03-22T05:56:27.309Z</time></trkpt><trkpt lat="43.5954978" lon="13.4489131"><ele>107.8</ele><time>2026-03-22T05:56:28.309Z</time></trkpt><trkpt lat="43.595608" lon="13.4489"><ele>105.6</ele><time>2026-03-22T05:56:29.31Z</time></trkpt><trkpt lat="43.595713" lon="13.4488795"><ele>103.4</ele><time>2026-03-22T05:56:30.309Z</time></trkpt><trkpt lat="43.5958164" lon="13.4488656"><ele>101.2</ele><time>2026-03-22T05:56:31.31Z</time></trkpt><trkpt lat="43.5959187" lon="13.448852"><ele>99.0</ele><time>2026-03-22T05:56:32.31Z</time></trkpt><trkpt lat="43.5960052" lon="13.4488427"><ele>99.0</ele><time>2026-03-22T05:56:33.31Z</time></trkpt><trkpt lat="43.5960899" lon="13.4488381"><ele>99.0</ele><time>2026-03-22T05:56:34.309Z</time></trkpt><trkpt lat="43.5961705" lon="13.4488313"><ele>99.0</ele><time>2026-03-22T05:56:35.31Z</time></trkpt><trkpt lat="43.5962472" lon="13.4488561"><ele>99.0</ele><time>2026-03-22T05:56:36.31Z</time></trkpt><trkpt lat="43.5963258" lon="13.4489078"><ele>99.0</ele><time>2026-03-22T05:56:37.309Z</time></trkpt><trkpt lat="43.5964037" lon="13.4489914"><ele>99.0</ele><time>2026-03-22T05:56:38.309Z</time></trkpt><trkpt lat="43.5964739" lon="13.4490818"><ele>96.75</ele><time>2026-03-22T05:56:39.31Z</time></trkpt><trkpt lat="43.5965199" lon="13.449228"><ele>94.5</ele><time>2026-03-22T05:56:40.308Z</time></trkpt><trkpt lat="43.5965352" lon="13.4494017"><ele>92.25</ele><time>2026-03-22T05:56:41.308Z</time></trkpt><trkpt lat="43.5965406" lon="13.4495777"><ele>90.0</ele><time>2026-03-22T05:56:42.31Z</time></trkpt><trkpt lat="43.5965228" lon="13.4497578"><ele>89.0</ele><time>2026-03-22T05:56:43.309Z</time></trkpt><trkpt lat="43.5964875" lon="13.4499283"><ele>88.0</ele><time>2026-03-22T05:56:44.31Z</time></trkpt><trkpt lat="43.5964453" lon="13.4500916"><ele>87.0</ele><time>2026-03-22T05:56:45.31Z</time></trkpt><trkpt lat="43.5964028" lon="13.4502428"><ele>86.0</ele><time>2026-03-22T05:56:46.31Z</time></trkpt><trkpt lat="43.5963624" lon="13.4503852"><ele>85.6</ele><time>2026-03-22T05:56:47.31Z</time></trkpt><trkpt lat="43.5963199" lon="13.4505337"><ele>85.19999999999999</ele><time>2026-03-22T05:56:48.309Z</time></trkpt><trkpt lat="43.5962878" lon="13.4506827"><ele>84.80000000000001</ele><time>2026-03-22T05:56:49.31Z</time></trkpt><trkpt lat="43.5962684" lon="13.4508295"><ele>84.4</ele><time>2026-03-22T05:56:50.309Z</time></trkpt><trkpt lat="43.596272" lon="13.4509722"><ele>84.0</ele><time>2026-03-22T05:56:51.309Z</time></trkpt><trkpt lat="43.596297" lon="13.4511061"><ele>84.0</ele><time>2026-03-22T05:56:52.309Z</time></trkpt><trkpt lat="43.5963406" lon="13.451228"><ele>84.0</ele><time>2026-03-22T05:56:53.31Z</time></trkpt><trkpt lat="43.5964003" lon="13.4513344"><ele>84.0</ele><time>2026-03-22T05:56:54.31Z</time></trkpt><trkpt lat="43.5964694" lon="13.4514117"><ele>84.0</ele><time>2026-03-22T05:56:55.309Z</time></trkpt><trkpt lat="43.5965514" lon="13.4514619"><ele>84.0</ele><time>2026-03-22T05:56:56.31Z</time></trkpt><trkpt lat="43.5966344" lon="13.4514746"><ele>84.0</ele><time>2026-03-22T05:56:57.31Z</time></trkpt><trkpt lat="43.5967187" lon="13.4514362"><ele>84.0</ele><time>2026-03-22T05:56:58.308Z</time></trkpt><trkpt lat="43.5967894" lon="13.4513607"><ele>84.0</ele><time>2026-03-22T05:56:59.308Z</time></trkpt><trkpt lat="43.596838" lon="13.4512726"><ele>84.0</ele><time>2026-03-22T05:57:00.31Z</time></trkpt><trkpt lat="43.5968759" lon="13.4511774"><ele>84.0</ele><time>2026-03-22T05:57:01.31Z</time></trkpt><trkpt lat="43.5969222" lon="13.4510786"><ele>84.0</ele><time>2026-03-22T05:57:02.31Z</time></trkpt><trkpt lat="43.5969811" lon="13.4509768"><ele>81.8</ele><time>2026-03-22T05:57:03.309Z</time></trkpt><trkpt lat="43.5970406" lon="13.4508734"><ele>79.60000000000001</ele><time>2026-03-22T05:57:04.31Z</time></trkpt><trkpt lat="43.5971124" lon="13.4507654"><ele>77.4</ele><time>2026-03-22T05:57:05.31Z</time></trkpt><trkpt lat="43.5971713" lon="13.4506575"><ele>75.2</ele><time>2026-03-22T05:57:06.31Z</time></trkpt><trkpt lat="43.5972295" lon="13.4505608"><ele>73.0</ele><time>2026-03-22T05:57:07.309Z</time></trkpt><trkpt lat="43.5972784" lon="13.4504644"><ele>73.4</ele><time>2026-03-22T05:57:08.308Z</time></trkpt><trkpt lat="43.5973279" lon="13.4503806"><ele>73.8</ele><time>2026-03-22T05:57:09.309Z</time></trkpt><trkpt lat="43.5973811" lon="13.4502773"><ele>74.2</ele><time>2026-03-22T05:57:10.31Z</time></trkpt><trkpt lat="43.5974376" lon="13.4501794"><ele>74.6</ele><time>2026-03-22T05:57:11.308Z</time></trkpt><trkpt lat="43.5975288" lon="13.450083"><ele>75.0</ele><time>2026-03-22T05:57:12.309Z</time></trkpt><trkpt lat="43.5976232" lon="13.4499885"><ele>75.0</ele><time>2026-03-22T05:57:13.31Z</time></trkpt><trkpt lat="43.5977285" lon="13.4498968"><ele>75.0</ele><time>2026-03-22T05:57:14.31Z</time></trkpt><trkpt lat="43.5978347" lon="13.44983"><ele>75.0</ele><time>2026-03-22T05:57:15.308Z</time></trkpt><trkpt lat="43.59794" lon="13.4497705"><ele>75.0</ele><time>2026-03-22T05:57:16.309Z</time></trkpt><trkpt lat="43.5980438" lon="13.4497261"><ele>73.8</ele><time>2026-03-22T05:57:17.309Z</time></trkpt><trkpt lat="43.5981422" lon="13.4496768"><ele>72.6</ele><time>2026-03-22T05:57:18.31Z</time></trkpt><trkpt lat="43.5982251" lon="13.4496175"><ele>71.4</ele><time>2026-03-22T05:57:19.309Z</time></trkpt><trkpt lat="43.5982892" lon="13.4495368"><ele>70.2</ele><time>2026-03-22T05:57:20.31Z</time></trkpt><trkpt lat="43.5983353" lon="13.4494386"><ele>69.0</ele><time>2026-03-22T05:57:21.31Z</time></trkpt><trkpt lat="43.5983554" lon="13.4493236"><ele>69.0</ele><time>2026-03-22T05:57:22.31Z</time></trkpt><trkpt lat="43.5983464" lon="13.4492134"><ele>69.0</ele><time>2026-03-22T05:57:23.309Z</time></trkpt><trkpt lat="43.598313" lon="13.4491112"><ele>69.0</ele><time>2026-03-22T05:57:24.31Z</time></trkpt><trkpt lat="43.598242" lon="13.4490281"><ele>69.0</ele><time>2026-03-22T05:57:25.31Z</time></trkpt><trkpt lat="43.5981567" lon="13.4489774"><ele>69.0</ele><time>2026-03-22T05:57:26.31Z</time></trkpt><trkpt lat="43.5980568" lon="13.4489561"><ele>69.0</ele><time>2026-03-22T05:57:27.308Z</time></trkpt><trkpt lat="43.5979514" lon="13.448964"><ele>69.0</ele><time>2026-03-22T05:57:28.31Z</time></trkpt><trkpt lat="43.5978516" lon="13.4490049"><ele>69.0</ele><time>2026-03-22T05:57:29.309Z</time></trkpt><trkpt lat="43.5977573" lon="13.4490837"><ele>69.0</ele><time>2026-03-22T05:57:30.31Z</time></trkpt><trkpt lat="43.5976595" lon="13.4491744"><ele>69.0</ele><time>2026-03-22T05:57:31.309Z</time></trkpt><trkpt lat="43.5975943" lon="13.4493126"><ele>70.5</ele><time>2026-03-22T05:57:32.31Z</time></trkpt><trkpt lat="43.5975433" lon="13.4494743"><ele>72.0</ele><time>2026-03-22T05:57:33.309Z</time></trkpt><trkpt lat="43.5974793" lon="13.449628"><ele>73.5</ele><time>2026-03-22T05:57:34.31Z</time></trkpt><trkpt lat="43.5974053" lon="13.4497495"><ele>75.0</ele><time>2026-03-22T05:57:35.31Z</time></trkpt><trkpt lat="43.5973179" lon="13.4498503"><ele>75.0</ele><time>2026-03-22T05:57:36.31Z</time></trkpt><trkpt lat="43.5972119" lon="13.4499226"><ele>75.0</ele><time>2026-03-22T05:57:37.309Z</time></trkpt><trkpt lat="43.5970896" lon="13.4499745"><ele>75.0</ele><time>2026-03-22T05:57:38.309Z</time></trkpt><trkpt lat="43.5969562" lon="13.4500183"><ele>75.0</ele><time>2026-03-22T05:57:39.309Z</time></trkpt><trkpt lat="43.5968178" lon="13.4500689"><ele>77.75</ele><time>2026-03-22T05:57:40.31Z</time></trkpt><trkpt lat="43.5966753" lon="13.4501229"><ele>80.5</ele><time>2026-03-22T05:57:41.31Z</time></trkpt><trkpt lat="43.5965334" lon="13.4501791"><ele>83.25</ele><time>2026-03-22T05:57:42.309Z</time></trkpt><trkpt lat="43.5964069" lon="13.4502389"><ele>86.0</ele><time>2026-03-22T05:57:43.31Z</time></trkpt><trkpt lat="43.5962956" lon="13.4503203"><ele>86.0</ele><time>2026-03-22T05:57:44.308Z</time></trkpt><trkpt lat="43.5962174" lon="13.4504478"><ele>86.0</ele><time>2026-03-22T05:57:45.31Z</time></trkpt><trkpt lat="43.5961499" lon="13.450601"><ele>86.0</ele><time>2026-03-22T05:57:46.309Z</time></trkpt><trkpt lat="43.596111" lon="13.4507887"><ele>86.0</ele><time>2026-03-22T05:57:47.31Z</time></trkpt><trkpt lat="43.5960829" lon="13.4509886"><ele>88.33333333333334</ele><time>2026-03-22T05:57:48.309Z</time></trkpt><trkpt lat="43.5960538" lon="13.4512018"><ele>90.66666666666667</ele><time>2026-03-22T05:57:49.31Z</time></trkpt><trkpt lat="43.5960233" lon="13.4514275"><ele>93.0</ele><time>2026-03-22T05:57:50.31Z</time></trkpt><trkpt lat="43.5959878" lon="13.4516506"><ele>93.0</ele><time>2026-03-22T05:57:51.31Z</time></trkpt><trkpt lat="43.5959503" lon="13.4518753"><ele>93.0</ele><time>2026-03-22T05:57:52.309Z</time></trkpt><trkpt lat="43.5958994" lon="13.4520955"><ele>93.0</ele><time>2026-03-22T05:57:53.309Z</time></trkpt><trkpt lat="43.5958306" lon="13.4523099"><ele>93.0</ele><time>2026-03-22T05:57:54.309Z</time></trkpt><trkpt lat="43.5957491" lon="13.4525031"><ele>93.0</ele><time>2026-03-22T05:57:55.309Z</time></trkpt><trkpt lat="43.5956637" lon="13.4527096"><ele>93.0</ele><time>2026-03-22T05:57:56.31Z</time></trkpt><trkpt lat="43.595581" lon="13.4529187"><ele>93.0</ele><time>2026-03-22T05:57:57.31Z</time></trkpt><trkpt lat="43.5954989" lon="13.453133"><ele>93.0</ele><time>2026-03-22T05:57:58.31Z</time></trkpt><trkpt lat="43.5954211" lon="13.4533513"><ele>93.0</ele><time>2026-03-22T05:57:59.31Z</time></trkpt><trkpt lat="43.595349" lon="13.4535733"><ele>96.0</ele><time>2026-03-22T05:58:00.31Z</time></trkpt><trkpt lat="43.5952822" lon="13.4538014"><ele>99.0</ele><time>2026-03-22T05:58:01.309Z</time></trkpt><trkpt lat="43.5952215" lon="13.4540348"><ele>102.0</ele><time>2026-03-22T05:58:02.31Z</time></trkpt><trkpt lat="43.5951655" lon="13.4542708"><ele>102.0</ele><time>2026-03-22T05:58:03.308Z</time></trkpt><trkpt lat="43.5951185" lon="13.45451"><ele>102.0</ele><time>2026-03-22T05:58:04.31Z</time></trkpt><trkpt lat="43.5950745" lon="13.454756"><ele>102.0</ele><time>2026-03-22T05:58:05.31Z</time></trkpt><trkpt lat="43.5950329" lon="13.4550051"><ele>102.33333333333334</ele><time>2026-03-22T05:58:06.31Z</time></trkpt><trkpt lat="43.594994" lon="13.4552586"><ele>102.66666666666667</ele><time>2026-03-22T05:58:07.309Z</time></trkpt><trkpt lat="43.5949558" lon="13.4555176"><ele>103.0</ele><time>2026-03-22T05:58:08.309Z</time></trkpt><trkpt lat="43.594919" lon="13.455777"><ele>104.66666666666667</ele><time>2026-03-22T05:58:09.31Z</time></trkpt><trkpt lat="43.5948836" lon="13.4560367"><ele>106.33333333333334</ele><time>2026-03-22T05:58:10.31Z</time></trkpt><trkpt lat="43.5948506" lon="13.4562986"><ele>108.0</ele><time>2026-03-22T05:58:11.31Z</time></trkpt><trkpt lat="43.5948206" lon="13.4565659"><ele>108.66666666666666</ele><time>2026-03-22T05:58:12.31Z</time></trkpt><trkpt lat="43.594788" lon="13.4568344"><ele>109.33333333333333</ele><time>2026-03-22T05:58:13.31Z</time></trkpt><trkpt lat="43.5947584" lon="13.4570937"><ele>110.0</ele><time>2026-03-22T05:58:14.31Z</time></trkpt><trkpt lat="43.5947287" lon="13.4573521"><ele>112.0</ele><time>2026-03-22T05:58:15.31Z</time></trkpt><trkpt lat="43.5946991" lon="13.4576101"><ele>114.0</ele><time>2026-03-22T05:58:16.31Z</time></trkpt><trkpt lat="43.5946686" lon="13.4578674"><ele>116.0</ele><time>2026-03-22T05:58:17.31Z</time></trkpt><trkpt lat="43.5946408" lon="13.4581279"><ele>117.0</ele><time>2026-03-22T05:58:18.31Z</time></trkpt><trkpt lat="43.5946325" lon="13.4583818"><ele>118.0</ele><time>2026-03-22T05:58:19.309Z</time></trkpt><trkpt lat="43.5946017" lon="13.4585922"><ele>119.0</ele><time>2026-03-22T05:58:20.31Z</time></trkpt><trkpt lat="43.5945119" lon="13.4589801"><ele>116.66666666666666</ele><time>2026-03-22T05:58:21.309Z</time></trkpt><trkpt lat="43.5944491" lon="13.4592457"><ele>114.33333333333334</ele><time>2026-03-22T05:58:22.31Z</time></trkpt><trkpt lat="43.5943918" lon="13.4595154"><ele>112.0</ele><time>2026-03-22T05:58:23.31Z</time></trkpt><trkpt lat="43.5943269" lon="13.4597787"><ele>111.33333333333334</ele><time>2026-03-22T05:58:24.309Z</time></trkpt><trkpt lat="43.5942583" lon="13.4600376"><ele>110.66666666666666</ele><time>2026-03-22T05:58:25.308Z</time></trkpt><trkpt lat="43.5941934" lon="13.4602964"><ele>110.0</ele><time>2026-03-22T05:58:26.308Z</time></trkpt><trkpt lat="43.5941235" lon="13.4605526"><ele>111.33333333333333</ele><time>2026-03-22T05:58:27.309Z</time></trkpt><trkpt lat="43.5940439" lon="13.4608072"><ele>112.66666666666666</ele><time>2026-03-22T05:58:28.309Z</time></trkpt><trkpt lat="43.593964" lon="13.4610624"><ele>114.0</ele><time>2026-03-22T05:58:29.31Z</time></trkpt><trkpt lat="43.5938814" lon="13.4613204"><ele>115.33333333333334</ele><time>2026-03-22T05:58:30.309Z</time></trkpt><trkpt lat="43.5937931" lon="13.4615797"><ele>116.66666666666667</ele><time>2026-03-22T05:58:31.309Z</time></trkpt><trkpt lat="43.5937" lon="13.461845"><ele>118.0</ele><time>2026-03-22T05:58:32.31Z</time></trkpt><trkpt lat="43.5936128" lon="13.4621082"><ele>117.66666666666667</ele><time>2026-03-22T05:58:33.31Z</time></trkpt><trkpt lat="43.5935228" lon="13.4623742"><ele>117.33333333333334</ele><time>2026-03-22T05:58:34.31Z</time></trkpt><trkpt lat="43.5934322" lon="13.4626354"><ele>117.0</ele><time>2026-03-22T05:58:35.31Z</time></trkpt><trkpt lat="43.5933473" lon="13.4628954"><ele>120.33333333333334</ele><time>2026-03-22T05:58:36.309Z</time></trkpt><trkpt lat="43.5932592" lon="13.4631519"><ele>123.66666666666667</ele><time>2026-03-22T05:58:37.309Z</time></trkpt><trkpt lat="43.5931764" lon="13.4634055"><ele>127.0</ele><time>2026-03-22T05:58:38.31Z</time></trkpt><trkpt lat="43.5930937" lon="13.4636608"><ele>129.66666666666669</ele><time>2026-03-22T05:58:39.308Z</time></trkpt><trkpt lat="43.593015" lon="13.4639206"><ele>132.33333333333334</ele><time>2026-03-22T05:58:40.31Z</time></trkpt><trkpt lat="43.5929384" lon="13.4641773"><ele>135.0</ele><time>2026-03-22T05:58:41.31Z</time></trkpt><trkpt lat="43.5928655" lon="13.464441"><ele>131.33333333333334</ele><time>2026-03-22T05:58:42.309Z</time></trkpt><trkpt lat="43.5928008" lon="13.4647072"><ele>127.66666666666667</ele><time>2026-03-22T05:58:43.31Z</time></trkpt><trkpt lat="43.5927401" lon="13.4649778"><ele>124.0</ele><time>2026-03-22T05:58:44.309Z</time></trkpt><trkpt lat="43.5926839" lon="13.4652547"><ele>125.0</ele><time>2026-03-22T05:58:45.309Z</time></trkpt><trkpt lat="43.5926332" lon="13.4655415"><ele>126.0</ele><time>2026-03-22T05:58:46.308Z</time></trkpt><trkpt lat="43.5925802" lon="13.4658359"><ele>127.0</ele><time>2026-03-22T05:58:47.309Z</time></trkpt><trkpt lat="43.5925322" lon="13.4661293"><ele>129.0</ele><time>2026-03-22T05:58:48.309Z</time></trkpt><trkpt lat="43.5924816" lon="13.4664294"><ele>131.0</ele><time>2026-03-22T05:58:49.31Z</time></trkpt><trkpt lat="43.5924285" lon="13.4667242"><ele>133.0</ele><time>2026-03-22T05:58:50.309Z</time></trkpt><trkpt lat="43.592377" lon="13.4670204"><ele>136.0</ele><time>2026-03-22T05:58:51.309Z</time></trkpt><trkpt lat="43.59233" lon="13.4673135"><ele>139.0</ele><time>2026-03-22T05:58:52.309Z</time></trkpt><trkpt lat="43.5922843" lon="13.4676065"><ele>142.0</ele><time>2026-03-22T05:58:53.311Z</time></trkpt><trkpt lat="43.5893983" lon="13.4845808"><ele>128.0</ele><time>2026-03-22T05:59:51.31Z</time></trkpt><trkpt lat="43.5893291" lon="13.48483"><ele>114.0</ele><time>2026-03-22T05:59:52.309Z</time></trkpt><trkpt lat="43.5892626" lon="13.4850829"><ele>100.0</ele><time>2026-03-22T05:59:53.309Z</time></trkpt><trkpt lat="43.5891874" lon="13.4853321"><ele>100.33333333333334</ele><time>2026-03-22T05:59:54.309Z</time></trkpt><trkpt lat="43.589107" lon="13.4855815"><ele>100.66666666666666</ele><time>2026-03-22T05:59:55.309Z</time></trkpt><trkpt lat="43.5890223" lon="13.4858286"><ele>101.0</ele><time>2026-03-22T05:59:56.31Z</time></trkpt><trkpt lat="43.5889309" lon="13.4860735"><ele>103.0</ele><time>2026-03-22T05:59:57.309Z</time></trkpt><trkpt lat="43.5888317" lon="13.4863143"><ele>105.0</ele><time>2026-03-22T05:59:58.31Z</time></trkpt><trkpt lat="43.5887306" lon="13.4865519"><ele>107.0</ele><time>2026-03-22T05:59:59.309Z</time></trkpt><trkpt lat="43.5886246" lon="13.486789"><ele>105.33333333333333</ele><time>2026-03-22T06:00:00.31Z</time></trkpt><trkpt lat="43.5885104" lon="13.4870206"><ele>103.66666666666666</ele><time>2026-03-22T06:00:01.31Z</time></trkpt><trkpt lat="43.5883882" lon="13.4872473"><ele>102.0</ele><time>2026-03-22T06:00:02.31Z</time></trkpt><trkpt lat="43.588263" lon="13.48747"><ele>102.0</ele><time>2026-03-22T06:00:03.309Z</time></trkpt><trkpt lat="43.5881339" lon="13.4876865"><ele>102.0</ele><time>2026-03-22T06:00:04.309Z</time></trkpt><trkpt lat="43.5880004" lon="13.4878984"><ele>102.0</ele><time>2026-03-22T06:00:05.309Z</time></trkpt><trkpt lat="43.5878619" lon="13.488102"><ele>100.0</ele><time>2026-03-22T06:00:06.31Z</time></trkpt><trkpt lat="43.5877197" lon="13.4882975"><ele>98.0</ele><time>2026-03-22T06:00:07.309Z</time></trkpt><trkpt lat="43.5875749" lon="13.4884899"><ele>96.0</ele><time>2026-03-22T06:00:08.309Z</time></trkpt><trkpt lat="43.5874304" lon="13.4886795"><ele>96.0</ele><time>2026-03-22T06:00:09.31Z</time></trkpt><trkpt lat="43.5872839" lon="13.4888645"><ele>96.0</ele><time>2026-03-22T06:00:10.309Z</time></trkpt><trkpt lat="43.5871349" lon="13.4890492"><ele>96.0</ele><time>2026-03-22T06:00:11.309Z</time></trkpt><trkpt lat="43.5869821" lon="13.4892364"><ele>94.0</ele><time>2026-03-22T06:00:12.31Z</time></trkpt><trkpt lat="43.5868278" lon="13.4894336"><ele>92.0</ele><time>2026-03-22T06:00:13.31Z</time></trkpt><trkpt lat="43.5866691" lon="13.4896304"><ele>90.0</ele><time>2026-03-22T06:00:14.309Z</time></trkpt><trkpt lat="43.5865078" lon="13.4898315"><ele>89.33333333333333</ele><time>2026-03-22T06:00:15.31Z</time></trkpt><trkpt lat="43.586343" lon="13.4900336"><ele>88.66666666666666</ele><time>2026-03-22T06:00:16.31Z</time></trkpt><trkpt lat="43.5861776" lon="13.4902354"><ele>88.0</ele><time>2026-03-22T06:00:17.31Z</time></trkpt><trkpt lat="43.5860123" lon="13.4904371"><ele>85.66666666666666</ele><time>2026-03-22T06:00:18.309Z</time></trkpt><trkpt lat="43.5858469" lon="13.4906394"><ele>83.33333333333333</ele><time>2026-03-22T06:00:19.309Z</time></trkpt><trkpt lat="43.585682" lon="13.4908402"><ele>81.0</ele><time>2026-03-22T06:00:20.31Z</time></trkpt><trkpt lat="43.5855174" lon="13.4910372"><ele>81.0</ele><time>2026-03-22T06:00:21.31Z</time></trkpt><trkpt lat="43.5853538" lon="13.4912331"><ele>81.0</ele><time>2026-03-22T06:00:22.31Z</time></trkpt><trkpt lat="43.5851921" lon="13.4914297"><ele>81.0</ele><time>2026-03-22T06:00:23.309Z</time></trkpt><trkpt lat="43.5850316" lon="13.4916277"><ele>80.66666666666667</ele><time>2026-03-22T06:00:24.31Z</time></trkpt><trkpt lat="43.5848724" lon="13.4918254"><ele>80.33333333333334</ele><time>2026-03-22T06:00:25.31Z</time></trkpt><trkpt lat="43.5847149" lon="13.4920203"><ele>80.0</ele><time>2026-03-22T06:00:26.31Z</time></trkpt><trkpt lat="43.5845591" lon="13.4922141"><ele>78.66666666666667</ele><time>2026-03-22T06:00:27.31Z</time></trkpt><trkpt lat="43.5844039" lon="13.4924075"><ele>77.33333333333333</ele><time>2026-03-22T06:00:28.308Z</time></trkpt><trkpt lat="43.5842482" lon="13.4926005"><ele>76.0</ele><time>2026-03-22T06:00:29.309Z</time></trkpt><trkpt lat="43.5840899" lon="13.4927985"><ele>75.33333333333333</ele><time>2026-03-22T06:00:30.309Z</time></trkpt><trkpt lat="43.5839274" lon="13.4930026"><ele>74.66666666666667</ele><time>2026-03-22T06:00:31.309Z</time></trkpt><trkpt lat="43.5837586" lon="13.4932128"><ele>74.0</ele><time>2026-03-22T06:00:32.309Z</time></trkpt><trkpt lat="43.5835883" lon="13.4934231"><ele>74.0</ele><time>2026-03-22T06:00:33.31Z</time></trkpt><trkpt lat="43.5834177" lon="13.4936337"><ele>74.0</ele><time>2026-03-22T06:00:34.31Z</time></trkpt><trkpt lat="43.5832477" lon="13.4938448"><ele>76.0</ele><time>2026-03-22T06:00:35.31Z</time></trkpt><trkpt lat="43.5830787" lon="13.4940563"><ele>78.0</ele><time>2026-03-22T06:00:36.309Z</time></trkpt><trkpt lat="43.5829102" lon="13.4942679"><ele>72.5</ele><time>2026-03-22T06:00:37.31Z</time></trkpt><trkpt lat="43.5827407" lon="13.4944788"><ele>67.0</ele><time>2026-03-22T06:00:38.31Z</time></trkpt><trkpt lat="43.5825711" lon="13.4946873"><ele>67.0</ele><time>2026-03-22T06:00:39.308Z</time></trkpt><trkpt lat="43.5824003" lon="13.4948922"><ele>67.0</ele><time>2026-03-22T06:00:40.31Z</time></trkpt><trkpt lat="43.5822266" lon="13.4950911"><ele>67.0</ele><time>2026-03-22T06:00:41.31Z</time></trkpt><trkpt lat="43.5820482" lon="13.495281"><ele>67.0</ele><time>2026-03-22T06:00:42.31Z</time></trkpt><trkpt lat="43.5818656" lon="13.4954676"><ele>66.5</ele><time>2026-03-22T06:00:43.309Z</time></trkpt><trkpt lat="43.5816778" lon="13.4956538"><ele>66.0</ele><time>2026-03-22T06:00:44.309Z</time></trkpt><trkpt lat="43.5814842" lon="13.4958384"><ele>66.0</ele><time>2026-03-22T06:00:45.309Z</time></trkpt><trkpt lat="43.5812854" lon="13.4960263"><ele>66.0</ele><time>2026-03-22T06:00:46.31Z</time></trkpt><trkpt lat="43.5810823" lon="13.4962169"><ele>62.5</ele><time>2026-03-22T06:00:47.309Z</time></trkpt><trkpt lat="43.5808749" lon="13.4964133"><ele>59.0</ele><time>2026-03-22T06:00:48.31Z</time></trkpt><trkpt lat="43.5806647" lon="13.4966119"><ele>59.0</ele><time>2026-03-22T06:00:49.309Z</time></trkpt><trkpt lat="43.5804518" lon="13.496822"><ele>59.0</ele><time>2026-03-22T06:00:50.309Z</time></trkpt><trkpt lat="43.5802403" lon="13.4970301"><ele>57.0</ele><time>2026-03-22T06:00:51.309Z</time></trkpt><trkpt lat="43.5800303" lon="13.4972434"><ele>55.0</ele><time>2026-03-22T06:00:52.308Z</time></trkpt><trkpt lat="43.5798196" lon="13.4974607"><ele>55.0</ele><time>2026-03-22T06:00:53.31Z</time></trkpt><trkpt lat="43.5796126" lon="13.4976835"><ele>55.0</ele><time>2026-03-22T06:00:54.31Z</time></trkpt><trkpt lat="43.5794067" lon="13.497913"><ele>55.5</ele><time>2026-03-22T06:00:55.31Z</time></trkpt><trkpt lat="43.5792021" lon="13.4981421"><ele>56.0</ele><time>2026-03-22T06:00:56.311Z</time></trkpt><trkpt lat="43.5789992" lon="13.4983703"><ele>56.0</ele><time>2026-03-22T06:00:57.31Z</time></trkpt><trkpt lat="43.578797" lon="13.4986052"><ele>56.0</ele><time>2026-03-22T06:00:58.31Z</time></trkpt><trkpt lat="43.5785972" lon="13.4988384"><ele>56.0</ele><time>2026-03-22T06:00:59.309Z</time></trkpt><trkpt lat="43.5783976" lon="13.4990687"><ele>56.0</ele><time>2026-03-22T06:01:00.31Z</time></trkpt><trkpt lat="43.5782003" lon="13.4992998"><ele>56.0</ele><time>2026-03-22T06:01:01.309Z</time></trkpt><trkpt lat="43.578005" lon="13.4995212"><ele>56.0</ele><time>2026-03-22T06:01:02.31Z</time></trkpt><trkpt lat="43.5778116" lon="13.4997549"><ele>57.0</ele><time>2026-03-22T06:01:03.308Z</time></trkpt><trkpt lat="43.5776156" lon="13.4999895"><ele>58.0</ele><time>2026-03-22T06:01:04.31Z</time></trkpt><trkpt lat="43.5774218" lon="13.5002275"><ele>57.5</ele><time>2026-03-22T06:01:05.309Z</time></trkpt><trkpt lat="43.5772296" lon="13.5004638"><ele>57.0</ele><time>2026-03-22T06:01:06.311Z</time></trkpt><trkpt lat="43.5770326" lon="13.5006974"><ele>56.0</ele><time>2026-03-22T06:01:07.31Z</time></trkpt><trkpt lat="43.5768417" lon="13.500928"><ele>55.0</ele><time>2026-03-22T06:01:08.31Z</time></trkpt><trkpt lat="43.5766516" lon="13.5011576"><ele>54.5</ele><time>2026-03-22T06:01:09.309Z</time></trkpt><trkpt lat="43.5764625" lon="13.5013852"><ele>54.0</ele><time>2026-03-22T06:01:10.308Z</time></trkpt><trkpt lat="43.5762773" lon="13.5016095"><ele>54.5</ele><time>2026-03-22T06:01:11.311Z</time></trkpt><trkpt lat="43.5760918" lon="13.5018341"><ele>55.0</ele><time>2026-03-22T06:01:12.311Z</time></trkpt><trkpt lat="43.5759003" lon="13.5020596"><ele>54.5</ele><time>2026-03-22T06:01:13.309Z</time></trkpt><trkpt lat="43.5757139" lon="13.5022833"><ele>54.0</ele><time>2026-03-22T06:01:14.309Z</time></trkpt><trkpt lat="43.5755301" lon="13.5025068"><ele>54.5</ele><time>2026-03-22T06:01:15.31Z</time></trkpt><trkpt lat="43.5753447" lon="13.5027329"><ele>55.0</ele><time>2026-03-22T06:01:16.31Z</time></trkpt><trkpt lat="43.5751618" lon="13.5029555"><ele>52.5</ele><time>2026-03-22T06:01:17.311Z</time></trkpt><trkpt lat="43.5749675" lon="13.5031803"><ele>50.0</ele><time>2026-03-22T06:01:18.309Z</time></trkpt><trkpt lat="43.5747714" lon="13.5034047"><ele>50.0</ele><time>2026-03-22T06:01:19.31Z</time></trkpt><trkpt lat="43.5745794" lon="13.5036271"><ele>50.0</ele><time>2026-03-22T06:01:20.31Z</time></trkpt><trkpt lat="43.5743865" lon="13.5038561"><ele>48.5</ele><time>2026-03-22T06:01:21.309Z</time></trkpt><trkpt lat="43.5741951" lon="13.5040845"><ele>47.0</ele><time>2026-03-22T06:01:22.31Z</time></trkpt><trkpt lat="43.5740028" lon="13.5043093"><ele>47.0</ele><time>2026-03-22T06:01:23.309Z</time></trkpt><trkpt lat="43.5738103" lon="13.5045384"><ele>47.0</ele><time>2026-03-22T06:01:24.311Z</time></trkpt><trkpt lat="43.5736148" lon="13.50477"><ele>47.5</ele><time>2026-03-22T06:01:25.309Z</time></trkpt><trkpt lat="43.5734181" lon="13.5050029"><ele>48.0</ele><time>2026-03-22T06:01:26.309Z</time></trkpt><trkpt lat="43.5732268" lon="13.5052387"><ele>47.5</ele><time>2026-03-22T06:01:27.311Z</time></trkpt><trkpt lat="43.5730336" lon="13.5054729"><ele>47.0</ele><time>2026-03-22T06:01:28.31Z</time></trkpt><trkpt lat="43.5728396" lon="13.5057035"><ele>47.0</ele><time>2026-03-22T06:01:29.31Z</time></trkpt><trkpt lat="43.572652" lon="13.5059305"><ele>47.0</ele><time>2026-03-22T06:01:30.31Z</time></trkpt><trkpt lat="43.5724626" lon="13.5061525"><ele>47.0</ele><time>2026-03-22T06:01:31.311Z</time></trkpt><trkpt lat="43.5722829" lon="13.5063661"><ele>47.0</ele><time>2026-03-22T06:01:32.309Z</time></trkpt><trkpt lat="43.5721004" lon="13.5065843"><ele>47.5</ele><time>2026-03-22T06:01:33.308Z</time></trkpt><trkpt lat="43.5719181" lon="13.5067967"><ele>48.0</ele><time>2026-03-22T06:01:34.31Z</time></trkpt><trkpt lat="43.5717427" lon="13.5069975"><ele>48.33333333333333</ele><time>2026-03-22T06:01:35.309Z</time></trkpt><trkpt lat="43.5715786" lon="13.507182"><ele>48.666666666666664</ele><time>2026-03-22T06:01:36.311Z</time></trkpt><trkpt lat="43.5714168" lon="13.5073566"><ele>49.0</ele><time>2026-03-22T06:01:37.309Z</time></trkpt><trkpt lat="43.5712718" lon="13.5074953"><ele>49.0</ele><time>2026-03-22T06:01:38.31Z</time></trkpt><trkpt lat="43.5711195" lon="13.5076136"><ele>49.0</ele><time>2026-03-22T06:01:39.311Z</time></trkpt><trkpt lat="43.5709725" lon="13.5076995"><ele>49.0</ele><time>2026-03-22T06:01:40.31Z</time></trkpt><trkpt lat="43.5708273" lon="13.5077577"><ele>49.0</ele><time>2026-03-22T06:01:41.309Z</time></trkpt><trkpt lat="43.5706889" lon="13.5077871"><ele>49.0</ele><time>2026-03-22T06:01:42.31Z</time></trkpt><trkpt lat="43.5705721" lon="13.5078191"><ele>49.0</ele><time>2026-03-22T06:01:43.309Z</time></trkpt><trkpt lat="43.5704747" lon="13.5078742"><ele>49.0</ele><time>2026-03-22T06:01:44.311Z</time></trkpt><trkpt lat="43.570419" lon="13.507982"><ele>48.25</ele><time>2026-03-22T06:01:45.31Z</time></trkpt><trkpt lat="43.5703854" lon="13.5081223"><ele>47.5</ele><time>2026-03-22T06:01:46.311Z</time></trkpt><trkpt lat="43.5703703" lon="13.5082969"><ele>46.75</ele><time>2026-03-22T06:01:47.31Z</time></trkpt><trkpt lat="43.5703487" lon="13.5084847"><ele>46.0</ele><time>2026-03-22T06:01:48.31Z</time></trkpt><trkpt lat="43.5703003" lon="13.5086512"><ele>45.66666666666667</ele><time>2026-03-22T06:01:49.31Z</time></trkpt><trkpt lat="43.5702134" lon="13.5088086"><ele>45.333333333333336</ele><time>2026-03-22T06:01:50.309Z</time></trkpt><trkpt lat="43.5700951" lon="13.5089546"><ele>45.0</ele><time>2026-03-22T06:01:51.311Z</time></trkpt><trkpt lat="43.5699655" lon="13.5091117"><ele>45.0</ele><time>2026-03-22T06:01:52.31Z</time></trkpt><trkpt lat="43.5698208" lon="13.5092798"><ele>45.0</ele><time>2026-03-22T06:01:53.31Z</time></trkpt><trkpt lat="43.5696666" lon="13.5094639"><ele>45.0</ele><time>2026-03-22T06:01:54.31Z</time></trkpt><trkpt lat="43.5695055" lon="13.5096565"><ele>46.0</ele><time>2026-03-22T06:01:55.311Z</time></trkpt><trkpt lat="43.5693408" lon="13.5098559"><ele>47.0</ele><time>2026-03-22T06:01:56.31Z</time></trkpt><trkpt lat="43.5691732" lon="13.5100506"><ele>48.0</ele><time>2026-03-22T06:01:57.309Z</time></trkpt><trkpt lat="43.5690061" lon="13.5102517"><ele>47.666666666666664</ele><time>2026-03-22T06:01:58.31Z</time></trkpt><trkpt lat="43.5688452" lon="13.5104452"><ele>47.33333333333333</ele><time>2026-03-22T06:01:59.309Z</time></trkpt><trkpt lat="43.5686678" lon="13.5106296"><ele>47.0</ele><time>2026-03-22T06:02:00.31Z</time></trkpt><trkpt lat="43.5684913" lon="13.5107787"><ele>47.666666666666664</ele><time>2026-03-22T06:02:01.311Z</time></trkpt><trkpt lat="43.5683112" lon="13.5108887"><ele>48.33333333333333</ele><time>2026-03-22T06:02:02.31Z</time></trkpt><trkpt lat="43.5681278" lon="13.5109554"><ele>49.0</ele><time>2026-03-22T06:02:03.31Z</time></trkpt><trkpt lat="43.5679393" lon="13.5109839"><ele>49.0</ele><time>2026-03-22T06:02:04.31Z</time></trkpt><trkpt lat="43.567741" lon="13.5109868"><ele>49.0</ele><time>2026-03-22T06:02:05.311Z</time></trkpt><trkpt lat="43.567539" lon="13.5109772"><ele>49.0</ele><time>2026-03-22T06:02:06.309Z</time></trkpt><trkpt lat="43.5673327" lon="13.5109544"><ele>49.0</ele><time>2026-03-22T06:02:07.31Z</time></trkpt><trkpt lat="43.5671242" lon="13.510941"><ele>49.0</ele><time>2026-03-22T06:02:08.31Z</time></trkpt><trkpt lat="43.5669132" lon="13.5109276"><ele>49.0</ele><time>2026-03-22T06:02:09.31Z</time></trkpt><trkpt lat="43.5666997" lon="13.5109162"><ele>49.33333333333333</ele><time>2026-03-22T06:02:10.31Z</time></trkpt><trkpt lat="43.5664756" lon="13.5109151"><ele>49.66666666666667</ele><time>2026-03-22T06:02:11.31Z</time></trkpt><trkpt lat="43.5662594" lon="13.5109063"><ele>50.0</ele><time>2026-03-22T06:02:12.31Z</time></trkpt><trkpt lat="43.5660305" lon="13.5108957"><ele>48.5</ele><time>2026-03-22T06:02:13.31Z</time></trkpt><trkpt lat="43.5658015" lon="13.5108801"><ele>47.0</ele><time>2026-03-22T06:02:14.311Z</time></trkpt><trkpt lat="43.565573" lon="13.5108704"><ele>46.5</ele><time>2026-03-22T06:02:15.31Z</time></trkpt><trkpt lat="43.5653416" lon="13.5108603"><ele>46.0</ele><time>2026-03-22T06:02:16.311Z</time></trkpt><trkpt lat="43.5651166" lon="13.5108495"><ele>46.0</ele><time>2026-03-22T06:02:17.311Z</time></trkpt><trkpt lat="43.5648857" lon="13.5108409"><ele>46.0</ele><time>2026-03-22T06:02:18.309Z</time></trkpt><trkpt lat="43.5646577" lon="13.5108239"><ele>44.0</ele><time>2026-03-22T06:02:19.31Z</time></trkpt><trkpt lat="43.5644289" lon="13.5107971"><ele>42.0</ele><time>2026-03-22T06:02:20.309Z</time></trkpt><trkpt lat="43.5642013" lon="13.5107784"><ele>42.0</ele><time>2026-03-22T06:02:21.311Z</time></trkpt><trkpt lat="43.5639759" lon="13.5107644"><ele>42.0</ele><time>2026-03-22T06:02:22.309Z</time></trkpt><trkpt lat="43.5637495" lon="13.5107455"><ele>41.666666666666664</ele><time>2026-03-22T06:02:23.311Z</time></trkpt><trkpt lat="43.5635279" lon="13.5107244"><ele>41.33333333333333</ele><time>2026-03-22T06:02:24.311Z</time></trkpt><trkpt lat="43.5633189" lon="13.5107113"><ele>41.0</ele><time>2026-03-22T06:02:25.309Z</time></trkpt><trkpt lat="43.563125" lon="13.5107096"><ele>41.0</ele><time>2026-03-22T06:02:26.31Z</time></trkpt><trkpt lat="43.5629526" lon="13.5107025"><ele>41.0</ele><time>2026-03-22T06:02:27.311Z</time></trkpt><trkpt lat="43.5627855" lon="13.5107058"><ele>41.0</ele><time>2026-03-22T06:02:28.311Z</time></trkpt><trkpt lat="43.5626336" lon="13.5107314"><ele>41.0</ele><time>2026-03-22T06:02:29.311Z</time></trkpt><trkpt lat="43.5624857" lon="13.5107591"><ele>41.0</ele><time>2026-03-22T06:02:30.309Z</time></trkpt><trkpt lat="43.5623621" lon="13.5107716"><ele>41.0</ele><time>2026-03-22T06:02:31.31Z</time></trkpt><trkpt lat="43.5622242" lon="13.5107662"><ele>41.0</ele><time>2026-03-22T06:02:32.309Z</time></trkpt><trkpt lat="43.5620709" lon="13.5107364"><ele>40.666666666666664</ele><time>2026-03-22T06:02:33.31Z</time></trkpt><trkpt lat="43.5619141" lon="13.5107002"><ele>40.333333333333336</ele><time>2026-03-22T06:02:34.31Z</time></trkpt><trkpt lat="43.5617344" lon="13.5106686"><ele>40.0</ele><time>2026-03-22T06:02:35.311Z</time></trkpt><trkpt lat="43.5615618" lon="13.5106344"><ele>40.0</ele><time>2026-03-22T06:02:36.311Z</time></trkpt><trkpt lat="43.5613764" lon="13.5106138"><ele>40.0</ele><time>2026-03-22T06:02:37.31Z</time></trkpt><trkpt lat="43.5611797" lon="13.5105914"><ele>40.0</ele><time>2026-03-22T06:02:38.309Z</time></trkpt><trkpt lat="43.5609822" lon="13.5105719"><ele>40.333333333333336</ele><time>2026-03-22T06:02:39.31Z</time></trkpt><trkpt lat="43.560779" lon="13.5105571"><ele>40.666666666666664</ele><time>2026-03-22T06:02:40.31Z</time></trkpt><trkpt lat="43.5605727" lon="13.5105444"><ele>41.0</ele><time>2026-03-22T06:02:41.31Z</time></trkpt><trkpt lat="43.5603602" lon="13.5105241"><ele>40.0</ele><time>2026-03-22T06:02:42.31Z</time></trkpt><trkpt lat="43.560147" lon="13.5105093"><ele>39.0</ele><time>2026-03-22T06:02:43.31Z</time></trkpt><trkpt lat="43.5599261" lon="13.510501"><ele>38.0</ele><time>2026-03-22T06:02:44.309Z</time></trkpt><trkpt lat="43.5597026" lon="13.5104851"><ele>38.0</ele><time>2026-03-22T06:02:45.311Z</time></trkpt><trkpt lat="43.5594736" lon="13.5104709"><ele>38.0</ele><time>2026-03-22T06:02:46.309Z</time></trkpt><trkpt lat="43.5592454" lon="13.5104549"><ele>38.0</ele><time>2026-03-22T06:02:47.31Z</time></trkpt><trkpt lat="43.5590105" lon="13.5104397"><ele>38.0</ele><time>2026-03-22T06:02:48.31Z</time></trkpt><trkpt lat="43.5587765" lon="13.5104229"><ele>39.5</ele><time>2026-03-22T06:02:49.31Z</time></trkpt><trkpt lat="43.5585389" lon="13.5104075"><ele>41.0</ele><time>2026-03-22T06:02:50.309Z</time></trkpt><trkpt lat="43.5583088" lon="13.5103995"><ele>41.0</ele><time>2026-03-22T06:02:51.309Z</time></trkpt><trkpt lat="43.5580766" lon="13.5103917"><ele>41.0</ele><time>2026-03-22T06:02:52.31Z</time></trkpt><trkpt lat="43.5578398" lon="13.5103829"><ele>40.5</ele><time>2026-03-22T06:02:53.309Z</time></trkpt><trkpt lat="43.557609" lon="13.5103604"><ele>40.0</ele><time>2026-03-22T06:02:54.31Z</time></trkpt><trkpt lat="43.5573854" lon="13.5103439"><ele>40.0</ele><time>2026-03-22T06:02:55.31Z</time></trkpt><trkpt lat="43.5571573" lon="13.5103368"><ele>40.0</ele><time>2026-03-22T06:02:56.309Z</time></trkpt><trkpt lat="43.5569283" lon="13.5103163"><ele>40.0</ele><time>2026-03-22T06:02:57.309Z</time></trkpt><trkpt lat="43.5566905" lon="13.5103077"><ele>40.0</ele><time>2026-03-22T06:02:58.31Z</time></trkpt><trkpt lat="43.5564553" lon="13.5102879"><ele>40.0</ele><time>2026-03-22T06:02:59.31Z</time></trkpt><trkpt lat="43.5562162" lon="13.5102734"><ele>40.0</ele><time>2026-03-22T06:03:00.31Z</time></trkpt><trkpt lat="43.5559731" lon="13.5102643"><ele>40.5</ele><time>2026-03-22T06:03:01.309Z</time></trkpt><trkpt lat="43.5557347" lon="13.5102502"><ele>41.0</ele><time>2026-03-22T06:03:02.31Z</time></trkpt><trkpt lat="43.5554941" lon="13.510235"><ele>40.5</ele><time>2026-03-22T06:03:03.31Z</time></trkpt><trkpt lat="43.5552507" lon="13.5102228"><ele>40.0</ele><time>2026-03-22T06:03:04.31Z</time></trkpt><trkpt lat="43.5550005" lon="13.510211"><ele>40.0</ele><time>2026-03-22T06:03:05.31Z</time></trkpt><trkpt lat="43.5547548" lon="13.5101908"><ele>40.0</ele><time>2026-03-22T06:03:06.31Z</time></trkpt><trkpt lat="43.5545095" lon="13.5101664"><ele>39.0</ele><time>2026-03-22T06:03:07.31Z</time></trkpt><trkpt lat="43.5542652" lon="13.5101431"><ele>38.0</ele><time>2026-03-22T06:03:08.311Z</time></trkpt><trkpt lat="43.5540157" lon="13.5101286"><ele>38.0</ele><time>2026-03-22T06:03:09.311Z</time></trkpt><trkpt lat="43.5537682" lon="13.5101115"><ele>38.0</ele><time>2026-03-22T06:03:10.311Z</time></trkpt><trkpt lat="43.5535236" lon="13.5100955"><ele>37.5</ele><time>2026-03-22T06:03:11.31Z</time></trkpt><trkpt lat="43.5532818" lon="13.5100779"><ele>37.0</ele><time>2026-03-22T06:03:12.31Z</time></trkpt><trkpt lat="43.5530317" lon="13.5100708"><ele>36.5</ele><time>2026-03-22T06:03:13.31Z</time></trkpt><trkpt lat="43.552787" lon="13.5100579"><ele>36.0</ele><time>2026-03-22T06:03:14.311Z</time></trkpt><trkpt lat="43.5525369" lon="13.5100525"><ele>36.0</ele><time>2026-03-22T06:03:15.309Z</time></trkpt><trkpt lat="43.5522914" lon="13.5100406"><ele>36.0</ele><time>2026-03-22T06:03:16.31Z</time></trkpt><trkpt lat="43.5520454" lon="13.5100359"><ele>35.5</ele><time>2026-03-22T06:03:17.311Z</time></trkpt><trkpt lat="43.5517937" lon="13.5100289"><ele>35.0</ele><time>2026-03-22T06:03:18.31Z</time></trkpt><trkpt lat="43.5515407" lon="13.5100279"><ele>35.0</ele><time>2026-03-22T06:03:19.31Z</time></trkpt><trkpt lat="43.5512896" lon="13.5100143"><ele>35.0</ele><time>2026-03-22T06:03:20.31Z</time></trkpt><trkpt lat="43.5510375" lon="13.5100027"><ele>34.5</ele><time>2026-03-22T06:03:21.31Z</time></trkpt><trkpt lat="43.5507889" lon="13.5099843"><ele>34.0</ele><time>2026-03-22T06:03:22.31Z</time></trkpt><trkpt lat="43.5505396" lon="13.5099506"><ele>34.5</ele><time>2026-03-22T06:03:23.309Z</time></trkpt><trkpt lat="43.5502886" lon="13.5099136"><ele>35.0</ele><time>2026-03-22T06:03:24.31Z</time></trkpt><trkpt lat="43.5500353" lon="13.509882"><ele>35.0</ele><time>2026-03-22T06:03:25.309Z</time></trkpt><trkpt lat="43.5497833" lon="13.5098493"><ele>35.0</ele><time>2026-03-22T06:03:26.311Z</time></trkpt><trkpt lat="43.5495303" lon="13.5098347"><ele>34.0</ele><time>2026-03-22T06:03:27.311Z</time></trkpt><trkpt lat="43.5492896" lon="13.50982"><ele>33.0</ele><time>2026-03-22T06:03:28.311Z</time></trkpt><trkpt lat="43.5490582" lon="13.5098027"><ele>33.0</ele><time>2026-03-22T06:03:29.311Z</time></trkpt><trkpt lat="43.5488373" lon="13.5097884"><ele>33.0</ele><time>2026-03-22T06:03:30.309Z</time></trkpt><trkpt lat="43.5486177" lon="13.5097747"><ele>33.0</ele><time>2026-03-22T06:03:31.311Z</time></trkpt><trkpt lat="43.5484043" lon="13.5097634"><ele>33.333333333333336</ele><time>2026-03-22T06:03:32.31Z</time></trkpt><trkpt lat="43.5481912" lon="13.5097479"><ele>33.66666666666667</ele><time>2026-03-22T06:03:33.31Z</time></trkpt><trkpt lat="43.5479863" lon="13.5097346"><ele>34.0</ele><time>2026-03-22T06:03:34.311Z</time></trkpt><trkpt lat="43.5477869" lon="13.5097237"><ele>34.0</ele><time>2026-03-22T06:03:35.311Z</time></trkpt><trkpt lat="43.5475999" lon="13.5097021"><ele>34.0</ele><time>2026-03-22T06:03:36.311Z</time></trkpt><trkpt lat="43.5474074" lon="13.5096978"><ele>34.0</ele><time>2026-03-22T06:03:37.31Z</time></trkpt><trkpt lat="43.5472286" lon="13.5096863"><ele>34.0</ele><time>2026-03-22T06:03:38.311Z</time></trkpt><trkpt lat="43.5470485" lon="13.5096781"><ele>34.0</ele><time>2026-03-22T06:03:39.309Z</time></trkpt><trkpt lat="43.5468716" lon="13.509666"><ele>34.0</ele><time>2026-03-22T06:03:40.31Z</time></trkpt><trkpt lat="43.5466903" lon="13.5096609"><ele>33.66666666666667</ele><time>2026-03-22T06:03:41.311Z</time></trkpt><trkpt lat="43.5465128" lon="13.5096539"><ele>33.333333333333336</ele><time>2026-03-22T06:03:42.31Z</time></trkpt><trkpt lat="43.5463466" lon="13.5096489"><ele>33.0</ele><time>2026-03-22T06:03:43.31Z</time></trkpt><trkpt lat="43.5461937" lon="13.5096406"><ele>33.0</ele><time>2026-03-22T06:03:44.31Z</time></trkpt><trkpt lat="43.5460363" lon="13.5096312"><ele>33.0</ele><time>2026-03-22T06:03:45.31Z</time></trkpt><trkpt lat="43.5458811" lon="13.509619"><ele>33.0</ele><time>2026-03-22T06:03:46.309Z</time></trkpt><trkpt lat="43.5457311" lon="13.5096122"><ele>33.0</ele><time>2026-03-22T06:03:47.31Z</time></trkpt><trkpt lat="43.545582" lon="13.5096041"><ele>33.0</ele><time>2026-03-22T06:03:48.311Z</time></trkpt><trkpt lat="43.545435" lon="13.5095898"><ele>33.0</ele><time>2026-03-22T06:03:49.31Z</time></trkpt><trkpt lat="43.5452877" lon="13.5095887"><ele>33.0</ele><time>2026-03-22T06:03:50.31Z</time></trkpt><trkpt lat="43.5451397" lon="13.5095774"><ele>32.333333333333336</ele><time>2026-03-22T06:03:51.31Z</time></trkpt><trkpt lat="43.5449905" lon="13.5095673"><ele>31.666666666666668</ele><time>2026-03-22T06:03:52.311Z</time></trkpt><trkpt lat="43.5448393" lon="13.5095526"><ele>31.0</ele><time>2026-03-22T06:03:53.311Z</time></trkpt><trkpt lat="43.5446763" lon="13.5095561"><ele>31.333333333333336</ele><time>2026-03-22T06:03:54.311Z</time></trkpt><trkpt lat="43.5445052" lon="13.5095468"><ele>31.666666666666664</ele><time>2026-03-22T06:03:55.311Z</time></trkpt><trkpt lat="43.5443263" lon="13.5095373"><ele>32.0</ele><time>2026-03-22T06:03:56.311Z</time></trkpt><trkpt lat="43.5441415" lon="13.5095276"><ele>32.0</ele><time>2026-03-22T06:03:57.311Z</time></trkpt><trkpt lat="43.5439506" lon="13.5095167"><ele>32.0</ele><time>2026-03-22T06:03:58.311Z</time></trkpt><trkpt lat="43.5437523" lon="13.5095025"><ele>32.0</ele><time>2026-03-22T06:03:59.31Z</time></trkpt><trkpt lat="43.5435454" lon="13.5094919"><ele>32.0</ele><time>2026-03-22T06:04:00.311Z</time></trkpt><trkpt lat="43.5433327" lon="13.5094858"><ele>32.0</ele><time>2026-03-22T06:04:01.31Z</time></trkpt><trkpt lat="43.5431191" lon="13.5094741"><ele>32.0</ele><time>2026-03-22T06:04:02.311Z</time></trkpt><trkpt lat="43.5429002" lon="13.5094721"><ele>32.33333333333333</ele><time>2026-03-22T06:04:03.31Z</time></trkpt><trkpt lat="43.5426799" lon="13.5094643"><ele>32.666666666666664</ele><time>2026-03-22T06:04:04.31Z</time></trkpt><trkpt lat="43.5424611" lon="13.5094591"><ele>33.0</ele><time>2026-03-22T06:04:05.31Z</time></trkpt><trkpt lat="43.5422302" lon="13.5094508"><ele>33.5</ele><time>2026-03-22T06:04:06.31Z</time></trkpt><trkpt lat="43.5420011" lon="13.5094349"><ele>34.0</ele><time>2026-03-22T06:04:07.31Z</time></trkpt><trkpt lat="43.5417729" lon="13.5094072"><ele>34.0</ele><time>2026-03-22T06:04:08.31Z</time></trkpt><trkpt lat="43.5415372" lon="13.5093981"><ele>34.0</ele><time>2026-03-22T06:04:09.31Z</time></trkpt><trkpt lat="43.5413035" lon="13.5093707"><ele>34.0</ele><time>2026-03-22T06:04:10.311Z</time></trkpt><trkpt lat="43.5410703" lon="13.5093561"><ele>34.0</ele><time>2026-03-22T06:04:11.31Z</time></trkpt><trkpt lat="43.5408378" lon="13.5093462"><ele>34.0</ele><time>2026-03-22T06:04:12.31Z</time></trkpt><trkpt lat="43.5406044" lon="13.5093265"><ele>34.0</ele><time>2026-03-22T06:04:13.311Z</time></trkpt><trkpt lat="43.5403653" lon="13.5093153"><ele>33.5</ele><time>2026-03-22T06:04:14.311Z</time></trkpt><trkpt lat="43.540129" lon="13.5093014"><ele>33.0</ele><time>2026-03-22T06:04:15.309Z</time></trkpt><trkpt lat="43.5398937" lon="13.5092853"><ele>33.0</ele><time>2026-03-22T06:04:16.31Z</time></trkpt><trkpt lat="43.5396613" lon="13.5092753"><ele>33.0</ele><time>2026-03-22T06:04:17.31Z</time></trkpt><trkpt lat="43.5394283" lon="13.5092642"><ele>33.0</ele><time>2026-03-22T06:04:18.31Z</time></trkpt><trkpt lat="43.5391952" lon="13.5092549"><ele>33.0</ele><time>2026-03-22T06:04:19.311Z</time></trkpt><trkpt lat="43.538964" lon="13.5092438"><ele>33.0</ele><time>2026-03-22T06:04:20.31Z</time></trkpt><trkpt lat="43.5387343" lon="13.5092298"><ele>33.0</ele><time>2026-03-22T06:04:21.311Z</time></trkpt><trkpt lat="43.5384946" lon="13.5092151"><ele>33.5</ele><time>2026-03-22T06:04:22.309Z</time></trkpt><trkpt lat="43.5382547" lon="13.5092038"><ele>34.0</ele><time>2026-03-22T06:04:23.31Z</time></trkpt><trkpt lat="43.5380148" lon="13.509187"><ele>33.5</ele><time>2026-03-22T06:04:24.31Z</time></trkpt><trkpt lat="43.5377784" lon="13.5091703"><ele>33.0</ele><time>2026-03-22T06:04:25.31Z</time></trkpt><trkpt lat="43.5375414" lon="13.5091491"><ele>33.0</ele><time>2026-03-22T06:04:26.309Z</time></trkpt><trkpt lat="43.537305" lon="13.509126"><ele>33.0</ele><time>2026-03-22T06:04:27.31Z</time></trkpt><trkpt lat="43.537072" lon="13.509108"><ele>34.5</ele><time>2026-03-22T06:04:28.31Z</time></trkpt><trkpt lat="43.5368407" lon="13.5090912"><ele>36.0</ele><time>2026-03-22T06:04:29.311Z</time></trkpt><trkpt lat="43.5366127" lon="13.5090826"><ele>36.0</ele><time>2026-03-22T06:04:30.309Z</time></trkpt><trkpt lat="43.5363848" lon="13.5090743"><ele>36.0</ele><time>2026-03-22T06:04:31.31Z</time></trkpt><trkpt lat="43.5361621" lon="13.5090668"><ele>36.666666666666664</ele><time>2026-03-22T06:04:32.31Z</time></trkpt><trkpt lat="43.5359491" lon="13.5090588"><ele>37.33333333333333</ele><time>2026-03-22T06:04:33.31Z</time></trkpt><trkpt lat="43.535738" lon="13.509047"><ele>38.0</ele><time>2026-03-22T06:04:34.311Z</time></trkpt><trkpt lat="43.5355482" lon="13.5090389"><ele>38.0</ele><time>2026-03-22T06:04:35.31Z</time></trkpt><trkpt lat="43.5353709" lon="13.5090145"><ele>38.0</ele><time>2026-03-22T06:04:36.31Z</time></trkpt><trkpt lat="43.535203" lon="13.5089582"><ele>38.0</ele><time>2026-03-22T06:04:37.31Z</time></trkpt><trkpt lat="43.5350575" lon="13.5088546"><ele>41.33333333333333</ele><time>2026-03-22T06:04:38.31Z</time></trkpt><trkpt lat="43.5349181" lon="13.5087267"><ele>44.666666666666664</ele><time>2026-03-22T06:04:39.31Z</time></trkpt><trkpt lat="43.5348164" lon="13.5085227"><ele>48.0</ele><time>2026-03-22T06:04:40.31Z</time></trkpt><trkpt lat="43.5347186" lon="13.5083169"><ele>48.0</ele><time>2026-03-22T06:04:41.311Z</time></trkpt><trkpt lat="43.534636" lon="13.508092"><ele>48.0</ele><time>2026-03-22T06:04:42.311Z</time></trkpt><trkpt lat="43.5345635" lon="13.5078517"><ele>48.0</ele><time>2026-03-22T06:04:43.31Z</time></trkpt><trkpt lat="43.5344942" lon="13.5076058"><ele>47.0</ele><time>2026-03-22T06:04:44.309Z</time></trkpt><trkpt lat="43.5344366" lon="13.507351"><ele>46.0</ele><time>2026-03-22T06:04:45.31Z</time></trkpt><trkpt lat="43.5343876" lon="13.5071021"><ele>45.0</ele><time>2026-03-22T06:04:46.31Z</time></trkpt><trkpt lat="43.5343457" lon="13.5068488"><ele>45.0</ele><time>2026-03-22T06:04:47.31Z</time></trkpt><trkpt lat="43.5343021" lon="13.5066022"><ele>45.0</ele><time>2026-03-22T06:04:48.31Z</time></trkpt><trkpt lat="43.5342614" lon="13.5063616"><ele>45.0</ele><time>2026-03-22T06:04:49.31Z</time></trkpt><trkpt lat="43.5342176" lon="13.5061379"><ele>45.5</ele><time>2026-03-22T06:04:50.31Z</time></trkpt><trkpt lat="43.5341674" lon="13.5059332"><ele>46.0</ele><time>2026-03-22T06:04:51.311Z</time></trkpt><trkpt lat="43.5341076" lon="13.5057513"><ele>46.5</ele><time>2026-03-22T06:04:52.31Z</time></trkpt><trkpt lat="43.53404" lon="13.5055887"><ele>47.0</ele><time>2026-03-22T06:04:53.31Z</time></trkpt><trkpt lat="43.5339716" lon="13.5054455"><ele>47.25</ele><time>2026-03-22T06:04:54.311Z</time></trkpt><trkpt lat="43.5339117" lon="13.5053102"><ele>47.5</ele><time>2026-03-22T06:04:55.311Z</time></trkpt><trkpt lat="43.5338557" lon="13.5051707"><ele>47.75</ele><time>2026-03-22T06:04:56.309Z</time></trkpt><trkpt lat="43.5338241" lon="13.5050201"><ele>48.0</ele><time>2026-03-22T06:04:57.31Z</time></trkpt><trkpt lat="43.5338162" lon="13.5048571"><ele>48.0</ele><time>2026-03-22T06:04:58.31Z</time></trkpt><trkpt lat="43.5338254" lon="13.5046804"><ele>48.0</ele><time>2026-03-22T06:04:59.31Z</time></trkpt><trkpt lat="43.533875" lon="13.5044795"><ele>48.0</ele><time>2026-03-22T06:05:00.309Z</time></trkpt><trkpt lat="43.533917" lon="13.5042643"><ele>48.0</ele><time>2026-03-22T06:05:01.31Z</time></trkpt><trkpt lat="43.5339596" lon="13.504045"><ele>48.0</ele><time>2026-03-22T06:05:02.311Z</time></trkpt><trkpt lat="43.5339916" lon="13.5037993"><ele>48.0</ele><time>2026-03-22T06:05:03.311Z</time></trkpt><trkpt lat="43.5340247" lon="13.5035654"><ele>48.0</ele><time>2026-03-22T06:05:04.311Z</time></trkpt><trkpt lat="43.5340554" lon="13.5033452"><ele>47.0</ele><time>2026-03-22T06:05:05.31Z</time></trkpt><trkpt lat="43.5340834" lon="13.5031282"><ele>46.0</ele><time>2026-03-22T06:05:06.311Z</time></trkpt><trkpt lat="43.5341038" lon="13.5029178"><ele>45.0</ele><time>2026-03-22T06:05:07.311Z</time></trkpt><trkpt lat="43.5341209" lon="13.5027185"><ele>44.2</ele><time>2026-03-22T06:05:08.31Z</time></trkpt><trkpt lat="43.5341224" lon="13.5025308"><ele>43.4</ele><time>2026-03-22T06:05:09.311Z</time></trkpt><trkpt lat="43.534122" lon="13.5023641"><ele>42.599999999999994</ele><time>2026-03-22T06:05:10.31Z</time></trkpt><trkpt lat="43.5341195" lon="13.502232"><ele>41.8</ele><time>2026-03-22T06:05:11.31Z</time></trkpt><trkpt lat="43.534116" lon="13.5021251"><ele>41.0</ele><time>2026-03-22T06:05:12.31Z</time></trkpt><trkpt lat="43.5341178" lon="13.5019996"><ele>40.5</ele><time>2026-03-22T06:05:13.31Z</time></trkpt><trkpt lat="43.534125" lon="13.5018471"><ele>40.0</ele><time>2026-03-22T06:05:14.31Z</time></trkpt><trkpt lat="43.5341445" lon="13.5016677"><ele>39.5</ele><time>2026-03-22T06:05:15.31Z</time></trkpt><trkpt lat="43.5341849" lon="13.5014729"><ele>39.0</ele><time>2026-03-22T06:05:16.311Z</time></trkpt><trkpt lat="43.5342363" lon="13.5012732"><ele>39.5</ele><time>2026-03-22T06:05:17.311Z</time></trkpt><trkpt lat="43.534284" lon="13.5010847"><ele>40.0</ele><time>2026-03-22T06:05:18.31Z</time></trkpt><trkpt lat="43.534321" lon="13.5009232"><ele>40.5</ele><time>2026-03-22T06:05:19.309Z</time></trkpt><trkpt lat="43.5343501" lon="13.5007631"><ele>41.0</ele><time>2026-03-22T06:05:20.31Z</time></trkpt><trkpt lat="43.5343519" lon="13.5006128"><ele>41.0</ele><time>2026-03-22T06:05:21.31Z</time></trkpt><trkpt lat="43.5343212" lon="13.5004811"><ele>41.0</ele><time>2026-03-22T06:05:22.31Z</time></trkpt><trkpt lat="43.5342658" lon="13.5003664"><ele>41.0</ele><time>2026-03-22T06:05:23.31Z</time></trkpt><trkpt lat="43.5341845" lon="13.5002756"><ele>41.0</ele><time>2026-03-22T06:05:24.309Z</time></trkpt><trkpt lat="43.5340768" lon="13.5002208"><ele>41.0</ele><time>2026-03-22T06:05:25.311Z</time></trkpt><trkpt lat="43.5339621" lon="13.5001841"><ele>40.5</ele><time>2026-03-22T06:05:26.311Z</time></trkpt><trkpt lat="43.5338318" lon="13.5001606"><ele>40.0</ele><time>2026-03-22T06:05:27.311Z</time></trkpt><trkpt lat="43.5336976" lon="13.5001535"><ele>39.5</ele><time>2026-03-22T06:05:28.311Z</time></trkpt><trkpt lat="43.5335756" lon="13.5001945"><ele>39.0</ele><time>2026-03-22T06:05:29.31Z</time></trkpt><trkpt lat="43.5334624" lon="13.5002749"><ele>38.75</ele><time>2026-03-22T06:05:30.311Z</time></trkpt><trkpt lat="43.5333819" lon="13.5003871"><ele>38.5</ele><time>2026-03-22T06:05:31.311Z</time></trkpt><trkpt lat="43.5333334" lon="13.5005299"><ele>38.25</ele><time>2026-03-22T06:05:32.309Z</time></trkpt><trkpt lat="43.533304" lon="13.5006872"><ele>38.0</ele><time>2026-03-22T06:05:33.31Z</time></trkpt><trkpt lat="43.5332776" lon="13.5008305"><ele>38.0</ele><time>2026-03-22T06:05:34.311Z</time></trkpt><trkpt lat="43.5332391" lon="13.5009408"><ele>38.0</ele><time>2026-03-22T06:05:35.311Z</time></trkpt><trkpt lat="43.5331904" lon="13.5010318"><ele>38.0</ele><time>2026-03-22T06:05:36.311Z</time></trkpt><trkpt lat="43.5331062" lon="13.5010655"><ele>38.0</ele><time>2026-03-22T06:05:37.309Z</time></trkpt><trkpt lat="43.5330279" lon="13.5010616"><ele>38.0</ele><time>2026-03-22T06:05:38.31Z</time></trkpt><trkpt lat="43.532948" lon="13.5010048"><ele>38.0</ele><time>2026-03-22T06:05:39.31Z</time></trkpt><trkpt lat="43.5328579" lon="13.5009287"><ele>37.25</ele><time>2026-03-22T06:05:40.311Z</time></trkpt><trkpt lat="43.532758" lon="13.5008449"><ele>36.5</ele><time>2026-03-22T06:05:41.311Z</time></trkpt><trkpt lat="43.5326422" lon="13.5007594"><ele>35.75</ele><time>2026-03-22T06:05:42.31Z</time></trkpt><trkpt lat="43.5325113" lon="13.5006857"><ele>35.0</ele><time>2026-03-22T06:05:43.311Z</time></trkpt><trkpt lat="43.5323728" lon="13.5006194"><ele>35.0</ele><time>2026-03-22T06:05:44.311Z</time></trkpt><trkpt lat="43.5322315" lon="13.5005636"><ele>35.0</ele><time>2026-03-22T06:05:45.31Z</time></trkpt><trkpt lat="43.5320807" lon="13.5005443"><ele>35.0</ele><time>2026-03-22T06:05:46.311Z</time></trkpt><trkpt lat="43.5319164" lon="13.500547"><ele>35.33333333333333</ele><time>2026-03-22T06:05:47.311Z</time></trkpt><trkpt lat="43.5317568" lon="13.5005365"><ele>35.666666666666664</ele><time>2026-03-22T06:05:48.311Z</time></trkpt><trkpt lat="43.5315904" lon="13.500527"><ele>36.0</ele><time>2026-03-22T06:05:49.311Z</time></trkpt><trkpt lat="43.5314239" lon="13.5005228"><ele>36.0</ele><time>2026-03-22T06:05:50.31Z</time></trkpt><trkpt lat="43.5312459" lon="13.5005252"><ele>36.0</ele><time>2026-03-22T06:05:51.311Z</time></trkpt><trkpt lat="43.5310704" lon="13.5005171"><ele>36.0</ele><time>2026-03-22T06:05:52.311Z</time></trkpt><trkpt lat="43.5308901" lon="13.5005026"><ele>36.666666666666664</ele><time>2026-03-22T06:05:53.311Z</time></trkpt><trkpt lat="43.5307116" lon="13.5004773"><ele>37.33333333333333</ele><time>2026-03-22T06:05:54.311Z</time></trkpt><trkpt lat="43.530535" lon="13.5004437"><ele>38.0</ele><time>2026-03-22T06:05:55.311Z</time></trkpt><trkpt lat="43.5303587" lon="13.5004162"><ele>40.33333333333333</ele><time>2026-03-22T06:05:56.311Z</time></trkpt><trkpt lat="43.5301784" lon="13.5003909"><ele>42.666666666666664</ele><time>2026-03-22T06:05:57.311Z</time></trkpt><trkpt lat="43.5299974" lon="13.5003718"><ele>45.0</ele><time>2026-03-22T06:05:58.311Z</time></trkpt><trkpt lat="43.5298122" lon="13.5003618"><ele>45.0</ele><time>2026-03-22T06:05:59.311Z</time></trkpt><trkpt lat="43.5296278" lon="13.5003519"><ele>45.0</ele><time>2026-03-22T06:06:00.311Z</time></trkpt><trkpt lat="43.5294403" lon="13.5003547"><ele>45.0</ele><time>2026-03-22T06:06:01.311Z</time></trkpt><trkpt lat="43.5292537" lon="13.5003574"><ele>49.0</ele><time>2026-03-22T06:06:02.31Z</time></trkpt><trkpt lat="43.5290662" lon="13.5003573"><ele>53.0</ele><time>2026-03-22T06:06:03.311Z</time></trkpt><trkpt lat="43.5288753" lon="13.5003579"><ele>57.0</ele><time>2026-03-22T06:06:04.311Z</time></trkpt><trkpt lat="43.5286863" lon="13.5003571"><ele>59.33333333333333</ele><time>2026-03-22T06:06:05.31Z</time></trkpt><trkpt lat="43.5284912" lon="13.5003585"><ele>61.666666666666664</ele><time>2026-03-22T06:06:06.31Z</time></trkpt><trkpt lat="43.528291" lon="13.5003578"><ele>64.0</ele><time>2026-03-22T06:06:07.31Z</time></trkpt><trkpt lat="43.5280881" lon="13.5003633"><ele>66.66666666666666</ele><time>2026-03-22T06:06:08.31Z</time></trkpt><trkpt lat="43.5278853" lon="13.5003646"><ele>69.33333333333333</ele><time>2026-03-22T06:06:09.31Z</time></trkpt><trkpt lat="43.5276888" lon="13.5003681"><ele>72.0</ele><time>2026-03-22T06:06:10.311Z</time></trkpt><trkpt lat="43.5274878" lon="13.5003775"><ele>72.0</ele><time>2026-03-22T06:06:11.311Z</time></trkpt><trkpt lat="43.5272906" lon="13.5003753"><ele>72.0</ele><time>2026-03-22T06:06:12.31Z</time></trkpt><trkpt lat="43.5270989" lon="13.5003732"><ele>72.0</ele><time>2026-03-22T06:06:13.31Z</time></trkpt><trkpt lat="43.5269141" lon="13.5003704"><ele>73.0</ele><time>2026-03-22T06:06:14.31Z</time></trkpt><trkpt lat="43.5267422" lon="13.5003662"><ele>74.0</ele><time>2026-03-22T06:06:15.31Z</time></trkpt><trkpt lat="43.526587" lon="13.5003697"><ele>75.0</ele><time>2026-03-22T06:06:16.311Z</time></trkpt><trkpt lat="43.5264377" lon="13.5003771"><ele>75.0</ele><time>2026-03-22T06:06:17.31Z</time></trkpt><trkpt lat="43.5263057" lon="13.5003928"><ele>75.0</ele><time>2026-03-22T06:06:18.311Z</time></trkpt><trkpt lat="43.5261681" lon="13.5004081"><ele>75.0</ele><time>2026-03-22T06:06:19.311Z</time></trkpt><trkpt lat="43.5260205" lon="13.5004091"><ele>75.0</ele><time>2026-03-22T06:06:20.311Z</time></trkpt><trkpt lat="43.5258689" lon="13.5003906"><ele>75.66666666666667</ele><time>2026-03-22T06:06:21.311Z</time></trkpt><trkpt lat="43.5257129" lon="13.5003284"><ele>76.33333333333334</ele><time>2026-03-22T06:06:22.311Z</time></trkpt><trkpt lat="43.5255632" lon="13.5002265"><ele>77.0</ele><time>2026-03-22T06:06:23.31Z</time></trkpt><trkpt lat="43.5254138" lon="13.5000918"><ele>80.0</ele><time>2026-03-22T06:06:24.311Z</time></trkpt><trkpt lat="43.5252675" lon="13.4999415"><ele>83.0</ele><time>2026-03-22T06:06:25.31Z</time></trkpt><trkpt lat="43.5251192" lon="13.4997924"><ele>86.0</ele><time>2026-03-22T06:06:26.311Z</time></trkpt><trkpt lat="43.5249714" lon="13.4996383"><ele>84.66666666666667</ele><time>2026-03-22T06:06:27.311Z</time></trkpt><trkpt lat="43.5248251" lon="13.4994851"><ele>83.33333333333333</ele><time>2026-03-22T06:06:28.311Z</time></trkpt><trkpt lat="43.5246795" lon="13.4993345"><ele>82.0</ele><time>2026-03-22T06:06:29.31Z</time></trkpt><trkpt lat="43.5245402" lon="13.4991784"><ele>86.0</ele><time>2026-03-22T06:06:30.31Z</time></trkpt><trkpt lat="43.5244081" lon="13.4990285"><ele>90.0</ele><time>2026-03-22T06:06:31.311Z</time></trkpt><trkpt lat="43.5242827" lon="13.4988812"><ele>94.0</ele><time>2026-03-22T06:06:32.311Z</time></trkpt><trkpt lat="43.5241624" lon="13.4987434"><ele>94.0</ele><time>2026-03-22T06:06:33.311Z</time></trkpt><trkpt lat="43.5240442" lon="13.4986082"><ele>94.0</ele><time>2026-03-22T06:06:34.311Z</time></trkpt><trkpt lat="43.5239279" lon="13.4984842"><ele>94.0</ele><time>2026-03-22T06:06:35.31Z</time></trkpt><trkpt lat="43.5238182" lon="13.4983645"><ele>94.0</ele><time>2026-03-22T06:06:36.31Z</time></trkpt><trkpt lat="43.5237151" lon="13.4982562"><ele>96.0</ele><time>2026-03-22T06:06:37.31Z</time></trkpt><trkpt lat="43.5236198" lon="13.4981567"><ele>98.0</ele><time>2026-03-22T06:06:38.311Z</time></trkpt><trkpt lat="43.523534" lon="13.4980683"><ele>100.0</ele><time>2026-03-22T06:06:39.31Z</time></trkpt><trkpt lat="43.5234457" lon="13.4979963"><ele>102.0</ele><time>2026-03-22T06:06:40.311Z</time></trkpt><trkpt lat="43.5233589" lon="13.4979423"><ele>104.0</ele><time>2026-03-22T06:06:41.311Z</time></trkpt><trkpt lat="43.5232693" lon="13.4979084"><ele>104.5</ele><time>2026-03-22T06:06:42.31Z</time></trkpt><trkpt lat="43.5231634" lon="13.4978874"><ele>105.0</ele><time>2026-03-22T06:06:43.31Z</time></trkpt><trkpt lat="43.5230405" lon="13.4978726"><ele>105.5</ele><time>2026-03-22T06:06:44.31Z</time></trkpt><trkpt lat="43.5229185" lon="13.4978664"><ele>106.0</ele><time>2026-03-22T06:06:45.311Z</time></trkpt><trkpt lat="43.5227898" lon="13.4978634"><ele>105.0</ele><time>2026-03-22T06:06:46.311Z</time></trkpt><trkpt lat="43.5226569" lon="13.4978579"><ele>104.0</ele><time>2026-03-22T06:06:47.311Z</time></trkpt><trkpt lat="43.5225203" lon="13.49786"><ele>103.0</ele><time>2026-03-22T06:06:48.311Z</time></trkpt><trkpt lat="43.5223872" lon="13.4978577"><ele>102.0</ele><time>2026-03-22T06:06:49.311Z</time></trkpt><trkpt lat="43.5222575" lon="13.4978623"><ele>102.0</ele><time>2026-03-22T06:06:50.31Z</time></trkpt><trkpt lat="43.5221336" lon="13.4978638"><ele>102.0</ele><time>2026-03-22T06:06:51.31Z</time></trkpt><trkpt lat="43.5220075" lon="13.4978636"><ele>102.0</ele><time>2026-03-22T06:06:52.312Z</time></trkpt><trkpt lat="43.5218765" lon="13.4978653"><ele>102.0</ele><time>2026-03-22T06:06:53.31Z</time></trkpt><trkpt lat="43.5217482" lon="13.497866"><ele>99.5</ele><time>2026-03-22T06:06:54.312Z</time></trkpt><trkpt lat="43.5216213" lon="13.4978643"><ele>97.0</ele><time>2026-03-22T06:06:55.31Z</time></trkpt><trkpt lat="43.5214962" lon="13.497861"><ele>94.5</ele><time>2026-03-22T06:06:56.311Z</time></trkpt><trkpt lat="43.5213758" lon="13.4978521"><ele>92.0</ele><time>2026-03-22T06:06:57.311Z</time></trkpt><trkpt lat="43.521252" lon="13.4978568"><ele>89.5</ele><time>2026-03-22T06:06:58.31Z</time></trkpt><trkpt lat="43.5211294" lon="13.4978643"><ele>87.0</ele><time>2026-03-22T06:06:59.31Z</time></trkpt><trkpt lat="43.521006" lon="13.4978735"><ele>84.5</ele><time>2026-03-22T06:07:00.311Z</time></trkpt><trkpt lat="43.5208827" lon="13.4978759"><ele>82.0</ele><time>2026-03-22T06:07:01.311Z</time></trkpt><trkpt lat="43.520762" lon="13.4978796"><ele>82.0</ele><time>2026-03-22T06:07:02.311Z</time></trkpt><trkpt lat="43.5206373" lon="13.4978915"><ele>82.0</ele><time>2026-03-22T06:07:03.311Z</time></trkpt><trkpt lat="43.5205168" lon="13.4978945"><ele>82.0</ele><time>2026-03-22T06:07:04.311Z</time></trkpt><trkpt lat="43.5203941" lon="13.4978948"><ele>82.0</ele><time>2026-03-22T06:07:05.311Z</time></trkpt><trkpt lat="43.5202664" lon="13.4978928"><ele>80.5</ele><time>2026-03-22T06:07:06.311Z</time></trkpt><trkpt lat="43.5201398" lon="13.4978989"><ele>79.0</ele><time>2026-03-22T06:07:07.311Z</time></trkpt><trkpt lat="43.5200093" lon="13.4979021"><ele>77.5</ele><time>2026-03-22T06:07:08.311Z</time></trkpt><trkpt lat="43.5198787" lon="13.4979079"><ele>76.0</ele><time>2026-03-22T06:07:09.31Z</time></trkpt><trkpt lat="43.5197447" lon="13.4979152"><ele>76.0</ele><time>2026-03-22T06:07:10.311Z</time></trkpt><trkpt lat="43.5196161" lon="13.4979169"><ele>76.0</ele><time>2026-03-22T06:07:11.311Z</time></trkpt><trkpt lat="43.5194825" lon="13.4979195"><ele>76.0</ele><time>2026-03-22T06:07:12.311Z</time></trkpt><trkpt lat="43.5193516" lon="13.497926"><ele>76.0</ele><time>2026-03-22T06:07:13.311Z</time></trkpt><trkpt lat="43.5192213" lon="13.4979256"><ele>76.25</ele><time>2026-03-22T06:07:14.31Z</time></trkpt><trkpt lat="43.5190895" lon="13.4979211"><ele>76.5</ele><time>2026-03-22T06:07:15.311Z</time></trkpt><trkpt lat="43.5189581" lon="13.4979158"><ele>76.75</ele><time>2026-03-22T06:07:16.31Z</time></trkpt><trkpt lat="43.5188233" lon="13.4979182"><ele>77.0</ele><time>2026-03-22T06:07:17.312Z</time></trkpt><trkpt lat="43.5186855" lon="13.497918"><ele>75.5</ele><time>2026-03-22T06:07:18.31Z</time></trkpt><trkpt lat="43.5185414" lon="13.4979268"><ele>74.0</ele><time>2026-03-22T06:07:19.311Z</time></trkpt><trkpt lat="43.5183959" lon="13.4979263"><ele>72.5</ele><time>2026-03-22T06:07:20.312Z</time></trkpt><trkpt lat="43.5182384" lon="13.4979291"><ele>71.0</ele><time>2026-03-22T06:07:21.312Z</time></trkpt><trkpt lat="43.5180745" lon="13.4979343"><ele>71.0</ele><time>2026-03-22T06:07:22.312Z</time></trkpt><trkpt lat="43.5179035" lon="13.4979391"><ele>71.0</ele><time>2026-03-22T06:07:23.31Z</time></trkpt><trkpt lat="43.5177251" lon="13.4979517"><ele>71.0</ele><time>2026-03-22T06:07:24.311Z</time></trkpt><trkpt lat="43.5175437" lon="13.4979535"><ele>69.0</ele><time>2026-03-22T06:07:25.311Z</time></trkpt><trkpt lat="43.5173593" lon="13.4979575"><ele>67.0</ele><time>2026-03-22T06:07:26.311Z</time></trkpt><trkpt lat="43.5171757" lon="13.4979599"><ele>65.0</ele><time>2026-03-22T06:07:27.311Z</time></trkpt><trkpt lat="43.5169944" lon="13.4979594"><ele>63.66666666666667</ele><time>2026-03-22T06:07:28.31Z</time></trkpt><trkpt lat="43.5168145" lon="13.497962"><ele>62.33333333333333</ele><time>2026-03-22T06:07:29.31Z</time></trkpt><trkpt lat="43.5166368" lon="13.4979642"><ele>61.0</ele><time>2026-03-22T06:07:30.31Z</time></trkpt><trkpt lat="43.516456" lon="13.4979735"><ele>61.0</ele><time>2026-03-22T06:07:31.31Z</time></trkpt><trkpt lat="43.5162788" lon="13.4979766"><ele>61.0</ele><time>2026-03-22T06:07:32.309Z</time></trkpt><trkpt lat="43.5160996" lon="13.4979806"><ele>61.0</ele><time>2026-03-22T06:07:33.31Z</time></trkpt><trkpt lat="43.5159224" lon="13.4979952"><ele>60.666666666666664</ele><time>2026-03-22T06:07:34.311Z</time></trkpt><trkpt lat="43.5157453" lon="13.4979956"><ele>60.33333333333333</ele><time>2026-03-22T06:07:35.311Z</time></trkpt><trkpt lat="43.5155805" lon="13.4980047"><ele>60.0</ele><time>2026-03-22T06:07:36.311Z</time></trkpt><trkpt lat="43.5154179" lon="13.4980097"><ele>59.0</ele><time>2026-03-22T06:07:37.311Z</time></trkpt><trkpt lat="43.5152687" lon="13.4980099"><ele>58.0</ele><time>2026-03-22T06:07:38.311Z</time></trkpt><trkpt lat="43.5151259" lon="13.4980145"><ele>57.0</ele><time>2026-03-22T06:07:39.31Z</time></trkpt><trkpt lat="43.5149881" lon="13.4980215"><ele>56.0</ele><time>2026-03-22T06:07:40.31Z</time></trkpt><trkpt lat="43.5148827" lon="13.4980146"><ele>56.00000000000001</ele><time>2026-03-22T06:07:41.311Z</time></trkpt><trkpt lat="43.5147889" lon="13.4980169"><ele>56.0</ele><time>2026-03-22T06:07:42.312Z</time></trkpt><trkpt lat="43.514702" lon="13.4980012"><ele>56.0</ele><time>2026-03-22T06:07:43.311Z</time></trkpt><trkpt lat="43.5146223" lon="13.4979867"><ele>56.0</ele><time>2026-03-22T06:07:44.311Z</time></trkpt><trkpt lat="43.514556" lon="13.497933"><ele>56.00000000000001</ele><time>2026-03-22T06:07:45.311Z</time></trkpt><trkpt lat="43.5144839" lon="13.4979085"><ele>56.0</ele><time>2026-03-22T06:07:46.31Z</time></trkpt><trkpt lat="43.5143967" lon="13.4979075"><ele>55.25</ele><time>2026-03-22T06:07:47.31Z</time></trkpt><trkpt lat="43.5142847" lon="13.4979546"><ele>54.5</ele><time>2026-03-22T06:07:48.311Z</time></trkpt><trkpt lat="43.51416" lon="13.4979934"><ele>53.75</ele><time>2026-03-22T06:07:49.312Z</time></trkpt><trkpt lat="43.5139995" lon="13.498019"><ele>53.0</ele><time>2026-03-22T06:07:50.311Z</time></trkpt><trkpt lat="43.5138319" lon="13.4980266"><ele>53.66666666666667</ele><time>2026-03-22T06:07:51.311Z</time></trkpt><trkpt lat="43.5136468" lon="13.4980306"><ele>54.33333333333333</ele><time>2026-03-22T06:07:52.311Z</time></trkpt><trkpt lat="43.5134461" lon="13.4980408"><ele>55.0</ele><time>2026-03-22T06:07:53.31Z</time></trkpt><trkpt lat="43.5132416" lon="13.4980488"><ele>55.0</ele><time>2026-03-22T06:07:54.31Z</time></trkpt><trkpt lat="43.5130369" lon="13.4980506"><ele>55.0</ele><time>2026-03-22T06:07:55.31Z</time></trkpt><trkpt lat="43.5128321" lon="13.498054"><ele>55.0</ele><time>2026-03-22T06:07:56.311Z</time></trkpt><trkpt lat="43.5126217" lon="13.4980625"><ele>53.666666666666664</ele><time>2026-03-22T06:07:57.311Z</time></trkpt><trkpt lat="43.5124102" lon="13.4980656"><ele>52.33333333333333</ele><time>2026-03-22T06:07:58.309Z</time></trkpt><trkpt lat="43.512194" lon="13.4980664"><ele>51.0</ele><time>2026-03-22T06:07:59.312Z</time></trkpt><trkpt lat="43.5119813" lon="13.4980724"><ele>50.0</ele><time>2026-03-22T06:08:00.311Z</time></trkpt><trkpt lat="43.5117646" lon="13.4980831"><ele>49.0</ele><time>2026-03-22T06:08:01.31Z</time></trkpt><trkpt lat="43.5115466" lon="13.4980865"><ele>48.0</ele><time>2026-03-22T06:08:02.31Z</time></trkpt><trkpt lat="43.5113306" lon="13.4980989"><ele>47.666666666666664</ele><time>2026-03-22T06:08:03.312Z</time></trkpt><trkpt lat="43.5111183" lon="13.4981"><ele>47.33333333333333</ele><time>2026-03-22T06:08:04.312Z</time></trkpt><trkpt lat="43.5108922" lon="13.4981193"><ele>47.0</ele><time>2026-03-22T06:08:05.31Z</time></trkpt><trkpt lat="43.5106722" lon="13.4981478"><ele>47.0</ele><time>2026-03-22T06:08:06.311Z</time></trkpt><trkpt lat="43.5104469" lon="13.4981988"><ele>47.0</ele><time>2026-03-22T06:08:07.312Z</time></trkpt><trkpt lat="43.5102185" lon="13.4982565"><ele>47.0</ele><time>2026-03-22T06:08:08.31Z</time></trkpt><trkpt lat="43.5099886" lon="13.4983149"><ele>47.0</ele><time>2026-03-22T06:08:09.311Z</time></trkpt><trkpt lat="43.5097528" lon="13.4983849"><ele>45.5</ele><time>2026-03-22T06:08:10.31Z</time></trkpt><trkpt lat="43.5095162" lon="13.4984552"><ele>44.0</ele><time>2026-03-22T06:08:11.312Z</time></trkpt><trkpt lat="43.5092785" lon="13.4985245"><ele>44.0</ele><time>2026-03-22T06:08:12.311Z</time></trkpt><trkpt lat="43.5090432" lon="13.4985869"><ele>44.0</ele><time>2026-03-22T06:08:13.311Z</time></trkpt><trkpt lat="43.5088064" lon="13.4986575"><ele>44.0</ele><time>2026-03-22T06:08:14.311Z</time></trkpt><trkpt lat="43.5085735" lon="13.498733"><ele>44.0</ele><time>2026-03-22T06:08:15.311Z</time></trkpt><trkpt lat="43.5083462" lon="13.49881"><ele>44.0</ele><time>2026-03-22T06:08:16.311Z</time></trkpt><trkpt lat="43.5081271" lon="13.498881"><ele>44.0</ele><time>2026-03-22T06:08:17.312Z</time></trkpt><trkpt lat="43.5079142" lon="13.4989497"><ele>44.0</ele><time>2026-03-22T06:08:18.31Z</time></trkpt><trkpt lat="43.5077273" lon="13.4990071"><ele>43.666666666666664</ele><time>2026-03-22T06:08:19.311Z</time></trkpt><trkpt lat="43.5075397" lon="13.4990649"><ele>43.333333333333336</ele><time>2026-03-22T06:08:20.311Z</time></trkpt><trkpt lat="43.5073571" lon="13.4991253"><ele>43.0</ele><time>2026-03-22T06:08:21.311Z</time></trkpt><trkpt lat="43.5071728" lon="13.4991832"><ele>42.66666666666667</ele><time>2026-03-22T06:08:22.311Z</time></trkpt><trkpt lat="43.5069936" lon="13.4992417"><ele>42.333333333333336</ele><time>2026-03-22T06:08:23.311Z</time></trkpt><trkpt lat="43.5068147" lon="13.499303"><ele>42.0</ele><time>2026-03-22T06:08:24.31Z</time></trkpt><trkpt lat="43.5066375" lon="13.4993607"><ele>42.0</ele><time>2026-03-22T06:08:25.311Z</time></trkpt><trkpt lat="43.5064608" lon="13.4994194"><ele>42.0</ele><time>2026-03-22T06:08:26.312Z</time></trkpt><trkpt lat="43.5062855" lon="13.4994757"><ele>42.0</ele><time>2026-03-22T06:08:27.311Z</time></trkpt><trkpt lat="43.506111" lon="13.499535"><ele>42.0</ele><time>2026-03-22T06:08:28.311Z</time></trkpt><trkpt lat="43.5059378" lon="13.4995906"><ele>42.0</ele><time>2026-03-22T06:08:29.311Z</time></trkpt><trkpt lat="43.5057725" lon="13.4996414"><ele>42.0</ele><time>2026-03-22T06:08:30.311Z</time></trkpt><trkpt lat="43.5056171" lon="13.4996948"><ele>42.0</ele><time>2026-03-22T06:08:31.311Z</time></trkpt><trkpt lat="43.5054724" lon="13.4997416"><ele>42.0</ele><time>2026-03-22T06:08:32.31Z</time></trkpt><trkpt lat="43.5053363" lon="13.4997814"><ele>42.0</ele><time>2026-03-22T06:08:33.311Z</time></trkpt><trkpt lat="43.5052128" lon="13.4998198"><ele>42.0</ele><time>2026-03-22T06:08:34.31Z</time></trkpt><trkpt lat="43.5050892" lon="13.4998464"><ele>42.25</ele><time>2026-03-22T06:08:35.31Z</time></trkpt><trkpt lat="43.5049713" lon="13.4998521"><ele>42.5</ele><time>2026-03-22T06:08:36.311Z</time></trkpt><trkpt lat="43.504849" lon="13.4998394"><ele>42.75</ele><time>2026-03-22T06:08:37.311Z</time></trkpt><trkpt lat="43.5047272" lon="13.4997909"><ele>43.0</ele><time>2026-03-22T06:08:38.312Z</time></trkpt><trkpt lat="43.504606" lon="13.4997254"><ele>42.75</ele><time>2026-03-22T06:08:39.312Z</time></trkpt><trkpt lat="43.5044823" lon="13.4996436"><ele>42.5</ele><time>2026-03-22T06:08:40.312Z</time></trkpt><trkpt lat="43.5043544" lon="13.4995564"><ele>42.25</ele><time>2026-03-22T06:08:41.312Z</time></trkpt><trkpt lat="43.5042209" lon="13.4994699"><ele>42.0</ele><time>2026-03-22T06:08:42.31Z</time></trkpt><trkpt lat="43.5040858" lon="13.4993788"><ele>42.0</ele><time>2026-03-22T06:08:43.311Z</time></trkpt><trkpt lat="43.5039555" lon="13.499286"><ele>42.0</ele><time>2026-03-22T06:08:44.31Z</time></trkpt><trkpt lat="43.5038163" lon="13.4991946"><ele>42.0</ele><time>2026-03-22T06:08:45.311Z</time></trkpt><trkpt lat="43.5036794" lon="13.4990968"><ele>42.0</ele><time>2026-03-22T06:08:46.311Z</time></trkpt><trkpt lat="43.503542" lon="13.498995"><ele>42.0</ele><time>2026-03-22T06:08:47.311Z</time></trkpt><trkpt lat="43.5033997" lon="13.4989004"><ele>42.0</ele><time>2026-03-22T06:08:48.312Z</time></trkpt><trkpt lat="43.5032604" lon="13.4988021"><ele>42.333333333333336</ele><time>2026-03-22T06:08:49.311Z</time></trkpt><trkpt lat="43.5031103" lon="13.4987028"><ele>42.66666666666667</ele><time>2026-03-22T06:08:50.312Z</time></trkpt><trkpt lat="43.5029604" lon="13.4986036"><ele>43.0</ele><time>2026-03-22T06:08:51.311Z</time></trkpt><trkpt lat="43.5028101" lon="13.4984957"><ele>43.0</ele><time>2026-03-22T06:08:52.312Z</time></trkpt><trkpt lat="43.5026597" lon="13.4983861"><ele>43.0</ele><time>2026-03-22T06:08:53.31Z</time></trkpt><trkpt lat="43.5025031" lon="13.4982782"><ele>43.0</ele><time>2026-03-22T06:08:54.312Z</time></trkpt><trkpt lat="43.5023435" lon="13.4981729"><ele>43.0</ele><time>2026-03-22T06:08:55.311Z</time></trkpt><trkpt lat="43.5021839" lon="13.4980666"><ele>43.0</ele><time>2026-03-22T06:08:56.312Z</time></trkpt><trkpt lat="43.5020245" lon="13.4979598"><ele>43.0</ele><time>2026-03-22T06:08:57.312Z</time></trkpt><trkpt lat="43.5018619" lon="13.4978482"><ele>44.0</ele><time>2026-03-22T06:08:58.312Z</time></trkpt><trkpt lat="43.5016972" lon="13.4977376"><ele>45.0</ele><time>2026-03-22T06:08:59.312Z</time></trkpt><trkpt lat="43.5015296" lon="13.4976255"><ele>46.0</ele><time>2026-03-22T06:09:00.31Z</time></trkpt><trkpt lat="43.5013666" lon="13.4975077"><ele>47.333333333333336</ele><time>2026-03-22T06:09:01.311Z</time></trkpt><trkpt lat="43.5012014" lon="13.4973934"><ele>48.66666666666667</ele><time>2026-03-22T06:09:02.311Z</time></trkpt><trkpt lat="43.5010406" lon="13.4972742"><ele>50.0</ele><time>2026-03-22T06:09:03.311Z</time></trkpt><trkpt lat="43.5008815" lon="13.4971645"><ele>49.66666666666667</ele><time>2026-03-22T06:09:04.31Z</time></trkpt><trkpt lat="43.5007182" lon="13.4970603"><ele>49.33333333333333</ele><time>2026-03-22T06:09:05.312Z</time></trkpt><trkpt lat="43.5005573" lon="13.4969651"><ele>49.0</ele><time>2026-03-22T06:09:06.311Z</time></trkpt><trkpt lat="43.5003854" lon="13.4969059"><ele>50.666666666666664</ele><time>2026-03-22T06:09:07.31Z</time></trkpt><trkpt lat="43.5002103" lon="13.4968577"><ele>52.33333333333333</ele><time>2026-03-22T06:09:08.312Z</time></trkpt><trkpt lat="43.5000333" lon="13.4968233"><ele>54.0</ele><time>2026-03-22T06:09:09.31Z</time></trkpt><trkpt lat="43.4998567" lon="13.4967925"><ele>54.0</ele><time>2026-03-22T06:09:10.31Z</time></trkpt><trkpt lat="43.4996764" lon="13.4967721"><ele>54.0</ele><time>2026-03-22T06:09:11.31Z</time></trkpt><trkpt lat="43.4994973" lon="13.4967386"><ele>54.0</ele><time>2026-03-22T06:09:12.31Z</time></trkpt><trkpt lat="43.4993184" lon="13.4967089"><ele>54.66666666666667</ele><time>2026-03-22T06:09:13.312Z</time></trkpt><trkpt lat="43.4991368" lon="13.4966725"><ele>55.333333333333336</ele><time>2026-03-22T06:09:14.312Z</time></trkpt><trkpt lat="43.4989486" lon="13.496636"><ele>56.0</ele><time>2026-03-22T06:09:15.311Z</time></trkpt><trkpt lat="43.4987568" lon="13.4965925"><ele>58.333333333333336</ele><time>2026-03-22T06:09:16.311Z</time></trkpt><trkpt lat="43.4985635" lon="13.4965455"><ele>60.66666666666667</ele><time>2026-03-22T06:09:17.311Z</time></trkpt><trkpt lat="43.4983665" lon="13.4965012"><ele>63.0</ele><time>2026-03-22T06:09:18.311Z</time></trkpt><trkpt lat="43.49817" lon="13.4964573"><ele>63.0</ele><time>2026-03-22T06:09:19.312Z</time></trkpt><trkpt lat="43.4979687" lon="13.4964165"><ele>63.0</ele><time>2026-03-22T06:09:20.311Z</time></trkpt><trkpt lat="43.4977684" lon="13.4963766"><ele>63.0</ele><time>2026-03-22T06:09:21.312Z</time></trkpt><trkpt lat="43.4975709" lon="13.4963338"><ele>64.66666666666667</ele><time>2026-03-22T06:09:22.311Z</time></trkpt><trkpt lat="43.4973861" lon="13.4962631"><ele>66.33333333333334</ele><time>2026-03-22T06:09:23.311Z</time></trkpt><trkpt lat="43.4972244" lon="13.496175"><ele>68.0</ele><time>2026-03-22T06:09:24.31Z</time></trkpt><trkpt lat="43.4970809" lon="13.4960833"><ele>69.5</ele><time>2026-03-22T06:09:25.311Z</time></trkpt><trkpt lat="43.4969422" lon="13.49602"><ele>71.0</ele><time>2026-03-22T06:09:26.312Z</time></trkpt><trkpt lat="43.4968" lon="13.4959991"><ele>72.5</ele><time>2026-03-22T06:09:27.312Z</time></trkpt><trkpt lat="43.4966612" lon="13.4960302"><ele>74.0</ele><time>2026-03-22T06:09:28.31Z</time></trkpt><trkpt lat="43.4965183" lon="13.4961074"><ele>74.0</ele><time>2026-03-22T06:09:29.312Z</time></trkpt><trkpt lat="43.4963725" lon="13.4962219"><ele>74.0</ele><time>2026-03-22T06:09:30.312Z</time></trkpt><trkpt lat="43.496223" lon="13.4963539"><ele>74.0</ele><time>2026-03-22T06:09:31.311Z</time></trkpt><trkpt lat="43.4960696" lon="13.4964935"><ele>76.66666666666667</ele><time>2026-03-22T06:09:32.312Z</time></trkpt><trkpt lat="43.4959091" lon="13.4966439"><ele>79.33333333333333</ele><time>2026-03-22T06:09:33.31Z</time></trkpt><trkpt lat="43.4957462" lon="13.4967916"><ele>82.0</ele><time>2026-03-22T06:09:34.311Z</time></trkpt><trkpt lat="43.4955807" lon="13.4969433"><ele>81.0</ele><time>2026-03-22T06:09:35.311Z</time></trkpt><trkpt lat="43.4954174" lon="13.4970823"><ele>80.0</ele><time>2026-03-22T06:09:36.312Z</time></trkpt><trkpt lat="43.4952616" lon="13.4972203"><ele>79.0</ele><time>2026-03-22T06:09:37.312Z</time></trkpt><trkpt lat="43.4951095" lon="13.4973554"><ele>82.33333333333333</ele><time>2026-03-22T06:09:38.312Z</time></trkpt><trkpt lat="43.4949694" lon="13.4974774"><ele>85.66666666666667</ele><time>2026-03-22T06:09:39.311Z</time></trkpt><trkpt lat="43.4948438" lon="13.4976138"><ele>89.0</ele><time>2026-03-22T06:09:40.312Z</time></trkpt><trkpt lat="43.4947449" lon="13.4977675"><ele>90.0</ele><time>2026-03-22T06:09:41.312Z</time></trkpt><trkpt lat="43.4946761" lon="13.497946"><ele>91.0</ele><time>2026-03-22T06:09:42.311Z</time></trkpt><trkpt lat="43.4946439" lon="13.4981531"><ele>92.0</ele><time>2026-03-22T06:09:43.311Z</time></trkpt><trkpt lat="43.4946326" lon="13.4983762"><ele>92.0</ele><time>2026-03-22T06:09:44.311Z</time></trkpt><trkpt lat="43.4946366" lon="13.4986137"><ele>92.0</ele><time>2026-03-22T06:09:45.312Z</time></trkpt><trkpt lat="43.4946454" lon="13.4988563"><ele>92.0</ele><time>2026-03-22T06:09:46.311Z</time></trkpt><trkpt lat="43.494656" lon="13.4991038"><ele>95.33333333333334</ele><time>2026-03-22T06:09:47.312Z</time></trkpt><trkpt lat="43.4946659" lon="13.4993494"><ele>98.66666666666667</ele><time>2026-03-22T06:09:48.312Z</time></trkpt><trkpt lat="43.4946747" lon="13.4995921"><ele>102.0</ele><time>2026-03-22T06:09:49.312Z</time></trkpt><trkpt lat="43.4946745" lon="13.4998316"><ele>106.33333333333334</ele><time>2026-03-22T06:09:50.311Z</time></trkpt><trkpt lat="43.4946457" lon="13.5000527"><ele>110.66666666666667</ele><time>2026-03-22T06:09:51.312Z</time></trkpt><trkpt lat="43.4946141" lon="13.5002552"><ele>115.0</ele><time>2026-03-22T06:09:52.31Z</time></trkpt><trkpt lat="43.494572" lon="13.5004461"><ele>115.75</ele><time>2026-03-22T06:09:53.31Z</time></trkpt><trkpt lat="43.4945003" lon="13.5006178"><ele>116.5</ele><time>2026-03-22T06:09:54.31Z</time></trkpt><trkpt lat="43.4944064" lon="13.5007608"><ele>117.25</ele><time>2026-03-22T06:09:55.311Z</time></trkpt><trkpt lat="43.4943025" lon="13.5008867"><ele>118.0</ele><time>2026-03-22T06:09:56.31Z</time></trkpt><trkpt lat="43.4941641" lon="13.5009615"><ele>118.0</ele><time>2026-03-22T06:09:57.311Z</time></trkpt><trkpt lat="43.4940093" lon="13.5010154"><ele>118.0</ele><time>2026-03-22T06:09:58.312Z</time></trkpt><trkpt lat="43.4938491" lon="13.5010364"><ele>118.0</ele><time>2026-03-22T06:09:59.311Z</time></trkpt><trkpt lat="43.4936846" lon="13.5010539"><ele>119.0</ele><time>2026-03-22T06:10:00.312Z</time></trkpt><trkpt lat="43.4935221" lon="13.5010998"><ele>120.0</ele><time>2026-03-22T06:10:01.312Z</time></trkpt><trkpt lat="43.4933552" lon="13.5011709"><ele>121.0</ele><time>2026-03-22T06:10:02.311Z</time></trkpt><trkpt lat="43.4931851" lon="13.5012664"><ele>123.33333333333334</ele><time>2026-03-22T06:10:03.311Z</time></trkpt><trkpt lat="43.4930162" lon="13.501351"><ele>125.66666666666666</ele><time>2026-03-22T06:10:04.311Z</time></trkpt><trkpt lat="43.4928427" lon="13.5014442"><ele>128.0</ele><time>2026-03-22T06:10:05.31Z</time></trkpt><trkpt lat="43.4926742" lon="13.5015359"><ele>128.33333333333331</ele><time>2026-03-22T06:10:06.311Z</time></trkpt><trkpt lat="43.492515" lon="13.501614"><ele>128.66666666666666</ele><time>2026-03-22T06:10:07.312Z</time></trkpt><trkpt lat="43.4923598" lon="13.5016815"><ele>129.0</ele><time>2026-03-22T06:10:08.312Z</time></trkpt><trkpt lat="43.4922146" lon="13.5017232"><ele>129.0</ele><time>2026-03-22T06:10:09.312Z</time></trkpt><trkpt lat="43.4921062" lon="13.5017301"><ele>129.0</ele><time>2026-03-22T06:10:10.312Z</time></trkpt><trkpt lat="43.4919969" lon="13.5017328"><ele>129.0</ele><time>2026-03-22T06:10:11.311Z</time></trkpt><trkpt lat="43.4919034" lon="13.5017052"><ele>129.0</ele><time>2026-03-22T06:10:12.312Z</time></trkpt><trkpt lat="43.4918102" lon="13.5016457"><ele>129.0</ele><time>2026-03-22T06:10:13.31Z</time></trkpt><trkpt lat="43.4917202" lon="13.5015492"><ele>129.0</ele><time>2026-03-22T06:10:14.311Z</time></trkpt><trkpt lat="43.4916394" lon="13.5014208"><ele>129.0</ele><time>2026-03-22T06:10:15.311Z</time></trkpt><trkpt lat="43.4915647" lon="13.5012591"><ele>129.0</ele><time>2026-03-22T06:10:16.311Z</time></trkpt><trkpt lat="43.4914889" lon="13.5010779"><ele>129.0</ele><time>2026-03-22T06:10:17.312Z</time></trkpt><trkpt lat="43.491415" lon="13.5008864"><ele>128.0</ele><time>2026-03-22T06:10:18.311Z</time></trkpt><trkpt lat="43.4913312" lon="13.5006833"><ele>127.0</ele><time>2026-03-22T06:10:19.312Z</time></trkpt><trkpt lat="43.4912494" lon="13.5004708"><ele>126.0</ele><time>2026-03-22T06:10:20.312Z</time></trkpt><trkpt lat="43.4911643" lon="13.5002474"><ele>128.0</ele><time>2026-03-22T06:10:21.312Z</time></trkpt><trkpt lat="43.4910843" lon="13.5000224"><ele>130.0</ele><time>2026-03-22T06:10:22.312Z</time></trkpt><trkpt lat="43.4909979" lon="13.4997992"><ele>132.0</ele><time>2026-03-22T06:10:23.311Z</time></trkpt><trkpt lat="43.4909314" lon="13.4995638"><ele>132.66666666666666</ele><time>2026-03-22T06:10:24.311Z</time></trkpt><trkpt lat="43.4908691" lon="13.4993344"><ele>133.33333333333331</ele><time>2026-03-22T06:10:25.311Z</time></trkpt><trkpt lat="43.4908306" lon="13.4991231"><ele>134.0</ele><time>2026-03-22T06:10:26.312Z</time></trkpt><trkpt lat="43.4907948" lon="13.4989227"><ele>135.25</ele><time>2026-03-22T06:10:27.312Z</time></trkpt><trkpt lat="43.4907688" lon="13.498738"><ele>136.5</ele><time>2026-03-22T06:10:28.312Z</time></trkpt><trkpt lat="43.4907579" lon="13.4985638"><ele>137.75</ele><time>2026-03-22T06:10:29.312Z</time></trkpt><trkpt lat="43.490751" lon="13.4983942"><ele>139.0</ele><time>2026-03-22T06:10:30.312Z</time></trkpt><trkpt lat="43.4907279" lon="13.498219"><ele>139.0</ele><time>2026-03-22T06:10:31.312Z</time></trkpt><trkpt lat="43.4906743" lon="13.4980252"><ele>139.0</ele><time>2026-03-22T06:10:32.312Z</time></trkpt><trkpt lat="43.490637" lon="13.497818"><ele>139.0</ele><time>2026-03-22T06:10:33.311Z</time></trkpt><trkpt lat="43.4905985" lon="13.4976025"><ele>138.75</ele><time>2026-03-22T06:10:34.311Z</time></trkpt><trkpt lat="43.4905552" lon="13.4974053"><ele>138.5</ele><time>2026-03-22T06:10:35.311Z</time></trkpt><trkpt lat="43.4905038" lon="13.4972152"><ele>138.25</ele><time>2026-03-22T06:10:36.311Z</time></trkpt><trkpt lat="43.4904424" lon="13.4970377"><ele>138.0</ele><time>2026-03-22T06:10:37.31Z</time></trkpt><trkpt lat="43.4903846" lon="13.4968575"><ele>138.0</ele><time>2026-03-22T06:10:38.311Z</time></trkpt><trkpt lat="43.4903188" lon="13.4966797"><ele>138.0</ele><time>2026-03-22T06:10:39.31Z</time></trkpt><trkpt lat="43.4902604" lon="13.4964969"><ele>138.0</ele><time>2026-03-22T06:10:40.311Z</time></trkpt><trkpt lat="43.4901967" lon="13.4963146"><ele>138.0</ele><time>2026-03-22T06:10:41.312Z</time></trkpt><trkpt lat="43.4901265" lon="13.4961334"><ele>140.0</ele><time>2026-03-22T06:10:42.311Z</time></trkpt><trkpt lat="43.4900503" lon="13.4959547"><ele>142.0</ele><time>2026-03-22T06:10:43.312Z</time></trkpt><trkpt lat="43.4899658" lon="13.4957811"><ele>144.0</ele><time>2026-03-22T06:10:44.312Z</time></trkpt><trkpt lat="43.4898663" lon="13.4956116"><ele>144.0</ele><time>2026-03-22T06:10:45.311Z</time></trkpt><trkpt lat="43.4897633" lon="13.4954513"><ele>144.0</ele><time>2026-03-22T06:10:46.312Z</time></trkpt><trkpt lat="43.4896574" lon="13.4952833"><ele>144.0</ele><time>2026-03-22T06:10:47.311Z</time></trkpt><trkpt lat="43.4895552" lon="13.4951215"><ele>144.0</ele><time>2026-03-22T06:10:48.312Z</time></trkpt><trkpt lat="43.4894748" lon="13.4949642"><ele>144.0</ele><time>2026-03-22T06:10:49.312Z</time></trkpt><trkpt lat="43.4893854" lon="13.49484"><ele>144.0</ele><time>2026-03-22T06:10:50.312Z</time></trkpt><trkpt lat="43.4892912" lon="13.4947254"><ele>144.0</ele><time>2026-03-22T06:10:51.31Z</time></trkpt><trkpt lat="43.489179" lon="13.4946583"><ele>144.0</ele><time>2026-03-22T06:10:52.312Z</time></trkpt><trkpt lat="43.4890679" lon="13.4946153"><ele>144.0</ele><time>2026-03-22T06:10:53.311Z</time></trkpt><trkpt lat="43.4889491" lon="13.4946106"><ele>144.0</ele><time>2026-03-22T06:10:54.311Z</time></trkpt><trkpt lat="43.4888353" lon="13.4946821"><ele>144.0</ele><time>2026-03-22T06:10:55.311Z</time></trkpt><trkpt lat="43.4887338" lon="13.4947886"><ele>145.5</ele><time>2026-03-22T06:10:56.31Z</time></trkpt><trkpt lat="43.4886547" lon="13.4949343"><ele>147.0</ele><time>2026-03-22T06:10:57.311Z</time></trkpt><trkpt lat="43.4885962" lon="13.4951073"><ele>148.5</ele><time>2026-03-22T06:10:58.311Z</time></trkpt><trkpt lat="43.4885473" lon="13.4952945"><ele>150.0</ele><time>2026-03-22T06:10:59.311Z</time></trkpt><trkpt lat="43.4884963" lon="13.4954857"><ele>150.0</ele><time>2026-03-22T06:11:00.31Z</time></trkpt><trkpt lat="43.4884382" lon="13.4956738"><ele>150.0</ele><time>2026-03-22T06:11:01.311Z</time></trkpt><trkpt lat="43.4883691" lon="13.4958605"><ele>150.0</ele><time>2026-03-22T06:11:02.31Z</time></trkpt><trkpt lat="43.4882939" lon="13.4960328"><ele>150.0</ele><time>2026-03-22T06:11:03.311Z</time></trkpt><trkpt lat="43.4881798" lon="13.4961937"><ele>150.5</ele><time>2026-03-22T06:11:04.312Z</time></trkpt><trkpt lat="43.4880742" lon="13.4963291"><ele>151.0</ele><time>2026-03-22T06:11:05.312Z</time></trkpt><trkpt lat="43.4879594" lon="13.4964425"><ele>151.5</ele><time>2026-03-22T06:11:06.311Z</time></trkpt><trkpt lat="43.4878345" lon="13.496527"><ele>152.0</ele><time>2026-03-22T06:11:07.312Z</time></trkpt><trkpt lat="43.4877128" lon="13.4965908"><ele>152.0</ele><time>2026-03-22T06:11:08.31Z</time></trkpt><trkpt lat="43.4875708" lon="13.4966143"><ele>152.0</ele><time>2026-03-22T06:11:09.311Z</time></trkpt><trkpt lat="43.4874285" lon="13.4966256"><ele>152.0</ele><time>2026-03-22T06:11:10.311Z</time></trkpt><trkpt lat="43.48729" lon="13.4966067"><ele>152.0</ele><time>2026-03-22T06:11:11.312Z</time></trkpt><trkpt lat="43.4871501" lon="13.4965662"><ele>151.25</ele><time>2026-03-22T06:11:12.311Z</time></trkpt><trkpt lat="43.4870241" lon="13.4964712"><ele>150.5</ele><time>2026-03-22T06:11:13.311Z</time></trkpt><trkpt lat="43.4868966" lon="13.4963674"><ele>149.75</ele><time>2026-03-22T06:11:14.312Z</time></trkpt><trkpt lat="43.4867827" lon="13.4962326"><ele>149.0</ele><time>2026-03-22T06:11:15.312Z</time></trkpt><trkpt lat="43.4866871" lon="13.4960719"><ele>151.33333333333331</ele><time>2026-03-22T06:11:16.312Z</time></trkpt><trkpt lat="43.4865881" lon="13.4959048"><ele>153.66666666666666</ele><time>2026-03-22T06:11:17.311Z</time></trkpt><trkpt lat="43.4864884" lon="13.4957314"><ele>156.0</ele><time>2026-03-22T06:11:18.312Z</time></trkpt><trkpt lat="43.4863958" lon="13.4955545"><ele>156.0</ele><time>2026-03-22T06:11:19.311Z</time></trkpt><trkpt lat="43.486298" lon="13.4953746"><ele>156.0</ele><time>2026-03-22T06:11:20.312Z</time></trkpt><trkpt lat="43.4861998" lon="13.4951977"><ele>156.0</ele><time>2026-03-22T06:11:21.312Z</time></trkpt><trkpt lat="43.4860961" lon="13.4950239"><ele>156.0</ele><time>2026-03-22T06:11:22.31Z</time></trkpt><trkpt lat="43.4859883" lon="13.4948591"><ele>156.0</ele><time>2026-03-22T06:11:23.311Z</time></trkpt><trkpt lat="43.48587" lon="13.4947067"><ele>156.0</ele><time>2026-03-22T06:11:24.31Z</time></trkpt><trkpt lat="43.4857397" lon="13.4945717"><ele>159.33333333333334</ele><time>2026-03-22T06:11:25.311Z</time></trkpt><trkpt lat="43.4855961" lon="13.4944525"><ele>162.66666666666669</ele><time>2026-03-22T06:11:26.311Z</time></trkpt><trkpt lat="43.4854529" lon="13.4943448"><ele>166.0</ele><time>2026-03-22T06:11:27.311Z</time></trkpt><trkpt lat="43.485315" lon="13.4942502"><ele>166.0</ele><time>2026-03-22T06:11:28.311Z</time></trkpt><trkpt lat="43.4851838" lon="13.4941658"><ele>166.0</ele><time>2026-03-22T06:11:29.311Z</time></trkpt><trkpt lat="43.485045" lon="13.4941057"><ele>166.0</ele><time>2026-03-22T06:11:30.311Z</time></trkpt><trkpt lat="43.4849029" lon="13.4940566"><ele>166.0</ele><time>2026-03-22T06:11:31.312Z</time></trkpt><trkpt lat="43.4847554" lon="13.4940109"><ele>166.0</ele><time>2026-03-22T06:11:32.312Z</time></trkpt><trkpt lat="43.4846056" lon="13.4939838"><ele>166.0</ele><time>2026-03-22T06:11:33.311Z</time></trkpt><trkpt lat="43.4844753" lon="13.4939621"><ele>166.0</ele><time>2026-03-22T06:11:34.31Z</time></trkpt><trkpt lat="43.4843538" lon="13.4939382"><ele>166.0</ele><time>2026-03-22T06:11:35.311Z</time></trkpt><trkpt lat="43.484235" lon="13.4938961"><ele>165.5</ele><time>2026-03-22T06:11:36.311Z</time></trkpt><trkpt lat="43.4841208" lon="13.4938194"><ele>165.0</ele><time>2026-03-22T06:11:37.312Z</time></trkpt><trkpt lat="43.4839987" lon="13.4937157"><ele>164.5</ele><time>2026-03-22T06:11:38.311Z</time></trkpt><trkpt lat="43.4838808" lon="13.4935833"><ele>164.0</ele><time>2026-03-22T06:11:39.31Z</time></trkpt><trkpt lat="43.4837586" lon="13.4934404"><ele>162.66666666666666</ele><time>2026-03-22T06:11:40.312Z</time></trkpt><trkpt lat="43.4836361" lon="13.493292"><ele>161.33333333333334</ele><time>2026-03-22T06:11:41.312Z</time></trkpt><trkpt lat="43.4835212" lon="13.4931354"><ele>160.0</ele><time>2026-03-22T06:11:42.312Z</time></trkpt><trkpt lat="43.4834187" lon="13.4929673"><ele>163.66666666666669</ele><time>2026-03-22T06:11:43.311Z</time></trkpt><trkpt lat="43.4833281" lon="13.4927867"><ele>167.33333333333334</ele><time>2026-03-22T06:11:44.312Z</time></trkpt><trkpt lat="43.4832444" lon="13.4925922"><ele>171.0</ele><time>2026-03-22T06:11:45.311Z</time></trkpt><trkpt lat="43.483165" lon="13.4923948"><ele>171.0</ele><time>2026-03-22T06:11:46.312Z</time></trkpt><trkpt lat="43.4830879" lon="13.4921985"><ele>171.0</ele><time>2026-03-22T06:11:47.312Z</time></trkpt><trkpt lat="43.4830177" lon="13.4920127"><ele>171.0</ele><time>2026-03-22T06:11:48.31Z</time></trkpt><trkpt lat="43.4829605" lon="13.4918146"><ele>170.66666666666666</ele><time>2026-03-22T06:11:49.311Z</time></trkpt><trkpt lat="43.4829119" lon="13.4916098"><ele>170.33333333333331</ele><time>2026-03-22T06:11:50.31Z</time></trkpt><trkpt lat="43.4828822" lon="13.4913973"><ele>170.0</ele><time>2026-03-22T06:11:51.311Z</time></trkpt><trkpt lat="43.4828642" lon="13.4911744"><ele>170.0</ele><time>2026-03-22T06:11:52.312Z</time></trkpt><trkpt lat="43.4828496" lon="13.4909567"><ele>170.0</ele><time>2026-03-22T06:11:53.311Z</time></trkpt><trkpt lat="43.4828325" lon="13.4907454"><ele>170.0</ele><time>2026-03-22T06:11:54.312Z</time></trkpt><trkpt lat="43.4828403" lon="13.490537"><ele>171.33333333333331</ele><time>2026-03-22T06:11:55.312Z</time></trkpt><trkpt lat="43.4828566" lon="13.4903301"><ele>172.66666666666666</ele><time>2026-03-22T06:11:56.312Z</time></trkpt><trkpt lat="43.4828973" lon="13.4901149"><ele>174.0</ele><time>2026-03-22T06:11:57.311Z</time></trkpt><trkpt lat="43.4829857" lon="13.4899246"><ele>178.25</ele><time>2026-03-22T06:11:58.311Z</time></trkpt><trkpt lat="43.4830524" lon="13.4897519"><ele>182.5</ele><time>2026-03-22T06:11:59.311Z</time></trkpt><trkpt lat="43.4830897" lon="13.4895483"><ele>186.75</ele><time>2026-03-22T06:12:00.312Z</time></trkpt><trkpt lat="43.483102" lon="13.4893366"><ele>191.0</ele><time>2026-03-22T06:12:01.31Z</time></trkpt><trkpt lat="43.4830819" lon="13.4891179"><ele>191.66666666666666</ele><time>2026-03-22T06:12:02.312Z</time></trkpt><trkpt lat="43.4830346" lon="13.488913"><ele>192.33333333333331</ele><time>2026-03-22T06:12:03.312Z</time></trkpt><trkpt lat="43.4829983" lon="13.4887065"><ele>193.0</ele><time>2026-03-22T06:12:04.311Z</time></trkpt><trkpt lat="43.4829814" lon="13.4885112"><ele>193.25</ele><time>2026-03-22T06:12:05.312Z</time></trkpt><trkpt lat="43.4829928" lon="13.4883322"><ele>193.5</ele><time>2026-03-22T06:12:06.311Z</time></trkpt><trkpt lat="43.4830293" lon="13.4881727"><ele>193.75</ele><time>2026-03-22T06:12:07.311Z</time></trkpt><trkpt lat="43.4831056" lon="13.4880421"><ele>194.0</ele><time>2026-03-22T06:12:08.311Z</time></trkpt><trkpt lat="43.4831969" lon="13.4879356"><ele>192.25</ele><time>2026-03-22T06:12:09.312Z</time></trkpt><trkpt lat="43.4833227" lon="13.4878417"><ele>190.5</ele><time>2026-03-22T06:12:10.312Z</time></trkpt><trkpt lat="43.483448" lon="13.4877477"><ele>188.75</ele><time>2026-03-22T06:12:11.312Z</time></trkpt><trkpt lat="43.483579" lon="13.4876558"><ele>187.0</ele><time>2026-03-22T06:12:12.311Z</time></trkpt><trkpt lat="43.483699" lon="13.4875522"><ele>193.33333333333334</ele><time>2026-03-22T06:12:13.311Z</time></trkpt><trkpt lat="43.4838081" lon="13.4874171"><ele>199.66666666666669</ele><time>2026-03-22T06:12:14.311Z</time></trkpt><trkpt lat="43.4838512" lon="13.4872068"><ele>206.0</ele><time>2026-03-22T06:12:15.311Z</time></trkpt><trkpt lat="43.4838924" lon="13.4870039"><ele>206.0</ele><time>2026-03-22T06:12:16.311Z</time></trkpt><trkpt lat="43.4839276" lon="13.4868001"><ele>206.0</ele><time>2026-03-22T06:12:17.311Z</time></trkpt><trkpt lat="43.4839585" lon="13.4866241"><ele>206.0</ele><time>2026-03-22T06:12:18.311Z</time></trkpt><trkpt lat="43.4839862" lon="13.4864801"><ele>206.0</ele><time>2026-03-22T06:12:19.312Z</time></trkpt><trkpt lat="43.4840191" lon="13.486384"><ele>206.0</ele><time>2026-03-22T06:12:20.311Z</time></trkpt><trkpt lat="43.4840691" lon="13.4863206"><ele>206.0</ele><time>2026-03-22T06:12:21.312Z</time></trkpt><trkpt lat="43.484152" lon="13.4861901"><ele>206.0</ele><time>2026-03-22T06:12:23.311Z</time></trkpt><trkpt lat="43.4841764" lon="13.4860712"><ele>206.0</ele><time>2026-03-22T06:12:24.312Z</time></trkpt><trkpt lat="43.4841959" lon="13.4859145"><ele>206.0</ele><time>2026-03-22T06:12:25.311Z</time></trkpt><trkpt lat="43.4842161" lon="13.4857342"><ele>203.66666666666669</ele><time>2026-03-22T06:12:26.311Z</time></trkpt><trkpt lat="43.4842465" lon="13.4855179"><ele>201.33333333333331</ele><time>2026-03-22T06:12:27.311Z</time></trkpt><trkpt lat="43.4843004" lon="13.4853008"><ele>199.0</ele><time>2026-03-22T06:12:28.312Z</time></trkpt><trkpt lat="43.4843479" lon="13.4851017"><ele>197.75</ele><time>2026-03-22T06:12:29.311Z</time></trkpt><trkpt lat="43.4844107" lon="13.4849116"><ele>196.5</ele><time>2026-03-22T06:12:30.311Z</time></trkpt><trkpt lat="43.4844877" lon="13.4847536"><ele>195.25</ele><time>2026-03-22T06:12:31.311Z</time></trkpt><trkpt lat="43.4845325" lon="13.4846009"><ele>194.0</ele><time>2026-03-22T06:12:32.312Z</time></trkpt><trkpt lat="43.4845583" lon="13.4844465"><ele>194.0</ele><time>2026-03-22T06:12:33.312Z</time></trkpt><trkpt lat="43.4845517" lon="13.4842936"><ele>194.0</ele><time>2026-03-22T06:12:34.312Z</time></trkpt><trkpt lat="43.4845091" lon="13.4841557"><ele>194.0</ele><time>2026-03-22T06:12:35.311Z</time></trkpt><trkpt lat="43.4844162" lon="13.4840413"><ele>194.0</ele><time>2026-03-22T06:12:36.311Z</time></trkpt><trkpt lat="43.4842935" lon="13.4839574"><ele>194.0</ele><time>2026-03-22T06:12:37.312Z</time></trkpt><trkpt lat="43.4841608" lon="13.4838835"><ele>194.0</ele><time>2026-03-22T06:12:38.311Z</time></trkpt><trkpt lat="43.4840348" lon="13.4838089"><ele>194.0</ele><time>2026-03-22T06:12:39.312Z</time></trkpt><trkpt lat="43.4839106" lon="13.4837153"><ele>194.0</ele><time>2026-03-22T06:12:40.311Z</time></trkpt><trkpt lat="43.4837969" lon="13.483597"><ele>190.33333333333334</ele><time>2026-03-22T06:12:41.311Z</time></trkpt><trkpt lat="43.483693" lon="13.4834486"><ele>186.66666666666669</ele><time>2026-03-22T06:12:42.311Z</time></trkpt><trkpt lat="43.4836169" lon="13.4832676"><ele>183.0</ele><time>2026-03-22T06:12:43.311Z</time></trkpt><trkpt lat="43.4835567" lon="13.4830714"><ele>184.33333333333334</ele><time>2026-03-22T06:12:44.312Z</time></trkpt><trkpt lat="43.483503" lon="13.4828672"><ele>185.66666666666669</ele><time>2026-03-22T06:12:45.311Z</time></trkpt><trkpt lat="43.4834565" lon="13.482657"><ele>187.0</ele><time>2026-03-22T06:12:46.311Z</time></trkpt><trkpt lat="43.4834074" lon="13.4824464"><ele>187.0</ele><time>2026-03-22T06:12:47.312Z</time></trkpt><trkpt lat="43.4833394" lon="13.4822302"><ele>187.0</ele><time>2026-03-22T06:12:48.311Z</time></trkpt><trkpt lat="43.483268" lon="13.4820188"><ele>187.0</ele><time>2026-03-22T06:12:49.312Z</time></trkpt><trkpt lat="43.4831962" lon="13.4818176"><ele>188.5</ele><time>2026-03-22T06:12:50.312Z</time></trkpt><trkpt lat="43.4830971" lon="13.4816442"><ele>190.0</ele><time>2026-03-22T06:12:51.311Z</time></trkpt><trkpt lat="43.4830075" lon="13.4814775"><ele>191.5</ele><time>2026-03-22T06:12:52.312Z</time></trkpt><trkpt lat="43.4829247" lon="13.4813278"><ele>193.0</ele><time>2026-03-22T06:12:53.312Z</time></trkpt><trkpt lat="43.4828534" lon="13.4812102"><ele>190.4</ele><time>2026-03-22T06:12:54.312Z</time></trkpt><trkpt lat="43.4828024" lon="13.4810968"><ele>187.8</ele><time>2026-03-22T06:12:55.313Z</time></trkpt><trkpt lat="43.482763" lon="13.4810072"><ele>185.2</ele><time>2026-03-22T06:12:56.312Z</time></trkpt><trkpt lat="43.4827347" lon="13.480928"><ele>182.6</ele><time>2026-03-22T06:12:57.312Z</time></trkpt><trkpt lat="43.4826466" lon="13.4808256"><ele>180.0</ele><time>2026-03-22T06:12:59.311Z</time></trkpt><trkpt lat="43.482511" lon="13.4808417"><ele>180.0</ele><time>2026-03-22T06:13:01.312Z</time></trkpt><trkpt lat="43.4824145" lon="13.4808654"><ele>180.0</ele><time>2026-03-22T06:13:02.312Z</time></trkpt><trkpt lat="43.4822965" lon="13.4808615"><ele>180.0</ele><time>2026-03-22T06:13:03.312Z</time></trkpt><trkpt lat="43.4821788" lon="13.4808354"><ele>180.0</ele><time>2026-03-22T06:13:04.311Z</time></trkpt><trkpt lat="43.482068" lon="13.4807795"><ele>177.5</ele><time>2026-03-22T06:13:05.311Z</time></trkpt><trkpt lat="43.4819642" lon="13.480686"><ele>175.0</ele><time>2026-03-22T06:13:06.311Z</time></trkpt><trkpt lat="43.4818567" lon="13.4805873"><ele>172.5</ele><time>2026-03-22T06:13:07.312Z</time></trkpt><trkpt lat="43.4817688" lon="13.480479"><ele>170.0</ele><time>2026-03-22T06:13:08.312Z</time></trkpt><trkpt lat="43.4817272" lon="13.4803372"><ele>170.0</ele><time>2026-03-22T06:13:09.313Z</time></trkpt><trkpt lat="43.4816904" lon="13.4801956"><ele>170.0</ele><time>2026-03-22T06:13:10.311Z</time></trkpt><trkpt lat="43.4817074" lon="13.4800379"><ele>170.0</ele><time>2026-03-22T06:13:11.311Z</time></trkpt><trkpt lat="43.4817401" lon="13.4799053"><ele>170.0</ele><time>2026-03-22T06:13:12.31Z</time></trkpt><trkpt lat="43.4817912" lon="13.479778"><ele>170.0</ele><time>2026-03-22T06:13:13.311Z</time></trkpt><trkpt lat="43.4818536" lon="13.4796492"><ele>170.2</ele><time>2026-03-22T06:13:14.312Z</time></trkpt><trkpt lat="43.4819277" lon="13.4795294"><ele>170.4</ele><time>2026-03-22T06:13:15.312Z</time></trkpt><trkpt lat="43.481975" lon="13.479387"><ele>170.60000000000002</ele><time>2026-03-22T06:13:16.312Z</time></trkpt><trkpt lat="43.4820029" lon="13.4792532"><ele>170.8</ele><time>2026-03-22T06:13:17.312Z</time></trkpt><trkpt lat="43.481999" lon="13.4791223"><ele>171.0</ele><time>2026-03-22T06:13:18.312Z</time></trkpt><trkpt lat="43.4819518" lon="13.4790043"><ele>171.0</ele><time>2026-03-22T06:13:19.312Z</time></trkpt><trkpt lat="43.4818619" lon="13.4788938"><ele>171.0</ele><time>2026-03-22T06:13:20.312Z</time></trkpt><trkpt lat="43.4817496" lon="13.4788015"><ele>171.0</ele><time>2026-03-22T06:13:21.311Z</time></trkpt><trkpt lat="43.4816405" lon="13.4787108"><ele>171.0</ele><time>2026-03-22T06:13:22.312Z</time></trkpt><trkpt lat="43.4815373" lon="13.4786309"><ele>169.83333333333334</ele><time>2026-03-22T06:13:23.312Z</time></trkpt><trkpt lat="43.4814718" lon="13.4785579"><ele>168.66666666666666</ele><time>2026-03-22T06:13:24.311Z</time></trkpt><trkpt lat="43.4814022" lon="13.4784902"><ele>167.5</ele><time>2026-03-22T06:13:25.311Z</time></trkpt><trkpt lat="43.481341" lon="13.4784133"><ele>166.33333333333331</ele><time>2026-03-22T06:13:26.312Z</time></trkpt><trkpt lat="43.4812705" lon="13.4783484"><ele>165.16666666666666</ele><time>2026-03-22T06:13:27.313Z</time></trkpt><trkpt lat="43.4811783" lon="13.4783002"><ele>164.0</ele><time>2026-03-22T06:13:28.312Z</time></trkpt><trkpt lat="43.4810573" lon="13.4782547"><ele>163.5</ele><time>2026-03-22T06:13:29.311Z</time></trkpt><trkpt lat="43.4809268" lon="13.4781898"><ele>163.0</ele><time>2026-03-22T06:13:30.313Z</time></trkpt><trkpt lat="43.4807842" lon="13.4781144"><ele>162.5</ele><time>2026-03-22T06:13:31.312Z</time></trkpt><trkpt lat="43.480642" lon="13.4780472"><ele>162.0</ele><time>2026-03-22T06:13:32.312Z</time></trkpt><trkpt lat="43.4804967" lon="13.4779801"><ele>160.0</ele><time>2026-03-22T06:13:33.312Z</time></trkpt><trkpt lat="43.4803714" lon="13.4778845"><ele>158.0</ele><time>2026-03-22T06:13:34.313Z</time></trkpt><trkpt lat="43.4802524" lon="13.4777707"><ele>156.0</ele><time>2026-03-22T06:13:35.312Z</time></trkpt><trkpt lat="43.4801344" lon="13.4776585"><ele>154.0</ele><time>2026-03-22T06:13:36.312Z</time></trkpt><trkpt lat="43.4799976" lon="13.4775413"><ele>154.0</ele><time>2026-03-22T06:13:37.312Z</time></trkpt><trkpt lat="43.4798769" lon="13.4774208"><ele>154.0</ele><time>2026-03-22T06:13:38.311Z</time></trkpt><trkpt lat="43.479755" lon="13.4773009"><ele>154.0</ele><time>2026-03-22T06:13:39.311Z</time></trkpt><trkpt lat="43.4796322" lon="13.4771805"><ele>154.0</ele><time>2026-03-22T06:13:40.311Z</time></trkpt><trkpt lat="43.4795153" lon="13.4770653"><ele>152.0</ele><time>2026-03-22T06:13:41.312Z</time></trkpt><trkpt lat="43.4794042" lon="13.4769531"><ele>150.0</ele><time>2026-03-22T06:13:42.311Z</time></trkpt><trkpt lat="43.4792933" lon="13.4768423"><ele>148.0</ele><time>2026-03-22T06:13:43.311Z</time></trkpt><trkpt lat="43.4791917" lon="13.4767264"><ele>146.0</ele><time>2026-03-22T06:13:44.31Z</time></trkpt><trkpt lat="43.4791012" lon="13.4766025"><ele>146.0</ele><time>2026-03-22T06:13:45.31Z</time></trkpt><trkpt lat="43.4790213" lon="13.4764697"><ele>146.0</ele><time>2026-03-22T06:13:46.312Z</time></trkpt><trkpt lat="43.4789795" lon="13.4763106"><ele>146.0</ele><time>2026-03-22T06:13:47.313Z</time></trkpt><trkpt lat="43.4789315" lon="13.4761686"><ele>146.0</ele><time>2026-03-22T06:13:48.312Z</time></trkpt><trkpt lat="43.4788989" lon="13.4760163"><ele>145.0</ele><time>2026-03-22T06:13:49.312Z</time></trkpt><trkpt lat="43.4788573" lon="13.4758655"><ele>144.0</ele><time>2026-03-22T06:13:50.311Z</time></trkpt><trkpt lat="43.4788141" lon="13.4757182"><ele>143.0</ele><time>2026-03-22T06:13:51.311Z</time></trkpt><trkpt lat="43.4787748" lon="13.4755724"><ele>142.0</ele><time>2026-03-22T06:13:52.312Z</time></trkpt><trkpt lat="43.4787325" lon="13.4754305"><ele>140.2</ele><time>2026-03-22T06:13:53.311Z</time></trkpt><trkpt lat="43.4786888" lon="13.4752875"><ele>138.39999999999998</ele><time>2026-03-22T06:13:54.311Z</time></trkpt><trkpt lat="43.4786541" lon="13.475142"><ele>136.60000000000002</ele><time>2026-03-22T06:13:55.312Z</time></trkpt><trkpt lat="43.4786172" lon="13.4749967"><ele>134.8</ele><time>2026-03-22T06:13:56.312Z</time></trkpt><trkpt lat="43.4785825" lon="13.4748509"><ele>133.0</ele><time>2026-03-22T06:13:57.311Z</time></trkpt><trkpt lat="43.4785434" lon="13.4747065"><ele>132.5</ele><time>2026-03-22T06:13:58.311Z</time></trkpt><trkpt lat="43.4784976" lon="13.4745579"><ele>132.0</ele><time>2026-03-22T06:13:59.311Z</time></trkpt><trkpt lat="43.4784513" lon="13.4744115"><ele>131.5</ele><time>2026-03-22T06:14:00.311Z</time></trkpt><trkpt lat="43.4784116" lon="13.474256"><ele>131.0</ele><time>2026-03-22T06:14:01.311Z</time></trkpt><trkpt lat="43.4783708" lon="13.4741073"><ele>131.0</ele><time>2026-03-22T06:14:02.31Z</time></trkpt><trkpt lat="43.4783255" lon="13.4739603"><ele>131.0</ele><time>2026-03-22T06:14:03.311Z</time></trkpt><trkpt lat="43.478279" lon="13.47381"><ele>131.0</ele><time>2026-03-22T06:14:04.312Z</time></trkpt><trkpt lat="43.4782366" lon="13.4736567"><ele>131.0</ele><time>2026-03-22T06:14:05.313Z</time></trkpt><trkpt lat="43.47819" lon="13.4735146"><ele>130.4</ele><time>2026-03-22T06:14:06.312Z</time></trkpt><trkpt lat="43.4781432" lon="13.4733702"><ele>129.8</ele><time>2026-03-22T06:14:07.313Z</time></trkpt><trkpt lat="43.4781024" lon="13.4732284"><ele>129.20000000000002</ele><time>2026-03-22T06:14:08.311Z</time></trkpt><trkpt lat="43.4780679" lon="13.473095"><ele>128.6</ele><time>2026-03-22T06:14:09.312Z</time></trkpt><trkpt lat="43.478041" lon="13.4729825"><ele>128.0</ele><time>2026-03-22T06:14:10.31Z</time></trkpt><trkpt lat="43.4780157" lon="13.472876"><ele>126.85714285714285</ele><time>2026-03-22T06:14:11.311Z</time></trkpt><trkpt lat="43.4780055" lon="13.472775"><ele>125.7142857142857</ele><time>2026-03-22T06:14:12.311Z</time></trkpt><trkpt lat="43.4780115" lon="13.4726752"><ele>124.57142857142857</ele><time>2026-03-22T06:14:13.311Z</time></trkpt><trkpt lat="43.4780194" lon="13.4725758"><ele>123.42857142857142</ele><time>2026-03-22T06:14:14.313Z</time></trkpt><trkpt lat="43.4780069" lon="13.4724848"><ele>122.28571428571428</ele><time>2026-03-22T06:14:15.312Z</time></trkpt><trkpt lat="43.4779708" lon="13.4724053"><ele>121.14285714285714</ele><time>2026-03-22T06:14:16.312Z</time></trkpt><trkpt lat="43.4779109" lon="13.4723341"><ele>120.0</ele><time>2026-03-22T06:14:17.311Z</time></trkpt><trkpt lat="43.477829" lon="13.4722632"><ele>120.0</ele><time>2026-03-22T06:14:18.312Z</time></trkpt><trkpt lat="43.4777376" lon="13.4721644"><ele>120.0</ele><time>2026-03-22T06:14:19.312Z</time></trkpt><trkpt lat="43.4776441" lon="13.4720497"><ele>120.0</ele><time>2026-03-22T06:14:20.313Z</time></trkpt><trkpt lat="43.4775551" lon="13.4718996"><ele>120.0</ele><time>2026-03-22T06:14:21.312Z</time></trkpt><trkpt lat="43.4774621" lon="13.4717458"><ele>119.33333333333334</ele><time>2026-03-22T06:14:22.312Z</time></trkpt><trkpt lat="43.4773643" lon="13.4715827"><ele>118.66666666666667</ele><time>2026-03-22T06:14:23.311Z</time></trkpt><trkpt lat="43.4772614" lon="13.4714179"><ele>118.0</ele><time>2026-03-22T06:14:24.312Z</time></trkpt><trkpt lat="43.4771443" lon="13.4712452"><ele>117.0</ele><time>2026-03-22T06:14:25.311Z</time></trkpt><trkpt lat="43.4770269" lon="13.4710711"><ele>116.0</ele><time>2026-03-22T06:14:26.313Z</time></trkpt><trkpt lat="43.4769052" lon="13.470898"><ele>115.0</ele><time>2026-03-22T06:14:27.312Z</time></trkpt><trkpt lat="43.4767807" lon="13.4707275"><ele>115.0</ele><time>2026-03-22T06:14:28.311Z</time></trkpt><trkpt lat="43.4766408" lon="13.4705769"><ele>115.0</ele><time>2026-03-22T06:14:29.312Z</time></trkpt><trkpt lat="43.4764981" lon="13.4704282"><ele>115.0</ele><time>2026-03-22T06:14:30.311Z</time></trkpt><trkpt lat="43.4763459" lon="13.4702874"><ele>113.66666666666667</ele><time>2026-03-22T06:14:31.312Z</time></trkpt><trkpt lat="43.4761898" lon="13.4701473"><ele>112.33333333333334</ele><time>2026-03-22T06:14:32.311Z</time></trkpt><trkpt lat="43.4760263" lon="13.4700154"><ele>111.0</ele><time>2026-03-22T06:14:33.312Z</time></trkpt><trkpt lat="43.4758644" lon="13.4698924"><ele>111.0</ele><time>2026-03-22T06:14:34.312Z</time></trkpt><trkpt lat="43.4757032" lon="13.4697731"><ele>111.0</ele><time>2026-03-22T06:14:35.311Z</time></trkpt><trkpt lat="43.4755368" lon="13.4696608"><ele>111.0</ele><time>2026-03-22T06:14:36.311Z</time></trkpt><trkpt lat="43.475367" lon="13.4695631"><ele>110.0</ele><time>2026-03-22T06:14:37.311Z</time></trkpt><trkpt lat="43.4751942" lon="13.4694828"><ele>109.0</ele><time>2026-03-22T06:14:38.311Z</time></trkpt><trkpt lat="43.4750187" lon="13.4694269"><ele>108.0</ele><time>2026-03-22T06:14:39.311Z</time></trkpt><trkpt lat="43.4748331" lon="13.469371"><ele>108.0</ele><time>2026-03-22T06:14:40.312Z</time></trkpt><trkpt lat="43.4746531" lon="13.4693117"><ele>108.0</ele><time>2026-03-22T06:14:41.312Z</time></trkpt><trkpt lat="43.474477" lon="13.469252"><ele>108.0</ele><time>2026-03-22T06:14:42.312Z</time></trkpt><trkpt lat="43.4742968" lon="13.4691922"><ele>105.0</ele><time>2026-03-22T06:14:43.312Z</time></trkpt><trkpt lat="43.4741149" lon="13.4691316"><ele>102.0</ele><time>2026-03-22T06:14:44.311Z</time></trkpt><trkpt lat="43.4739291" lon="13.4690701"><ele>99.0</ele><time>2026-03-22T06:14:45.311Z</time></trkpt><trkpt lat="43.4737487" lon="13.4690017"><ele>95.66666666666667</ele><time>2026-03-22T06:14:46.312Z</time></trkpt><trkpt lat="43.4735749" lon="13.4689348"><ele>92.33333333333334</ele><time>2026-03-22T06:14:47.311Z</time></trkpt><trkpt lat="43.473414" lon="13.4688706"><ele>89.0</ele><time>2026-03-22T06:14:48.312Z</time></trkpt><trkpt lat="43.4732717" lon="13.468814"><ele>89.0</ele><time>2026-03-22T06:14:49.312Z</time></trkpt><trkpt lat="43.4731431" lon="13.4687503"><ele>89.0</ele><time>2026-03-22T06:14:50.312Z</time></trkpt><trkpt lat="43.4730277" lon="13.4686787"><ele>89.0</ele><time>2026-03-22T06:14:51.311Z</time></trkpt><trkpt lat="43.47293" lon="13.4685886"><ele>89.0</ele><time>2026-03-22T06:14:52.312Z</time></trkpt><trkpt lat="43.4728351" lon="13.4685184"><ele>87.0</ele><time>2026-03-22T06:14:53.312Z</time></trkpt><trkpt lat="43.4727237" lon="13.4684917"><ele>85.0</ele><time>2026-03-22T06:14:54.312Z</time></trkpt><trkpt lat="43.4726093" lon="13.4684662"><ele>83.0</ele><time>2026-03-22T06:14:55.312Z</time></trkpt><trkpt lat="43.4724902" lon="13.4684208"><ele>81.0</ele><time>2026-03-22T06:14:56.312Z</time></trkpt><trkpt lat="43.4723656" lon="13.4683653"><ele>81.0</ele><time>2026-03-22T06:14:57.312Z</time></trkpt><trkpt lat="43.472233" lon="13.4683103"><ele>81.0</ele><time>2026-03-22T06:14:58.31Z</time></trkpt><trkpt lat="43.4720886" lon="13.4682638"><ele>81.0</ele><time>2026-03-22T06:14:59.312Z</time></trkpt><trkpt lat="43.471937" lon="13.4682268"><ele>81.0</ele><time>2026-03-22T06:15:00.311Z</time></trkpt><trkpt lat="43.4717812" lon="13.4681986"><ele>78.66666666666667</ele><time>2026-03-22T06:15:01.311Z</time></trkpt><trkpt lat="43.4716236" lon="13.4681696"><ele>76.33333333333334</ele><time>2026-03-22T06:15:02.312Z</time></trkpt><trkpt lat="43.4714664" lon="13.4681301"><ele>74.0</ele><time>2026-03-22T06:15:03.311Z</time></trkpt><trkpt lat="43.4713157" lon="13.4680906"><ele>72.66666666666667</ele><time>2026-03-22T06:15:04.312Z</time></trkpt><trkpt lat="43.4711623" lon="13.4680325"><ele>71.33333333333333</ele><time>2026-03-22T06:15:05.313Z</time></trkpt><trkpt lat="43.4710166" lon="13.4679704"><ele>70.0</ele><time>2026-03-22T06:15:06.311Z</time></trkpt><trkpt lat="43.4708725" lon="13.4679017"><ele>69.0</ele><time>2026-03-22T06:15:07.31Z</time></trkpt><trkpt lat="43.4707353" lon="13.467821"><ele>68.0</ele><time>2026-03-22T06:15:08.312Z</time></trkpt><trkpt lat="43.4706031" lon="13.4677383"><ele>67.0</ele><time>2026-03-22T06:15:09.312Z</time></trkpt><trkpt lat="43.4704739" lon="13.4676484"><ele>66.0</ele><time>2026-03-22T06:15:10.312Z</time></trkpt><trkpt lat="43.4703469" lon="13.4675578"><ele>65.0</ele><time>2026-03-22T06:15:11.312Z</time></trkpt><trkpt lat="43.4702227" lon="13.4674661"><ele>64.0</ele><time>2026-03-22T06:15:12.311Z</time></trkpt><trkpt lat="43.4700996" lon="13.4673783"><ele>63.0</ele><time>2026-03-22T06:15:13.311Z</time></trkpt><trkpt lat="43.4699814" lon="13.4672891"><ele>62.0</ele><time>2026-03-22T06:15:14.311Z</time></trkpt><trkpt lat="43.469865" lon="13.4672"><ele>62.0</ele><time>2026-03-22T06:15:15.312Z</time></trkpt><trkpt lat="43.4697516" lon="13.4671079"><ele>62.0</ele><time>2026-03-22T06:15:16.311Z</time></trkpt><trkpt lat="43.4696399" lon="13.4670206"><ele>62.0</ele><time>2026-03-22T06:15:17.313Z</time></trkpt><trkpt lat="43.469528" lon="13.4669327"><ele>62.0</ele><time>2026-03-22T06:15:18.313Z</time></trkpt><trkpt lat="43.469415" lon="13.4668507"><ele>62.25</ele><time>2026-03-22T06:15:19.311Z</time></trkpt><trkpt lat="43.4693065" lon="13.4667669"><ele>62.5</ele><time>2026-03-22T06:15:20.312Z</time></trkpt><trkpt lat="43.4691994" lon="13.466681"><ele>62.75</ele><time>2026-03-22T06:15:21.312Z</time></trkpt><trkpt lat="43.4690951" lon="13.4666014"><ele>63.0</ele><time>2026-03-22T06:15:22.312Z</time></trkpt><trkpt lat="43.4689996" lon="13.4665233"><ele>63.0</ele><time>2026-03-22T06:15:23.312Z</time></trkpt><trkpt lat="43.4689186" lon="13.4664593"><ele>63.0</ele><time>2026-03-22T06:15:24.312Z</time></trkpt><trkpt lat="43.468848" lon="13.4664077"><ele>63.0</ele><time>2026-03-22T06:15:25.313Z</time></trkpt><trkpt lat="43.4687679" lon="13.4663289"><ele>63.0</ele><time>2026-03-22T06:15:27.311Z</time></trkpt><trkpt lat="43.4687155" lon="13.4662757"><ele>63.0</ele><time>2026-03-22T06:15:29.312Z</time></trkpt><trkpt lat="43.4686044" lon="13.4661784"><ele>62.2</ele><time>2026-03-22T06:15:31.313Z</time></trkpt><trkpt lat="43.4685276" lon="13.4661107"><ele>61.4</ele><time>2026-03-22T06:15:32.312Z</time></trkpt><trkpt lat="43.4684445" lon="13.4660415"><ele>60.60000000000001</ele><time>2026-03-22T06:15:33.311Z</time></trkpt><trkpt lat="43.4683364" lon="13.4659575"><ele>59.800000000000004</ele><time>2026-03-22T06:15:34.311Z</time></trkpt><trkpt lat="43.4682289" lon="13.4658599"><ele>59.0</ele><time>2026-03-22T06:15:35.312Z</time></trkpt><trkpt lat="43.4681067" lon="13.4657458"><ele>59.0</ele><time>2026-03-22T06:15:36.313Z</time></trkpt><trkpt lat="43.4679788" lon="13.4656248"><ele>59.0</ele><time>2026-03-22T06:15:37.312Z</time></trkpt><trkpt lat="43.4678501" lon="13.4655004"><ele>59.0</ele><time>2026-03-22T06:15:38.312Z</time></trkpt><trkpt lat="43.4677161" lon="13.4653762"><ele>58.333333333333336</ele><time>2026-03-22T06:15:39.311Z</time></trkpt><trkpt lat="43.4675777" lon="13.4652443"><ele>57.66666666666667</ele><time>2026-03-22T06:15:40.312Z</time></trkpt><trkpt lat="43.467437" lon="13.4651081"><ele>57.0</ele><time>2026-03-22T06:15:41.313Z</time></trkpt><trkpt lat="43.4672985" lon="13.4649751"><ele>57.0</ele><time>2026-03-22T06:15:42.312Z</time></trkpt><trkpt lat="43.4671591" lon="13.4648536"><ele>57.0</ele><time>2026-03-22T06:15:43.312Z</time></trkpt><trkpt lat="43.4670266" lon="13.4647306"><ele>57.0</ele><time>2026-03-22T06:15:44.313Z</time></trkpt><trkpt lat="43.466897" lon="13.4645999"><ele>56.33333333333333</ele><time>2026-03-22T06:15:45.313Z</time></trkpt><trkpt lat="43.466774" lon="13.4644675"><ele>55.666666666666664</ele><time>2026-03-22T06:15:46.312Z</time></trkpt><trkpt lat="43.4666658" lon="13.4643214"><ele>55.0</ele><time>2026-03-22T06:15:47.312Z</time></trkpt><trkpt lat="43.4665737" lon="13.4641611"><ele>55.0</ele><time>2026-03-22T06:15:48.312Z</time></trkpt><trkpt lat="43.4664945" lon="13.4639872"><ele>55.0</ele><time>2026-03-22T06:15:49.312Z</time></trkpt><trkpt lat="43.4664354" lon="13.4637913"><ele>55.0</ele><time>2026-03-22T06:15:50.312Z</time></trkpt><trkpt lat="43.4663942" lon="13.4635712"><ele>55.0</ele><time>2026-03-22T06:15:51.313Z</time></trkpt><trkpt lat="43.4663676" lon="13.4633365"><ele>55.0</ele><time>2026-03-22T06:15:52.312Z</time></trkpt><trkpt lat="43.466366" lon="13.4630986"><ele>55.0</ele><time>2026-03-22T06:15:53.311Z</time></trkpt><trkpt lat="43.4663859" lon="13.4628661"><ele>54.666666666666664</ele><time>2026-03-22T06:15:54.312Z</time></trkpt><trkpt lat="43.4664209" lon="13.4626305"><ele>54.33333333333333</ele><time>2026-03-22T06:15:55.312Z</time></trkpt><trkpt lat="43.4664553" lon="13.462392"><ele>54.0</ele><time>2026-03-22T06:15:56.312Z</time></trkpt><trkpt lat="43.4664953" lon="13.4621567"><ele>53.66666666666667</ele><time>2026-03-22T06:15:57.312Z</time></trkpt><trkpt lat="43.4665295" lon="13.4619217"><ele>53.333333333333336</ele><time>2026-03-22T06:15:58.312Z</time></trkpt><trkpt lat="43.466569" lon="13.4616777"><ele>53.0</ele><time>2026-03-22T06:15:59.312Z</time></trkpt><trkpt lat="43.4666045" lon="13.4614314"><ele>52.66666666666667</ele><time>2026-03-22T06:16:00.313Z</time></trkpt><trkpt lat="43.4666435" lon="13.4611782"><ele>52.33333333333333</ele><time>2026-03-22T06:16:01.311Z</time></trkpt><trkpt lat="43.4666822" lon="13.4609254"><ele>52.0</ele><time>2026-03-22T06:16:02.312Z</time></trkpt><trkpt lat="43.4667219" lon="13.4606679"><ele>52.0</ele><time>2026-03-22T06:16:03.311Z</time></trkpt><trkpt lat="43.4667633" lon="13.4604109"><ele>52.0</ele><time>2026-03-22T06:16:04.312Z</time></trkpt><trkpt lat="43.4668038" lon="13.4601475"><ele>52.0</ele><time>2026-03-22T06:16:05.313Z</time></trkpt><trkpt lat="43.4668418" lon="13.4598926"><ele>52.0</ele><time>2026-03-22T06:16:06.311Z</time></trkpt><trkpt lat="43.4668759" lon="13.4596461"><ele>52.0</ele><time>2026-03-22T06:16:07.312Z</time></trkpt><trkpt lat="43.4669074" lon="13.4594192"><ele>52.0</ele><time>2026-03-22T06:16:08.312Z</time></trkpt><trkpt lat="43.4669337" lon="13.459219"><ele>52.0</ele><time>2026-03-22T06:16:09.311Z</time></trkpt><trkpt lat="43.4669561" lon="13.4590469"><ele>52.0</ele><time>2026-03-22T06:16:10.312Z</time></trkpt><trkpt lat="43.4669828" lon="13.4588911"><ele>52.0</ele><time>2026-03-22T06:16:11.312Z</time></trkpt><trkpt lat="43.4670166" lon="13.4587672"><ele>52.0</ele><time>2026-03-22T06:16:12.312Z</time></trkpt><trkpt lat="43.4670643" lon="13.458658"><ele>52.0</ele><time>2026-03-22T06:16:13.31Z</time></trkpt><trkpt lat="43.4671109" lon="13.4585604"><ele>51.99999999999999</ele><time>2026-03-22T06:16:14.312Z</time></trkpt><trkpt lat="43.4671394" lon="13.458453"><ele>52.0</ele><time>2026-03-22T06:16:15.312Z</time></trkpt><trkpt lat="43.4671541" lon="13.4583435"><ele>52.0</ele><time>2026-03-22T06:16:16.312Z</time></trkpt><trkpt lat="43.4671156" lon="13.4582374"><ele>52.0</ele><time>2026-03-22T06:16:17.313Z</time></trkpt><trkpt lat="43.4670621" lon="13.4581567"><ele>51.99999999999999</ele><time>2026-03-22T06:16:18.312Z</time></trkpt><trkpt lat="43.4669895" lon="13.4581242"><ele>52.0</ele><time>2026-03-22T06:16:19.312Z</time></trkpt><trkpt lat="43.4669107" lon="13.4581403"><ele>52.0</ele><time>2026-03-22T06:16:20.312Z</time></trkpt><trkpt lat="43.4668346" lon="13.4581959"><ele>52.0</ele><time>2026-03-22T06:16:21.312Z</time></trkpt><trkpt lat="43.4667477" lon="13.4582561"><ele>52.0</ele><time>2026-03-22T06:16:22.312Z</time></trkpt><trkpt lat="43.4666507" lon="13.4582765"><ele>52.0</ele><time>2026-03-22T06:16:23.313Z</time></trkpt><trkpt lat="43.4665338" lon="13.4582792"><ele>52.0</ele><time>2026-03-22T06:16:24.312Z</time></trkpt><trkpt lat="43.466415" lon="13.4582678"><ele>52.0</ele><time>2026-03-22T06:16:25.312Z</time></trkpt><trkpt lat="43.4662937" lon="13.4582601"><ele>52.0</ele><time>2026-03-22T06:16:26.313Z</time></trkpt><trkpt lat="43.4661645" lon="13.4582558"><ele>52.0</ele><time>2026-03-22T06:16:27.313Z</time></trkpt><trkpt lat="43.4660453" lon="13.4582473"><ele>52.0</ele><time>2026-03-22T06:16:28.312Z</time></trkpt><trkpt lat="43.4659293" lon="13.4582375"><ele>52.400000000000006</ele><time>2026-03-22T06:16:29.312Z</time></trkpt><trkpt lat="43.4658225" lon="13.4582216"><ele>52.800000000000004</ele><time>2026-03-22T06:16:30.312Z</time></trkpt><trkpt lat="43.4657251" lon="13.4582129"><ele>53.2</ele><time>2026-03-22T06:16:31.313Z</time></trkpt><trkpt lat="43.4656282" lon="13.4582049"><ele>53.6</ele><time>2026-03-22T06:16:32.313Z</time></trkpt><trkpt lat="43.4655471" lon="13.4582017"><ele>54.0</ele><time>2026-03-22T06:16:33.313Z</time></trkpt><trkpt lat="43.4654715" lon="13.4581872"><ele>54.166666666666664</ele><time>2026-03-22T06:16:34.313Z</time></trkpt><trkpt lat="43.4654056" lon="13.458176"><ele>54.33333333333333</ele><time>2026-03-22T06:16:35.313Z</time></trkpt><trkpt lat="43.4653388" lon="13.4581652"><ele>54.5</ele><time>2026-03-22T06:16:36.312Z</time></trkpt><trkpt lat="43.4652066" lon="13.4581399"><ele>54.666666666666664</ele><time>2026-03-22T06:16:38.312Z</time></trkpt><trkpt lat="43.4651358" lon="13.4581355"><ele>54.83333333333333</ele><time>2026-03-22T06:16:39.313Z</time></trkpt><trkpt lat="43.4650563" lon="13.4581217"><ele>55.0</ele><time>2026-03-22T06:16:40.313Z</time></trkpt><trkpt lat="43.4649779" lon="13.4581054"><ele>55.0</ele><time>2026-03-22T06:16:41.312Z</time></trkpt><trkpt lat="43.4648684" lon="13.4580797"><ele>55.0</ele><time>2026-03-22T06:16:42.313Z</time></trkpt><trkpt lat="43.4647571" lon="13.458051"><ele>55.0</ele><time>2026-03-22T06:16:43.312Z</time></trkpt><trkpt lat="43.4646337" lon="13.4579885"><ele>55.0</ele><time>2026-03-22T06:16:44.312Z</time></trkpt><trkpt lat="43.4645076" lon="13.4578948"><ele>55.0</ele><time>2026-03-22T06:16:45.313Z</time></trkpt><trkpt lat="43.4643755" lon="13.4577672"><ele>55.0</ele><time>2026-03-22T06:16:46.313Z</time></trkpt><trkpt lat="43.464245" lon="13.4576341"><ele>55.0</ele><time>2026-03-22T06:16:47.311Z</time></trkpt><trkpt lat="43.4641002" lon="13.457496"><ele>55.0</ele><time>2026-03-22T06:16:48.313Z</time></trkpt><trkpt lat="43.4639447" lon="13.4573489"><ele>55.0</ele><time>2026-03-22T06:16:49.313Z</time></trkpt><trkpt lat="43.4637836" lon="13.45719"><ele>55.0</ele><time>2026-03-22T06:16:50.312Z</time></trkpt><trkpt lat="43.4636172" lon="13.4570201"><ele>54.666666666666664</ele><time>2026-03-22T06:16:51.312Z</time></trkpt><trkpt lat="43.4634455" lon="13.4568508"><ele>54.33333333333333</ele><time>2026-03-22T06:16:52.312Z</time></trkpt><trkpt lat="43.4632578" lon="13.4566749"><ele>54.0</ele><time>2026-03-22T06:16:53.313Z</time></trkpt><trkpt lat="43.4630746" lon="13.4564992"><ele>54.0</ele><time>2026-03-22T06:16:54.313Z</time></trkpt><trkpt lat="43.462888" lon="13.4563213"><ele>54.0</ele><time>2026-03-22T06:16:55.312Z</time></trkpt><trkpt lat="43.462702" lon="13.4561416"><ele>54.5</ele><time>2026-03-22T06:16:56.311Z</time></trkpt><trkpt lat="43.4625115" lon="13.4559621"><ele>55.0</ele><time>2026-03-22T06:16:57.312Z</time></trkpt><trkpt lat="43.4623141" lon="13.4557833"><ele>55.0</ele><time>2026-03-22T06:16:58.312Z</time></trkpt><trkpt lat="43.462115" lon="13.4556163"><ele>55.0</ele><time>2026-03-22T06:16:59.311Z</time></trkpt><trkpt lat="43.4619154" lon="13.4554349"><ele>55.0</ele><time>2026-03-22T06:17:00.312Z</time></trkpt><trkpt lat="43.4617174" lon="13.4552436"><ele>55.0</ele><time>2026-03-22T06:17:01.312Z</time></trkpt><trkpt lat="43.4615183" lon="13.4550524"><ele>55.0</ele><time>2026-03-22T06:17:02.312Z</time></trkpt><trkpt lat="43.4613141" lon="13.4548679"><ele>55.0</ele><time>2026-03-22T06:17:03.311Z</time></trkpt><trkpt lat="43.4611137" lon="13.454685"><ele>55.0</ele><time>2026-03-22T06:17:04.312Z</time></trkpt><trkpt lat="43.4609078" lon="13.4544946"><ele>55.0</ele><time>2026-03-22T06:17:05.313Z</time></trkpt><trkpt lat="43.4607114" lon="13.4542956"><ele>55.0</ele><time>2026-03-22T06:17:06.312Z</time></trkpt><trkpt lat="43.4605051" lon="13.4541048"><ele>55.0</ele><time>2026-03-22T06:17:07.311Z</time></trkpt><trkpt lat="43.4603021" lon="13.4539104"><ele>54.5</ele><time>2026-03-22T06:17:08.312Z</time></trkpt><trkpt lat="43.4600984" lon="13.4537226"><ele>54.0</ele><time>2026-03-22T06:17:09.313Z</time></trkpt><trkpt lat="43.4598925" lon="13.453534"><ele>54.0</ele><time>2026-03-22T06:17:10.311Z</time></trkpt><trkpt lat="43.4596858" lon="13.4533467"><ele>54.0</ele><time>2026-03-22T06:17:11.312Z</time></trkpt><trkpt lat="43.4594769" lon="13.4531528"><ele>54.0</ele><time>2026-03-22T06:17:12.312Z</time></trkpt><trkpt lat="43.4592723" lon="13.4529654"><ele>54.0</ele><time>2026-03-22T06:17:13.312Z</time></trkpt><trkpt lat="43.4590635" lon="13.4527788"><ele>54.0</ele><time>2026-03-22T06:17:14.312Z</time></trkpt><trkpt lat="43.4588588" lon="13.4525854"><ele>54.0</ele><time>2026-03-22T06:17:15.312Z</time></trkpt><trkpt lat="43.4586525" lon="13.4523978"><ele>54.0</ele><time>2026-03-22T06:17:16.312Z</time></trkpt><trkpt lat="43.4584516" lon="13.4522013"><ele>54.0</ele><time>2026-03-22T06:17:17.312Z</time></trkpt><trkpt lat="43.4582447" lon="13.4520091"><ele>54.0</ele><time>2026-03-22T06:17:18.312Z</time></trkpt><trkpt lat="43.4580377" lon="13.4518231"><ele>54.0</ele><time>2026-03-22T06:17:19.312Z</time></trkpt><trkpt lat="43.4578347" lon="13.4516287"><ele>53.5</ele><time>2026-03-22T06:17:20.312Z</time></trkpt><trkpt lat="43.4576301" lon="13.4514422"><ele>53.0</ele><time>2026-03-22T06:17:21.313Z</time></trkpt><trkpt lat="43.457429" lon="13.4512584"><ele>53.0</ele><time>2026-03-22T06:17:22.313Z</time></trkpt><trkpt lat="43.4572318" lon="13.4510737"><ele>53.0</ele><time>2026-03-22T06:17:23.313Z</time></trkpt><trkpt lat="43.4570329" lon="13.4508851"><ele>53.5</ele><time>2026-03-22T06:17:24.312Z</time></trkpt><trkpt lat="43.4568391" lon="13.4506935"><ele>54.0</ele><time>2026-03-22T06:17:25.311Z</time></trkpt><trkpt lat="43.4566491" lon="13.4504997"><ele>54.0</ele><time>2026-03-22T06:17:26.312Z</time></trkpt><trkpt lat="43.456458" lon="13.450312"><ele>54.0</ele><time>2026-03-22T06:17:27.313Z</time></trkpt><trkpt lat="43.4562709" lon="13.4501292"><ele>54.0</ele><time>2026-03-22T06:17:28.311Z</time></trkpt><trkpt lat="43.4560887" lon="13.4499409"><ele>54.0</ele><time>2026-03-22T06:17:29.313Z</time></trkpt><trkpt lat="43.4559128" lon="13.4497676"><ele>54.0</ele><time>2026-03-22T06:17:30.312Z</time></trkpt><trkpt lat="43.4557429" lon="13.4496002"><ele>54.0</ele><time>2026-03-22T06:17:31.31Z</time></trkpt><trkpt lat="43.4555829" lon="13.4494393"><ele>54.0</ele><time>2026-03-22T06:17:32.312Z</time></trkpt><trkpt lat="43.4554327" lon="13.4492823"><ele>54.0</ele><time>2026-03-22T06:17:33.311Z</time></trkpt><trkpt lat="43.4552855" lon="13.4491343"><ele>54.0</ele><time>2026-03-22T06:17:34.313Z</time></trkpt><trkpt lat="43.4551328" lon="13.4489918"><ele>54.0</ele><time>2026-03-22T06:17:35.312Z</time></trkpt><trkpt lat="43.454989" lon="13.4488512"><ele>54.0</ele><time>2026-03-22T06:17:36.313Z</time></trkpt><trkpt lat="43.4548466" lon="13.4487119"><ele>54.0</ele><time>2026-03-22T06:17:37.312Z</time></trkpt><trkpt lat="43.4547128" lon="13.4485758"><ele>54.0</ele><time>2026-03-22T06:17:38.312Z</time></trkpt><trkpt lat="43.4545919" lon="13.4484478"><ele>54.0</ele><time>2026-03-22T06:17:39.313Z</time></trkpt><trkpt lat="43.4544862" lon="13.4483274"><ele>54.2</ele><time>2026-03-22T06:17:40.313Z</time></trkpt><trkpt lat="43.4543936" lon="13.4482219"><ele>54.400000000000006</ele><time>2026-03-22T06:17:41.311Z</time></trkpt><trkpt lat="43.4543109" lon="13.4481133"><ele>54.6</ele><time>2026-03-22T06:17:42.312Z</time></trkpt><trkpt lat="43.4542509" lon="13.447996"><ele>54.8</ele><time>2026-03-22T06:17:43.311Z</time></trkpt><trkpt lat="43.4542174" lon="13.447879"><ele>55.0</ele><time>2026-03-22T06:17:44.312Z</time></trkpt><trkpt lat="43.4542103" lon="13.4477736"><ele>55.33333333333333</ele><time>2026-03-22T06:17:45.31Z</time></trkpt><trkpt lat="43.4542114" lon="13.4476683"><ele>55.666666666666664</ele><time>2026-03-22T06:17:46.311Z</time></trkpt><trkpt lat="43.4542045" lon="13.4475751"><ele>56.0</ele><time>2026-03-22T06:17:47.311Z</time></trkpt><trkpt lat="43.4541367" lon="13.4474517"><ele>56.33333333333333</ele><time>2026-03-22T06:17:49.312Z</time></trkpt><trkpt lat="43.4540717" lon="13.4474545"><ele>56.666666666666664</ele><time>2026-03-22T06:17:50.311Z</time></trkpt><trkpt lat="43.4540029" lon="13.4474995"><ele>57.0</ele><time>2026-03-22T06:17:51.313Z</time></trkpt><trkpt lat="43.4539277" lon="13.4475482"><ele>57.0</ele><time>2026-03-22T06:17:52.313Z</time></trkpt><trkpt lat="43.4538379" lon="13.4475579"><ele>57.0</ele><time>2026-03-22T06:17:53.313Z</time></trkpt><trkpt lat="43.4537467" lon="13.4475178"><ele>57.0</ele><time>2026-03-22T06:17:54.312Z</time></trkpt><trkpt lat="43.4536449" lon="13.4474408"><ele>57.0</ele><time>2026-03-22T06:17:55.313Z</time></trkpt><trkpt lat="43.4535271" lon="13.4473431"><ele>57.0</ele><time>2026-03-22T06:17:56.311Z</time></trkpt><trkpt lat="43.4533882" lon="13.4472454"><ele>57.0</ele><time>2026-03-22T06:17:57.312Z</time></trkpt><trkpt lat="43.4532363" lon="13.4471424"><ele>57.0</ele><time>2026-03-22T06:17:58.312Z</time></trkpt><trkpt lat="43.4530735" lon="13.4470287"><ele>57.0</ele><time>2026-03-22T06:17:59.313Z</time></trkpt><trkpt lat="43.4529079" lon="13.4469163"><ele>58.33333333333333</ele><time>2026-03-22T06:18:00.313Z</time></trkpt><trkpt lat="43.4527363" lon="13.4468067"><ele>59.666666666666664</ele><time>2026-03-22T06:18:01.312Z</time></trkpt><trkpt lat="43.4525713" lon="13.4466931"><ele>61.0</ele><time>2026-03-22T06:18:02.313Z</time></trkpt><trkpt lat="43.4524079" lon="13.4465793"><ele>61.0</ele><time>2026-03-22T06:18:03.312Z</time></trkpt><trkpt lat="43.4522489" lon="13.4464784"><ele>61.0</ele><time>2026-03-22T06:18:04.311Z</time></trkpt><trkpt lat="43.4520906" lon="13.4464002"><ele>61.0</ele><time>2026-03-22T06:18:05.311Z</time></trkpt><trkpt lat="43.4519278" lon="13.4463344"><ele>61.666666666666664</ele><time>2026-03-22T06:18:06.312Z</time></trkpt><trkpt lat="43.4517588" lon="13.4462841"><ele>62.33333333333333</ele><time>2026-03-22T06:18:07.312Z</time></trkpt><trkpt lat="43.4515897" lon="13.4462336"><ele>63.0</ele><time>2026-03-22T06:18:08.312Z</time></trkpt><trkpt lat="43.4514315" lon="13.4461904"><ele>61.0</ele><time>2026-03-22T06:18:09.311Z</time></trkpt><trkpt lat="43.4512702" lon="13.4461626"><ele>59.0</ele><time>2026-03-22T06:18:10.312Z</time></trkpt><trkpt lat="43.4511177" lon="13.446144"><ele>57.0</ele><time>2026-03-22T06:18:11.313Z</time></trkpt><trkpt lat="43.4509601" lon="13.4461953"><ele>57.0</ele><time>2026-03-22T06:18:12.312Z</time></trkpt><trkpt lat="43.4508005" lon="13.4462761"><ele>57.0</ele><time>2026-03-22T06:18:13.312Z</time></trkpt><trkpt lat="43.4506397" lon="13.4463923"><ele>57.0</ele><time>2026-03-22T06:18:14.313Z</time></trkpt><trkpt lat="43.4504704" lon="13.4465122"><ele>56.66666666666667</ele><time>2026-03-22T06:18:15.312Z</time></trkpt><trkpt lat="43.4502894" lon="13.4466525"><ele>56.333333333333336</ele><time>2026-03-22T06:18:16.312Z</time></trkpt><trkpt lat="43.4501056" lon="13.4467904"><ele>56.0</ele><time>2026-03-22T06:18:17.312Z</time></trkpt><trkpt lat="43.4499267" lon="13.4469304"><ele>56.0</ele><time>2026-03-22T06:18:18.311Z</time></trkpt><trkpt lat="43.4497445" lon="13.4470731"><ele>56.0</ele><time>2026-03-22T06:18:19.312Z</time></trkpt><trkpt lat="43.4495581" lon="13.4472149"><ele>56.0</ele><time>2026-03-22T06:18:20.313Z</time></trkpt><trkpt lat="43.4493739" lon="13.4473623"><ele>55.333333333333336</ele><time>2026-03-22T06:18:21.312Z</time></trkpt><trkpt lat="43.449193" lon="13.4475025"><ele>54.66666666666667</ele><time>2026-03-22T06:18:22.312Z</time></trkpt><trkpt lat="43.4490164" lon="13.4476496"><ele>54.0</ele><time>2026-03-22T06:18:23.312Z</time></trkpt><trkpt lat="43.4488432" lon="13.4477904"><ele>54.0</ele><time>2026-03-22T06:18:24.311Z</time></trkpt><trkpt lat="43.4486642" lon="13.4479216"><ele>54.0</ele><time>2026-03-22T06:18:25.312Z</time></trkpt><trkpt lat="43.4484796" lon="13.4480597"><ele>54.0</ele><time>2026-03-22T06:18:26.311Z</time></trkpt><trkpt lat="43.4482936" lon="13.448198"><ele>54.0</ele><time>2026-03-22T06:18:27.312Z</time></trkpt><trkpt lat="43.4481174" lon="13.448334"><ele>54.0</ele><time>2026-03-22T06:18:28.313Z</time></trkpt><trkpt lat="43.44795" lon="13.4484537"><ele>54.0</ele><time>2026-03-22T06:18:29.312Z</time></trkpt><trkpt lat="43.447794" lon="13.4485813"><ele>53.66666666666667</ele><time>2026-03-22T06:18:30.313Z</time></trkpt><trkpt lat="43.4476407" lon="13.4487212"><ele>53.333333333333336</ele><time>2026-03-22T06:18:31.313Z</time></trkpt><trkpt lat="43.4474947" lon="13.4488798"><ele>53.0</ele><time>2026-03-22T06:18:32.312Z</time></trkpt><trkpt lat="43.4473663" lon="13.4490463"><ele>52.66666666666667</ele><time>2026-03-22T06:18:33.313Z</time></trkpt><trkpt lat="43.4472538" lon="13.4492164"><ele>52.33333333333333</ele><time>2026-03-22T06:18:34.312Z</time></trkpt><trkpt lat="43.4471577" lon="13.4493882"><ele>52.0</ele><time>2026-03-22T06:18:35.312Z</time></trkpt><trkpt lat="43.4470564" lon="13.4495336"><ele>53.0</ele><time>2026-03-22T06:18:36.312Z</time></trkpt><trkpt lat="43.4469464" lon="13.4496495"><ele>54.0</ele><time>2026-03-22T06:18:37.313Z</time></trkpt><trkpt lat="43.4468227" lon="13.4497307"><ele>55.0</ele><time>2026-03-22T06:18:38.31Z</time></trkpt><trkpt lat="43.4466984" lon="13.4498003"><ele>56.0</ele><time>2026-03-22T06:18:39.313Z</time></trkpt><trkpt lat="43.4465707" lon="13.4498649"><ele>56.0</ele><time>2026-03-22T06:18:40.313Z</time></trkpt><trkpt lat="43.4464466" lon="13.44993"><ele>56.0</ele><time>2026-03-22T06:18:41.313Z</time></trkpt><trkpt lat="43.4463216" lon="13.449986"><ele>56.0</ele><time>2026-03-22T06:18:42.312Z</time></trkpt><trkpt lat="43.4461979" lon="13.4500485"><ele>56.0</ele><time>2026-03-22T06:18:43.311Z</time></trkpt><trkpt lat="43.4460729" lon="13.4501023"><ele>56.5</ele><time>2026-03-22T06:18:44.313Z</time></trkpt><trkpt lat="43.4459522" lon="13.4501764"><ele>57.0</ele><time>2026-03-22T06:18:45.312Z</time></trkpt><trkpt lat="43.4458318" lon="13.4502422"><ele>57.5</ele><time>2026-03-22T06:18:46.313Z</time></trkpt><trkpt lat="43.4457062" lon="13.4503039"><ele>58.0</ele><time>2026-03-22T06:18:47.312Z</time></trkpt><trkpt lat="43.445581" lon="13.4503713"><ele>58.0</ele><time>2026-03-22T06:18:48.313Z</time></trkpt><trkpt lat="43.4454535" lon="13.4504337"><ele>58.0</ele><time>2026-03-22T06:18:49.312Z</time></trkpt><trkpt lat="43.4453225" lon="13.4504968"><ele>58.0</ele><time>2026-03-22T06:18:50.313Z</time></trkpt><trkpt lat="43.4451888" lon="13.4505494"><ele>58.0</ele><time>2026-03-22T06:18:51.313Z</time></trkpt><trkpt lat="43.4450514" lon="13.4505985"><ele>58.33333333333333</ele><time>2026-03-22T06:18:52.313Z</time></trkpt><trkpt lat="43.4449088" lon="13.4506504"><ele>58.66666666666667</ele><time>2026-03-22T06:18:53.311Z</time></trkpt><trkpt lat="43.444761" lon="13.4507058"><ele>59.0</ele><time>2026-03-22T06:18:54.313Z</time></trkpt><trkpt lat="43.4446037" lon="13.450774"><ele>59.66666666666667</ele><time>2026-03-22T06:18:55.312Z</time></trkpt><trkpt lat="43.4444404" lon="13.4508372"><ele>60.33333333333333</ele><time>2026-03-22T06:18:56.313Z</time></trkpt><trkpt lat="43.4442697" lon="13.4509054"><ele>61.0</ele><time>2026-03-22T06:18:57.313Z</time></trkpt><trkpt lat="43.4440988" lon="13.4509767"><ele>61.0</ele><time>2026-03-22T06:18:58.312Z</time></trkpt><trkpt lat="43.4439298" lon="13.4510477"><ele>61.0</ele><time>2026-03-22T06:18:59.313Z</time></trkpt><trkpt lat="43.4437586" lon="13.4511197"><ele>61.0</ele><time>2026-03-22T06:19:00.312Z</time></trkpt><trkpt lat="43.4435976" lon="13.4511867"><ele>61.75</ele><time>2026-03-22T06:19:01.313Z</time></trkpt><trkpt lat="43.4434454" lon="13.4512426"><ele>62.5</ele><time>2026-03-22T06:19:02.312Z</time></trkpt><trkpt lat="43.4433059" lon="13.4512744"><ele>63.25</ele><time>2026-03-22T06:19:03.312Z</time></trkpt><trkpt lat="43.4431684" lon="13.4512634"><ele>64.0</ele><time>2026-03-22T06:19:04.313Z</time></trkpt><trkpt lat="43.4430438" lon="13.4511726"><ele>67.33333333333333</ele><time>2026-03-22T06:19:05.313Z</time></trkpt><trkpt lat="43.4429277" lon="13.4510561"><ele>70.66666666666667</ele><time>2026-03-22T06:19:06.313Z</time></trkpt><trkpt lat="43.4428325" lon="13.4508722"><ele>74.0</ele><time>2026-03-22T06:19:07.313Z</time></trkpt><trkpt lat="43.4427357" lon="13.4506832"><ele>74.0</ele><time>2026-03-22T06:19:08.312Z</time></trkpt><trkpt lat="43.4426405" lon="13.4504842"><ele>74.0</ele><time>2026-03-22T06:19:09.312Z</time></trkpt><trkpt lat="43.4425391" lon="13.4502729"><ele>74.0</ele><time>2026-03-22T06:19:10.312Z</time></trkpt><trkpt lat="43.4424372" lon="13.4500501"><ele>73.66666666666667</ele><time>2026-03-22T06:19:11.313Z</time></trkpt><trkpt lat="43.4423327" lon="13.4498254"><ele>73.33333333333333</ele><time>2026-03-22T06:19:12.313Z</time></trkpt><trkpt lat="43.4422243" lon="13.4495935"><ele>73.0</ele><time>2026-03-22T06:19:13.312Z</time></trkpt><trkpt lat="43.4421219" lon="13.4493689"><ele>74.0</ele><time>2026-03-22T06:19:14.311Z</time></trkpt><trkpt lat="43.4420243" lon="13.4491536"><ele>75.0</ele><time>2026-03-22T06:19:15.313Z</time></trkpt><trkpt lat="43.4419307" lon="13.4489526"><ele>76.0</ele><time>2026-03-22T06:19:16.313Z</time></trkpt><trkpt lat="43.4418351" lon="13.4487575"><ele>76.0</ele><time>2026-03-22T06:19:17.313Z</time></trkpt><trkpt lat="43.4417361" lon="13.4485768"><ele>76.0</ele><time>2026-03-22T06:19:18.312Z</time></trkpt><trkpt lat="43.4416329" lon="13.448413"><ele>76.0</ele><time>2026-03-22T06:19:19.313Z</time></trkpt><trkpt lat="43.4415288" lon="13.448271"><ele>76.0</ele><time>2026-03-22T06:19:20.313Z</time></trkpt><trkpt lat="43.4414141" lon="13.448158"><ele>76.0</ele><time>2026-03-22T06:19:21.313Z</time></trkpt><trkpt lat="43.4412971" lon="13.4480812"><ele>76.0</ele><time>2026-03-22T06:19:22.313Z</time></trkpt><trkpt lat="43.4411698" lon="13.4480539"><ele>76.0</ele><time>2026-03-22T06:19:23.312Z</time></trkpt><trkpt lat="43.4410419" lon="13.44807"><ele>78.0</ele><time>2026-03-22T06:19:24.312Z</time></trkpt><trkpt lat="43.4409215" lon="13.4481317"><ele>80.0</ele><time>2026-03-22T06:19:25.313Z</time></trkpt><trkpt lat="43.4408183" lon="13.4482335"><ele>82.0</ele><time>2026-03-22T06:19:26.311Z</time></trkpt><trkpt lat="43.4407348" lon="13.4483668"><ele>84.0</ele><time>2026-03-22T06:19:27.313Z</time></trkpt><trkpt lat="43.4406831" lon="13.4485373"><ele>84.0</ele><time>2026-03-22T06:19:28.311Z</time></trkpt><trkpt lat="43.4406587" lon="13.4487336"><ele>84.0</ele><time>2026-03-22T06:19:29.313Z</time></trkpt><trkpt lat="43.4406603" lon="13.4489476"><ele>84.0</ele><time>2026-03-22T06:19:30.312Z</time></trkpt><trkpt lat="43.4406859" lon="13.4491791"><ele>86.33333333333333</ele><time>2026-03-22T06:19:31.311Z</time></trkpt><trkpt lat="43.4407123" lon="13.4494179"><ele>88.66666666666666</ele><time>2026-03-22T06:19:32.313Z</time></trkpt><trkpt lat="43.4407403" lon="13.4496596"><ele>91.0</ele><time>2026-03-22T06:19:33.313Z</time></trkpt><trkpt lat="43.4407601" lon="13.4499116"><ele>92.0</ele><time>2026-03-22T06:19:34.312Z</time></trkpt><trkpt lat="43.4407702" lon="13.4501693"><ele>93.0</ele><time>2026-03-22T06:19:35.313Z</time></trkpt><trkpt lat="43.4407685" lon="13.4504375"><ele>94.0</ele><time>2026-03-22T06:19:36.312Z</time></trkpt><trkpt lat="43.4407547" lon="13.4507124"><ele>95.0</ele><time>2026-03-22T06:19:37.311Z</time></trkpt><trkpt lat="43.4407318" lon="13.4509861"><ele>96.0</ele><time>2026-03-22T06:19:38.313Z</time></trkpt><trkpt lat="43.4407031" lon="13.4512668"><ele>97.0</ele><time>2026-03-22T06:19:39.313Z</time></trkpt><trkpt lat="43.4406718" lon="13.4515526"><ele>98.33333333333334</ele><time>2026-03-22T06:19:40.312Z</time></trkpt><trkpt lat="43.4406451" lon="13.4518373"><ele>99.66666666666666</ele><time>2026-03-22T06:19:41.313Z</time></trkpt><trkpt lat="43.4406192" lon="13.4521222"><ele>101.0</ele><time>2026-03-22T06:19:42.312Z</time></trkpt><trkpt lat="43.4405924" lon="13.4524078"><ele>101.33333333333333</ele><time>2026-03-22T06:19:43.313Z</time></trkpt><trkpt lat="43.4405658" lon="13.452694"><ele>101.66666666666666</ele><time>2026-03-22T06:19:44.312Z</time></trkpt><trkpt lat="43.440539" lon="13.4529835"><ele>102.0</ele><time>2026-03-22T06:19:45.312Z</time></trkpt><trkpt lat="43.4405101" lon="13.4532691"><ele>101.33333333333334</ele><time>2026-03-22T06:19:46.312Z</time></trkpt><trkpt lat="43.4404718" lon="13.4535494"><ele>100.66666666666667</ele><time>2026-03-22T06:19:47.313Z</time></trkpt><trkpt lat="43.4404249" lon="13.4538214"><ele>100.0</ele><time>2026-03-22T06:19:48.313Z</time></trkpt><trkpt lat="43.4403717" lon="13.4540873"><ele>104.33333333333334</ele><time>2026-03-22T06:19:49.313Z</time></trkpt><trkpt lat="43.4403039" lon="13.4543525"><ele>108.66666666666666</ele><time>2026-03-22T06:19:50.312Z</time></trkpt><trkpt lat="43.4402297" lon="13.4546138"><ele>113.0</ele><time>2026-03-22T06:19:51.313Z</time></trkpt><trkpt lat="43.4401442" lon="13.4548749"><ele>113.0</ele><time>2026-03-22T06:19:52.313Z</time></trkpt><trkpt lat="43.4400501" lon="13.4551326"><ele>113.0</ele><time>2026-03-22T06:19:53.312Z</time></trkpt><trkpt lat="43.4399495" lon="13.455389"><ele>113.0</ele><time>2026-03-22T06:19:54.313Z</time></trkpt><trkpt lat="43.4398489" lon="13.4556403"><ele>111.66666666666666</ele><time>2026-03-22T06:19:55.312Z</time></trkpt><trkpt lat="43.439751" lon="13.455902"><ele>110.33333333333334</ele><time>2026-03-22T06:19:56.313Z</time></trkpt><trkpt lat="43.4396591" lon="13.4561643"><ele>109.0</ele><time>2026-03-22T06:19:57.312Z</time></trkpt><trkpt lat="43.4395703" lon="13.4564343"><ele>115.0</ele><time>2026-03-22T06:19:58.313Z</time></trkpt><trkpt lat="43.4394833" lon="13.4567084"><ele>121.0</ele><time>2026-03-22T06:19:59.313Z</time></trkpt><trkpt lat="43.4394" lon="13.4569813"><ele>127.0</ele><time>2026-03-22T06:20:00.312Z</time></trkpt><trkpt lat="43.439319" lon="13.4572555"><ele>127.0</ele><time>2026-03-22T06:20:01.313Z</time></trkpt><trkpt lat="43.4392415" lon="13.4575282"><ele>127.0</ele><time>2026-03-22T06:20:02.312Z</time></trkpt><trkpt lat="43.439169" lon="13.4578063"><ele>127.0</ele><time>2026-03-22T06:20:03.314Z</time></trkpt><trkpt lat="43.4391186" lon="13.4580914"><ele>127.0</ele><time>2026-03-22T06:20:04.313Z</time></trkpt><trkpt lat="43.4390698" lon="13.4583727"><ele>127.0</ele><time>2026-03-22T06:20:05.313Z</time></trkpt><trkpt lat="43.4390262" lon="13.4586564"><ele>127.0</ele><time>2026-03-22T06:20:06.313Z</time></trkpt><trkpt lat="43.4390011" lon="13.4589411"><ele>127.0</ele><time>2026-03-22T06:20:07.313Z</time></trkpt><trkpt lat="43.4389909" lon="13.4592253"><ele>127.0</ele><time>2026-03-22T06:20:08.313Z</time></trkpt><trkpt lat="43.4390001" lon="13.4595165"><ele>127.0</ele><time>2026-03-22T06:20:09.313Z</time></trkpt><trkpt lat="43.4390327" lon="13.459807"><ele>129.0</ele><time>2026-03-22T06:20:10.312Z</time></trkpt><trkpt lat="43.439076" lon="13.4601012"><ele>131.0</ele><time>2026-03-22T06:20:11.313Z</time></trkpt><trkpt lat="43.4391205" lon="13.4603883"><ele>133.0</ele><time>2026-03-22T06:20:12.312Z</time></trkpt><trkpt lat="43.4391618" lon="13.4606747"><ele>135.33333333333334</ele><time>2026-03-22T06:20:13.313Z</time></trkpt><trkpt lat="43.4392014" lon="13.4609576"><ele>137.66666666666666</ele><time>2026-03-22T06:20:14.312Z</time></trkpt><trkpt lat="43.4392347" lon="13.4612354"><ele>140.0</ele><time>2026-03-22T06:20:15.313Z</time></trkpt><trkpt lat="43.4392674" lon="13.4615092"><ele>141.66666666666666</ele><time>2026-03-22T06:20:16.313Z</time></trkpt><trkpt lat="43.4392954" lon="13.4617794"><ele>143.33333333333334</ele><time>2026-03-22T06:20:17.313Z</time></trkpt><trkpt lat="43.439324" lon="13.462056"><ele>145.0</ele><time>2026-03-22T06:20:18.313Z</time></trkpt><trkpt lat="43.4393532" lon="13.4623267"><ele>145.66666666666669</ele><time>2026-03-22T06:20:19.312Z</time></trkpt><trkpt lat="43.4393792" lon="13.4625864"><ele>146.33333333333334</ele><time>2026-03-22T06:20:20.313Z</time></trkpt><trkpt lat="43.4393988" lon="13.462831"><ele>147.0</ele><time>2026-03-22T06:20:21.312Z</time></trkpt><trkpt lat="43.4393915" lon="13.4630423"><ele>147.5</ele><time>2026-03-22T06:20:22.312Z</time></trkpt><trkpt lat="43.4393703" lon="13.4632371"><ele>148.0</ele><time>2026-03-22T06:20:23.313Z</time></trkpt><trkpt lat="43.439315" lon="13.4634087"><ele>148.5</ele><time>2026-03-22T06:20:24.312Z</time></trkpt><trkpt lat="43.4392383" lon="13.4635646"><ele>149.0</ele><time>2026-03-22T06:20:25.312Z</time></trkpt><trkpt lat="43.4391311" lon="13.4636844"><ele>149.0</ele><time>2026-03-22T06:20:26.313Z</time></trkpt><trkpt lat="43.4390079" lon="13.4637761"><ele>149.0</ele><time>2026-03-22T06:20:27.314Z</time></trkpt><trkpt lat="43.4388359" lon="13.4638285"><ele>149.0</ele><time>2026-03-22T06:20:28.312Z</time></trkpt><trkpt lat="43.4386717" lon="13.4638694"><ele>146.66666666666666</ele><time>2026-03-22T06:20:29.312Z</time></trkpt><trkpt lat="43.4384901" lon="13.4638882"><ele>144.33333333333334</ele><time>2026-03-22T06:20:30.312Z</time></trkpt><trkpt lat="43.4383041" lon="13.4638645"><ele>142.0</ele><time>2026-03-22T06:20:31.312Z</time></trkpt><trkpt lat="43.4381268" lon="13.4637961"><ele>143.0</ele><time>2026-03-22T06:20:32.312Z</time></trkpt><trkpt lat="43.437951" lon="13.4637081"><ele>144.0</ele><time>2026-03-22T06:20:33.313Z</time></trkpt><trkpt lat="43.4377826" lon="13.463576"><ele>145.0</ele><time>2026-03-22T06:20:34.312Z</time></trkpt><trkpt lat="43.4376435" lon="13.4633711"><ele>145.0</ele><time>2026-03-22T06:20:35.312Z</time></trkpt><trkpt lat="43.4374896" lon="13.4631795"><ele>145.0</ele><time>2026-03-22T06:20:36.312Z</time></trkpt><trkpt lat="43.4373291" lon="13.4629968"><ele>145.0</ele><time>2026-03-22T06:20:37.314Z</time></trkpt><trkpt lat="43.4371686" lon="13.4628142"><ele>145.33333333333334</ele><time>2026-03-22T06:20:38.312Z</time></trkpt><trkpt lat="43.4370127" lon="13.4626406"><ele>145.66666666666666</ele><time>2026-03-22T06:20:39.313Z</time></trkpt><trkpt lat="43.4368621" lon="13.4624737"><ele>146.0</ele><time>2026-03-22T06:20:40.314Z</time></trkpt><trkpt lat="43.4367136" lon="13.4623078"><ele>146.0</ele><time>2026-03-22T06:20:41.312Z</time></trkpt><trkpt lat="43.436579" lon="13.4621358"><ele>146.0</ele><time>2026-03-22T06:20:42.313Z</time></trkpt><trkpt lat="43.4364656" lon="13.4619521"><ele>146.0</ele><time>2026-03-22T06:20:43.313Z</time></trkpt><trkpt lat="43.4363807" lon="13.4617414"><ele>147.66666666666666</ele><time>2026-03-22T06:20:44.313Z</time></trkpt><trkpt lat="43.4363178" lon="13.461512"><ele>149.33333333333334</ele><time>2026-03-22T06:20:45.313Z</time></trkpt><trkpt lat="43.436265" lon="13.4612788"><ele>151.0</ele><time>2026-03-22T06:20:46.314Z</time></trkpt><trkpt lat="43.4362116" lon="13.4610419"><ele>148.33333333333334</ele><time>2026-03-22T06:20:47.312Z</time></trkpt><trkpt lat="43.4361467" lon="13.4608117"><ele>145.66666666666666</ele><time>2026-03-22T06:20:48.313Z</time></trkpt><trkpt lat="43.4360664" lon="13.4605969"><ele>143.0</ele><time>2026-03-22T06:20:49.313Z</time></trkpt><trkpt lat="43.4359618" lon="13.4603919"><ele>143.0</ele><time>2026-03-22T06:20:50.312Z</time></trkpt><trkpt lat="43.4358562" lon="13.4602038"><ele>143.0</ele><time>2026-03-22T06:20:51.313Z</time></trkpt><trkpt lat="43.4357283" lon="13.460037"><ele>143.0</ele><time>2026-03-22T06:20:52.312Z</time></trkpt><trkpt lat="43.435577" lon="13.4599167"><ele>143.33333333333331</ele><time>2026-03-22T06:20:53.313Z</time></trkpt><trkpt lat="43.4354255" lon="13.4598043"><ele>143.66666666666666</ele><time>2026-03-22T06:20:54.312Z</time></trkpt><trkpt lat="43.4352497" lon="13.4597338"><ele>144.0</ele><time>2026-03-22T06:20:55.312Z</time></trkpt><trkpt lat="43.435073" lon="13.4597096"><ele>144.0</ele><time>2026-03-22T06:20:56.313Z</time></trkpt><trkpt lat="43.4348913" lon="13.4597155"><ele>144.0</ele><time>2026-03-22T06:20:57.312Z</time></trkpt><trkpt lat="43.4347009" lon="13.4597508"><ele>144.0</ele><time>2026-03-22T06:20:58.312Z</time></trkpt><trkpt lat="43.4345062" lon="13.4598118"><ele>144.66666666666666</ele><time>2026-03-22T06:20:59.313Z</time></trkpt><trkpt lat="43.4343111" lon="13.4598909"><ele>145.33333333333331</ele><time>2026-03-22T06:21:00.314Z</time></trkpt><trkpt lat="43.4341212" lon="13.4599848"><ele>146.0</ele><time>2026-03-22T06:21:01.314Z</time></trkpt><trkpt lat="43.4339446" lon="13.4600759"><ele>148.33333333333331</ele><time>2026-03-22T06:21:02.313Z</time></trkpt><trkpt lat="43.4337741" lon="13.4601653"><ele>150.66666666666666</ele><time>2026-03-22T06:21:03.313Z</time></trkpt><trkpt lat="43.4336051" lon="13.4602436"><ele>153.0</ele><time>2026-03-22T06:21:04.313Z</time></trkpt><trkpt lat="43.4334274" lon="13.4602988"><ele>153.0</ele><time>2026-03-22T06:21:05.313Z</time></trkpt><trkpt lat="43.4332468" lon="13.4603303"><ele>153.0</ele><time>2026-03-22T06:21:06.312Z</time></trkpt><trkpt lat="43.4330637" lon="13.4603415"><ele>153.0</ele><time>2026-03-22T06:21:07.313Z</time></trkpt><trkpt lat="43.4328743" lon="13.4603249"><ele>151.66666666666666</ele><time>2026-03-22T06:21:08.313Z</time></trkpt><trkpt lat="43.4326853" lon="13.4602903"><ele>150.33333333333331</ele><time>2026-03-22T06:21:09.312Z</time></trkpt><trkpt lat="43.4324936" lon="13.4602455"><ele>149.0</ele><time>2026-03-22T06:21:10.313Z</time></trkpt><trkpt lat="43.4323039" lon="13.4601848"><ele>149.0</ele><time>2026-03-22T06:21:11.312Z</time></trkpt><trkpt lat="43.4321119" lon="13.460116"><ele>149.0</ele><time>2026-03-22T06:21:12.312Z</time></trkpt><trkpt lat="43.4319244" lon="13.4600306"><ele>149.0</ele><time>2026-03-22T06:21:13.313Z</time></trkpt><trkpt lat="43.431737" lon="13.459946"><ele>149.0</ele><time>2026-03-22T06:21:14.312Z</time></trkpt><trkpt lat="43.431544" lon="13.4598667"><ele>149.0</ele><time>2026-03-22T06:21:15.313Z</time></trkpt><trkpt lat="43.4313519" lon="13.4597857"><ele>149.0</ele><time>2026-03-22T06:21:16.313Z</time></trkpt><trkpt lat="43.4311585" lon="13.4597017"><ele>148.33333333333331</ele><time>2026-03-22T06:21:17.312Z</time></trkpt><trkpt lat="43.4309611" lon="13.4596199"><ele>147.66666666666666</ele><time>2026-03-22T06:21:18.313Z</time></trkpt><trkpt lat="43.4307679" lon="13.4595342"><ele>147.0</ele><time>2026-03-22T06:21:19.313Z</time></trkpt><trkpt lat="43.4305775" lon="13.4594464"><ele>150.0</ele><time>2026-03-22T06:21:20.313Z</time></trkpt><trkpt lat="43.4303918" lon="13.4593476"><ele>153.0</ele><time>2026-03-22T06:21:21.313Z</time></trkpt><trkpt lat="43.4302025" lon="13.4592415"><ele>156.0</ele><time>2026-03-22T06:21:22.312Z</time></trkpt><trkpt lat="43.4300128" lon="13.4591212"><ele>156.0</ele><time>2026-03-22T06:21:23.313Z</time></trkpt><trkpt lat="43.4298241" lon="13.4589828"><ele>156.0</ele><time>2026-03-22T06:21:24.312Z</time></trkpt><trkpt lat="43.429641" lon="13.4588427"><ele>156.0</ele><time>2026-03-22T06:21:25.313Z</time></trkpt><trkpt lat="43.4294669" lon="13.4587051"><ele>158.0</ele><time>2026-03-22T06:21:26.313Z</time></trkpt><trkpt lat="43.4292909" lon="13.4585977"><ele>160.0</ele><time>2026-03-22T06:21:27.314Z</time></trkpt><trkpt lat="43.4291052" lon="13.4585263"><ele>162.0</ele><time>2026-03-22T06:21:28.312Z</time></trkpt><trkpt lat="43.4289169" lon="13.4584835"><ele>162.66666666666666</ele><time>2026-03-22T06:21:29.313Z</time></trkpt><trkpt lat="43.428727" lon="13.4584772"><ele>163.33333333333331</ele><time>2026-03-22T06:21:30.313Z</time></trkpt><trkpt lat="43.4285485" lon="13.4584996"><ele>164.0</ele><time>2026-03-22T06:21:31.313Z</time></trkpt><trkpt lat="43.4283789" lon="13.4585239"><ele>164.0</ele><time>2026-03-22T06:21:32.312Z</time></trkpt><trkpt lat="43.4282149" lon="13.4585161"><ele>164.0</ele><time>2026-03-22T06:21:33.314Z</time></trkpt><trkpt lat="43.4280614" lon="13.4584668"><ele>164.0</ele><time>2026-03-22T06:21:34.314Z</time></trkpt><trkpt lat="43.427922" lon="13.4583812"><ele>162.33333333333331</ele><time>2026-03-22T06:21:35.313Z</time></trkpt><trkpt lat="43.4277864" lon="13.4582624"><ele>160.66666666666666</ele><time>2026-03-22T06:21:36.312Z</time></trkpt><trkpt lat="43.42766" lon="13.4581085"><ele>159.0</ele><time>2026-03-22T06:21:37.313Z</time></trkpt><trkpt lat="43.4275461" lon="13.4579323"><ele>162.33333333333334</ele><time>2026-03-22T06:21:38.313Z</time></trkpt><trkpt lat="43.4274452" lon="13.4577308"><ele>165.66666666666669</ele><time>2026-03-22T06:21:39.313Z</time></trkpt><trkpt lat="43.4273543" lon="13.4575129"><ele>169.0</ele><time>2026-03-22T06:21:40.314Z</time></trkpt><trkpt lat="43.4272651" lon="13.4572845"><ele>171.0</ele><time>2026-03-22T06:21:41.314Z</time></trkpt><trkpt lat="43.4271867" lon="13.4570409"><ele>173.0</ele><time>2026-03-22T06:21:42.313Z</time></trkpt><trkpt lat="43.4271092" lon="13.456795"><ele>175.0</ele><time>2026-03-22T06:21:43.313Z</time></trkpt><trkpt lat="43.4270363" lon="13.4565459"><ele>172.33333333333334</ele><time>2026-03-22T06:21:44.312Z</time></trkpt><trkpt lat="43.426961" lon="13.4563007"><ele>169.66666666666666</ele><time>2026-03-22T06:21:45.312Z</time></trkpt><trkpt lat="43.4268853" lon="13.4560616"><ele>167.0</ele><time>2026-03-22T06:21:46.314Z</time></trkpt><trkpt lat="43.4268125" lon="13.4558279"><ele>167.0</ele><time>2026-03-22T06:21:47.313Z</time></trkpt><trkpt lat="43.4267378" lon="13.4556016"><ele>167.0</ele><time>2026-03-22T06:21:48.311Z</time></trkpt><trkpt lat="43.4266583" lon="13.4553811"><ele>167.0</ele><time>2026-03-22T06:21:49.313Z</time></trkpt><trkpt lat="43.4265711" lon="13.4551729"><ele>167.0</ele><time>2026-03-22T06:21:50.314Z</time></trkpt><trkpt lat="43.4264515" lon="13.4549766"><ele>167.0</ele><time>2026-03-22T06:21:51.313Z</time></trkpt><trkpt lat="43.4263281" lon="13.4547827"><ele>167.0</ele><time>2026-03-22T06:21:52.313Z</time></trkpt><trkpt lat="43.4261966" lon="13.4545953"><ele>167.0</ele><time>2026-03-22T06:21:53.311Z</time></trkpt><trkpt lat="43.4260566" lon="13.4544051"><ele>167.0</ele><time>2026-03-22T06:21:54.313Z</time></trkpt><trkpt lat="43.4259137" lon="13.4542192"><ele>167.0</ele><time>2026-03-22T06:21:55.313Z</time></trkpt><trkpt lat="43.4257702" lon="13.454027"><ele>167.0</ele><time>2026-03-22T06:21:56.312Z</time></trkpt><trkpt lat="43.4256299" lon="13.4538327"><ele>167.0</ele><time>2026-03-22T06:21:57.312Z</time></trkpt><trkpt lat="43.42549" lon="13.4536376"><ele>167.0</ele><time>2026-03-22T06:21:58.312Z</time></trkpt><trkpt lat="43.4253481" lon="13.4534415"><ele>165.66666666666666</ele><time>2026-03-22T06:21:59.313Z</time></trkpt><trkpt lat="43.4252163" lon="13.4532486"><ele>164.33333333333334</ele><time>2026-03-22T06:22:00.313Z</time></trkpt><trkpt lat="43.4250807" lon="13.453053"><ele>163.0</ele><time>2026-03-22T06:22:01.313Z</time></trkpt><trkpt lat="43.424951" lon="13.452861"><ele>162.0</ele><time>2026-03-22T06:22:02.312Z</time></trkpt><trkpt lat="43.4248198" lon="13.452682"><ele>161.0</ele><time>2026-03-22T06:22:03.313Z</time></trkpt><trkpt lat="43.4246875" lon="13.4525142"><ele>160.0</ele><time>2026-03-22T06:22:04.313Z</time></trkpt><trkpt lat="43.4245461" lon="13.4523688"><ele>160.0</ele><time>2026-03-22T06:22:05.313Z</time></trkpt><trkpt lat="43.4244" lon="13.4522326"><ele>160.0</ele><time>2026-03-22T06:22:06.313Z</time></trkpt><trkpt lat="43.4242278" lon="13.4521851"><ele>160.0</ele><time>2026-03-22T06:22:07.312Z</time></trkpt><trkpt lat="43.4240565" lon="13.4521561"><ele>160.0</ele><time>2026-03-22T06:22:08.314Z</time></trkpt><trkpt lat="43.4238714" lon="13.4521912"><ele>160.0</ele><time>2026-03-22T06:22:09.313Z</time></trkpt><trkpt lat="43.4236875" lon="13.4522669"><ele>160.0</ele><time>2026-03-22T06:22:10.312Z</time></trkpt><trkpt lat="43.423519" lon="13.45236"><ele>160.66666666666669</ele><time>2026-03-22T06:22:11.313Z</time></trkpt><trkpt lat="43.4233484" lon="13.4524424"><ele>161.33333333333334</ele><time>2026-03-22T06:22:12.313Z</time></trkpt><trkpt lat="43.4231688" lon="13.4524876"><ele>162.0</ele><time>2026-03-22T06:22:13.313Z</time></trkpt><trkpt lat="43.4229838" lon="13.4524965"><ele>162.0</ele><time>2026-03-22T06:22:14.312Z</time></trkpt><trkpt lat="43.4227918" lon="13.4524766"><ele>162.0</ele><time>2026-03-22T06:22:15.313Z</time></trkpt><trkpt lat="43.4225951" lon="13.4524423"><ele>162.0</ele><time>2026-03-22T06:22:16.314Z</time></trkpt><trkpt lat="43.4224002" lon="13.4524026"><ele>162.0</ele><time>2026-03-22T06:22:17.311Z</time></trkpt><trkpt lat="43.4222042" lon="13.4523616"><ele>162.0</ele><time>2026-03-22T06:22:18.313Z</time></trkpt><trkpt lat="43.4220091" lon="13.4523144"><ele>162.0</ele><time>2026-03-22T06:22:19.313Z</time></trkpt><trkpt lat="43.421816" lon="13.4522608"><ele>162.33333333333334</ele><time>2026-03-22T06:22:20.313Z</time></trkpt><trkpt lat="43.4216199" lon="13.4521953"><ele>162.66666666666669</ele><time>2026-03-22T06:22:21.312Z</time></trkpt><trkpt lat="43.4214313" lon="13.4521053"><ele>163.0</ele><time>2026-03-22T06:22:22.314Z</time></trkpt><trkpt lat="43.4212465" lon="13.4519933"><ele>161.66666666666669</ele><time>2026-03-22T06:22:23.314Z</time></trkpt><trkpt lat="43.4210605" lon="13.4518608"><ele>160.33333333333334</ele><time>2026-03-22T06:22:24.313Z</time></trkpt><trkpt lat="43.4208708" lon="13.4517193"><ele>159.0</ele><time>2026-03-22T06:22:25.312Z</time></trkpt><trkpt lat="43.4206778" lon="13.4515805"><ele>159.0</ele><time>2026-03-22T06:22:26.312Z</time></trkpt><trkpt lat="43.4204837" lon="13.4514416"><ele>159.0</ele><time>2026-03-22T06:22:27.313Z</time></trkpt><trkpt lat="43.4202798" lon="13.4513239"><ele>159.0</ele><time>2026-03-22T06:22:28.313Z</time></trkpt><trkpt lat="43.4200708" lon="13.4512344"><ele>160.33333333333334</ele><time>2026-03-22T06:22:29.314Z</time></trkpt><trkpt lat="43.4198568" lon="13.4511605"><ele>161.66666666666669</ele><time>2026-03-22T06:22:30.313Z</time></trkpt><trkpt lat="43.4196492" lon="13.4510895"><ele>163.0</ele><time>2026-03-22T06:22:31.313Z</time></trkpt><trkpt lat="43.4194466" lon="13.4510218"><ele>164.0</ele><time>2026-03-22T06:22:32.312Z</time></trkpt><trkpt lat="43.4192484" lon="13.4509575"><ele>165.0</ele><time>2026-03-22T06:22:33.312Z</time></trkpt><trkpt lat="43.4190569" lon="13.4508962"><ele>166.0</ele><time>2026-03-22T06:22:34.314Z</time></trkpt><trkpt lat="43.418874" lon="13.4508174"><ele>165.66666666666669</ele><time>2026-03-22T06:22:35.314Z</time></trkpt><trkpt lat="43.4187" lon="13.4507178"><ele>165.33333333333334</ele><time>2026-03-22T06:22:36.312Z</time></trkpt><trkpt lat="43.418526" lon="13.4506014"><ele>165.0</ele><time>2026-03-22T06:22:37.313Z</time></trkpt><trkpt lat="43.4183554" lon="13.4504735"><ele>166.33333333333334</ele><time>2026-03-22T06:22:38.313Z</time></trkpt><trkpt lat="43.418186" lon="13.4503299"><ele>167.66666666666669</ele><time>2026-03-22T06:22:39.314Z</time></trkpt><trkpt lat="43.4180204" lon="13.4501785"><ele>169.0</ele><time>2026-03-22T06:22:40.312Z</time></trkpt><trkpt lat="43.4178612" lon="13.4500234"><ele>169.0</ele><time>2026-03-22T06:22:41.313Z</time></trkpt><trkpt lat="43.4176973" lon="13.4498734"><ele>169.0</ele><time>2026-03-22T06:22:42.314Z</time></trkpt><trkpt lat="43.4175444" lon="13.4497214"><ele>169.0</ele><time>2026-03-22T06:22:43.314Z</time></trkpt><trkpt lat="43.4173984" lon="13.4495886"><ele>169.33333333333334</ele><time>2026-03-22T06:22:44.313Z</time></trkpt><trkpt lat="43.4172557" lon="13.4494626"><ele>169.66666666666666</ele><time>2026-03-22T06:22:45.313Z</time></trkpt><trkpt lat="43.4171188" lon="13.4493398"><ele>170.0</ele><time>2026-03-22T06:22:46.314Z</time></trkpt><trkpt lat="43.4169774" lon="13.449235"><ele>172.66666666666666</ele><time>2026-03-22T06:22:47.313Z</time></trkpt><trkpt lat="43.416828" lon="13.4491519"><ele>175.33333333333334</ele><time>2026-03-22T06:22:48.313Z</time></trkpt><trkpt lat="43.4166778" lon="13.4491113"><ele>178.0</ele><time>2026-03-22T06:22:49.313Z</time></trkpt><trkpt lat="43.4165214" lon="13.4491042"><ele>178.0</ele><time>2026-03-22T06:22:50.314Z</time></trkpt><trkpt lat="43.4163632" lon="13.449136"><ele>178.0</ele><time>2026-03-22T06:22:51.313Z</time></trkpt><trkpt lat="43.4162107" lon="13.4491915"><ele>178.0</ele><time>2026-03-22T06:22:52.312Z</time></trkpt><trkpt lat="43.4160766" lon="13.4492921"><ele>179.33333333333334</ele><time>2026-03-22T06:22:53.313Z</time></trkpt><trkpt lat="43.4159361" lon="13.4493947"><ele>180.66666666666666</ele><time>2026-03-22T06:22:54.313Z</time></trkpt><trkpt lat="43.4158057" lon="13.4495211"><ele>182.0</ele><time>2026-03-22T06:22:55.314Z</time></trkpt><trkpt lat="43.4156592" lon="13.4496521"><ele>182.0</ele><time>2026-03-22T06:22:56.314Z</time></trkpt><trkpt lat="43.4155272" lon="13.4497883"><ele>182.0</ele><time>2026-03-22T06:22:57.314Z</time></trkpt><trkpt lat="43.4153994" lon="13.4499374"><ele>182.0</ele><time>2026-03-22T06:22:58.312Z</time></trkpt><trkpt lat="43.4152749" lon="13.4501051"><ele>184.66666666666666</ele><time>2026-03-22T06:22:59.314Z</time></trkpt><trkpt lat="43.4151605" lon="13.4502915"><ele>187.33333333333334</ele><time>2026-03-22T06:23:00.313Z</time></trkpt><trkpt lat="43.4150583" lon="13.450487"><ele>190.0</ele><time>2026-03-22T06:23:01.313Z</time></trkpt><trkpt lat="43.4149672" lon="13.4506985"><ele>190.0</ele><time>2026-03-22T06:23:02.312Z</time></trkpt><trkpt lat="43.4148856" lon="13.4509188"><ele>190.0</ele><time>2026-03-22T06:23:03.313Z</time></trkpt><trkpt lat="43.4148134" lon="13.4511464"><ele>190.0</ele><time>2026-03-22T06:23:04.312Z</time></trkpt><trkpt lat="43.4147481" lon="13.4513764"><ele>189.0</ele><time>2026-03-22T06:23:05.314Z</time></trkpt><trkpt lat="43.4146909" lon="13.4516116"><ele>188.0</ele><time>2026-03-22T06:23:06.312Z</time></trkpt><trkpt lat="43.4146364" lon="13.4518375"><ele>187.0</ele><time>2026-03-22T06:23:07.313Z</time></trkpt><trkpt lat="43.4145881" lon="13.452045"><ele>189.2</ele><time>2026-03-22T06:23:08.313Z</time></trkpt><trkpt lat="43.4145495" lon="13.4522258"><ele>191.39999999999998</ele><time>2026-03-22T06:23:09.313Z</time></trkpt><trkpt lat="43.4145079" lon="13.4523678"><ele>193.60000000000002</ele><time>2026-03-22T06:23:10.312Z</time></trkpt><trkpt lat="43.4144439" lon="13.4524476"><ele>195.8</ele><time>2026-03-22T06:23:11.312Z</time></trkpt><trkpt lat="43.4143735" lon="13.4524821"><ele>198.0</ele><time>2026-03-22T06:23:12.312Z</time></trkpt><trkpt lat="43.4143057" lon="13.4524481"><ele>198.0</ele><time>2026-03-22T06:23:13.313Z</time></trkpt><trkpt lat="43.4142672" lon="13.4523762"><ele>198.0</ele><time>2026-03-22T06:23:14.313Z</time></trkpt><trkpt lat="43.4142459" lon="13.4522708"><ele>198.0</ele><time>2026-03-22T06:23:15.313Z</time></trkpt><trkpt lat="43.4142362" lon="13.4521497"><ele>198.0</ele><time>2026-03-22T06:23:16.312Z</time></trkpt><trkpt lat="43.4142293" lon="13.4520217"><ele>198.0</ele><time>2026-03-22T06:23:17.312Z</time></trkpt><trkpt lat="43.4142265" lon="13.4518798"><ele>198.0</ele><time>2026-03-22T06:23:18.314Z</time></trkpt><trkpt lat="43.4142199" lon="13.4517224"><ele>199.5</ele><time>2026-03-22T06:23:19.312Z</time></trkpt><trkpt lat="43.4142132" lon="13.4515532"><ele>201.0</ele><time>2026-03-22T06:23:20.312Z</time></trkpt><trkpt lat="43.414204" lon="13.4513798"><ele>202.5</ele><time>2026-03-22T06:23:21.314Z</time></trkpt><trkpt lat="43.4141939" lon="13.4511887"><ele>204.0</ele><time>2026-03-22T06:23:22.312Z</time></trkpt><trkpt lat="43.4141883" lon="13.4509926"><ele>204.5</ele><time>2026-03-22T06:23:23.313Z</time></trkpt><trkpt lat="43.4141788" lon="13.4507967"><ele>205.0</ele><time>2026-03-22T06:23:24.312Z</time></trkpt><trkpt lat="43.4141717" lon="13.4505969"><ele>205.5</ele><time>2026-03-22T06:23:25.314Z</time></trkpt><trkpt lat="43.4141589" lon="13.4504001"><ele>206.0</ele><time>2026-03-22T06:23:26.312Z</time></trkpt><trkpt lat="43.4141481" lon="13.450201"><ele>206.25</ele><time>2026-03-22T06:23:27.313Z</time></trkpt><trkpt lat="43.4141326" lon="13.4500044"><ele>206.5</ele><time>2026-03-22T06:23:28.313Z</time></trkpt><trkpt lat="43.4141228" lon="13.4498023"><ele>206.75</ele><time>2026-03-22T06:23:29.313Z</time></trkpt><trkpt lat="43.4141032" lon="13.4495979"><ele>207.0</ele><time>2026-03-22T06:23:30.314Z</time></trkpt><trkpt lat="43.4140932" lon="13.4493926"><ele>207.75</ele><time>2026-03-22T06:23:31.314Z</time></trkpt><trkpt lat="43.4140836" lon="13.4491869"><ele>208.5</ele><time>2026-03-22T06:23:32.314Z</time></trkpt><trkpt lat="43.4140756" lon="13.4489847"><ele>209.25</ele><time>2026-03-22T06:23:33.312Z</time></trkpt><trkpt lat="43.4140674" lon="13.4487857"><ele>210.0</ele><time>2026-03-22T06:23:34.313Z</time></trkpt><trkpt lat="43.4140607" lon="13.4485877"><ele>211.0</ele><time>2026-03-22T06:23:35.313Z</time></trkpt><trkpt lat="43.4140534" lon="13.4483914"><ele>212.0</ele><time>2026-03-22T06:23:36.313Z</time></trkpt><trkpt lat="43.4140475" lon="13.4481984"><ele>213.0</ele><time>2026-03-22T06:23:37.312Z</time></trkpt><trkpt lat="43.4140329" lon="13.4480116"><ele>214.0</ele><time>2026-03-22T06:23:38.314Z</time></trkpt><trkpt lat="43.4140209" lon="13.4478202"><ele>215.0</ele><time>2026-03-22T06:23:39.313Z</time></trkpt><trkpt lat="43.4140157" lon="13.4476344"><ele>216.0</ele><time>2026-03-22T06:23:40.314Z</time></trkpt><trkpt lat="43.4140065" lon="13.447456"><ele>217.0</ele><time>2026-03-22T06:23:41.313Z</time></trkpt><trkpt lat="43.4139928" lon="13.4472781"><ele>218.0</ele><time>2026-03-22T06:23:42.311Z</time></trkpt><trkpt lat="43.4139822" lon="13.4470998"><ele>218.5</ele><time>2026-03-22T06:23:43.313Z</time></trkpt><trkpt lat="43.4139697" lon="13.4469261"><ele>219.0</ele><time>2026-03-22T06:23:44.314Z</time></trkpt><trkpt lat="43.4139597" lon="13.4467545"><ele>219.5</ele><time>2026-03-22T06:23:45.313Z</time></trkpt><trkpt lat="43.4139515" lon="13.4465849"><ele>220.0</ele><time>2026-03-22T06:23:46.312Z</time></trkpt><trkpt lat="43.4139411" lon="13.446416"><ele>220.6</ele><time>2026-03-22T06:23:47.313Z</time></trkpt><trkpt lat="43.4139322" lon="13.4462567"><ele>221.2</ele><time>2026-03-22T06:23:48.312Z</time></trkpt><trkpt lat="43.4139258" lon="13.4461034"><ele>221.8</ele><time>2026-03-22T06:23:49.314Z</time></trkpt><trkpt lat="43.413919" lon="13.4459661"><ele>222.4</ele><time>2026-03-22T06:23:50.313Z</time></trkpt><trkpt lat="43.4139135" lon="13.4458227"><ele>223.0</ele><time>2026-03-22T06:23:51.313Z</time></trkpt><trkpt lat="43.4139054" lon="13.4456858"><ele>223.0</ele><time>2026-03-22T06:23:52.314Z</time></trkpt><trkpt lat="43.4138964" lon="13.4455541"><ele>223.0</ele><time>2026-03-22T06:23:53.314Z</time></trkpt><trkpt lat="43.4138899" lon="13.4454262"><ele>223.0</ele><time>2026-03-22T06:23:54.313Z</time></trkpt><trkpt lat="43.4138812" lon="13.4452976"><ele>223.0</ele><time>2026-03-22T06:23:55.313Z</time></trkpt><trkpt lat="43.4138774" lon="13.4451679"><ele>223.0</ele><time>2026-03-22T06:23:56.313Z</time></trkpt><trkpt lat="43.4138723" lon="13.4450368"><ele>223.2</ele><time>2026-03-22T06:23:57.312Z</time></trkpt><trkpt lat="43.4138625" lon="13.4449025"><ele>223.4</ele><time>2026-03-22T06:23:58.313Z</time></trkpt><trkpt lat="43.4138598" lon="13.4447668"><ele>223.59999999999997</ele><time>2026-03-22T06:23:59.314Z</time></trkpt><trkpt lat="43.4138535" lon="13.4446274"><ele>223.79999999999998</ele><time>2026-03-22T06:24:00.314Z</time></trkpt><trkpt lat="43.4138474" lon="13.4444796"><ele>224.0</ele><time>2026-03-22T06:24:01.314Z</time></trkpt><trkpt lat="43.4138419" lon="13.444333"><ele>223.6</ele><time>2026-03-22T06:24:02.313Z</time></trkpt><trkpt lat="43.4138336" lon="13.4441863"><ele>223.2</ele><time>2026-03-22T06:24:03.313Z</time></trkpt><trkpt lat="43.4138193" lon="13.4440381"><ele>222.79999999999998</ele><time>2026-03-22T06:24:04.314Z</time></trkpt><trkpt lat="43.413799" lon="13.4438891"><ele>222.39999999999998</ele><time>2026-03-22T06:24:05.314Z</time></trkpt><trkpt lat="43.4137639" lon="13.4437455"><ele>222.0</ele><time>2026-03-22T06:24:06.313Z</time></trkpt><trkpt lat="43.413729" lon="13.4435967"><ele>221.75</ele><time>2026-03-22T06:24:07.313Z</time></trkpt><trkpt lat="43.4136779" lon="13.4434454"><ele>221.5</ele><time>2026-03-22T06:24:08.313Z</time></trkpt><trkpt lat="43.413614" lon="13.4432966"><ele>221.25</ele><time>2026-03-22T06:24:09.314Z</time></trkpt><trkpt lat="43.4135625" lon="13.4431403"><ele>221.0</ele><time>2026-03-22T06:24:10.313Z</time></trkpt><trkpt lat="43.4134898" lon="13.4429922"><ele>221.25</ele><time>2026-03-22T06:24:11.312Z</time></trkpt><trkpt lat="43.4134104" lon="13.4428394"><ele>221.5</ele><time>2026-03-22T06:24:12.313Z</time></trkpt><trkpt lat="43.4133418" lon="13.4426768"><ele>221.75</ele><time>2026-03-22T06:24:13.313Z</time></trkpt><trkpt lat="43.4132695" lon="13.442516"><ele>222.0</ele><time>2026-03-22T06:24:14.312Z</time></trkpt><trkpt lat="43.4131902" lon="13.4423534"><ele>222.0</ele><time>2026-03-22T06:24:15.313Z</time></trkpt><trkpt lat="43.4131198" lon="13.4421924"><ele>222.0</ele><time>2026-03-22T06:24:16.314Z</time></trkpt><trkpt lat="43.4130527" lon="13.4420335"><ele>222.0</ele><time>2026-03-22T06:24:17.313Z</time></trkpt><trkpt lat="43.4129899" lon="13.4418761"><ele>222.0</ele><time>2026-03-22T06:24:18.314Z</time></trkpt><trkpt lat="43.4129241" lon="13.4417206"><ele>222.5</ele><time>2026-03-22T06:24:19.313Z</time></trkpt><trkpt lat="43.4128615" lon="13.4415748"><ele>223.0</ele><time>2026-03-22T06:24:20.313Z</time></trkpt><trkpt lat="43.4127943" lon="13.4414389"><ele>223.5</ele><time>2026-03-22T06:24:21.313Z</time></trkpt><trkpt lat="43.4127193" lon="13.441305"><ele>224.0</ele><time>2026-03-22T06:24:22.314Z</time></trkpt><trkpt lat="43.4126409" lon="13.4411897"><ele>226.0</ele><time>2026-03-22T06:24:23.314Z</time></trkpt><trkpt lat="43.4125431" lon="13.4410916"><ele>228.0</ele><time>2026-03-22T06:24:24.312Z</time></trkpt><trkpt lat="43.4124389" lon="13.4410081"><ele>230.0</ele><time>2026-03-22T06:24:25.313Z</time></trkpt><trkpt lat="43.4123256" lon="13.4409423"><ele>232.0</ele><time>2026-03-22T06:24:26.314Z</time></trkpt><trkpt lat="43.4122103" lon="13.4408875"><ele>231.25</ele><time>2026-03-22T06:24:27.314Z</time></trkpt><trkpt lat="43.4121002" lon="13.4408354"><ele>230.5</ele><time>2026-03-22T06:24:28.314Z</time></trkpt><trkpt lat="43.4119896" lon="13.440785"><ele>229.75</ele><time>2026-03-22T06:24:29.314Z</time></trkpt><trkpt lat="43.4118713" lon="13.440731"><ele>229.0</ele><time>2026-03-22T06:24:30.313Z</time></trkpt><trkpt lat="43.4117611" lon="13.440669"><ele>229.0</ele><time>2026-03-22T06:24:31.314Z</time></trkpt><trkpt lat="43.4116592" lon="13.4406054"><ele>229.0</ele><time>2026-03-22T06:24:32.314Z</time></trkpt><trkpt lat="43.4115803" lon="13.4404835"><ele>229.0</ele><time>2026-03-22T06:24:33.313Z</time></trkpt><trkpt lat="43.4115014" lon="13.4403628"><ele>229.0</ele><time>2026-03-22T06:24:34.313Z</time></trkpt><trkpt lat="43.4114344" lon="13.44023"><ele>231.75</ele><time>2026-03-22T06:24:35.313Z</time></trkpt><trkpt lat="43.4113899" lon="13.4400693"><ele>234.5</ele><time>2026-03-22T06:24:36.313Z</time></trkpt><trkpt lat="43.4113588" lon="13.4399024"><ele>237.25</ele><time>2026-03-22T06:24:37.314Z</time></trkpt><trkpt lat="43.4113408" lon="13.4397224"><ele>240.0</ele><time>2026-03-22T06:24:38.314Z</time></trkpt><trkpt lat="43.4113255" lon="13.4395428"><ele>236.5</ele><time>2026-03-22T06:24:39.314Z</time></trkpt><trkpt lat="43.4113058" lon="13.4393677"><ele>233.0</ele><time>2026-03-22T06:24:40.312Z</time></trkpt><trkpt lat="43.4112911" lon="13.4391878"><ele>229.5</ele><time>2026-03-22T06:24:41.314Z</time></trkpt><trkpt lat="43.4112775" lon="13.4390046"><ele>226.0</ele><time>2026-03-22T06:24:42.313Z</time></trkpt><trkpt lat="43.4112651" lon="13.4388249"><ele>226.5</ele><time>2026-03-22T06:24:43.313Z</time></trkpt><trkpt lat="43.411252" lon="13.4386515"><ele>227.0</ele><time>2026-03-22T06:24:44.314Z</time></trkpt><trkpt lat="43.4112324" lon="13.4384792"><ele>227.5</ele><time>2026-03-22T06:24:45.314Z</time></trkpt><trkpt lat="43.4112109" lon="13.438303"><ele>228.0</ele><time>2026-03-22T06:24:46.314Z</time></trkpt><trkpt lat="43.411187" lon="13.4381257"><ele>228.0</ele><time>2026-03-22T06:24:47.313Z</time></trkpt><trkpt lat="43.4111578" lon="13.4379483"><ele>228.0</ele><time>2026-03-22T06:24:48.313Z</time></trkpt><trkpt lat="43.4111261" lon="13.437768"><ele>228.0</ele><time>2026-03-22T06:24:49.313Z</time></trkpt><trkpt lat="43.4110827" lon="13.4375918"><ele>228.0</ele><time>2026-03-22T06:24:50.313Z</time></trkpt><trkpt lat="43.411038" lon="13.4374219"><ele>228.0</ele><time>2026-03-22T06:24:51.313Z</time></trkpt><trkpt lat="43.4109908" lon="13.4372506"><ele>228.0</ele><time>2026-03-22T06:24:52.314Z</time></trkpt><trkpt lat="43.4109378" lon="13.4370762"><ele>228.0</ele><time>2026-03-22T06:24:53.313Z</time></trkpt><trkpt lat="43.4108823" lon="13.4369031"><ele>228.0</ele><time>2026-03-22T06:24:54.312Z</time></trkpt><trkpt lat="43.4108279" lon="13.4367273"><ele>229.0</ele><time>2026-03-22T06:24:55.314Z</time></trkpt><trkpt lat="43.4107654" lon="13.4365542"><ele>230.0</ele><time>2026-03-22T06:24:56.313Z</time></trkpt><trkpt lat="43.4107093" lon="13.4363773"><ele>231.0</ele><time>2026-03-22T06:24:57.313Z</time></trkpt><trkpt lat="43.4106282" lon="13.4362165"><ele>232.0</ele><time>2026-03-22T06:24:58.314Z</time></trkpt><trkpt lat="43.4105555" lon="13.4360617"><ele>230.5</ele><time>2026-03-22T06:24:59.314Z</time></trkpt><trkpt lat="43.4104818" lon="13.4359023"><ele>229.0</ele><time>2026-03-22T06:25:00.314Z</time></trkpt><trkpt lat="43.410404" lon="13.4357444"><ele>227.5</ele><time>2026-03-22T06:25:01.314Z</time></trkpt><trkpt lat="43.410328" lon="13.4355835"><ele>226.0</ele><time>2026-03-22T06:25:02.313Z</time></trkpt><trkpt lat="43.4102552" lon="13.4354256"><ele>226.0</ele><time>2026-03-22T06:25:03.314Z</time></trkpt><trkpt lat="43.4101813" lon="13.435265"><ele>226.0</ele><time>2026-03-22T06:25:04.314Z</time></trkpt><trkpt lat="43.4101051" lon="13.4351023"><ele>226.0</ele><time>2026-03-22T06:25:05.313Z</time></trkpt><trkpt lat="43.4100233" lon="13.4349477"><ele>226.0</ele><time>2026-03-22T06:25:06.312Z</time></trkpt><trkpt lat="43.4099566" lon="13.4347889"><ele>226.0</ele><time>2026-03-22T06:25:07.314Z</time></trkpt><trkpt lat="43.4098766" lon="13.4346419"><ele>226.0</ele><time>2026-03-22T06:25:08.314Z</time></trkpt><trkpt lat="43.4098068" lon="13.4344754"><ele>226.0</ele><time>2026-03-22T06:25:09.313Z</time></trkpt><trkpt lat="43.4097477" lon="13.4343015"><ele>226.0</ele><time>2026-03-22T06:25:10.312Z</time></trkpt><trkpt lat="43.4096924" lon="13.4341222"><ele>224.0</ele><time>2026-03-22T06:25:11.313Z</time></trkpt><trkpt lat="43.4096467" lon="13.4339321"><ele>222.0</ele><time>2026-03-22T06:25:12.313Z</time></trkpt><trkpt lat="43.4096007" lon="13.4337434"><ele>220.0</ele><time>2026-03-22T06:25:13.313Z</time></trkpt><trkpt lat="43.4095755" lon="13.4335414"><ele>218.0</ele><time>2026-03-22T06:25:14.314Z</time></trkpt><trkpt lat="43.4095444" lon="13.4333539"><ele>218.0</ele><time>2026-03-22T06:25:15.313Z</time></trkpt><trkpt lat="43.4095154" lon="13.433171"><ele>218.0</ele><time>2026-03-22T06:25:16.313Z</time></trkpt><trkpt lat="43.4094923" lon="13.4330095"><ele>218.0</ele><time>2026-03-22T06:25:17.314Z</time></trkpt><trkpt lat="43.409469" lon="13.4328531"><ele>218.0</ele><time>2026-03-22T06:25:18.314Z</time></trkpt><trkpt lat="43.4094465" lon="13.4327175"><ele>217.66666666666669</ele><time>2026-03-22T06:25:19.313Z</time></trkpt><trkpt lat="43.4094273" lon="13.4325862"><ele>217.33333333333334</ele><time>2026-03-22T06:25:20.312Z</time></trkpt><trkpt lat="43.4094042" lon="13.4324678"><ele>217.0</ele><time>2026-03-22T06:25:21.314Z</time></trkpt><trkpt lat="43.4093813" lon="13.4323558"><ele>216.66666666666669</ele><time>2026-03-22T06:25:22.313Z</time></trkpt><trkpt lat="43.4093567" lon="13.4322511"><ele>216.33333333333334</ele><time>2026-03-22T06:25:23.313Z</time></trkpt><trkpt lat="43.409328" lon="13.4321583"><ele>216.0</ele><time>2026-03-22T06:25:24.314Z</time></trkpt><trkpt lat="43.4092929" lon="13.4320701"><ele>215.83333333333334</ele><time>2026-03-22T06:25:25.314Z</time></trkpt><trkpt lat="43.4092579" lon="13.4319799"><ele>215.66666666666669</ele><time>2026-03-22T06:25:26.314Z</time></trkpt><trkpt lat="43.409218" lon="13.4318857"><ele>215.5</ele><time>2026-03-22T06:25:27.314Z</time></trkpt><trkpt lat="43.4091754" lon="13.4317814"><ele>215.33333333333334</ele><time>2026-03-22T06:25:28.314Z</time></trkpt><trkpt lat="43.409126" lon="13.4316635"><ele>215.16666666666669</ele><time>2026-03-22T06:25:29.312Z</time></trkpt><trkpt lat="43.4090692" lon="13.4315375"><ele>215.0</ele><time>2026-03-22T06:25:30.314Z</time></trkpt><trkpt lat="43.4090088" lon="13.4313992"><ele>214.75</ele><time>2026-03-22T06:25:31.313Z</time></trkpt><trkpt lat="43.4089435" lon="13.4312573"><ele>214.5</ele><time>2026-03-22T06:25:32.314Z</time></trkpt><trkpt lat="43.4088697" lon="13.4311114"><ele>214.25</ele><time>2026-03-22T06:25:33.314Z</time></trkpt><trkpt lat="43.408788" lon="13.4309609"><ele>214.0</ele><time>2026-03-22T06:25:34.314Z</time></trkpt><trkpt lat="43.4087089" lon="13.4308053"><ele>214.0</ele><time>2026-03-22T06:25:35.314Z</time></trkpt><trkpt lat="43.4086163" lon="13.4306533"><ele>214.0</ele><time>2026-03-22T06:25:36.314Z</time></trkpt><trkpt lat="43.4085124" lon="13.4304997"><ele>214.0</ele><time>2026-03-22T06:25:37.313Z</time></trkpt><trkpt lat="43.4083988" lon="13.4303527"><ele>214.0</ele><time>2026-03-22T06:25:38.314Z</time></trkpt><trkpt lat="43.4082684" lon="13.4302167"><ele>214.0</ele><time>2026-03-22T06:25:39.313Z</time></trkpt><trkpt lat="43.4081174" lon="13.430104"><ele>214.0</ele><time>2026-03-22T06:25:40.314Z</time></trkpt><trkpt lat="43.4079549" lon="13.430013"><ele>211.33333333333331</ele><time>2026-03-22T06:25:41.314Z</time></trkpt><trkpt lat="43.4077847" lon="13.4299504"><ele>208.66666666666669</ele><time>2026-03-22T06:25:42.314Z</time></trkpt><trkpt lat="43.4076056" lon="13.4299258"><ele>206.0</ele><time>2026-03-22T06:25:43.313Z</time></trkpt><trkpt lat="43.4074192" lon="13.4299275"><ele>206.0</ele><time>2026-03-22T06:25:44.314Z</time></trkpt><trkpt lat="43.4072386" lon="13.4299437"><ele>206.0</ele><time>2026-03-22T06:25:45.314Z</time></trkpt><trkpt lat="43.4070626" lon="13.4299529"><ele>206.0</ele><time>2026-03-22T06:25:46.313Z</time></trkpt><trkpt lat="43.4068833" lon="13.4299468"><ele>203.33333333333334</ele><time>2026-03-22T06:25:47.312Z</time></trkpt><trkpt lat="43.4067046" lon="13.4299248"><ele>200.66666666666669</ele><time>2026-03-22T06:25:48.313Z</time></trkpt><trkpt lat="43.4065249" lon="13.429875"><ele>198.0</ele><time>2026-03-22T06:25:49.314Z</time></trkpt><trkpt lat="43.4063547" lon="13.4297982"><ele>197.33333333333331</ele><time>2026-03-22T06:25:50.314Z</time></trkpt><trkpt lat="43.406196" lon="13.4296829"><ele>196.66666666666666</ele><time>2026-03-22T06:25:51.314Z</time></trkpt><trkpt lat="43.4060357" lon="13.4295522"><ele>196.0</ele><time>2026-03-22T06:25:52.314Z</time></trkpt><trkpt lat="43.405887" lon="13.4294014"><ele>196.0</ele><time>2026-03-22T06:25:53.314Z</time></trkpt><trkpt lat="43.4057476" lon="13.4292399"><ele>196.0</ele><time>2026-03-22T06:25:54.314Z</time></trkpt><trkpt lat="43.4056217" lon="13.4290505"><ele>196.0</ele><time>2026-03-22T06:25:55.314Z</time></trkpt><trkpt lat="43.4054986" lon="13.4288617"><ele>194.33333333333331</ele><time>2026-03-22T06:25:56.314Z</time></trkpt><trkpt lat="43.4053762" lon="13.4286806"><ele>192.66666666666666</ele><time>2026-03-22T06:25:57.313Z</time></trkpt><trkpt lat="43.4052499" lon="13.4285113"><ele>191.0</ele><time>2026-03-22T06:25:58.313Z</time></trkpt><trkpt lat="43.4051133" lon="13.4283663"><ele>191.0</ele><time>2026-03-22T06:25:59.314Z</time></trkpt><trkpt lat="43.4049637" lon="13.428247"><ele>191.0</ele><time>2026-03-22T06:26:00.314Z</time></trkpt><trkpt lat="43.404799" lon="13.4281595"><ele>191.0</ele><time>2026-03-22T06:26:01.313Z</time></trkpt><trkpt lat="43.4046293" lon="13.4280922"><ele>187.66666666666666</ele><time>2026-03-22T06:26:02.314Z</time></trkpt><trkpt lat="43.4044453" lon="13.4280683"><ele>184.33333333333334</ele><time>2026-03-22T06:26:03.313Z</time></trkpt><trkpt lat="43.4042583" lon="13.4280613"><ele>181.0</ele><time>2026-03-22T06:26:04.313Z</time></trkpt><trkpt lat="43.4040738" lon="13.4280797"><ele>181.0</ele><time>2026-03-22T06:26:05.313Z</time></trkpt><trkpt lat="43.4038893" lon="13.4281271"><ele>181.0</ele><time>2026-03-22T06:26:06.314Z</time></trkpt><trkpt lat="43.4037083" lon="13.4281854"><ele>181.0</ele><time>2026-03-22T06:26:07.314Z</time></trkpt><trkpt lat="43.4035323" lon="13.4282333"><ele>180.0</ele><time>2026-03-22T06:26:08.313Z</time></trkpt><trkpt lat="43.4033617" lon="13.4282652"><ele>179.0</ele><time>2026-03-22T06:26:09.314Z</time></trkpt><trkpt lat="43.4031898" lon="13.4282809"><ele>178.0</ele><time>2026-03-22T06:26:10.314Z</time></trkpt><trkpt lat="43.4030189" lon="13.4282796"><ele>175.66666666666669</ele><time>2026-03-22T06:26:11.314Z</time></trkpt><trkpt lat="43.402844" lon="13.4282587"><ele>173.33333333333334</ele><time>2026-03-22T06:26:12.314Z</time></trkpt><trkpt lat="43.4026656" lon="13.4282265"><ele>171.0</ele><time>2026-03-22T06:26:13.314Z</time></trkpt><trkpt lat="43.402482" lon="13.4281811"><ele>171.0</ele><time>2026-03-22T06:26:14.313Z</time></trkpt><trkpt lat="43.4022966" lon="13.4281325"><ele>171.0</ele><time>2026-03-22T06:26:15.314Z</time></trkpt><trkpt lat="43.402108" lon="13.4280778"><ele>171.0</ele><time>2026-03-22T06:26:16.313Z</time></trkpt><trkpt lat="43.4019175" lon="13.4280218"><ele>169.33333333333334</ele><time>2026-03-22T06:26:17.314Z</time></trkpt><trkpt lat="43.4017388" lon="13.4279837"><ele>167.66666666666669</ele><time>2026-03-22T06:26:18.314Z</time></trkpt><trkpt lat="43.4015537" lon="13.4279503"><ele>166.0</ele><time>2026-03-22T06:26:19.313Z</time></trkpt><trkpt lat="43.4013635" lon="13.4279331"><ele>168.0</ele><time>2026-03-22T06:26:20.314Z</time></trkpt><trkpt lat="43.4011709" lon="13.4279148"><ele>170.0</ele><time>2026-03-22T06:26:21.314Z</time></trkpt><trkpt lat="43.4009806" lon="13.4279053"><ele>172.0</ele><time>2026-03-22T06:26:22.313Z</time></trkpt><trkpt lat="43.4007944" lon="13.427899"><ele>172.0</ele><time>2026-03-22T06:26:23.313Z</time></trkpt><trkpt lat="43.4005995" lon="13.4279077"><ele>172.0</ele><time>2026-03-22T06:26:24.312Z</time></trkpt><trkpt lat="43.4004079" lon="13.4279228"><ele>172.0</ele><time>2026-03-22T06:26:25.314Z</time></trkpt><trkpt lat="43.4002192" lon="13.4279455"><ele>171.0</ele><time>2026-03-22T06:26:26.314Z</time></trkpt><trkpt lat="43.4000313" lon="13.4279611"><ele>170.0</ele><time>2026-03-22T06:26:27.314Z</time></trkpt><trkpt lat="43.3998332" lon="13.4279798"><ele>169.0</ele><time>2026-03-22T06:26:28.314Z</time></trkpt><trkpt lat="43.3996476" lon="13.4279758"><ele>167.66666666666669</ele><time>2026-03-22T06:26:29.314Z</time></trkpt><trkpt lat="43.3994567" lon="13.4279701"><ele>166.33333333333334</ele><time>2026-03-22T06:26:30.313Z</time></trkpt><trkpt lat="43.3992671" lon="13.4279664"><ele>165.0</ele><time>2026-03-22T06:26:31.313Z</time></trkpt><trkpt lat="43.399078" lon="13.4279536"><ele>165.0</ele><time>2026-03-22T06:26:32.313Z</time></trkpt><trkpt lat="43.3988897" lon="13.4279405"><ele>165.0</ele><time>2026-03-22T06:26:33.314Z</time></trkpt><trkpt lat="43.3987012" lon="13.4279076"><ele>165.0</ele><time>2026-03-22T06:26:34.313Z</time></trkpt><trkpt lat="43.3985114" lon="13.4278715"><ele>162.0</ele><time>2026-03-22T06:26:35.313Z</time></trkpt><trkpt lat="43.3983187" lon="13.4278286"><ele>159.0</ele><time>2026-03-22T06:26:36.313Z</time></trkpt><trkpt lat="43.39813" lon="13.4277687"><ele>156.0</ele><time>2026-03-22T06:26:37.314Z</time></trkpt><trkpt lat="43.3979442" lon="13.4277059"><ele>153.66666666666666</ele><time>2026-03-22T06:26:38.314Z</time></trkpt><trkpt lat="43.3977579" lon="13.427636"><ele>151.33333333333331</ele><time>2026-03-22T06:26:39.314Z</time></trkpt><trkpt lat="43.3975756" lon="13.4275602"><ele>149.0</ele><time>2026-03-22T06:26:40.313Z</time></trkpt><trkpt lat="43.3973942" lon="13.4274816"><ele>149.0</ele><time>2026-03-22T06:26:41.314Z</time></trkpt><trkpt lat="43.3972114" lon="13.4273928"><ele>149.0</ele><time>2026-03-22T06:26:42.314Z</time></trkpt><trkpt lat="43.3970298" lon="13.4273158"><ele>149.0</ele><time>2026-03-22T06:26:43.313Z</time></trkpt><trkpt lat="43.396848" lon="13.4272322"><ele>151.0</ele><time>2026-03-22T06:26:44.314Z</time></trkpt><trkpt lat="43.3966633" lon="13.4271552"><ele>153.0</ele><time>2026-03-22T06:26:45.314Z</time></trkpt><trkpt lat="43.3964816" lon="13.4270659"><ele>155.0</ele><time>2026-03-22T06:26:46.313Z</time></trkpt><trkpt lat="43.3963002" lon="13.4269789"><ele>150.33333333333331</ele><time>2026-03-22T06:26:47.312Z</time></trkpt><trkpt lat="43.3961142" lon="13.4268973"><ele>145.66666666666666</ele><time>2026-03-22T06:26:48.313Z</time></trkpt><trkpt lat="43.3959424" lon="13.4268235"><ele>141.0</ele><time>2026-03-22T06:26:49.313Z</time></trkpt><trkpt lat="43.3957632" lon="13.4267525"><ele>141.0</ele><time>2026-03-22T06:26:50.313Z</time></trkpt><trkpt lat="43.3955849" lon="13.4267044"><ele>141.0</ele><time>2026-03-22T06:26:51.313Z</time></trkpt><trkpt lat="43.3954043" lon="13.4266711"><ele>141.0</ele><time>2026-03-22T06:26:52.314Z</time></trkpt><trkpt lat="43.3952234" lon="13.4266482"><ele>138.66666666666666</ele><time>2026-03-22T06:26:53.313Z</time></trkpt><trkpt lat="43.3950406" lon="13.4266269"><ele>136.33333333333331</ele><time>2026-03-22T06:26:54.313Z</time></trkpt><trkpt lat="43.3948571" lon="13.4265972"><ele>134.0</ele><time>2026-03-22T06:26:55.315Z</time></trkpt><trkpt lat="43.3946729" lon="13.4265691"><ele>132.0</ele><time>2026-03-22T06:26:56.314Z</time></trkpt><trkpt lat="43.3944857" lon="13.4265326"><ele>130.0</ele><time>2026-03-22T06:26:57.313Z</time></trkpt><trkpt lat="43.3942973" lon="13.4264892"><ele>128.0</ele><time>2026-03-22T06:26:58.314Z</time></trkpt><trkpt lat="43.3941113" lon="13.426444"><ele>128.0</ele><time>2026-03-22T06:26:59.313Z</time></trkpt><trkpt lat="43.3939314" lon="13.4263958"><ele>128.0</ele><time>2026-03-22T06:27:00.314Z</time></trkpt><trkpt lat="43.393763" lon="13.4263404"><ele>128.0</ele><time>2026-03-22T06:27:01.314Z</time></trkpt><trkpt lat="43.3936082" lon="13.4262923"><ele>127.5</ele><time>2026-03-22T06:27:02.314Z</time></trkpt><trkpt lat="43.3934769" lon="13.4262187"><ele>127.0</ele><time>2026-03-22T06:27:03.313Z</time></trkpt><trkpt lat="43.393349" lon="13.4261284"><ele>126.5</ele><time>2026-03-22T06:27:04.315Z</time></trkpt><trkpt lat="43.3932592" lon="13.4259986"><ele>126.0</ele><time>2026-03-22T06:27:05.314Z</time></trkpt><trkpt lat="43.3931842" lon="13.4258384"><ele>126.0</ele><time>2026-03-22T06:27:06.314Z</time></trkpt><trkpt lat="43.3931266" lon="13.4256546"><ele>126.0</ele><time>2026-03-22T06:27:07.314Z</time></trkpt><trkpt lat="43.3931077" lon="13.4254423"><ele>126.0</ele><time>2026-03-22T06:27:08.314Z</time></trkpt><trkpt lat="43.3930713" lon="13.4252404"><ele>126.66666666666666</ele><time>2026-03-22T06:27:09.314Z</time></trkpt><trkpt lat="43.3930181" lon="13.4250323"><ele>127.33333333333333</ele><time>2026-03-22T06:27:10.314Z</time></trkpt><trkpt lat="43.3929529" lon="13.4248303"><ele>128.0</ele><time>2026-03-22T06:27:11.314Z</time></trkpt><trkpt lat="43.3928649" lon="13.4246396"><ele>124.33333333333333</ele><time>2026-03-22T06:27:12.314Z</time></trkpt><trkpt lat="43.3927705" lon="13.424456"><ele>120.66666666666666</ele><time>2026-03-22T06:27:13.314Z</time></trkpt><trkpt lat="43.3926446" lon="13.4242965"><ele>117.0</ele><time>2026-03-22T06:27:14.314Z</time></trkpt><trkpt lat="43.3925129" lon="13.4241541"><ele>117.0</ele><time>2026-03-22T06:27:15.313Z</time></trkpt><trkpt lat="43.3923711" lon="13.4240306"><ele>117.0</ele><time>2026-03-22T06:27:16.314Z</time></trkpt><trkpt lat="43.3922086" lon="13.4239473"><ele>117.0</ele><time>2026-03-22T06:27:17.314Z</time></trkpt><trkpt lat="43.392052" lon="13.4238861"><ele>114.66666666666666</ele><time>2026-03-22T06:27:18.314Z</time></trkpt><trkpt lat="43.3918893" lon="13.4238618"><ele>112.33333333333333</ele><time>2026-03-22T06:27:19.313Z</time></trkpt><trkpt lat="43.3917181" lon="13.4238855"><ele>110.0</ele><time>2026-03-22T06:27:20.314Z</time></trkpt><trkpt lat="43.3915486" lon="13.4239321"><ele>110.0</ele><time>2026-03-22T06:27:21.314Z</time></trkpt><trkpt lat="43.3913701" lon="13.4239909"><ele>110.0</ele><time>2026-03-22T06:27:22.314Z</time></trkpt><trkpt lat="43.3911874" lon="13.4240456"><ele>110.0</ele><time>2026-03-22T06:27:23.313Z</time></trkpt><trkpt lat="43.3910041" lon="13.4241037"><ele>108.66666666666666</ele><time>2026-03-22T06:27:24.314Z</time></trkpt><trkpt lat="43.3908269" lon="13.4241644"><ele>107.33333333333334</ele><time>2026-03-22T06:27:25.314Z</time></trkpt><trkpt lat="43.390651" lon="13.4242192"><ele>106.0</ele><time>2026-03-22T06:27:26.313Z</time></trkpt><trkpt lat="43.3904732" lon="13.4242779"><ele>105.33333333333334</ele><time>2026-03-22T06:27:27.314Z</time></trkpt><trkpt lat="43.3903065" lon="13.4243315"><ele>104.66666666666666</ele><time>2026-03-22T06:27:28.314Z</time></trkpt><trkpt lat="43.3901448" lon="13.4243957"><ele>104.0</ele><time>2026-03-22T06:27:29.314Z</time></trkpt><trkpt lat="43.3899914" lon="13.4244886"><ele>104.0</ele><time>2026-03-22T06:27:30.312Z</time></trkpt><trkpt lat="43.3898516" lon="13.4246063"><ele>104.0</ele><time>2026-03-22T06:27:31.314Z</time></trkpt><trkpt lat="43.3897189" lon="13.42475"><ele>104.0</ele><time>2026-03-22T06:27:32.314Z</time></trkpt><trkpt lat="43.3895962" lon="13.4249089"><ele>107.0</ele><time>2026-03-22T06:27:33.314Z</time></trkpt><trkpt lat="43.3894845" lon="13.4250842"><ele>110.0</ele><time>2026-03-22T06:27:34.313Z</time></trkpt><trkpt lat="43.3893951" lon="13.4252761"><ele>113.0</ele><time>2026-03-22T06:27:35.314Z</time></trkpt><trkpt lat="43.3893522" lon="13.4255002"><ele>114.33333333333333</ele><time>2026-03-22T06:27:36.314Z</time></trkpt><trkpt lat="43.3893081" lon="13.4257349"><ele>115.66666666666666</ele><time>2026-03-22T06:27:37.315Z</time></trkpt><trkpt lat="43.3892716" lon="13.4259917"><ele>117.0</ele><time>2026-03-22T06:27:38.314Z</time></trkpt><trkpt lat="43.3892344" lon="13.4262557"><ele>117.0</ele><time>2026-03-22T06:27:39.314Z</time></trkpt><trkpt lat="43.3891962" lon="13.4265281"><ele>117.0</ele><time>2026-03-22T06:27:40.315Z</time></trkpt><trkpt lat="43.3891537" lon="13.426808"><ele>117.0</ele><time>2026-03-22T06:27:41.314Z</time></trkpt><trkpt lat="43.3891131" lon="13.4270975"><ele>116.66666666666666</ele><time>2026-03-22T06:27:42.313Z</time></trkpt><trkpt lat="43.3890728" lon="13.4273893"><ele>116.33333333333333</ele><time>2026-03-22T06:27:43.315Z</time></trkpt><trkpt lat="43.3890347" lon="13.4276882"><ele>116.0</ele><time>2026-03-22T06:27:44.313Z</time></trkpt><trkpt lat="43.3889924" lon="13.427985"><ele>115.66666666666666</ele><time>2026-03-22T06:27:45.314Z</time></trkpt><trkpt lat="43.3889559" lon="13.4282833"><ele>115.33333333333334</ele><time>2026-03-22T06:27:46.314Z</time></trkpt><trkpt lat="43.3889308" lon="13.4285694"><ele>115.0</ele><time>2026-03-22T06:27:47.315Z</time></trkpt><trkpt lat="43.3889114" lon="13.428858"><ele>115.0</ele><time>2026-03-22T06:27:48.313Z</time></trkpt><trkpt lat="43.3888997" lon="13.4291457"><ele>115.0</ele><time>2026-03-22T06:27:49.313Z</time></trkpt><trkpt lat="43.3888889" lon="13.4294365"><ele>115.0</ele><time>2026-03-22T06:27:50.315Z</time></trkpt><trkpt lat="43.3888799" lon="13.4297198"><ele>116.0</ele><time>2026-03-22T06:27:51.313Z</time></trkpt><trkpt lat="43.388865" lon="13.429991"><ele>117.0</ele><time>2026-03-22T06:27:52.314Z</time></trkpt><trkpt lat="43.388844" lon="13.4302658"><ele>118.0</ele><time>2026-03-22T06:27:53.315Z</time></trkpt><trkpt lat="43.3888179" lon="13.4305369"><ele>124.0</ele><time>2026-03-22T06:27:54.314Z</time></trkpt><trkpt lat="43.3887527" lon="13.430809"><ele>130.0</ele><time>2026-03-22T06:27:55.313Z</time></trkpt><trkpt lat="43.3886858" lon="13.4310705"><ele>136.0</ele><time>2026-03-22T06:27:56.314Z</time></trkpt><trkpt lat="43.3886023" lon="13.4313206"><ele>136.0</ele><time>2026-03-22T06:27:57.314Z</time></trkpt><trkpt lat="43.3884982" lon="13.4315592"><ele>136.0</ele><time>2026-03-22T06:27:58.313Z</time></trkpt><trkpt lat="43.3883836" lon="13.4317973"><ele>136.0</ele><time>2026-03-22T06:27:59.314Z</time></trkpt><trkpt lat="43.3882573" lon="13.4320312"><ele>133.33333333333334</ele><time>2026-03-22T06:28:00.314Z</time></trkpt><trkpt lat="43.3881293" lon="13.4322669"><ele>130.66666666666666</ele><time>2026-03-22T06:28:01.313Z</time></trkpt><trkpt lat="43.3880023" lon="13.4325053"><ele>128.0</ele><time>2026-03-22T06:28:02.314Z</time></trkpt><trkpt lat="43.3878729" lon="13.4327376"><ele>132.33333333333331</ele><time>2026-03-22T06:28:03.314Z</time></trkpt><trkpt lat="43.3877505" lon="13.4329597"><ele>136.66666666666666</ele><time>2026-03-22T06:28:04.313Z</time></trkpt><trkpt lat="43.3876357" lon="13.4331662"><ele>141.0</ele><time>2026-03-22T06:28:05.314Z</time></trkpt><trkpt lat="43.3875339" lon="13.4333536"><ele>141.0</ele><time>2026-03-22T06:28:06.314Z</time></trkpt><trkpt lat="43.3874441" lon="13.4335269"><ele>141.0</ele><time>2026-03-22T06:28:07.314Z</time></trkpt><trkpt lat="43.387357" lon="13.4336884"><ele>141.0</ele><time>2026-03-22T06:28:08.313Z</time></trkpt><trkpt lat="43.3872767" lon="13.4338342"><ele>141.0</ele><time>2026-03-22T06:28:09.314Z</time></trkpt><trkpt lat="43.3872022" lon="13.4339177"><ele>143.33333333333334</ele><time>2026-03-22T06:28:10.314Z</time></trkpt><trkpt lat="43.3871187" lon="13.433966"><ele>145.66666666666666</ele><time>2026-03-22T06:28:11.314Z</time></trkpt><trkpt lat="43.3870451" lon="13.4339517"><ele>148.0</ele><time>2026-03-22T06:28:12.314Z</time></trkpt><trkpt lat="43.3869887" lon="13.4338898"><ele>150.33333333333331</ele><time>2026-03-22T06:28:13.313Z</time></trkpt><trkpt lat="43.3869884" lon="13.4337689"><ele>152.66666666666666</ele><time>2026-03-22T06:28:14.314Z</time></trkpt><trkpt lat="43.3869828" lon="13.4336337"><ele>155.0</ele><time>2026-03-22T06:28:15.315Z</time></trkpt><trkpt lat="43.3870156" lon="13.433454"><ele>155.66666666666666</ele><time>2026-03-22T06:28:16.314Z</time></trkpt><trkpt lat="43.3870645" lon="13.433267"><ele>156.33333333333334</ele><time>2026-03-22T06:28:17.314Z</time></trkpt><trkpt lat="43.3871107" lon="13.4330585"><ele>157.0</ele><time>2026-03-22T06:28:18.314Z</time></trkpt><trkpt lat="43.3871657" lon="13.4328287"><ele>156.33333333333334</ele><time>2026-03-22T06:28:19.314Z</time></trkpt><trkpt lat="43.3872233" lon="13.4325788"><ele>155.66666666666666</ele><time>2026-03-22T06:28:20.315Z</time></trkpt><trkpt lat="43.3872806" lon="13.4323299"><ele>155.0</ele><time>2026-03-22T06:28:21.313Z</time></trkpt><trkpt lat="43.3873364" lon="13.43208"><ele>155.0</ele><time>2026-03-22T06:28:22.314Z</time></trkpt><trkpt lat="43.3873924" lon="13.4318328"><ele>155.0</ele><time>2026-03-22T06:28:23.314Z</time></trkpt><trkpt lat="43.3874452" lon="13.4315849"><ele>155.0</ele><time>2026-03-22T06:28:24.314Z</time></trkpt><trkpt lat="43.3874805" lon="13.4313401"><ele>156.33333333333331</ele><time>2026-03-22T06:28:25.313Z</time></trkpt><trkpt lat="43.3875033" lon="13.431102"><ele>157.66666666666666</ele><time>2026-03-22T06:28:26.315Z</time></trkpt><trkpt lat="43.387478" lon="13.4308775"><ele>159.0</ele><time>2026-03-22T06:28:27.314Z</time></trkpt><trkpt lat="43.3874535" lon="13.4306566"><ele>157.66666666666666</ele><time>2026-03-22T06:28:28.314Z</time></trkpt><trkpt lat="43.3874131" lon="13.4304449"><ele>156.33333333333331</ele><time>2026-03-22T06:28:29.314Z</time></trkpt><trkpt lat="43.3873553" lon="13.4302514"><ele>155.0</ele><time>2026-03-22T06:28:30.314Z</time></trkpt><trkpt lat="43.3872982" lon="13.430068"><ele>155.0</ele><time>2026-03-22T06:28:31.314Z</time></trkpt><trkpt lat="43.3872389" lon="13.42991"><ele>155.0</ele><time>2026-03-22T06:28:32.315Z</time></trkpt><trkpt lat="43.3871666" lon="13.4297914"><ele>155.0</ele><time>2026-03-22T06:28:33.314Z</time></trkpt><trkpt lat="43.3870793" lon="13.4297417"><ele>155.0</ele><time>2026-03-22T06:28:34.314Z</time></trkpt><trkpt lat="43.3869868" lon="13.4297671"><ele>155.0</ele><time>2026-03-22T06:28:35.315Z</time></trkpt><trkpt lat="43.3868938" lon="13.4298278"><ele>156.75</ele><time>2026-03-22T06:28:36.313Z</time></trkpt><trkpt lat="43.3868057" lon="13.4299498"><ele>158.5</ele><time>2026-03-22T06:28:37.314Z</time></trkpt><trkpt lat="43.3866921" lon="13.4300997"><ele>160.25</ele><time>2026-03-22T06:28:38.315Z</time></trkpt><trkpt lat="43.386574" lon="13.4302425"><ele>162.0</ele><time>2026-03-22T06:28:39.314Z</time></trkpt><trkpt lat="43.3864481" lon="13.4304057"><ele>165.0</ele><time>2026-03-22T06:28:40.315Z</time></trkpt><trkpt lat="43.3863217" lon="13.4305662"><ele>168.0</ele><time>2026-03-22T06:28:41.314Z</time></trkpt><trkpt lat="43.386192" lon="13.4307192"><ele>171.0</ele><time>2026-03-22T06:28:42.314Z</time></trkpt><trkpt lat="43.3860743" lon="13.430855"><ele>171.0</ele><time>2026-03-22T06:28:43.314Z</time></trkpt><trkpt lat="43.3859755" lon="13.4310136"><ele>171.0</ele><time>2026-03-22T06:28:44.313Z</time></trkpt><trkpt lat="43.3858973" lon="13.4311996"><ele>171.0</ele><time>2026-03-22T06:28:45.314Z</time></trkpt><trkpt lat="43.3858308" lon="13.4314183"><ele>172.66666666666666</ele><time>2026-03-22T06:28:46.314Z</time></trkpt><trkpt lat="43.3857803" lon="13.4316862"><ele>174.33333333333331</ele><time>2026-03-22T06:28:47.314Z</time></trkpt><trkpt lat="43.3857334" lon="13.4319842"><ele>176.0</ele><time>2026-03-22T06:28:48.313Z</time></trkpt><trkpt lat="43.3856792" lon="13.4322878"><ele>176.5</ele><time>2026-03-22T06:28:49.313Z</time></trkpt><trkpt lat="43.3856179" lon="13.4326148"><ele>177.0</ele><time>2026-03-22T06:28:50.314Z</time></trkpt><trkpt lat="43.3855553" lon="13.432955"><ele>184.0</ele><time>2026-03-22T06:28:51.314Z</time></trkpt><trkpt lat="43.3854875" lon="13.4333125"><ele>191.0</ele><time>2026-03-22T06:28:52.313Z</time></trkpt><trkpt lat="43.3854165" lon="13.4336801"><ele>194.0</ele><time>2026-03-22T06:28:53.314Z</time></trkpt><trkpt lat="43.3853502" lon="13.4340255"><ele>197.0</ele><time>2026-03-22T06:28:54.313Z</time></trkpt><trkpt lat="43.3852868" lon="13.434346"><ele>197.33333333333334</ele><time>2026-03-22T06:28:55.314Z</time></trkpt><trkpt lat="43.3852302" lon="13.4346413"><ele>197.66666666666669</ele><time>2026-03-22T06:28:56.314Z</time></trkpt><trkpt lat="43.3851752" lon="13.4349281"><ele>198.0</ele><time>2026-03-22T06:28:57.315Z</time></trkpt><trkpt lat="43.3851148" lon="13.4352177"><ele>197.33333333333331</ele><time>2026-03-22T06:28:58.315Z</time></trkpt><trkpt lat="43.3850487" lon="13.4355053"><ele>196.66666666666666</ele><time>2026-03-22T06:28:59.315Z</time></trkpt><trkpt lat="43.3849662" lon="13.4357919"><ele>196.0</ele><time>2026-03-22T06:29:00.315Z</time></trkpt><trkpt lat="43.384879" lon="13.4360775"><ele>193.5</ele><time>2026-03-22T06:29:01.313Z</time></trkpt><trkpt lat="43.3847844" lon="13.4363845"><ele>191.0</ele><time>2026-03-22T06:29:02.314Z</time></trkpt><trkpt lat="43.3846891" lon="13.4366825"><ele>202.0</ele><time>2026-03-22T06:29:03.314Z</time></trkpt><trkpt lat="43.3845933" lon="13.436978"><ele>213.0</ele><time>2026-03-22T06:29:04.314Z</time></trkpt><trkpt lat="43.3844948" lon="13.4372721"><ele>213.0</ele><time>2026-03-22T06:29:05.313Z</time></trkpt><trkpt lat="43.3843999" lon="13.4375566"><ele>213.0</ele><time>2026-03-22T06:29:06.315Z</time></trkpt><trkpt lat="43.3843055" lon="13.4378303"><ele>213.0</ele><time>2026-03-22T06:29:07.315Z</time></trkpt><trkpt lat="43.3842151" lon="13.4380945"><ele>211.33333333333331</ele><time>2026-03-22T06:29:08.313Z</time></trkpt><trkpt lat="43.3841223" lon="13.4383314"><ele>209.66666666666666</ele><time>2026-03-22T06:29:09.314Z</time></trkpt><trkpt lat="43.3840212" lon="13.4385377"><ele>208.0</ele><time>2026-03-22T06:29:10.314Z</time></trkpt><trkpt lat="43.3839219" lon="13.4387163"><ele>210.25</ele><time>2026-03-22T06:29:11.314Z</time></trkpt><trkpt lat="43.3838078" lon="13.4388574"><ele>212.5</ele><time>2026-03-22T06:29:12.314Z</time></trkpt><trkpt lat="43.383685" lon="13.4389691"><ele>214.75</ele><time>2026-03-22T06:29:13.314Z</time></trkpt><trkpt lat="43.3835571" lon="13.4390424"><ele>217.0</ele><time>2026-03-22T06:29:14.315Z</time></trkpt><trkpt lat="43.3834088" lon="13.4390854"><ele>217.0</ele><time>2026-03-22T06:29:15.313Z</time></trkpt><trkpt lat="43.383238" lon="13.4390873"><ele>217.0</ele><time>2026-03-22T06:29:16.315Z</time></trkpt><trkpt lat="43.3830589" lon="13.4390717"><ele>217.0</ele><time>2026-03-22T06:29:17.314Z</time></trkpt><trkpt lat="43.3828755" lon="13.4390722"><ele>220.66666666666666</ele><time>2026-03-22T06:29:18.315Z</time></trkpt><trkpt lat="43.3826927" lon="13.4390706"><ele>224.33333333333331</ele><time>2026-03-22T06:29:19.315Z</time></trkpt><trkpt lat="43.3825128" lon="13.4390688"><ele>228.0</ele><time>2026-03-22T06:29:20.315Z</time></trkpt><trkpt lat="43.3823252" lon="13.4390689"><ele>226.66666666666669</ele><time>2026-03-22T06:29:21.313Z</time></trkpt><trkpt lat="43.3821443" lon="13.4390733"><ele>225.33333333333334</ele><time>2026-03-22T06:29:22.313Z</time></trkpt><trkpt lat="43.3819698" lon="13.4390722"><ele>224.0</ele><time>2026-03-22T06:29:23.314Z</time></trkpt><trkpt lat="43.3817993" lon="13.4390743"><ele>224.0</ele><time>2026-03-22T06:29:24.314Z</time></trkpt><trkpt lat="43.3816268" lon="13.439082"><ele>224.0</ele><time>2026-03-22T06:29:25.314Z</time></trkpt><trkpt lat="43.3814598" lon="13.4390852"><ele>224.0</ele><time>2026-03-22T06:29:26.313Z</time></trkpt><trkpt lat="43.381293" lon="13.4390847"><ele>224.33333333333334</ele><time>2026-03-22T06:29:27.315Z</time></trkpt><trkpt lat="43.3811259" lon="13.4390911"><ele>224.66666666666669</ele><time>2026-03-22T06:29:28.314Z</time></trkpt><trkpt lat="43.3809605" lon="13.4390896"><ele>225.0</ele><time>2026-03-22T06:29:29.315Z</time></trkpt><trkpt lat="43.3807893" lon="13.4390816"><ele>225.0</ele><time>2026-03-22T06:29:30.314Z</time></trkpt><trkpt lat="43.3806117" lon="13.4390677"><ele>225.0</ele><time>2026-03-22T06:29:31.313Z</time></trkpt><trkpt lat="43.380432" lon="13.4390377"><ele>225.0</ele><time>2026-03-22T06:29:32.315Z</time></trkpt><trkpt lat="43.3802516" lon="13.4389929"><ele>226.33333333333331</ele><time>2026-03-22T06:29:33.315Z</time></trkpt><trkpt lat="43.3800725" lon="13.4389438"><ele>227.66666666666666</ele><time>2026-03-22T06:29:34.313Z</time></trkpt><trkpt lat="43.3798906" lon="13.4388931"><ele>229.0</ele><time>2026-03-22T06:29:35.314Z</time></trkpt><trkpt lat="43.3797103" lon="13.4388453"><ele>230.33333333333331</ele><time>2026-03-22T06:29:36.313Z</time></trkpt><trkpt lat="43.3795333" lon="13.4387956"><ele>231.66666666666669</ele><time>2026-03-22T06:29:37.313Z</time></trkpt><trkpt lat="43.3793569" lon="13.4387491"><ele>233.0</ele><time>2026-03-22T06:29:38.314Z</time></trkpt><trkpt lat="43.3791818" lon="13.4387062"><ele>233.0</ele><time>2026-03-22T06:29:39.315Z</time></trkpt><trkpt lat="43.3790122" lon="13.4386602"><ele>233.0</ele><time>2026-03-22T06:29:40.315Z</time></trkpt><trkpt lat="43.3788418" lon="13.4386123"><ele>233.0</ele><time>2026-03-22T06:29:41.314Z</time></trkpt><trkpt lat="43.3786518" lon="13.4385803"><ele>233.33333333333334</ele><time>2026-03-22T06:29:42.313Z</time></trkpt><trkpt lat="43.3784559" lon="13.4385554"><ele>233.66666666666669</ele><time>2026-03-22T06:29:43.315Z</time></trkpt><trkpt lat="43.3782586" lon="13.4385383"><ele>234.0</ele><time>2026-03-22T06:29:44.315Z</time></trkpt><trkpt lat="43.3780572" lon="13.4385466"><ele>235.33333333333331</ele><time>2026-03-22T06:29:45.314Z</time></trkpt><trkpt lat="43.3778586" lon="13.4385862"><ele>236.66666666666666</ele><time>2026-03-22T06:29:46.314Z</time></trkpt><trkpt lat="43.3776529" lon="13.4386611"><ele>238.0</ele><time>2026-03-22T06:29:47.314Z</time></trkpt><trkpt lat="43.3774458" lon="13.438761"><ele>234.0</ele><time>2026-03-22T06:29:48.314Z</time></trkpt><trkpt lat="43.3772287" lon="13.4388743"><ele>230.0</ele><time>2026-03-22T06:29:49.314Z</time></trkpt><trkpt lat="43.37701" lon="13.4390017"><ele>228.5</ele><time>2026-03-22T06:29:50.314Z</time></trkpt><trkpt lat="43.3767853" lon="13.4391279"><ele>227.0</ele><time>2026-03-22T06:29:51.315Z</time></trkpt><trkpt lat="43.3765591" lon="13.4392553"><ele>226.5</ele><time>2026-03-22T06:29:52.315Z</time></trkpt><trkpt lat="43.3763291" lon="13.4393814"><ele>226.0</ele><time>2026-03-22T06:29:53.315Z</time></trkpt><trkpt lat="43.3760987" lon="13.4395122"><ele>222.5</ele><time>2026-03-22T06:29:54.313Z</time></trkpt><trkpt lat="43.375868" lon="13.4396465"><ele>219.0</ele><time>2026-03-22T06:29:55.314Z</time></trkpt><trkpt lat="43.3756473" lon="13.4397691"><ele>221.0</ele><time>2026-03-22T06:29:56.315Z</time></trkpt><trkpt lat="43.3754272" lon="13.4398902"><ele>223.0</ele><time>2026-03-22T06:29:57.315Z</time></trkpt><trkpt lat="43.3752082" lon="13.4400145"><ele>223.0</ele><time>2026-03-22T06:29:58.313Z</time></trkpt><trkpt lat="43.3749935" lon="13.4401264"><ele>223.0</ele><time>2026-03-22T06:29:59.315Z</time></trkpt><trkpt lat="43.3747781" lon="13.4402361"><ele>220.5</ele><time>2026-03-22T06:30:00.314Z</time></trkpt><trkpt lat="43.3745666" lon="13.4403442"><ele>218.0</ele><time>2026-03-22T06:30:01.314Z</time></trkpt><trkpt lat="43.3743537" lon="13.4404454"><ele>217.0</ele><time>2026-03-22T06:30:02.314Z</time></trkpt><trkpt lat="43.3741398" lon="13.4405344"><ele>216.0</ele><time>2026-03-22T06:30:03.315Z</time></trkpt><trkpt lat="43.3739255" lon="13.4406235"><ele>215.0</ele><time>2026-03-22T06:30:04.315Z</time></trkpt><trkpt lat="43.3737123" lon="13.4406833"><ele>213.33333333333334</ele><time>2026-03-22T06:30:05.315Z</time></trkpt><trkpt lat="43.3734958" lon="13.4407462"><ele>211.66666666666669</ele><time>2026-03-22T06:30:06.314Z</time></trkpt><trkpt lat="43.3732706" lon="13.4407971"><ele>210.0</ele><time>2026-03-22T06:30:07.314Z</time></trkpt><trkpt lat="43.3730444" lon="13.4408432"><ele>210.0</ele><time>2026-03-22T06:30:08.314Z</time></trkpt><trkpt lat="43.3728116" lon="13.440881"><ele>210.0</ele><time>2026-03-22T06:30:09.314Z</time></trkpt><trkpt lat="43.3725759" lon="13.4409272"><ele>210.0</ele><time>2026-03-22T06:30:10.315Z</time></trkpt><trkpt lat="43.3723451" lon="13.4409656"><ele>210.0</ele><time>2026-03-22T06:30:11.315Z</time></trkpt><trkpt lat="43.3721101" lon="13.441008"><ele>210.5</ele><time>2026-03-22T06:30:12.315Z</time></trkpt><trkpt lat="43.3718831" lon="13.4410389"><ele>211.0</ele><time>2026-03-22T06:30:13.315Z</time></trkpt><trkpt lat="43.3716542" lon="13.4410868"><ele>211.0</ele><time>2026-03-22T06:30:14.314Z</time></trkpt><trkpt lat="43.3714278" lon="13.4411247"><ele>211.0</ele><time>2026-03-22T06:30:15.314Z</time></trkpt><trkpt lat="43.3712076" lon="13.4411581"><ele>213.0</ele><time>2026-03-22T06:30:16.315Z</time></trkpt><trkpt lat="43.370999" lon="13.4411932"><ele>215.0</ele><time>2026-03-22T06:30:17.315Z</time></trkpt><trkpt lat="43.3708034" lon="13.4412233"><ele>217.0</ele><time>2026-03-22T06:30:18.314Z</time></trkpt><trkpt lat="43.3706223" lon="13.4412499"><ele>217.66666666666666</ele><time>2026-03-22T06:30:19.315Z</time></trkpt><trkpt lat="43.3704535" lon="13.4412783"><ele>218.33333333333331</ele><time>2026-03-22T06:30:20.313Z</time></trkpt><trkpt lat="43.3702872" lon="13.4413032"><ele>219.0</ele><time>2026-03-22T06:30:21.314Z</time></trkpt><trkpt lat="43.3701271" lon="13.4413122"><ele>219.0</ele><time>2026-03-22T06:30:22.315Z</time></trkpt><trkpt lat="43.3699667" lon="13.4413067"><ele>219.0</ele><time>2026-03-22T06:30:23.315Z</time></trkpt><trkpt lat="43.3698048" lon="13.4412932"><ele>219.0</ele><time>2026-03-22T06:30:24.313Z</time></trkpt><trkpt lat="43.3696464" lon="13.4412656"><ele>218.33333333333331</ele><time>2026-03-22T06:30:25.315Z</time></trkpt><trkpt lat="43.3694895" lon="13.4412102"><ele>217.66666666666666</ele><time>2026-03-22T06:30:26.314Z</time></trkpt><trkpt lat="43.3693321" lon="13.4411364"><ele>217.0</ele><time>2026-03-22T06:30:27.314Z</time></trkpt><trkpt lat="43.3691734" lon="13.4410453"><ele>217.0</ele><time>2026-03-22T06:30:28.313Z</time></trkpt><trkpt lat="43.3690185" lon="13.4409448"><ele>217.0</ele><time>2026-03-22T06:30:29.315Z</time></trkpt><trkpt lat="43.3688594" lon="13.4408412"><ele>217.0</ele><time>2026-03-22T06:30:30.313Z</time></trkpt><trkpt lat="43.3687006" lon="13.4407305"><ele>216.0</ele><time>2026-03-22T06:30:31.315Z</time></trkpt><trkpt lat="43.3685376" lon="13.440615"><ele>215.0</ele><time>2026-03-22T06:30:32.314Z</time></trkpt><trkpt lat="43.3683742" lon="13.4405112"><ele>214.0</ele><time>2026-03-22T06:30:33.314Z</time></trkpt><trkpt lat="43.368212" lon="13.4404022"><ele>213.33333333333331</ele><time>2026-03-22T06:30:34.313Z</time></trkpt><trkpt lat="43.3680461" lon="13.4402944"><ele>212.66666666666669</ele><time>2026-03-22T06:30:35.314Z</time></trkpt><trkpt lat="43.3678866" lon="13.4401793"><ele>212.0</ele><time>2026-03-22T06:30:36.314Z</time></trkpt><trkpt lat="43.3677271" lon="13.440056"><ele>211.0</ele><time>2026-03-22T06:30:37.314Z</time></trkpt><trkpt lat="43.3675705" lon="13.4399265"><ele>210.0</ele><time>2026-03-22T06:30:38.313Z</time></trkpt><trkpt lat="43.3674117" lon="13.4398044"><ele>209.0</ele><time>2026-03-22T06:30:39.314Z</time></trkpt><trkpt lat="43.3672554" lon="13.4396706"><ele>209.0</ele><time>2026-03-22T06:30:40.315Z</time></trkpt><trkpt lat="43.3671015" lon="13.4395431"><ele>209.0</ele><time>2026-03-22T06:30:41.313Z</time></trkpt><trkpt lat="43.3669475" lon="13.4394069"><ele>209.0</ele><time>2026-03-22T06:30:42.315Z</time></trkpt><trkpt lat="43.3667906" lon="13.4392707"><ele>209.0</ele><time>2026-03-22T06:30:43.315Z</time></trkpt><trkpt lat="43.3666362" lon="13.4391353"><ele>209.0</ele><time>2026-03-22T06:30:44.314Z</time></trkpt><trkpt lat="43.3664874" lon="13.4390118"><ele>209.0</ele><time>2026-03-22T06:30:45.314Z</time></trkpt><trkpt lat="43.3663522" lon="13.4388924"><ele>205.33333333333334</ele><time>2026-03-22T06:30:46.313Z</time></trkpt><trkpt lat="43.3662138" lon="13.4387674"><ele>201.66666666666669</ele><time>2026-03-22T06:30:47.314Z</time></trkpt><trkpt lat="43.3660873" lon="13.4386516"><ele>198.0</ele><time>2026-03-22T06:30:48.314Z</time></trkpt><trkpt lat="43.3659568" lon="13.4385334"><ele>198.0</ele><time>2026-03-22T06:30:49.313Z</time></trkpt><trkpt lat="43.3658294" lon="13.4384281"><ele>198.0</ele><time>2026-03-22T06:30:50.313Z</time></trkpt><trkpt lat="43.3657138" lon="13.4383131"><ele>198.0</ele><time>2026-03-22T06:30:51.315Z</time></trkpt><trkpt lat="43.3655929" lon="13.4382112"><ele>198.0</ele><time>2026-03-22T06:30:52.315Z</time></trkpt><trkpt lat="43.3654784" lon="13.4381129"><ele>196.0</ele><time>2026-03-22T06:30:53.314Z</time></trkpt><trkpt lat="43.3653708" lon="13.4380163"><ele>194.0</ele><time>2026-03-22T06:30:54.313Z</time></trkpt><trkpt lat="43.3652631" lon="13.4379223"><ele>192.0</ele><time>2026-03-22T06:30:55.314Z</time></trkpt><trkpt lat="43.365156" lon="13.4378277"><ele>190.0</ele><time>2026-03-22T06:30:56.315Z</time></trkpt><trkpt lat="43.3650479" lon="13.43774"><ele>190.0</ele><time>2026-03-22T06:30:57.313Z</time></trkpt><trkpt lat="43.3649418" lon="13.4376508"><ele>190.0</ele><time>2026-03-22T06:30:58.314Z</time></trkpt><trkpt lat="43.3648343" lon="13.4375557"><ele>190.0</ele><time>2026-03-22T06:30:59.314Z</time></trkpt><trkpt lat="43.3647299" lon="13.4374689"><ele>190.0</ele><time>2026-03-22T06:31:00.315Z</time></trkpt><trkpt lat="43.3646195" lon="13.4373929"><ele>189.8</ele><time>2026-03-22T06:31:01.314Z</time></trkpt><trkpt lat="43.3645114" lon="13.4373251"><ele>189.6</ele><time>2026-03-22T06:31:02.314Z</time></trkpt><trkpt lat="43.3644096" lon="13.4372488"><ele>189.39999999999998</ele><time>2026-03-22T06:31:03.314Z</time></trkpt><trkpt lat="43.3643137" lon="13.437189"><ele>189.2</ele><time>2026-03-22T06:31:04.314Z</time></trkpt><trkpt lat="43.3642086" lon="13.437176"><ele>189.0</ele><time>2026-03-22T06:31:05.315Z</time></trkpt><trkpt lat="43.3641054" lon="13.4371722"><ele>189.0</ele><time>2026-03-22T06:31:06.315Z</time></trkpt><trkpt lat="43.3639927" lon="13.4371833"><ele>189.0</ele><time>2026-03-22T06:31:07.315Z</time></trkpt><trkpt lat="43.3638766" lon="13.4372092"><ele>189.0</ele><time>2026-03-22T06:31:08.315Z</time></trkpt><trkpt lat="43.3637607" lon="13.4372527"><ele>189.0</ele><time>2026-03-22T06:31:09.315Z</time></trkpt><trkpt lat="43.3636424" lon="13.4372793"><ele>189.25</ele><time>2026-03-22T06:31:10.315Z</time></trkpt><trkpt lat="43.3635199" lon="13.4372907"><ele>189.5</ele><time>2026-03-22T06:31:11.314Z</time></trkpt><trkpt lat="43.3633962" lon="13.4372914"><ele>189.75</ele><time>2026-03-22T06:31:12.313Z</time></trkpt><trkpt lat="43.3632746" lon="13.4372591"><ele>190.0</ele><time>2026-03-22T06:31:13.315Z</time></trkpt><trkpt lat="43.3631516" lon="13.4372088"><ele>190.0</ele><time>2026-03-22T06:31:14.313Z</time></trkpt><trkpt lat="43.3630446" lon="13.4371398"><ele>190.0</ele><time>2026-03-22T06:31:15.314Z</time></trkpt><trkpt lat="43.3629609" lon="13.4370126"><ele>190.0</ele><time>2026-03-22T06:31:16.313Z</time></trkpt><trkpt lat="43.3628668" lon="13.4368919"><ele>190.0</ele><time>2026-03-22T06:31:17.315Z</time></trkpt><trkpt lat="43.3627884" lon="13.4367426"><ele>189.0</ele><time>2026-03-22T06:31:18.313Z</time></trkpt><trkpt lat="43.3627123" lon="13.436571"><ele>188.0</ele><time>2026-03-22T06:31:19.314Z</time></trkpt><trkpt lat="43.3626384" lon="13.436404"><ele>187.0</ele><time>2026-03-22T06:31:20.315Z</time></trkpt><trkpt lat="43.3625741" lon="13.4362352"><ele>186.0</ele><time>2026-03-22T06:31:21.314Z</time></trkpt><trkpt lat="43.3625083" lon="13.436081"><ele>186.0</ele><time>2026-03-22T06:31:22.314Z</time></trkpt><trkpt lat="43.3624594" lon="13.4359124"><ele>186.0</ele><time>2026-03-22T06:31:23.314Z</time></trkpt><trkpt lat="43.3624275" lon="13.4357419"><ele>186.0</ele><time>2026-03-22T06:31:24.315Z</time></trkpt><trkpt lat="43.3624232" lon="13.4355656"><ele>186.0</ele><time>2026-03-22T06:31:25.314Z</time></trkpt><trkpt lat="43.362441" lon="13.4353886"><ele>185.60000000000002</ele><time>2026-03-22T06:31:26.314Z</time></trkpt><trkpt lat="43.3624745" lon="13.4352167"><ele>185.2</ele><time>2026-03-22T06:31:27.314Z</time></trkpt><trkpt lat="43.3624987" lon="13.4350676"><ele>184.8</ele><time>2026-03-22T06:31:28.315Z</time></trkpt><trkpt lat="43.3625046" lon="13.4349362"><ele>184.39999999999998</ele><time>2026-03-22T06:31:29.315Z</time></trkpt><trkpt lat="43.3624958" lon="13.4348167"><ele>184.0</ele><time>2026-03-22T06:31:30.314Z</time></trkpt><trkpt lat="43.3624505" lon="13.4347479"><ele>184.0</ele><time>2026-03-22T06:31:31.314Z</time></trkpt><trkpt lat="43.3623661" lon="13.4347395"><ele>184.0</ele><time>2026-03-22T06:31:32.313Z</time></trkpt><trkpt lat="43.3623041" lon="13.4347759"><ele>184.0</ele><time>2026-03-22T06:31:33.315Z</time></trkpt><trkpt lat="43.3622519" lon="13.4348573"><ele>184.0</ele><time>2026-03-22T06:31:34.314Z</time></trkpt><trkpt lat="43.3622132" lon="13.4349863"><ele>184.0</ele><time>2026-03-22T06:31:35.314Z</time></trkpt><trkpt lat="43.3621867" lon="13.4351303"><ele>184.0</ele><time>2026-03-22T06:31:36.314Z</time></trkpt><trkpt lat="43.3621613" lon="13.4352843"><ele>179.79999999999998</ele><time>2026-03-22T06:31:37.315Z</time></trkpt><trkpt lat="43.3621289" lon="13.4354594"><ele>175.6</ele><time>2026-03-22T06:31:38.313Z</time></trkpt><trkpt lat="43.3620963" lon="13.4356287"><ele>171.4</ele><time>2026-03-22T06:31:39.313Z</time></trkpt><trkpt lat="43.3620708" lon="13.4357645"><ele>167.2</ele><time>2026-03-22T06:31:40.313Z</time></trkpt><trkpt lat="43.3620503" lon="13.4358664"><ele>163.0</ele><time>2026-03-22T06:31:41.313Z</time></trkpt><trkpt lat="43.3620171" lon="13.4359523"><ele>163.0</ele><time>2026-03-22T06:31:42.314Z</time></trkpt><trkpt lat="43.3619871" lon="13.4360381"><ele>163.0</ele><time>2026-03-22T06:31:43.315Z</time></trkpt><trkpt lat="43.3619691" lon="13.4361272"><ele>163.0</ele><time>2026-03-22T06:31:44.315Z</time></trkpt><trkpt lat="43.3619501" lon="13.4362213"><ele>163.0</ele><time>2026-03-22T06:31:45.315Z</time></trkpt><trkpt lat="43.361918" lon="13.436314"><ele>163.0</ele><time>2026-03-22T06:31:46.314Z</time></trkpt><trkpt lat="43.3618606" lon="13.4363982"><ele>163.0</ele><time>2026-03-22T06:31:47.315Z</time></trkpt><trkpt lat="43.361782" lon="13.4364583"><ele>163.0</ele><time>2026-03-22T06:31:48.314Z</time></trkpt><trkpt lat="43.3616779" lon="13.4365047"><ele>163.0</ele><time>2026-03-22T06:31:49.314Z</time></trkpt><trkpt lat="43.3615617" lon="13.4365398"><ele>163.0</ele><time>2026-03-22T06:31:50.315Z</time></trkpt><trkpt lat="43.3614156" lon="13.4365767"><ele>163.0</ele><time>2026-03-22T06:31:51.313Z</time></trkpt><trkpt lat="43.361265" lon="13.4366105"><ele>160.33333333333334</ele><time>2026-03-22T06:31:52.314Z</time></trkpt><trkpt lat="43.3611112" lon="13.4366441"><ele>157.66666666666666</ele><time>2026-03-22T06:31:53.314Z</time></trkpt><trkpt lat="43.3609538" lon="13.4366716"><ele>155.0</ele><time>2026-03-22T06:31:54.315Z</time></trkpt><trkpt lat="43.3607963" lon="13.4367027"><ele>155.0</ele><time>2026-03-22T06:31:55.315Z</time></trkpt><trkpt lat="43.3606361" lon="13.4367345"><ele>155.0</ele><time>2026-03-22T06:31:56.315Z</time></trkpt><trkpt lat="43.3604683" lon="13.4367652"><ele>155.0</ele><time>2026-03-22T06:31:57.315Z</time></trkpt><trkpt lat="43.3603014" lon="13.4368041"><ele>152.33333333333331</ele><time>2026-03-22T06:31:58.315Z</time></trkpt><trkpt lat="43.3601362" lon="13.4368346"><ele>149.66666666666666</ele><time>2026-03-22T06:31:59.314Z</time></trkpt><trkpt lat="43.3599654" lon="13.4368733"><ele>147.0</ele><time>2026-03-22T06:32:00.315Z</time></trkpt><trkpt lat="43.3597947" lon="13.4369082"><ele>145.0</ele><time>2026-03-22T06:32:01.315Z</time></trkpt><trkpt lat="43.3596213" lon="13.4369396"><ele>143.0</ele><time>2026-03-22T06:32:02.315Z</time></trkpt><trkpt lat="43.3594538" lon="13.4369719"><ele>141.0</ele><time>2026-03-22T06:32:03.315Z</time></trkpt><trkpt lat="43.3592871" lon="13.4370051"><ele>141.0</ele><time>2026-03-22T06:32:04.314Z</time></trkpt><trkpt lat="43.3591068" lon="13.4370409"><ele>141.0</ele><time>2026-03-22T06:32:05.315Z</time></trkpt><trkpt lat="43.3589273" lon="13.4370681"><ele>141.0</ele><time>2026-03-22T06:32:06.315Z</time></trkpt><trkpt lat="43.3587481" lon="13.4371058"><ele>140.0</ele><time>2026-03-22T06:32:07.314Z</time></trkpt><trkpt lat="43.358563" lon="13.4371354"><ele>139.0</ele><time>2026-03-22T06:32:08.314Z</time></trkpt><trkpt lat="43.3583822" lon="13.4371691"><ele>138.0</ele><time>2026-03-22T06:32:09.314Z</time></trkpt><trkpt lat="43.3581989" lon="13.4372057"><ele>137.66666666666666</ele><time>2026-03-22T06:32:10.315Z</time></trkpt><trkpt lat="43.3580246" lon="13.4372416"><ele>137.33333333333331</ele><time>2026-03-22T06:32:11.313Z</time></trkpt><trkpt lat="43.3578501" lon="13.4372763"><ele>137.0</ele><time>2026-03-22T06:32:12.313Z</time></trkpt><trkpt lat="43.3576818" lon="13.4373083"><ele>137.0</ele><time>2026-03-22T06:32:13.315Z</time></trkpt><trkpt lat="43.3575126" lon="13.4373393"><ele>137.0</ele><time>2026-03-22T06:32:14.314Z</time></trkpt><trkpt lat="43.3573421" lon="13.4373784"><ele>137.0</ele><time>2026-03-22T06:32:15.315Z</time></trkpt><trkpt lat="43.3571766" lon="13.4374062"><ele>136.0</ele><time>2026-03-22T06:32:16.315Z</time></trkpt><trkpt lat="43.3570037" lon="13.4374484"><ele>135.0</ele><time>2026-03-22T06:32:17.313Z</time></trkpt><trkpt lat="43.3568317" lon="13.4374851"><ele>134.0</ele><time>2026-03-22T06:32:18.315Z</time></trkpt><trkpt lat="43.3566498" lon="13.4375205"><ele>134.0</ele><time>2026-03-22T06:32:19.315Z</time></trkpt><trkpt lat="43.356478" lon="13.4375574"><ele>134.0</ele><time>2026-03-22T06:32:20.315Z</time></trkpt><trkpt lat="43.3563067" lon="13.4375903"><ele>134.0</ele><time>2026-03-22T06:32:21.315Z</time></trkpt><trkpt lat="43.356142" lon="13.4376271"><ele>134.0</ele><time>2026-03-22T06:32:22.314Z</time></trkpt><trkpt lat="43.3559851" lon="13.4376582"><ele>134.0</ele><time>2026-03-22T06:32:23.314Z</time></trkpt><trkpt lat="43.3558344" lon="13.4376894"><ele>134.0</ele><time>2026-03-22T06:32:24.315Z</time></trkpt><trkpt lat="43.3556793" lon="13.4377217"><ele>132.5</ele><time>2026-03-22T06:32:25.315Z</time></trkpt><trkpt lat="43.3555311" lon="13.4377518"><ele>131.0</ele><time>2026-03-22T06:32:26.315Z</time></trkpt><trkpt lat="43.3553904" lon="13.4377842"><ele>129.5</ele><time>2026-03-22T06:32:27.315Z</time></trkpt><trkpt lat="43.3552489" lon="13.4378117"><ele>128.0</ele><time>2026-03-22T06:32:28.315Z</time></trkpt><trkpt lat="43.3551041" lon="13.4378396"><ele>128.0</ele><time>2026-03-22T06:32:29.314Z</time></trkpt><trkpt lat="43.3549561" lon="13.4378613"><ele>128.0</ele><time>2026-03-22T06:32:30.314Z</time></trkpt><trkpt lat="43.3548116" lon="13.4378823"><ele>128.0</ele><time>2026-03-22T06:32:31.313Z</time></trkpt><trkpt lat="43.3546677" lon="13.4378902"><ele>128.0</ele><time>2026-03-22T06:32:32.314Z</time></trkpt><trkpt lat="43.3545217" lon="13.4378932"><ele>125.5</ele><time>2026-03-22T06:32:33.314Z</time></trkpt><trkpt lat="43.3543698" lon="13.4378978"><ele>123.0</ele><time>2026-03-22T06:32:34.315Z</time></trkpt><trkpt lat="43.3542255" lon="13.4378993"><ele>120.5</ele><time>2026-03-22T06:32:35.314Z</time></trkpt><trkpt lat="43.3540917" lon="13.4378933"><ele>118.0</ele><time>2026-03-22T06:32:36.315Z</time></trkpt><trkpt lat="43.3539645" lon="13.4378844"><ele>115.60000000000001</ele><time>2026-03-22T06:32:37.314Z</time></trkpt><trkpt lat="43.3538484" lon="13.4378684"><ele>113.20000000000002</ele><time>2026-03-22T06:32:38.314Z</time></trkpt><trkpt lat="43.353747" lon="13.4378388"><ele>110.8</ele><time>2026-03-22T06:32:39.314Z</time></trkpt><trkpt lat="43.3536554" lon="13.4378047"><ele>108.4</ele><time>2026-03-22T06:32:40.315Z</time></trkpt><trkpt lat="43.3535713" lon="13.4377684"><ele>106.0</ele><time>2026-03-22T06:32:41.314Z</time></trkpt><trkpt lat="43.3534961" lon="13.4377367"><ele>106.0</ele><time>2026-03-22T06:32:42.314Z</time></trkpt><trkpt lat="43.3534185" lon="13.4377074"><ele>106.0</ele><time>2026-03-22T06:32:43.314Z</time></trkpt><trkpt lat="43.3533266" lon="13.4376676"><ele>106.0</ele><time>2026-03-22T06:32:44.315Z</time></trkpt><trkpt lat="43.353232" lon="13.4376199"><ele>106.0</ele><time>2026-03-22T06:32:45.315Z</time></trkpt><trkpt lat="43.3531159" lon="13.437563"><ele>106.0</ele><time>2026-03-22T06:32:46.314Z</time></trkpt><trkpt lat="43.3529914" lon="13.4374959"><ele>105.25</ele><time>2026-03-22T06:32:47.315Z</time></trkpt><trkpt lat="43.3528628" lon="13.4374247"><ele>104.5</ele><time>2026-03-22T06:32:48.314Z</time></trkpt><trkpt lat="43.3527278" lon="13.4373506"><ele>103.75</ele><time>2026-03-22T06:32:49.313Z</time></trkpt><trkpt lat="43.3525805" lon="13.4372786"><ele>103.0</ele><time>2026-03-22T06:32:50.315Z</time></trkpt><trkpt lat="43.352424" lon="13.4371908"><ele>103.33333333333334</ele><time>2026-03-22T06:32:51.315Z</time></trkpt><trkpt lat="43.3522703" lon="13.4371037"><ele>103.66666666666666</ele><time>2026-03-22T06:32:52.315Z</time></trkpt><trkpt lat="43.3521015" lon="13.4370176"><ele>104.0</ele><time>2026-03-22T06:32:53.315Z</time></trkpt><trkpt lat="43.3519425" lon="13.4369237"><ele>104.0</ele><time>2026-03-22T06:32:54.315Z</time></trkpt><trkpt lat="43.3517797" lon="13.4368321"><ele>104.0</ele><time>2026-03-22T06:32:55.313Z</time></trkpt><trkpt lat="43.3516189" lon="13.4367357"><ele>104.0</ele><time>2026-03-22T06:32:56.315Z</time></trkpt><trkpt lat="43.3514527" lon="13.4366363"><ele>104.33333333333333</ele><time>2026-03-22T06:32:57.314Z</time></trkpt><trkpt lat="43.3512885" lon="13.4365424"><ele>104.66666666666666</ele><time>2026-03-22T06:32:58.315Z</time></trkpt><trkpt lat="43.3511234" lon="13.4364477"><ele>105.0</ele><time>2026-03-22T06:32:59.315Z</time></trkpt><trkpt lat="43.3509545" lon="13.4363539"><ele>105.0</ele><time>2026-03-22T06:33:00.315Z</time></trkpt><trkpt lat="43.3507854" lon="13.4362582"><ele>105.0</ele><time>2026-03-22T06:33:01.314Z</time></trkpt><trkpt lat="43.3506176" lon="13.4361618"><ele>105.0</ele><time>2026-03-22T06:33:02.314Z</time></trkpt><trkpt lat="43.3504451" lon="13.4360672"><ele>104.66666666666666</ele><time>2026-03-22T06:33:03.314Z</time></trkpt><trkpt lat="43.3502756" lon="13.4359757"><ele>104.33333333333333</ele><time>2026-03-22T06:33:04.314Z</time></trkpt><trkpt lat="43.3501035" lon="13.4358763"><ele>104.0</ele><time>2026-03-22T06:33:05.315Z</time></trkpt><trkpt lat="43.3499292" lon="13.4357765"><ele>104.0</ele><time>2026-03-22T06:33:06.315Z</time></trkpt><trkpt lat="43.3497556" lon="13.4356778"><ele>104.0</ele><time>2026-03-22T06:33:07.315Z</time></trkpt><trkpt lat="43.3495723" lon="13.4355749"><ele>104.0</ele><time>2026-03-22T06:33:08.315Z</time></trkpt><trkpt lat="43.3493892" lon="13.4354752"><ele>103.0</ele><time>2026-03-22T06:33:09.313Z</time></trkpt><trkpt lat="43.3492064" lon="13.4353734"><ele>102.0</ele><time>2026-03-22T06:33:10.315Z</time></trkpt><trkpt lat="43.349025" lon="13.4352746"><ele>101.0</ele><time>2026-03-22T06:33:11.314Z</time></trkpt><trkpt lat="43.3488467" lon="13.4351724"><ele>101.0</ele><time>2026-03-22T06:33:12.315Z</time></trkpt><trkpt lat="43.3486741" lon="13.4350764"><ele>101.0</ele><time>2026-03-22T06:33:13.315Z</time></trkpt><trkpt lat="43.3485041" lon="13.4349825"><ele>101.0</ele><time>2026-03-22T06:33:14.315Z</time></trkpt><trkpt lat="43.3483373" lon="13.4348948"><ele>101.0</ele><time>2026-03-22T06:33:15.315Z</time></trkpt><trkpt lat="43.3481685" lon="13.4348058"><ele>101.0</ele><time>2026-03-22T06:33:16.313Z</time></trkpt><trkpt lat="43.3480003" lon="13.4347099"><ele>101.0</ele><time>2026-03-22T06:33:17.315Z</time></trkpt><trkpt lat="43.3478352" lon="13.4346083"><ele>100.0</ele><time>2026-03-22T06:33:18.315Z</time></trkpt><trkpt lat="43.3476737" lon="13.4345135"><ele>99.0</ele><time>2026-03-22T06:33:19.314Z</time></trkpt><trkpt lat="43.34752" lon="13.4344201"><ele>98.0</ele><time>2026-03-22T06:33:20.313Z</time></trkpt><trkpt lat="43.3473658" lon="13.4343287"><ele>98.0</ele><time>2026-03-22T06:33:21.315Z</time></trkpt><trkpt lat="43.3472075" lon="13.4342421"><ele>98.0</ele><time>2026-03-22T06:33:22.314Z</time></trkpt><trkpt lat="43.3470577" lon="13.4341559"><ele>98.0</ele><time>2026-03-22T06:33:23.315Z</time></trkpt><trkpt lat="43.3469042" lon="13.4340729"><ele>98.0</ele><time>2026-03-22T06:33:24.315Z</time></trkpt><trkpt lat="43.3467445" lon="13.4339839"><ele>98.0</ele><time>2026-03-22T06:33:25.314Z</time></trkpt><trkpt lat="43.346578" lon="13.433888"><ele>98.0</ele><time>2026-03-22T06:33:26.314Z</time></trkpt><trkpt lat="43.3464082" lon="13.4337981"><ele>97.75</ele><time>2026-03-22T06:33:27.315Z</time></trkpt><trkpt lat="43.3462664" lon="13.4337158"><ele>97.5</ele><time>2026-03-22T06:33:28.315Z</time></trkpt><trkpt lat="43.3461296" lon="13.4336458"><ele>97.25</ele><time>2026-03-22T06:33:29.315Z</time></trkpt><trkpt lat="43.3459984" lon="13.4335687"><ele>97.0</ele><time>2026-03-22T06:33:30.315Z</time></trkpt><trkpt lat="43.3458632" lon="13.433496"><ele>97.0</ele><time>2026-03-22T06:33:31.316Z</time></trkpt><trkpt lat="43.3457214" lon="13.4334188"><ele>97.0</ele><time>2026-03-22T06:33:32.314Z</time></trkpt><trkpt lat="43.3455743" lon="13.433339"><ele>97.0</ele><time>2026-03-22T06:33:33.314Z</time></trkpt><trkpt lat="43.3454245" lon="13.4332523"><ele>97.0</ele><time>2026-03-22T06:33:34.315Z</time></trkpt><trkpt lat="43.3452776" lon="13.43316"><ele>97.0</ele><time>2026-03-22T06:33:35.314Z</time></trkpt><trkpt lat="43.3451343" lon="13.433077"><ele>97.0</ele><time>2026-03-22T06:33:36.315Z</time></trkpt><trkpt lat="43.3449858" lon="13.4329926"><ele>96.66666666666667</ele><time>2026-03-22T06:33:37.314Z</time></trkpt><trkpt lat="43.3448388" lon="13.4329101"><ele>96.33333333333334</ele><time>2026-03-22T06:33:38.314Z</time></trkpt><trkpt lat="43.3446911" lon="13.4328258"><ele>96.0</ele><time>2026-03-22T06:33:39.316Z</time></trkpt><trkpt lat="43.3445368" lon="13.4327489"><ele>95.66666666666667</ele><time>2026-03-22T06:33:40.316Z</time></trkpt><trkpt lat="43.3443808" lon="13.4326672"><ele>95.33333333333334</ele><time>2026-03-22T06:33:41.315Z</time></trkpt><trkpt lat="43.3442261" lon="13.4325863"><ele>95.0</ele><time>2026-03-22T06:33:42.315Z</time></trkpt><trkpt lat="43.3440688" lon="13.4324987"><ele>95.0</ele><time>2026-03-22T06:33:43.314Z</time></trkpt><trkpt lat="43.3439081" lon="13.4324108"><ele>95.0</ele><time>2026-03-22T06:33:44.314Z</time></trkpt><trkpt lat="43.3437435" lon="13.4323195"><ele>95.0</ele><time>2026-03-22T06:33:45.313Z</time></trkpt><trkpt lat="43.3435795" lon="13.432231"><ele>95.0</ele><time>2026-03-22T06:33:46.315Z</time></trkpt><trkpt lat="43.3434127" lon="13.4321353"><ele>95.0</ele><time>2026-03-22T06:33:47.314Z</time></trkpt><trkpt lat="43.343244" lon="13.432039"><ele>95.0</ele><time>2026-03-22T06:33:48.314Z</time></trkpt><trkpt lat="43.3430759" lon="13.4319407"><ele>94.66666666666667</ele><time>2026-03-22T06:33:49.314Z</time></trkpt><trkpt lat="43.3429046" lon="13.4318427"><ele>94.33333333333333</ele><time>2026-03-22T06:33:50.314Z</time></trkpt><trkpt lat="43.3427335" lon="13.4317446"><ele>94.0</ele><time>2026-03-22T06:33:51.315Z</time></trkpt><trkpt lat="43.3425638" lon="13.4316501"><ele>94.0</ele><time>2026-03-22T06:33:52.314Z</time></trkpt><trkpt lat="43.3423935" lon="13.4315511"><ele>94.0</ele><time>2026-03-22T06:33:53.315Z</time></trkpt><trkpt lat="43.3422194" lon="13.4314574"><ele>94.0</ele><time>2026-03-22T06:33:54.314Z</time></trkpt><trkpt lat="43.3420415" lon="13.4313603"><ele>93.33333333333333</ele><time>2026-03-22T06:33:55.314Z</time></trkpt><trkpt lat="43.3418635" lon="13.4312659"><ele>92.66666666666667</ele><time>2026-03-22T06:33:56.315Z</time></trkpt><trkpt lat="43.341689" lon="13.4311708"><ele>92.0</ele><time>2026-03-22T06:33:57.314Z</time></trkpt><trkpt lat="43.3415128" lon="13.4310704"><ele>92.0</ele><time>2026-03-22T06:33:58.315Z</time></trkpt><trkpt lat="43.3413434" lon="13.4309756"><ele>92.0</ele><time>2026-03-22T06:33:59.314Z</time></trkpt><trkpt lat="43.3411698" lon="13.4308765"><ele>92.0</ele><time>2026-03-22T06:34:00.315Z</time></trkpt><trkpt lat="43.3409973" lon="13.4307853"><ele>92.0</ele><time>2026-03-22T06:34:01.315Z</time></trkpt><trkpt lat="43.3408209" lon="13.430694"><ele>92.0</ele><time>2026-03-22T06:34:02.315Z</time></trkpt><trkpt lat="43.3406456" lon="13.4305921"><ele>92.0</ele><time>2026-03-22T06:34:03.315Z</time></trkpt><trkpt lat="43.3404717" lon="13.430495"><ele>91.33333333333334</ele><time>2026-03-22T06:34:04.315Z</time></trkpt><trkpt lat="43.3402995" lon="13.4303977"><ele>90.66666666666667</ele><time>2026-03-22T06:34:05.315Z</time></trkpt><trkpt lat="43.3401251" lon="13.4303023"><ele>90.0</ele><time>2026-03-22T06:34:06.315Z</time></trkpt><trkpt lat="43.3399483" lon="13.4302028"><ele>90.0</ele><time>2026-03-22T06:34:07.313Z</time></trkpt><trkpt lat="43.339774" lon="13.4300998"><ele>90.0</ele><time>2026-03-22T06:34:08.316Z</time></trkpt><trkpt lat="43.3395959" lon="13.4300018"><ele>90.0</ele><time>2026-03-22T06:34:09.315Z</time></trkpt><trkpt lat="43.3394143" lon="13.4299005"><ele>90.0</ele><time>2026-03-22T06:34:10.313Z</time></trkpt><trkpt lat="43.3392349" lon="13.4297944"><ele>90.0</ele><time>2026-03-22T06:34:11.315Z</time></trkpt><trkpt lat="43.3390562" lon="13.4296911"><ele>90.0</ele><time>2026-03-22T06:34:12.315Z</time></trkpt><trkpt lat="43.3388743" lon="13.4295951"><ele>90.0</ele><time>2026-03-22T06:34:13.315Z</time></trkpt><trkpt lat="43.3386943" lon="13.4294966"><ele>90.0</ele><time>2026-03-22T06:34:14.314Z</time></trkpt><trkpt lat="43.3385143" lon="13.4293958"><ele>90.0</ele><time>2026-03-22T06:34:15.315Z</time></trkpt><trkpt lat="43.3383362" lon="13.4292996"><ele>90.0</ele><time>2026-03-22T06:34:16.314Z</time></trkpt><trkpt lat="43.3381602" lon="13.4292003"><ele>90.0</ele><time>2026-03-22T06:34:17.316Z</time></trkpt><trkpt lat="43.3379898" lon="13.4291114"><ele>90.0</ele><time>2026-03-22T06:34:18.316Z</time></trkpt><trkpt lat="43.337832" lon="13.4290218"><ele>90.0</ele><time>2026-03-22T06:34:19.314Z</time></trkpt><trkpt lat="43.3376826" lon="13.4289381"><ele>90.0</ele><time>2026-03-22T06:34:20.315Z</time></trkpt><trkpt lat="43.3375391" lon="13.428861"><ele>90.0</ele><time>2026-03-22T06:34:21.315Z</time></trkpt><trkpt lat="43.3374003" lon="13.4287868"><ele>90.25</ele><time>2026-03-22T06:34:22.314Z</time></trkpt><trkpt lat="43.3372729" lon="13.4287173"><ele>90.5</ele><time>2026-03-22T06:34:23.314Z</time></trkpt><trkpt lat="43.3371512" lon="13.428647"><ele>90.75</ele><time>2026-03-22T06:34:24.315Z</time></trkpt><trkpt lat="43.337031" lon="13.4285772"><ele>91.0</ele><time>2026-03-22T06:34:25.314Z</time></trkpt><trkpt lat="43.3369096" lon="13.4285108"><ele>91.19999999999999</ele><time>2026-03-22T06:34:26.315Z</time></trkpt><trkpt lat="43.3368042" lon="13.4284507"><ele>91.39999999999999</ele><time>2026-03-22T06:34:27.314Z</time></trkpt><trkpt lat="43.3366967" lon="13.4283922"><ele>91.6</ele><time>2026-03-22T06:34:28.314Z</time></trkpt><trkpt lat="43.3366005" lon="13.4283255"><ele>91.8</ele><time>2026-03-22T06:34:29.315Z</time></trkpt><trkpt lat="43.3365239" lon="13.4282514"><ele>92.0</ele><time>2026-03-22T06:34:30.314Z</time></trkpt><trkpt lat="43.3364644" lon="13.4281672"><ele>92.0</ele><time>2026-03-22T06:34:31.315Z</time></trkpt><trkpt lat="43.3364237" lon="13.4280805"><ele>92.0</ele><time>2026-03-22T06:34:32.314Z</time></trkpt><trkpt lat="43.3363889" lon="13.4280011"><ele>92.0</ele><time>2026-03-22T06:34:33.315Z</time></trkpt><trkpt lat="43.3363409" lon="13.4279404"><ele>92.0</ele><time>2026-03-22T06:34:34.315Z</time></trkpt><trkpt lat="43.3362242" lon="13.42789"><ele>92.0</ele><time>2026-03-22T06:34:36.314Z</time></trkpt><trkpt lat="43.3361045" lon="13.4279202"><ele>91.8</ele><time>2026-03-22T06:34:38.314Z</time></trkpt><trkpt lat="43.3360449" lon="13.4279705"><ele>91.6</ele><time>2026-03-22T06:34:40.315Z</time></trkpt><trkpt lat="43.3359528" lon="13.4279675"><ele>91.39999999999999</ele><time>2026-03-22T06:37:25.315Z</time></trkpt><trkpt lat="43.3358748" lon="13.4279297"><ele>91.19999999999999</ele><time>2026-03-22T06:37:26.315Z</time></trkpt><trkpt lat="43.3357817" lon="13.4278837"><ele>91.0</ele><time>2026-03-22T06:37:27.315Z</time></trkpt><trkpt lat="43.3356742" lon="13.4278301"><ele>91.0</ele><time>2026-03-22T06:37:28.315Z</time></trkpt><trkpt lat="43.3355554" lon="13.427764"><ele>91.0</ele><time>2026-03-22T06:37:29.314Z</time></trkpt><trkpt lat="43.3354414" lon="13.4276988"><ele>91.0</ele><time>2026-03-22T06:37:30.314Z</time></trkpt><trkpt lat="43.3353245" lon="13.4276375"><ele>91.0</ele><time>2026-03-22T06:37:31.314Z</time></trkpt><trkpt lat="43.3352184" lon="13.4275792"><ele>90.8</ele><time>2026-03-22T06:37:32.314Z</time></trkpt><trkpt lat="43.3351197" lon="13.4275283"><ele>90.6</ele><time>2026-03-22T06:37:33.316Z</time></trkpt><trkpt lat="43.3350292" lon="13.4274775"><ele>90.4</ele><time>2026-03-22T06:37:34.316Z</time></trkpt><trkpt lat="43.3349571" lon="13.4274303"><ele>90.2</ele><time>2026-03-22T06:37:35.315Z</time></trkpt><trkpt lat="43.3348835" lon="13.4273829"><ele>90.0</ele><time>2026-03-22T06:37:36.316Z</time></trkpt><trkpt lat="43.3347997" lon="13.4273359"><ele>90.0</ele><time>2026-03-22T06:37:37.316Z</time></trkpt><trkpt lat="43.3347015" lon="13.4272752"><ele>90.0</ele><time>2026-03-22T06:37:38.316Z</time></trkpt><trkpt lat="43.3345912" lon="13.4272153"><ele>90.0</ele><time>2026-03-22T06:37:39.315Z</time></trkpt><trkpt lat="43.334473" lon="13.427151"><ele>90.0</ele><time>2026-03-22T06:37:40.314Z</time></trkpt><trkpt lat="43.3343477" lon="13.4270851"><ele>90.0</ele><time>2026-03-22T06:37:41.315Z</time></trkpt><trkpt lat="43.3342177" lon="13.427004"><ele>90.0</ele><time>2026-03-22T06:37:42.315Z</time></trkpt><trkpt lat="43.3340803" lon="13.4269266"><ele>90.0</ele><time>2026-03-22T06:37:43.314Z</time></trkpt><trkpt lat="43.3339368" lon="13.4268509"><ele>90.0</ele><time>2026-03-22T06:37:44.315Z</time></trkpt><trkpt lat="43.3337912" lon="13.426769"><ele>89.66666666666667</ele><time>2026-03-22T06:37:45.316Z</time></trkpt><trkpt lat="43.3336387" lon="13.426686"><ele>89.33333333333334</ele><time>2026-03-22T06:37:46.316Z</time></trkpt><trkpt lat="43.3334825" lon="13.4266014"><ele>89.0</ele><time>2026-03-22T06:37:47.316Z</time></trkpt><trkpt lat="43.3333267" lon="13.4265122"><ele>89.0</ele><time>2026-03-22T06:37:48.316Z</time></trkpt><trkpt lat="43.3331622" lon="13.4264188"><ele>89.0</ele><time>2026-03-22T06:37:49.314Z</time></trkpt><trkpt lat="43.3330018" lon="13.4263307"><ele>89.0</ele><time>2026-03-22T06:37:50.314Z</time></trkpt><trkpt lat="43.3328383" lon="13.4262404"><ele>89.66666666666667</ele><time>2026-03-22T06:37:51.316Z</time></trkpt><trkpt lat="43.3326778" lon="13.426149"><ele>90.33333333333333</ele><time>2026-03-22T06:37:52.315Z</time></trkpt><trkpt lat="43.3325238" lon="13.4260643"><ele>91.0</ele><time>2026-03-22T06:37:53.315Z</time></trkpt><trkpt lat="43.3323763" lon="13.4259823"><ele>91.0</ele><time>2026-03-22T06:37:54.314Z</time></trkpt><trkpt lat="43.3322265" lon="13.4259026"><ele>91.0</ele><time>2026-03-22T06:37:55.315Z</time></trkpt><trkpt lat="43.3320777" lon="13.4258257"><ele>91.0</ele><time>2026-03-22T06:37:56.316Z</time></trkpt><trkpt lat="43.3319338" lon="13.4257434"><ele>90.33333333333333</ele><time>2026-03-22T06:37:57.316Z</time></trkpt><trkpt lat="43.3317894" lon="13.4256578"><ele>89.66666666666667</ele><time>2026-03-22T06:37:58.316Z</time></trkpt><trkpt lat="43.3316481" lon="13.4255783"><ele>89.0</ele><time>2026-03-22T06:37:59.316Z</time></trkpt><trkpt lat="43.3315039" lon="13.4254973"><ele>88.66666666666667</ele><time>2026-03-22T06:38:00.316Z</time></trkpt><trkpt lat="43.3313596" lon="13.4254196"><ele>88.33333333333333</ele><time>2026-03-22T06:38:01.314Z</time></trkpt><trkpt lat="43.3312179" lon="13.4253388"><ele>88.0</ele><time>2026-03-22T06:38:02.315Z</time></trkpt><trkpt lat="43.3310746" lon="13.4252597"><ele>88.0</ele><time>2026-03-22T06:38:03.316Z</time></trkpt><trkpt lat="43.3309337" lon="13.4251822"><ele>88.0</ele><time>2026-03-22T06:38:04.315Z</time></trkpt><trkpt lat="43.3307991" lon="13.4251072"><ele>88.0</ele><time>2026-03-22T06:38:05.315Z</time></trkpt><trkpt lat="43.3306664" lon="13.4250325"><ele>88.0</ele><time>2026-03-22T06:38:06.315Z</time></trkpt><trkpt lat="43.3305396" lon="13.4249613"><ele>89.2</ele><time>2026-03-22T06:38:07.315Z</time></trkpt><trkpt lat="43.330423" lon="13.4248992"><ele>90.4</ele><time>2026-03-22T06:38:08.315Z</time></trkpt><trkpt lat="43.3303233" lon="13.4248465"><ele>91.60000000000001</ele><time>2026-03-22T06:38:09.315Z</time></trkpt><trkpt lat="43.3302479" lon="13.4248023"><ele>92.80000000000001</ele><time>2026-03-22T06:38:10.315Z</time></trkpt><trkpt lat="43.3301862" lon="13.4247596"><ele>94.0</ele><time>2026-03-22T06:38:11.316Z</time></trkpt><trkpt lat="43.3300708" lon="13.4246833"><ele>94.2</ele><time>2026-03-22T06:38:13.314Z</time></trkpt><trkpt lat="43.330006" lon="13.4246244"><ele>94.4</ele><time>2026-03-22T06:38:14.315Z</time></trkpt><trkpt lat="43.3299351" lon="13.4245508"><ele>94.6</ele><time>2026-03-22T06:38:15.316Z</time></trkpt><trkpt lat="43.3298512" lon="13.4244778"><ele>94.8</ele><time>2026-03-22T06:38:16.316Z</time></trkpt><trkpt lat="43.3297619" lon="13.4244044"><ele>95.0</ele><time>2026-03-22T06:38:17.315Z</time></trkpt><trkpt lat="43.3296649" lon="13.4243315"><ele>95.2</ele><time>2026-03-22T06:38:18.316Z</time></trkpt><trkpt lat="43.3295655" lon="13.4242571"><ele>95.4</ele><time>2026-03-22T06:38:19.316Z</time></trkpt><trkpt lat="43.329471" lon="13.4241868"><ele>95.6</ele><time>2026-03-22T06:38:20.314Z</time></trkpt><trkpt lat="43.3293794" lon="13.4241199"><ele>95.8</ele><time>2026-03-22T06:38:21.314Z</time></trkpt><trkpt lat="43.3292984" lon="13.4240619"><ele>96.0</ele><time>2026-03-22T06:38:22.315Z</time></trkpt><trkpt lat="43.3292155" lon="13.4240017"><ele>96.0</ele><time>2026-03-22T06:38:23.315Z</time></trkpt><trkpt lat="43.32913" lon="13.4239418"><ele>96.0</ele><time>2026-03-22T06:38:24.316Z</time></trkpt><trkpt lat="43.3290445" lon="13.4238827"><ele>96.0</ele><time>2026-03-22T06:38:25.316Z</time></trkpt><trkpt lat="43.3289543" lon="13.4238387"><ele>96.0</ele><time>2026-03-22T06:38:26.316Z</time></trkpt><trkpt lat="43.3288652" lon="13.4237925"><ele>96.0</ele><time>2026-03-22T06:38:27.316Z</time></trkpt><trkpt lat="43.3287703" lon="13.4237422"><ele>96.33333333333333</ele><time>2026-03-22T06:38:28.316Z</time></trkpt><trkpt lat="43.3286819" lon="13.4236977"><ele>96.66666666666666</ele><time>2026-03-22T06:38:29.315Z</time></trkpt><trkpt lat="43.3285945" lon="13.4236562"><ele>97.0</ele><time>2026-03-22T06:38:30.315Z</time></trkpt><trkpt lat="43.3285125" lon="13.4236233"><ele>97.33333333333333</ele><time>2026-03-22T06:38:31.316Z</time></trkpt><trkpt lat="43.3284318" lon="13.4235863"><ele>97.66666666666666</ele><time>2026-03-22T06:38:32.315Z</time></trkpt><trkpt lat="43.3283554" lon="13.4235436"><ele>98.0</ele><time>2026-03-22T06:38:33.316Z</time></trkpt><trkpt lat="43.3282785" lon="13.4234769"><ele>98.0</ele><time>2026-03-22T06:38:34.315Z</time></trkpt><trkpt lat="43.328204" lon="13.4234095"><ele>98.0</ele><time>2026-03-22T06:38:35.315Z</time></trkpt><trkpt lat="43.3281681" lon="13.4232621"><ele>98.0</ele><time>2026-03-22T06:38:36.313Z</time></trkpt><trkpt lat="43.3281252" lon="13.4231273"><ele>98.0</ele><time>2026-03-22T06:38:37.315Z</time></trkpt><trkpt lat="43.3280862" lon="13.4229876"><ele>98.0</ele><time>2026-03-22T06:38:38.315Z</time></trkpt><trkpt lat="43.3280451" lon="13.4228481"><ele>97.4</ele><time>2026-03-22T06:38:39.316Z</time></trkpt><trkpt lat="43.3280067" lon="13.4227159"><ele>96.80000000000001</ele><time>2026-03-22T06:38:40.316Z</time></trkpt><trkpt lat="43.3279717" lon="13.4225868"><ele>96.2</ele><time>2026-03-22T06:38:41.315Z</time></trkpt><trkpt lat="43.3279326" lon="13.4224871"><ele>95.6</ele><time>2026-03-22T06:38:42.315Z</time></trkpt><trkpt lat="43.327875" lon="13.4223483"><ele>95.0</ele><time>2026-03-22T06:38:44.316Z</time></trkpt><trkpt lat="43.3277999" lon="13.4221894"><ele>95.5</ele><time>2026-03-22T06:38:46.316Z</time></trkpt><trkpt lat="43.3277497" lon="13.4220815"><ele>96.0</ele><time>2026-03-22T06:38:47.316Z</time></trkpt><trkpt lat="43.3276838" lon="13.4219603"><ele>96.5</ele><time>2026-03-22T06:38:48.314Z</time></trkpt><trkpt lat="43.327601" lon="13.4218297"><ele>97.0</ele><time>2026-03-22T06:38:49.316Z</time></trkpt><trkpt lat="43.3275037" lon="13.4216969"><ele>97.0</ele><time>2026-03-22T06:38:50.316Z</time></trkpt><trkpt lat="43.3273977" lon="13.4215443"><ele>97.0</ele><time>2026-03-22T06:38:51.316Z</time></trkpt><trkpt lat="43.327286" lon="13.4213777"><ele>97.0</ele><time>2026-03-22T06:38:52.316Z</time></trkpt><trkpt lat="43.327167" lon="13.421196"><ele>97.33333333333334</ele><time>2026-03-22T06:38:53.315Z</time></trkpt><trkpt lat="43.3270378" lon="13.4210051"><ele>97.66666666666666</ele><time>2026-03-22T06:38:54.316Z</time></trkpt><trkpt lat="43.3269072" lon="13.4208061"><ele>98.0</ele><time>2026-03-22T06:38:55.316Z</time></trkpt><trkpt lat="43.3267712" lon="13.4205918"><ele>98.33333333333333</ele><time>2026-03-22T06:38:56.316Z</time></trkpt><trkpt lat="43.3266266" lon="13.42038"><ele>98.66666666666666</ele><time>2026-03-22T06:38:57.316Z</time></trkpt><trkpt lat="43.326487" lon="13.4201684"><ele>99.0</ele><time>2026-03-22T06:38:58.316Z</time></trkpt><trkpt lat="43.3263459" lon="13.4199506"><ele>98.66666666666666</ele><time>2026-03-22T06:38:59.316Z</time></trkpt><trkpt lat="43.326203" lon="13.4197449"><ele>98.33333333333333</ele><time>2026-03-22T06:39:00.315Z</time></trkpt><trkpt lat="43.3260705" lon="13.4195411"><ele>98.0</ele><time>2026-03-22T06:39:01.315Z</time></trkpt><trkpt lat="43.3259443" lon="13.4193446"><ele>98.0</ele><time>2026-03-22T06:39:02.316Z</time></trkpt><trkpt lat="43.3258198" lon="13.4191585"><ele>98.0</ele><time>2026-03-22T06:39:03.314Z</time></trkpt><trkpt lat="43.32569" lon="13.4189703"><ele>98.0</ele><time>2026-03-22T06:39:04.316Z</time></trkpt><trkpt lat="43.3255596" lon="13.4187904"><ele>98.0</ele><time>2026-03-22T06:39:05.316Z</time></trkpt><trkpt lat="43.3254228" lon="13.4186158"><ele>98.0</ele><time>2026-03-22T06:39:06.315Z</time></trkpt><trkpt lat="43.3252827" lon="13.4184329"><ele>98.0</ele><time>2026-03-22T06:39:07.315Z</time></trkpt><trkpt lat="43.3251406" lon="13.4182471"><ele>98.0</ele><time>2026-03-22T06:39:08.316Z</time></trkpt><trkpt lat="43.3249939" lon="13.4180565"><ele>98.0</ele><time>2026-03-22T06:39:09.315Z</time></trkpt><trkpt lat="43.3248417" lon="13.4178641"><ele>98.0</ele><time>2026-03-22T06:39:10.315Z</time></trkpt><trkpt lat="43.3246928" lon="13.4176607"><ele>98.0</ele><time>2026-03-22T06:39:11.315Z</time></trkpt><trkpt lat="43.3245442" lon="13.4174431"><ele>98.0</ele><time>2026-03-22T06:39:12.315Z</time></trkpt><trkpt lat="43.3244011" lon="13.417226"><ele>98.0</ele><time>2026-03-22T06:39:13.314Z</time></trkpt><trkpt lat="43.324276" lon="13.4170366"><ele>98.0</ele><time>2026-03-22T06:39:14.316Z</time></trkpt><trkpt lat="43.3241944" lon="13.4168986"><ele>98.0</ele><time>2026-03-22T06:39:15.316Z</time></trkpt><trkpt lat="43.3241335" lon="13.416794"><ele>98.0</ele><time>2026-03-22T06:39:16.316Z</time></trkpt><trkpt lat="43.3240914" lon="13.4167109"><ele>98.0</ele><time>2026-03-22T06:39:17.315Z</time></trkpt><trkpt lat="43.3240436" lon="13.4166225"><ele>98.0</ele><time>2026-03-22T06:39:19.316Z</time></trkpt><trkpt lat="43.3239766" lon="13.4165339"><ele>98.0</ele><time>2026-03-22T06:41:02.316Z</time></trkpt><trkpt lat="43.3239148" lon="13.4164228"><ele>98.0</ele><time>2026-03-22T06:41:03.315Z</time></trkpt><trkpt lat="43.3238314" lon="13.4162958"><ele>98.0</ele><time>2026-03-22T06:41:04.315Z</time></trkpt><trkpt lat="43.3237334" lon="13.4161431"><ele>98.0</ele><time>2026-03-22T06:41:05.316Z</time></trkpt><trkpt lat="43.3236191" lon="13.4159622"><ele>97.0</ele><time>2026-03-22T06:41:06.315Z</time></trkpt><trkpt lat="43.3234984" lon="13.4157679"><ele>96.0</ele><time>2026-03-22T06:41:07.316Z</time></trkpt><trkpt lat="43.3233673" lon="13.4155558"><ele>95.0</ele><time>2026-03-22T06:41:08.316Z</time></trkpt><trkpt lat="43.3232374" lon="13.415336"><ele>95.0</ele><time>2026-03-22T06:41:09.315Z</time></trkpt><trkpt lat="43.3231026" lon="13.4151137"><ele>95.0</ele><time>2026-03-22T06:41:10.316Z</time></trkpt><trkpt lat="43.3229649" lon="13.4148953"><ele>95.0</ele><time>2026-03-22T06:41:11.315Z</time></trkpt><trkpt lat="43.322828" lon="13.414678"><ele>96.33333333333334</ele><time>2026-03-22T06:41:12.316Z</time></trkpt><trkpt lat="43.3227029" lon="13.4144497"><ele>97.66666666666667</ele><time>2026-03-22T06:41:13.316Z</time></trkpt><trkpt lat="43.322589" lon="13.4142094"><ele>99.0</ele><time>2026-03-22T06:41:14.316Z</time></trkpt><trkpt lat="43.3224861" lon="13.413965"><ele>99.0</ele><time>2026-03-22T06:41:15.316Z</time></trkpt><trkpt lat="43.3223917" lon="13.4137047"><ele>99.0</ele><time>2026-03-22T06:41:16.315Z</time></trkpt><trkpt lat="43.322296" lon="13.4134604"><ele>99.0</ele><time>2026-03-22T06:41:17.316Z</time></trkpt><trkpt lat="43.3222018" lon="13.413207"><ele>99.66666666666666</ele><time>2026-03-22T06:41:18.316Z</time></trkpt><trkpt lat="43.3221033" lon="13.4129517"><ele>100.33333333333333</ele><time>2026-03-22T06:41:19.315Z</time></trkpt><trkpt lat="43.3220078" lon="13.4126949"><ele>101.0</ele><time>2026-03-22T06:41:20.316Z</time></trkpt><trkpt lat="43.3219114" lon="13.4124409"><ele>101.0</ele><time>2026-03-22T06:41:21.314Z</time></trkpt><trkpt lat="43.3218217" lon="13.4121906"><ele>101.0</ele><time>2026-03-22T06:41:22.316Z</time></trkpt><trkpt lat="43.321732" lon="13.4119492"><ele>101.0</ele><time>2026-03-22T06:41:23.315Z</time></trkpt><trkpt lat="43.3216444" lon="13.4117088"><ele>101.66666666666666</ele><time>2026-03-22T06:41:24.315Z</time></trkpt><trkpt lat="43.3215593" lon="13.4114906"><ele>102.33333333333334</ele><time>2026-03-22T06:41:25.316Z</time></trkpt><trkpt lat="43.3214721" lon="13.4112519"><ele>103.0</ele><time>2026-03-22T06:41:26.316Z</time></trkpt><trkpt lat="43.3213812" lon="13.4110081"><ele>103.0</ele><time>2026-03-22T06:41:27.316Z</time></trkpt><trkpt lat="43.3212861" lon="13.4107649"><ele>103.0</ele><time>2026-03-22T06:41:28.316Z</time></trkpt><trkpt lat="43.3211925" lon="13.4105209"><ele>103.0</ele><time>2026-03-22T06:41:29.316Z</time></trkpt><trkpt lat="43.3211083" lon="13.4102848"><ele>103.0</ele><time>2026-03-22T06:41:30.316Z</time></trkpt><trkpt lat="43.3210312" lon="13.410058"><ele>103.0</ele><time>2026-03-22T06:41:31.316Z</time></trkpt><trkpt lat="43.3209635" lon="13.4098439"><ele>103.0</ele><time>2026-03-22T06:41:32.316Z</time></trkpt><trkpt lat="43.3209062" lon="13.4096143"><ele>103.33333333333334</ele><time>2026-03-22T06:41:33.315Z</time></trkpt><trkpt lat="43.3208709" lon="13.409364"><ele>103.66666666666666</ele><time>2026-03-22T06:41:34.315Z</time></trkpt><trkpt lat="43.3208543" lon="13.4090929"><ele>104.0</ele><time>2026-03-22T06:41:35.315Z</time></trkpt><trkpt lat="43.32086" lon="13.4088068"><ele>103.66666666666666</ele><time>2026-03-22T06:41:36.315Z</time></trkpt><trkpt lat="43.3208799" lon="13.4085142"><ele>103.33333333333334</ele><time>2026-03-22T06:41:37.315Z</time></trkpt><trkpt lat="43.3208989" lon="13.4082235"><ele>103.0</ele><time>2026-03-22T06:41:38.316Z</time></trkpt><trkpt lat="43.3209066" lon="13.4079341"><ele>103.0</ele><time>2026-03-22T06:41:39.316Z</time></trkpt><trkpt lat="43.3209023" lon="13.4076626"><ele>103.0</ele><time>2026-03-22T06:41:40.315Z</time></trkpt><trkpt lat="43.3208825" lon="13.4073919"><ele>103.0</ele><time>2026-03-22T06:41:41.315Z</time></trkpt><trkpt lat="43.32084" lon="13.4071436"><ele>103.66666666666667</ele><time>2026-03-22T06:41:42.315Z</time></trkpt><trkpt lat="43.3207729" lon="13.4069084"><ele>104.33333333333334</ele><time>2026-03-22T06:41:43.316Z</time></trkpt><trkpt lat="43.3206799" lon="13.4066826"><ele>105.0</ele><time>2026-03-22T06:41:44.315Z</time></trkpt><trkpt lat="43.3205584" lon="13.4064607"><ele>105.0</ele><time>2026-03-22T06:41:45.316Z</time></trkpt><trkpt lat="43.3204243" lon="13.4062403"><ele>105.0</ele><time>2026-03-22T06:41:46.316Z</time></trkpt><trkpt lat="43.3202805" lon="13.4060106"><ele>105.0</ele><time>2026-03-22T06:41:47.317Z</time></trkpt><trkpt lat="43.3201356" lon="13.4057755"><ele>105.0</ele><time>2026-03-22T06:41:48.315Z</time></trkpt><trkpt lat="43.3199958" lon="13.4055388"><ele>105.0</ele><time>2026-03-22T06:41:49.315Z</time></trkpt><trkpt lat="43.3198559" lon="13.4053132"><ele>105.0</ele><time>2026-03-22T06:41:50.315Z</time></trkpt><trkpt lat="43.3197239" lon="13.4050936"><ele>105.0</ele><time>2026-03-22T06:41:51.316Z</time></trkpt><trkpt lat="43.3196043" lon="13.4048808"><ele>105.0</ele><time>2026-03-22T06:41:52.315Z</time></trkpt><trkpt lat="43.3194964" lon="13.4046535"><ele>105.0</ele><time>2026-03-22T06:41:53.316Z</time></trkpt><trkpt lat="43.3194043" lon="13.404409"><ele>105.0</ele><time>2026-03-22T06:41:54.315Z</time></trkpt><trkpt lat="43.3193172" lon="13.4041407"><ele>105.0</ele><time>2026-03-22T06:41:55.315Z</time></trkpt><trkpt lat="43.3192223" lon="13.4038634"><ele>105.0</ele><time>2026-03-22T06:41:56.315Z</time></trkpt><trkpt lat="43.3191217" lon="13.4035741"><ele>105.5</ele><time>2026-03-22T06:41:57.315Z</time></trkpt><trkpt lat="43.3190198" lon="13.4032812"><ele>106.0</ele><time>2026-03-22T06:41:58.316Z</time></trkpt><trkpt lat="43.3189217" lon="13.4029916"><ele>105.0</ele><time>2026-03-22T06:41:59.316Z</time></trkpt><trkpt lat="43.3188272" lon="13.4027062"><ele>104.0</ele><time>2026-03-22T06:42:00.316Z</time></trkpt><trkpt lat="43.3187402" lon="13.4024315"><ele>103.0</ele><time>2026-03-22T06:42:01.315Z</time></trkpt><trkpt lat="43.3186478" lon="13.4021715"><ele>103.66666666666667</ele><time>2026-03-22T06:42:02.316Z</time></trkpt><trkpt lat="43.318552" lon="13.4019216"><ele>104.33333333333334</ele><time>2026-03-22T06:42:03.315Z</time></trkpt><trkpt lat="43.3184348" lon="13.4016944"><ele>105.0</ele><time>2026-03-22T06:42:04.317Z</time></trkpt><trkpt lat="43.3183014" lon="13.4014931"><ele>105.0</ele><time>2026-03-22T06:42:05.316Z</time></trkpt><trkpt lat="43.3181411" lon="13.4013165"><ele>105.0</ele><time>2026-03-22T06:42:06.315Z</time></trkpt><trkpt lat="43.3179526" lon="13.4011614"><ele>105.0</ele><time>2026-03-22T06:42:07.316Z</time></trkpt><trkpt lat="43.3177609" lon="13.4010193"><ele>105.0</ele><time>2026-03-22T06:42:08.316Z</time></trkpt><trkpt lat="43.3175788" lon="13.4008797"><ele>105.0</ele><time>2026-03-22T06:42:09.316Z</time></trkpt><trkpt lat="43.3174107" lon="13.4007392"><ele>105.0</ele><time>2026-03-22T06:42:10.316Z</time></trkpt><trkpt lat="43.3172562" lon="13.4005982"><ele>105.0</ele><time>2026-03-22T06:42:11.315Z</time></trkpt><trkpt lat="43.3171206" lon="13.4004465"><ele>105.0</ele><time>2026-03-22T06:42:12.315Z</time></trkpt><trkpt lat="43.3170012" lon="13.4002786"><ele>105.0</ele><time>2026-03-22T06:42:13.316Z</time></trkpt><trkpt lat="43.3168943" lon="13.400094"><ele>105.0</ele><time>2026-03-22T06:42:14.316Z</time></trkpt><trkpt lat="43.3167888" lon="13.3998996"><ele>105.0</ele><time>2026-03-22T06:42:15.316Z</time></trkpt><trkpt lat="43.3166813" lon="13.3997013"><ele>105.0</ele><time>2026-03-22T06:42:16.316Z</time></trkpt><trkpt lat="43.3165705" lon="13.3994974"><ele>105.33333333333334</ele><time>2026-03-22T06:42:17.315Z</time></trkpt><trkpt lat="43.3164589" lon="13.3992856"><ele>105.66666666666667</ele><time>2026-03-22T06:42:18.315Z</time></trkpt><trkpt lat="43.3163445" lon="13.3990669"><ele>106.0</ele><time>2026-03-22T06:42:19.315Z</time></trkpt><trkpt lat="43.3162264" lon="13.3988492"><ele>106.33333333333334</ele><time>2026-03-22T06:42:20.315Z</time></trkpt><trkpt lat="43.316109" lon="13.3986194"><ele>106.66666666666666</ele><time>2026-03-22T06:42:21.316Z</time></trkpt><trkpt lat="43.3159887" lon="13.3983862"><ele>107.0</ele><time>2026-03-22T06:42:22.316Z</time></trkpt><trkpt lat="43.3158699" lon="13.3981565"><ele>107.66666666666666</ele><time>2026-03-22T06:42:23.315Z</time></trkpt><trkpt lat="43.3157604" lon="13.3979411"><ele>108.33333333333334</ele><time>2026-03-22T06:42:24.315Z</time></trkpt><trkpt lat="43.3156568" lon="13.3977417"><ele>109.0</ele><time>2026-03-22T06:42:25.315Z</time></trkpt><trkpt lat="43.3155609" lon="13.3975559"><ele>109.0</ele><time>2026-03-22T06:42:26.315Z</time></trkpt><trkpt lat="43.3154636" lon="13.3973719"><ele>109.0</ele><time>2026-03-22T06:42:27.316Z</time></trkpt><trkpt lat="43.3153614" lon="13.3971872"><ele>109.0</ele><time>2026-03-22T06:42:28.316Z</time></trkpt><trkpt lat="43.3152645" lon="13.3969945"><ele>109.66666666666667</ele><time>2026-03-22T06:42:29.316Z</time></trkpt><trkpt lat="43.3151579" lon="13.3967964"><ele>110.33333333333334</ele><time>2026-03-22T06:42:30.315Z</time></trkpt><trkpt lat="43.3150521" lon="13.396591"><ele>111.0</ele><time>2026-03-22T06:42:31.316Z</time></trkpt><trkpt lat="43.3149416" lon="13.3963742"><ele>110.66666666666666</ele><time>2026-03-22T06:42:32.316Z</time></trkpt><trkpt lat="43.3148247" lon="13.3961513"><ele>110.33333333333333</ele><time>2026-03-22T06:42:33.316Z</time></trkpt><trkpt lat="43.314706" lon="13.3959271"><ele>110.0</ele><time>2026-03-22T06:42:34.316Z</time></trkpt><trkpt lat="43.3145809" lon="13.3957052"><ele>110.33333333333333</ele><time>2026-03-22T06:42:35.316Z</time></trkpt><trkpt lat="43.3144554" lon="13.3954795"><ele>110.66666666666666</ele><time>2026-03-22T06:42:36.316Z</time></trkpt><trkpt lat="43.3143286" lon="13.3952505"><ele>111.0</ele><time>2026-03-22T06:42:37.315Z</time></trkpt><trkpt lat="43.3141997" lon="13.395018"><ele>111.0</ele><time>2026-03-22T06:42:38.316Z</time></trkpt><trkpt lat="43.3140727" lon="13.3947881"><ele>111.0</ele><time>2026-03-22T06:42:39.317Z</time></trkpt><trkpt lat="43.3139449" lon="13.3945618"><ele>111.0</ele><time>2026-03-22T06:42:40.316Z</time></trkpt><trkpt lat="43.313824" lon="13.3943328"><ele>111.0</ele><time>2026-03-22T06:42:41.315Z</time></trkpt><trkpt lat="43.3136854" lon="13.3941018"><ele>111.0</ele><time>2026-03-22T06:42:42.316Z</time></trkpt><trkpt lat="43.3135605" lon="13.393876"><ele>111.0</ele><time>2026-03-22T06:42:43.316Z</time></trkpt><trkpt lat="43.3134322" lon="13.3936527"><ele>111.0</ele><time>2026-03-22T06:42:44.315Z</time></trkpt><trkpt lat="43.3133064" lon="13.3934313"><ele>111.0</ele><time>2026-03-22T06:42:45.315Z</time></trkpt><trkpt lat="43.3131834" lon="13.3932128"><ele>111.0</ele><time>2026-03-22T06:42:46.316Z</time></trkpt><trkpt lat="43.3130574" lon="13.392997"><ele>112.0</ele><time>2026-03-22T06:42:47.316Z</time></trkpt><trkpt lat="43.3129378" lon="13.3927823"><ele>113.0</ele><time>2026-03-22T06:42:48.316Z</time></trkpt><trkpt lat="43.3128153" lon="13.3925673"><ele>114.0</ele><time>2026-03-22T06:42:49.316Z</time></trkpt><trkpt lat="43.3126987" lon="13.3923644"><ele>114.0</ele><time>2026-03-22T06:42:50.315Z</time></trkpt><trkpt lat="43.3125752" lon="13.3921595"><ele>114.0</ele><time>2026-03-22T06:42:51.316Z</time></trkpt><trkpt lat="43.3124543" lon="13.3919453"><ele>114.0</ele><time>2026-03-22T06:42:52.316Z</time></trkpt><trkpt lat="43.3123331" lon="13.3917263"><ele>114.0</ele><time>2026-03-22T06:42:53.316Z</time></trkpt><trkpt lat="43.3122071" lon="13.3915018"><ele>114.0</ele><time>2026-03-22T06:42:54.315Z</time></trkpt><trkpt lat="43.3120891" lon="13.3912716"><ele>114.0</ele><time>2026-03-22T06:42:55.315Z</time></trkpt><trkpt lat="43.3119634" lon="13.3910459"><ele>114.0</ele><time>2026-03-22T06:42:56.316Z</time></trkpt><trkpt lat="43.3118431" lon="13.3908207"><ele>114.0</ele><time>2026-03-22T06:42:57.316Z</time></trkpt><trkpt lat="43.3117341" lon="13.3905934"><ele>114.0</ele><time>2026-03-22T06:42:58.316Z</time></trkpt><trkpt lat="43.3116251" lon="13.3903602"><ele>114.33333333333334</ele><time>2026-03-22T06:42:59.316Z</time></trkpt><trkpt lat="43.3115146" lon="13.390126"><ele>114.66666666666667</ele><time>2026-03-22T06:43:00.316Z</time></trkpt><trkpt lat="43.3114083" lon="13.3898871"><ele>115.0</ele><time>2026-03-22T06:43:01.316Z</time></trkpt><trkpt lat="43.3113036" lon="13.389645"><ele>115.0</ele><time>2026-03-22T06:43:02.315Z</time></trkpt><trkpt lat="43.3111969" lon="13.3893989"><ele>115.0</ele><time>2026-03-22T06:43:03.315Z</time></trkpt><trkpt lat="43.3110888" lon="13.3891445"><ele>115.0</ele><time>2026-03-22T06:43:04.315Z</time></trkpt><trkpt lat="43.3109753" lon="13.3888923"><ele>115.66666666666667</ele><time>2026-03-22T06:43:05.316Z</time></trkpt><trkpt lat="43.3108628" lon="13.3886358"><ele>116.33333333333334</ele><time>2026-03-22T06:43:06.316Z</time></trkpt><trkpt lat="43.310749" lon="13.388376"><ele>117.0</ele><time>2026-03-22T06:43:07.316Z</time></trkpt><trkpt lat="43.3106371" lon="13.388116"><ele>116.66666666666666</ele><time>2026-03-22T06:43:08.316Z</time></trkpt><trkpt lat="43.3105229" lon="13.3878547"><ele>116.33333333333333</ele><time>2026-03-22T06:43:09.316Z</time></trkpt><trkpt lat="43.3104125" lon="13.3875959"><ele>116.0</ele><time>2026-03-22T06:43:10.317Z</time></trkpt><trkpt lat="43.3103017" lon="13.3873379"><ele>116.33333333333333</ele><time>2026-03-22T06:43:11.315Z</time></trkpt><trkpt lat="43.3101928" lon="13.3870825"><ele>116.66666666666666</ele><time>2026-03-22T06:43:12.316Z</time></trkpt><trkpt lat="43.3100832" lon="13.3868254"><ele>117.0</ele><time>2026-03-22T06:43:13.316Z</time></trkpt><trkpt lat="43.3099699" lon="13.3865679"><ele>117.33333333333334</ele><time>2026-03-22T06:43:14.316Z</time></trkpt><trkpt lat="43.309856" lon="13.3863079"><ele>117.66666666666667</ele><time>2026-03-22T06:43:15.316Z</time></trkpt><trkpt lat="43.3097387" lon="13.3860476"><ele>118.0</ele><time>2026-03-22T06:43:16.316Z</time></trkpt><trkpt lat="43.3096288" lon="13.3857897"><ele>117.66666666666667</ele><time>2026-03-22T06:43:17.315Z</time></trkpt><trkpt lat="43.30952" lon="13.3855276"><ele>117.33333333333334</ele><time>2026-03-22T06:43:18.316Z</time></trkpt><trkpt lat="43.309415" lon="13.3852681"><ele>117.0</ele><time>2026-03-22T06:43:19.317Z</time></trkpt><trkpt lat="43.3093194" lon="13.3850409"><ele>117.0</ele><time>2026-03-22T06:43:20.317Z</time></trkpt><trkpt lat="43.3092481" lon="13.3848606"><ele>117.0</ele><time>2026-03-22T06:43:21.316Z</time></trkpt><trkpt lat="43.3091803" lon="13.384719"><ele>117.0</ele><time>2026-03-22T06:43:22.315Z</time></trkpt><trkpt lat="43.3091084" lon="13.3845742"><ele>117.0</ele><time>2026-03-22T06:43:23.316Z</time></trkpt><trkpt lat="43.3090458" lon="13.3844291"><ele>117.25</ele><time>2026-03-22T06:43:24.315Z</time></trkpt><trkpt lat="43.3089846" lon="13.3842685"><ele>117.5</ele><time>2026-03-22T06:43:25.316Z</time></trkpt><trkpt lat="43.3089177" lon="13.3841036"><ele>117.75</ele><time>2026-03-22T06:43:26.316Z</time></trkpt><trkpt lat="43.3088468" lon="13.3839284"><ele>118.0</ele><time>2026-03-22T06:43:27.315Z</time></trkpt><trkpt lat="43.3087667" lon="13.3837378"><ele>116.66666666666667</ele><time>2026-03-22T06:43:28.316Z</time></trkpt><trkpt lat="43.3086861" lon="13.3835462"><ele>115.33333333333334</ele><time>2026-03-22T06:43:29.316Z</time></trkpt><trkpt lat="43.3086003" lon="13.3833459"><ele>114.0</ele><time>2026-03-22T06:43:30.316Z</time></trkpt><trkpt lat="43.3085149" lon="13.3831513"><ele>114.33333333333334</ele><time>2026-03-22T06:43:31.315Z</time></trkpt><trkpt lat="43.3084297" lon="13.3829525"><ele>114.66666666666667</ele><time>2026-03-22T06:43:32.316Z</time></trkpt><trkpt lat="43.3083418" lon="13.3827469"><ele>115.0</ele><time>2026-03-22T06:43:33.314Z</time></trkpt><trkpt lat="43.3082512" lon="13.3825351"><ele>115.0</ele><time>2026-03-22T06:43:34.317Z</time></trkpt><trkpt lat="43.3081595" lon="13.382313"><ele>115.0</ele><time>2026-03-22T06:43:35.316Z</time></trkpt><trkpt lat="43.3080652" lon="13.3820873"><ele>115.0</ele><time>2026-03-22T06:43:36.315Z</time></trkpt><trkpt lat="43.3079698" lon="13.3818556"><ele>115.33333333333334</ele><time>2026-03-22T06:43:37.315Z</time></trkpt><trkpt lat="43.3078703" lon="13.3816229"><ele>115.66666666666666</ele><time>2026-03-22T06:43:38.317Z</time></trkpt><trkpt lat="43.307759" lon="13.3813835"><ele>116.0</ele><time>2026-03-22T06:43:39.315Z</time></trkpt><trkpt lat="43.307654" lon="13.3811396"><ele>117.0</ele><time>2026-03-22T06:43:40.315Z</time></trkpt><trkpt lat="43.3075494" lon="13.3808899"><ele>118.0</ele><time>2026-03-22T06:43:41.315Z</time></trkpt><trkpt lat="43.3074445" lon="13.3806382"><ele>119.0</ele><time>2026-03-22T06:43:42.316Z</time></trkpt><trkpt lat="43.3073374" lon="13.3803866"><ele>118.33333333333333</ele><time>2026-03-22T06:43:43.316Z</time></trkpt><trkpt lat="43.3072326" lon="13.3801347"><ele>117.66666666666666</ele><time>2026-03-22T06:43:44.317Z</time></trkpt><trkpt lat="43.3071276" lon="13.3798856"><ele>117.0</ele><time>2026-03-22T06:43:45.316Z</time></trkpt><trkpt lat="43.3070195" lon="13.3796367"><ele>117.0</ele><time>2026-03-22T06:43:46.315Z</time></trkpt><trkpt lat="43.3069159" lon="13.3793862"><ele>117.0</ele><time>2026-03-22T06:43:47.317Z</time></trkpt><trkpt lat="43.3068127" lon="13.379134"><ele>117.0</ele><time>2026-03-22T06:43:48.316Z</time></trkpt><trkpt lat="43.3067099" lon="13.378881"><ele>117.33333333333334</ele><time>2026-03-22T06:43:49.317Z</time></trkpt><trkpt lat="43.3066067" lon="13.378629"><ele>117.66666666666667</ele><time>2026-03-22T06:43:50.315Z</time></trkpt><trkpt lat="43.3065002" lon="13.3783815"><ele>118.0</ele><time>2026-03-22T06:43:51.317Z</time></trkpt><trkpt lat="43.3063979" lon="13.3781336"><ele>118.0</ele><time>2026-03-22T06:43:52.316Z</time></trkpt><trkpt lat="43.3062929" lon="13.37789"><ele>118.0</ele><time>2026-03-22T06:43:53.316Z</time></trkpt><trkpt lat="43.3061902" lon="13.377643"><ele>118.0</ele><time>2026-03-22T06:43:54.317Z</time></trkpt><trkpt lat="43.3060844" lon="13.3773922"><ele>119.0</ele><time>2026-03-22T06:43:55.317Z</time></trkpt><trkpt lat="43.3059865" lon="13.3771348"><ele>120.0</ele><time>2026-03-22T06:43:56.315Z</time></trkpt><trkpt lat="43.3058847" lon="13.3768762"><ele>121.0</ele><time>2026-03-22T06:43:57.315Z</time></trkpt><trkpt lat="43.3057813" lon="13.3766202"><ele>121.0</ele><time>2026-03-22T06:43:58.317Z</time></trkpt><trkpt lat="43.3056754" lon="13.3763636"><ele>121.0</ele><time>2026-03-22T06:43:59.316Z</time></trkpt><trkpt lat="43.3055685" lon="13.3761045"><ele>121.0</ele><time>2026-03-22T06:44:00.317Z</time></trkpt><trkpt lat="43.3054584" lon="13.3758396"><ele>121.33333333333334</ele><time>2026-03-22T06:44:01.315Z</time></trkpt><trkpt lat="43.3053468" lon="13.3755739"><ele>121.66666666666666</ele><time>2026-03-22T06:44:02.316Z</time></trkpt><trkpt lat="43.3052395" lon="13.3753033"><ele>122.0</ele><time>2026-03-22T06:44:03.315Z</time></trkpt><trkpt lat="43.3051303" lon="13.3750354"><ele>122.33333333333333</ele><time>2026-03-22T06:44:04.315Z</time></trkpt><trkpt lat="43.3050205" lon="13.374771"><ele>122.66666666666666</ele><time>2026-03-22T06:44:05.317Z</time></trkpt><trkpt lat="43.3049112" lon="13.374505"><ele>123.0</ele><time>2026-03-22T06:44:06.317Z</time></trkpt><trkpt lat="43.3048044" lon="13.3742391"><ele>122.66666666666666</ele><time>2026-03-22T06:44:07.316Z</time></trkpt><trkpt lat="43.304694" lon="13.3739733"><ele>122.33333333333333</ele><time>2026-03-22T06:44:08.316Z</time></trkpt><trkpt lat="43.3045818" lon="13.3737065"><ele>122.0</ele><time>2026-03-22T06:44:09.316Z</time></trkpt><trkpt lat="43.3044703" lon="13.3734398"><ele>123.0</ele><time>2026-03-22T06:44:10.315Z</time></trkpt><trkpt lat="43.3043592" lon="13.3731723"><ele>124.0</ele><time>2026-03-22T06:44:11.315Z</time></trkpt><trkpt lat="43.3042469" lon="13.3729024"><ele>125.0</ele><time>2026-03-22T06:44:12.316Z</time></trkpt><trkpt lat="43.3041322" lon="13.3726302"><ele>126.0</ele><time>2026-03-22T06:44:13.317Z</time></trkpt><trkpt lat="43.3040169" lon="13.3723518"><ele>126.0</ele><time>2026-03-22T06:44:14.316Z</time></trkpt><trkpt lat="43.303897" lon="13.3720794"><ele>126.0</ele><time>2026-03-22T06:44:15.316Z</time></trkpt><trkpt lat="43.3037693" lon="13.3718066"><ele>126.0</ele><time>2026-03-22T06:44:16.317Z</time></trkpt><trkpt lat="43.3036391" lon="13.3715385"><ele>126.0</ele><time>2026-03-22T06:44:17.316Z</time></trkpt><trkpt lat="43.3035044" lon="13.3712754"><ele>127.5</ele><time>2026-03-22T06:44:18.316Z</time></trkpt><trkpt lat="43.3033691" lon="13.3710094"><ele>129.0</ele><time>2026-03-22T06:44:19.315Z</time></trkpt><trkpt lat="43.3032319" lon="13.3707421"><ele>129.66666666666666</ele><time>2026-03-22T06:44:20.316Z</time></trkpt><trkpt lat="43.3031034" lon="13.3704826"><ele>130.33333333333331</ele><time>2026-03-22T06:44:21.316Z</time></trkpt><trkpt lat="43.302978" lon="13.3702395"><ele>131.0</ele><time>2026-03-22T06:44:22.315Z</time></trkpt><trkpt lat="43.3028652" lon="13.3699998"><ele>129.66666666666666</ele><time>2026-03-22T06:44:23.315Z</time></trkpt><trkpt lat="43.3027608" lon="13.3697589"><ele>128.33333333333334</ele><time>2026-03-22T06:44:24.317Z</time></trkpt><trkpt lat="43.3026569" lon="13.3695183"><ele>127.0</ele><time>2026-03-22T06:44:25.316Z</time></trkpt><trkpt lat="43.3025514" lon="13.369275"><ele>127.0</ele><time>2026-03-22T06:44:26.315Z</time></trkpt><trkpt lat="43.3024481" lon="13.3690291"><ele>127.0</ele><time>2026-03-22T06:44:27.315Z</time></trkpt><trkpt lat="43.3023476" lon="13.3687737"><ele>127.0</ele><time>2026-03-22T06:44:28.316Z</time></trkpt><trkpt lat="43.3022396" lon="13.3685196"><ele>126.66666666666667</ele><time>2026-03-22T06:44:29.317Z</time></trkpt><trkpt lat="43.3021344" lon="13.3682695"><ele>126.33333333333334</ele><time>2026-03-22T06:44:30.316Z</time></trkpt><trkpt lat="43.3020371" lon="13.3680306"><ele>126.0</ele><time>2026-03-22T06:44:31.316Z</time></trkpt><trkpt lat="43.3019419" lon="13.3678046"><ele>126.0</ele><time>2026-03-22T06:44:32.315Z</time></trkpt><trkpt lat="43.3018437" lon="13.3675852"><ele>126.0</ele><time>2026-03-22T06:44:33.315Z</time></trkpt><trkpt lat="43.301752" lon="13.3673684"><ele>126.0</ele><time>2026-03-22T06:44:34.316Z</time></trkpt><trkpt lat="43.3016498" lon="13.3671447"><ele>126.33333333333334</ele><time>2026-03-22T06:44:35.316Z</time></trkpt><trkpt lat="43.3015396" lon="13.3669066"><ele>126.66666666666667</ele><time>2026-03-22T06:44:36.315Z</time></trkpt><trkpt lat="43.3014296" lon="13.3666524"><ele>127.0</ele><time>2026-03-22T06:44:37.315Z</time></trkpt><trkpt lat="43.3013168" lon="13.3663905"><ele>128.0</ele><time>2026-03-22T06:44:38.315Z</time></trkpt><trkpt lat="43.3012026" lon="13.3661154"><ele>129.0</ele><time>2026-03-22T06:44:39.315Z</time></trkpt><trkpt lat="43.3010908" lon="13.3658337"><ele>129.0</ele><time>2026-03-22T06:44:40.315Z</time></trkpt><trkpt lat="43.3009749" lon="13.3655467"><ele>129.0</ele><time>2026-03-22T06:44:41.315Z</time></trkpt><trkpt lat="43.3008521" lon="13.3652551"><ele>130.5</ele><time>2026-03-22T06:44:42.317Z</time></trkpt><trkpt lat="43.3007253" lon="13.3649653"><ele>132.0</ele><time>2026-03-22T06:44:43.316Z</time></trkpt><trkpt lat="43.3005995" lon="13.3646739"><ele>130.5</ele><time>2026-03-22T06:44:44.316Z</time></trkpt><trkpt lat="43.3004737" lon="13.3643773"><ele>129.0</ele><time>2026-03-22T06:44:45.316Z</time></trkpt><trkpt lat="43.3003448" lon="13.3640799"><ele>130.0</ele><time>2026-03-22T06:44:46.316Z</time></trkpt><trkpt lat="43.3002126" lon="13.3637877"><ele>131.0</ele><time>2026-03-22T06:44:47.316Z</time></trkpt><trkpt lat="43.3000781" lon="13.3635044"><ele>131.0</ele><time>2026-03-22T06:44:48.315Z</time></trkpt><trkpt lat="43.2999437" lon="13.3632347"><ele>131.0</ele><time>2026-03-22T06:44:49.316Z</time></trkpt><trkpt lat="43.2998178" lon="13.3629758"><ele>130.66666666666666</ele><time>2026-03-22T06:44:50.316Z</time></trkpt><trkpt lat="43.299695" lon="13.3627257"><ele>130.33333333333334</ele><time>2026-03-22T06:44:51.315Z</time></trkpt><trkpt lat="43.2995768" lon="13.3624862"><ele>130.0</ele><time>2026-03-22T06:44:52.315Z</time></trkpt><trkpt lat="43.2994609" lon="13.3622557"><ele>131.0</ele><time>2026-03-22T06:44:53.315Z</time></trkpt><trkpt lat="43.299344" lon="13.3620284"><ele>132.0</ele><time>2026-03-22T06:44:54.317Z</time></trkpt><trkpt lat="43.2992332" lon="13.3617937"><ele>133.0</ele><time>2026-03-22T06:44:55.316Z</time></trkpt><trkpt lat="43.2991323" lon="13.3615513"><ele>133.33333333333334</ele><time>2026-03-22T06:44:56.317Z</time></trkpt><trkpt lat="43.2990428" lon="13.3612979"><ele>133.66666666666666</ele><time>2026-03-22T06:44:57.316Z</time></trkpt><trkpt lat="43.2989611" lon="13.3610392"><ele>134.0</ele><time>2026-03-22T06:44:58.316Z</time></trkpt><trkpt lat="43.2988822" lon="13.3607802"><ele>133.33333333333331</ele><time>2026-03-22T06:44:59.316Z</time></trkpt><trkpt lat="43.2988059" lon="13.3605151"><ele>132.66666666666666</ele><time>2026-03-22T06:45:00.317Z</time></trkpt><trkpt lat="43.2987433" lon="13.3602472"><ele>132.0</ele><time>2026-03-22T06:45:01.316Z</time></trkpt><trkpt lat="43.2986788" lon="13.3599717"><ele>132.0</ele><time>2026-03-22T06:45:02.315Z</time></trkpt><trkpt lat="43.2986195" lon="13.3596942"><ele>132.0</ele><time>2026-03-22T06:45:03.315Z</time></trkpt><trkpt lat="43.2985666" lon="13.3594151"><ele>132.0</ele><time>2026-03-22T06:45:04.315Z</time></trkpt><trkpt lat="43.298503" lon="13.3591404"><ele>132.66666666666666</ele><time>2026-03-22T06:45:05.315Z</time></trkpt><trkpt lat="43.2984481" lon="13.3588535"><ele>133.33333333333331</ele><time>2026-03-22T06:45:06.316Z</time></trkpt><trkpt lat="43.2983949" lon="13.3585707"><ele>134.0</ele><time>2026-03-22T06:45:07.316Z</time></trkpt><trkpt lat="43.2983322" lon="13.3582798"><ele>135.0</ele><time>2026-03-22T06:45:08.316Z</time></trkpt><trkpt lat="43.2982682" lon="13.3579865"><ele>136.0</ele><time>2026-03-22T06:45:09.315Z</time></trkpt><trkpt lat="43.2982011" lon="13.3576954"><ele>137.0</ele><time>2026-03-22T06:45:10.316Z</time></trkpt><trkpt lat="43.2981372" lon="13.3574047"><ele>136.33333333333331</ele><time>2026-03-22T06:45:11.315Z</time></trkpt><trkpt lat="43.2980808" lon="13.3571102"><ele>135.66666666666666</ele><time>2026-03-22T06:45:12.316Z</time></trkpt><trkpt lat="43.2980278" lon="13.3568155"><ele>135.0</ele><time>2026-03-22T06:45:13.316Z</time></trkpt><trkpt lat="43.2979773" lon="13.3565195"><ele>135.66666666666666</ele><time>2026-03-22T06:45:14.315Z</time></trkpt><trkpt lat="43.2979224" lon="13.3562258"><ele>136.33333333333331</ele><time>2026-03-22T06:45:15.316Z</time></trkpt><trkpt lat="43.2978622" lon="13.3559245"><ele>137.0</ele><time>2026-03-22T06:45:16.314Z</time></trkpt><trkpt lat="43.2977998" lon="13.3556196"><ele>138.0</ele><time>2026-03-22T06:45:17.317Z</time></trkpt><trkpt lat="43.2977367" lon="13.3553204"><ele>139.0</ele><time>2026-03-22T06:45:18.317Z</time></trkpt><trkpt lat="43.2976686" lon="13.3550144"><ele>139.0</ele><time>2026-03-22T06:45:19.317Z</time></trkpt><trkpt lat="43.2976044" lon="13.3547149"><ele>139.0</ele><time>2026-03-22T06:45:20.317Z</time></trkpt><trkpt lat="43.297542" lon="13.3544202"><ele>140.33333333333334</ele><time>2026-03-22T06:45:21.315Z</time></trkpt><trkpt lat="43.2974716" lon="13.3541375"><ele>141.66666666666666</ele><time>2026-03-22T06:45:22.316Z</time></trkpt><trkpt lat="43.2974066" lon="13.3538558"><ele>143.0</ele><time>2026-03-22T06:45:23.317Z</time></trkpt><trkpt lat="43.2973458" lon="13.3535724"><ele>143.33333333333331</ele><time>2026-03-22T06:45:24.316Z</time></trkpt><trkpt lat="43.2972833" lon="13.3532922"><ele>143.66666666666666</ele><time>2026-03-22T06:45:25.316Z</time></trkpt><trkpt lat="43.2972307" lon="13.353004"><ele>144.0</ele><time>2026-03-22T06:45:26.316Z</time></trkpt><trkpt lat="43.297179" lon="13.3527111"><ele>142.0</ele><time>2026-03-22T06:45:27.315Z</time></trkpt><trkpt lat="43.2971263" lon="13.3524114"><ele>140.0</ele><time>2026-03-22T06:45:28.316Z</time></trkpt><trkpt lat="43.2970761" lon="13.3521041"><ele>140.0</ele><time>2026-03-22T06:45:29.316Z</time></trkpt><trkpt lat="43.2970278" lon="13.3517954"><ele>140.0</ele><time>2026-03-22T06:45:30.317Z</time></trkpt><trkpt lat="43.2969845" lon="13.3514787"><ele>141.0</ele><time>2026-03-22T06:45:31.317Z</time></trkpt><trkpt lat="43.2969401" lon="13.3511642"><ele>142.0</ele><time>2026-03-22T06:45:32.316Z</time></trkpt><trkpt lat="43.2968943" lon="13.350848"><ele>142.5</ele><time>2026-03-22T06:45:33.316Z</time></trkpt><trkpt lat="43.2968472" lon="13.3505306"><ele>143.0</ele><time>2026-03-22T06:45:34.316Z</time></trkpt><trkpt lat="43.2967901" lon="13.3502082"><ele>143.0</ele><time>2026-03-22T06:45:35.316Z</time></trkpt><trkpt lat="43.2967347" lon="13.3498864"><ele>143.0</ele><time>2026-03-22T06:45:36.316Z</time></trkpt><trkpt lat="43.2966803" lon="13.3495604"><ele>143.5</ele><time>2026-03-22T06:45:37.317Z</time></trkpt><trkpt lat="43.2966228" lon="13.3492363"><ele>144.0</ele><time>2026-03-22T06:45:38.317Z</time></trkpt><trkpt lat="43.2965683" lon="13.3489123"><ele>144.0</ele><time>2026-03-22T06:45:39.317Z</time></trkpt><trkpt lat="43.2965146" lon="13.34859"><ele>144.0</ele><time>2026-03-22T06:45:40.315Z</time></trkpt><trkpt lat="43.2964697" lon="13.3482742"><ele>144.0</ele><time>2026-03-22T06:45:41.316Z</time></trkpt><trkpt lat="43.2964336" lon="13.3479727"><ele>144.0</ele><time>2026-03-22T06:45:42.314Z</time></trkpt><trkpt lat="43.2964079" lon="13.3476883"><ele>144.0</ele><time>2026-03-22T06:45:43.317Z</time></trkpt><trkpt lat="43.2963894" lon="13.3474187"><ele>142.33333333333334</ele><time>2026-03-22T06:45:44.315Z</time></trkpt><trkpt lat="43.2963632" lon="13.3471699"><ele>140.66666666666669</ele><time>2026-03-22T06:45:45.316Z</time></trkpt><trkpt lat="43.2963218" lon="13.3469238"><ele>139.0</ele><time>2026-03-22T06:45:46.315Z</time></trkpt><trkpt lat="43.2962614" lon="13.3466776"><ele>139.0</ele><time>2026-03-22T06:45:47.315Z</time></trkpt><trkpt lat="43.2961811" lon="13.3464341"><ele>139.0</ele><time>2026-03-22T06:45:48.316Z</time></trkpt><trkpt lat="43.2960799" lon="13.3462057"><ele>139.0</ele><time>2026-03-22T06:45:49.315Z</time></trkpt><trkpt lat="43.2959782" lon="13.345992"><ele>138.66666666666669</ele><time>2026-03-22T06:45:50.315Z</time></trkpt><trkpt lat="43.2958722" lon="13.345796"><ele>138.33333333333334</ele><time>2026-03-22T06:45:51.317Z</time></trkpt><trkpt lat="43.2957622" lon="13.3456127"><ele>138.0</ele><time>2026-03-22T06:45:52.316Z</time></trkpt><trkpt lat="43.2956504" lon="13.3454357"><ele>138.33333333333334</ele><time>2026-03-22T06:45:53.315Z</time></trkpt><trkpt lat="43.2955301" lon="13.3452596"><ele>138.66666666666669</ele><time>2026-03-22T06:45:54.317Z</time></trkpt><trkpt lat="43.2954085" lon="13.3450912"><ele>139.0</ele><time>2026-03-22T06:45:55.315Z</time></trkpt><trkpt lat="43.2952958" lon="13.3449211"><ele>139.0</ele><time>2026-03-22T06:45:56.316Z</time></trkpt><trkpt lat="43.2951856" lon="13.3447541"><ele>139.0</ele><time>2026-03-22T06:45:57.316Z</time></trkpt><trkpt lat="43.2950729" lon="13.3445842"><ele>139.0</ele><time>2026-03-22T06:45:58.315Z</time></trkpt><trkpt lat="43.2949597" lon="13.3444112"><ele>139.0</ele><time>2026-03-22T06:45:59.317Z</time></trkpt><trkpt lat="43.2948406" lon="13.344232"><ele>139.0</ele><time>2026-03-22T06:46:00.317Z</time></trkpt><trkpt lat="43.2947219" lon="13.3440479"><ele>139.0</ele><time>2026-03-22T06:46:01.317Z</time></trkpt><trkpt lat="43.2945991" lon="13.3438564"><ele>138.66666666666669</ele><time>2026-03-22T06:46:02.317Z</time></trkpt><trkpt lat="43.2944721" lon="13.3436722"><ele>138.33333333333334</ele><time>2026-03-22T06:46:03.315Z</time></trkpt><trkpt lat="43.2943459" lon="13.3434793"><ele>138.0</ele><time>2026-03-22T06:46:04.315Z</time></trkpt><trkpt lat="43.2942183" lon="13.3432842"><ele>138.0</ele><time>2026-03-22T06:46:05.316Z</time></trkpt><trkpt lat="43.2940912" lon="13.3430886"><ele>138.0</ele><time>2026-03-22T06:46:06.317Z</time></trkpt><trkpt lat="43.2939646" lon="13.342889"><ele>138.0</ele><time>2026-03-22T06:46:07.316Z</time></trkpt><trkpt lat="43.2938365" lon="13.3426924"><ele>137.66666666666666</ele><time>2026-03-22T06:46:08.315Z</time></trkpt><trkpt lat="43.2937098" lon="13.3424971"><ele>137.33333333333331</ele><time>2026-03-22T06:46:09.316Z</time></trkpt><trkpt lat="43.2935795" lon="13.3422997"><ele>137.0</ele><time>2026-03-22T06:46:10.316Z</time></trkpt><trkpt lat="43.2934478" lon="13.3421047"><ele>137.0</ele><time>2026-03-22T06:46:11.317Z</time></trkpt><trkpt lat="43.2933169" lon="13.3419129"><ele>137.0</ele><time>2026-03-22T06:46:12.316Z</time></trkpt><trkpt lat="43.2931861" lon="13.3417184"><ele>137.0</ele><time>2026-03-22T06:46:13.314Z</time></trkpt><trkpt lat="43.2930582" lon="13.3415201"><ele>137.33333333333331</ele><time>2026-03-22T06:46:14.317Z</time></trkpt><trkpt lat="43.2929297" lon="13.3413233"><ele>137.66666666666666</ele><time>2026-03-22T06:46:15.316Z</time></trkpt><trkpt lat="43.2928021" lon="13.3411339"><ele>138.0</ele><time>2026-03-22T06:46:16.316Z</time></trkpt><trkpt lat="43.2926781" lon="13.3409409"><ele>138.0</ele><time>2026-03-22T06:46:17.317Z</time></trkpt><trkpt lat="43.2925506" lon="13.34075"><ele>138.0</ele><time>2026-03-22T06:46:18.316Z</time></trkpt><trkpt lat="43.2924312" lon="13.3405592"><ele>138.0</ele><time>2026-03-22T06:46:19.316Z</time></trkpt><trkpt lat="43.2923106" lon="13.3403788"><ele>138.0</ele><time>2026-03-22T06:46:20.315Z</time></trkpt><trkpt lat="43.2921921" lon="13.3401995"><ele>138.0</ele><time>2026-03-22T06:46:21.314Z</time></trkpt><trkpt lat="43.2920768" lon="13.3400203"><ele>138.0</ele><time>2026-03-22T06:46:22.315Z</time></trkpt><trkpt lat="43.2919597" lon="13.339841"><ele>138.66666666666666</ele><time>2026-03-22T06:46:23.315Z</time></trkpt><trkpt lat="43.2918403" lon="13.3396633"><ele>139.33333333333331</ele><time>2026-03-22T06:46:24.317Z</time></trkpt><trkpt lat="43.2917213" lon="13.33948"><ele>140.0</ele><time>2026-03-22T06:46:25.315Z</time></trkpt><trkpt lat="43.2915963" lon="13.339298"><ele>140.0</ele><time>2026-03-22T06:46:26.315Z</time></trkpt><trkpt lat="43.2914768" lon="13.3391115"><ele>140.0</ele><time>2026-03-22T06:46:27.316Z</time></trkpt><trkpt lat="43.2913576" lon="13.3389212"><ele>140.0</ele><time>2026-03-22T06:46:28.316Z</time></trkpt><trkpt lat="43.2912348" lon="13.3387408"><ele>140.33333333333331</ele><time>2026-03-22T06:46:29.315Z</time></trkpt><trkpt lat="43.2911122" lon="13.3385624"><ele>140.66666666666666</ele><time>2026-03-22T06:46:30.317Z</time></trkpt><trkpt lat="43.2909958" lon="13.3383805"><ele>141.0</ele><time>2026-03-22T06:46:31.315Z</time></trkpt><trkpt lat="43.2908767" lon="13.3381998"><ele>141.33333333333334</ele><time>2026-03-22T06:46:32.316Z</time></trkpt><trkpt lat="43.2907585" lon="13.3380137"><ele>141.66666666666669</ele><time>2026-03-22T06:46:33.316Z</time></trkpt><trkpt lat="43.2906395" lon="13.3378293"><ele>142.0</ele><time>2026-03-22T06:46:34.315Z</time></trkpt><trkpt lat="43.2905174" lon="13.3376433"><ele>142.0</ele><time>2026-03-22T06:46:35.315Z</time></trkpt><trkpt lat="43.2903946" lon="13.3374529"><ele>142.0</ele><time>2026-03-22T06:46:36.315Z</time></trkpt><trkpt lat="43.2902702" lon="13.3372648"><ele>142.0</ele><time>2026-03-22T06:46:37.316Z</time></trkpt><trkpt lat="43.2901438" lon="13.3370774"><ele>142.33333333333334</ele><time>2026-03-22T06:46:38.315Z</time></trkpt><trkpt lat="43.2900144" lon="13.3368925"><ele>142.66666666666666</ele><time>2026-03-22T06:46:39.316Z</time></trkpt><trkpt lat="43.2898855" lon="13.3367019"><ele>143.0</ele><time>2026-03-22T06:46:40.315Z</time></trkpt><trkpt lat="43.2897604" lon="13.3365137"><ele>143.33333333333331</ele><time>2026-03-22T06:46:41.316Z</time></trkpt><trkpt lat="43.2896413" lon="13.3363327"><ele>143.66666666666666</ele><time>2026-03-22T06:46:42.315Z</time></trkpt><trkpt lat="43.2895214" lon="13.3361466"><ele>144.0</ele><time>2026-03-22T06:46:43.317Z</time></trkpt><trkpt lat="43.2894046" lon="13.335974"><ele>144.0</ele><time>2026-03-22T06:46:44.316Z</time></trkpt><trkpt lat="43.289296" lon="13.3358094"><ele>144.0</ele><time>2026-03-22T06:46:45.315Z</time></trkpt><trkpt lat="43.28919" lon="13.3356526"><ele>144.0</ele><time>2026-03-22T06:46:46.317Z</time></trkpt><trkpt lat="43.2890906" lon="13.3354993"><ele>144.25</ele><time>2026-03-22T06:46:47.316Z</time></trkpt><trkpt lat="43.2889914" lon="13.3353529"><ele>144.5</ele><time>2026-03-22T06:46:48.317Z</time></trkpt><trkpt lat="43.2888967" lon="13.3352121"><ele>144.75</ele><time>2026-03-22T06:46:49.315Z</time></trkpt><trkpt lat="43.2888065" lon="13.3350712"><ele>145.0</ele><time>2026-03-22T06:46:50.316Z</time></trkpt><trkpt lat="43.2887279" lon="13.3349378"><ele>145.2</ele><time>2026-03-22T06:46:51.315Z</time></trkpt><trkpt lat="43.2886641" lon="13.3348321"><ele>145.4</ele><time>2026-03-22T06:46:52.316Z</time></trkpt><trkpt lat="43.2885947" lon="13.3347396"><ele>145.6</ele><time>2026-03-22T06:46:53.316Z</time></trkpt><trkpt lat="43.2885198" lon="13.3346285"><ele>145.8</ele><time>2026-03-22T06:46:54.316Z</time></trkpt><trkpt lat="43.2884471" lon="13.3345181"><ele>146.0</ele><time>2026-03-22T06:46:55.316Z</time></trkpt><trkpt lat="43.2883722" lon="13.3343945"><ele>146.0</ele><time>2026-03-22T06:46:56.317Z</time></trkpt><trkpt lat="43.2883035" lon="13.3342719"><ele>146.0</ele><time>2026-03-22T06:46:57.317Z</time></trkpt><trkpt lat="43.2882452" lon="13.3341541"><ele>146.0</ele><time>2026-03-22T06:46:58.316Z</time></trkpt><trkpt lat="43.2882028" lon="13.3340395"><ele>146.0</ele><time>2026-03-22T06:46:59.316Z</time></trkpt><trkpt lat="43.2881911" lon="13.3339267"><ele>146.0</ele><time>2026-03-22T06:47:00.315Z</time></trkpt><trkpt lat="43.2881774" lon="13.3338144"><ele>146.0</ele><time>2026-03-22T06:47:01.315Z</time></trkpt><trkpt lat="43.2881546" lon="13.33371"><ele>146.0</ele><time>2026-03-22T06:47:02.316Z</time></trkpt><trkpt lat="43.2881089" lon="13.3336301"><ele>146.0</ele><time>2026-03-22T06:47:03.315Z</time></trkpt><trkpt lat="43.2880461" lon="13.3335839"><ele>146.0</ele><time>2026-03-22T06:47:04.317Z</time></trkpt><trkpt lat="43.2879495" lon="13.3335468"><ele>146.0</ele><time>2026-03-22T06:47:05.316Z</time></trkpt><trkpt lat="43.2878438" lon="13.333482"><ele>146.0</ele><time>2026-03-22T06:47:06.316Z</time></trkpt><trkpt lat="43.2877323" lon="13.3333866"><ele>145.66666666666666</ele><time>2026-03-22T06:47:07.316Z</time></trkpt><trkpt lat="43.2876197" lon="13.3332307"><ele>145.33333333333334</ele><time>2026-03-22T06:47:08.316Z</time></trkpt><trkpt lat="43.2875066" lon="13.3330813"><ele>145.0</ele><time>2026-03-22T06:47:09.316Z</time></trkpt><trkpt lat="43.2874029" lon="13.332933"><ele>145.0</ele><time>2026-03-22T06:47:10.316Z</time></trkpt><trkpt lat="43.2872948" lon="13.3327981"><ele>145.0</ele><time>2026-03-22T06:47:11.317Z</time></trkpt><trkpt lat="43.2871878" lon="13.3326822"><ele>145.0</ele><time>2026-03-22T06:47:12.316Z</time></trkpt><trkpt lat="43.2870864" lon="13.3325966"><ele>145.0</ele><time>2026-03-22T06:47:13.315Z</time></trkpt><trkpt lat="43.286997" lon="13.3325425"><ele>145.16666666666669</ele><time>2026-03-22T06:47:14.316Z</time></trkpt><trkpt lat="43.2869246" lon="13.3324805"><ele>145.33333333333334</ele><time>2026-03-22T06:47:15.315Z</time></trkpt><trkpt lat="43.286865" lon="13.3324195"><ele>145.5</ele><time>2026-03-22T06:47:16.316Z</time></trkpt><trkpt lat="43.2868056" lon="13.3323708"><ele>145.66666666666666</ele><time>2026-03-22T06:47:17.315Z</time></trkpt><trkpt lat="43.2866922" lon="13.3323467"><ele>145.83333333333331</ele><time>2026-03-22T06:47:19.315Z</time></trkpt><trkpt lat="43.2866295" lon="13.332405"><ele>146.0</ele><time>2026-03-22T06:47:20.315Z</time></trkpt><trkpt lat="43.2865676" lon="13.3324918"><ele>146.0</ele><time>2026-03-22T06:47:21.316Z</time></trkpt><trkpt lat="43.286492" lon="13.3325851"><ele>146.0</ele><time>2026-03-22T06:47:22.315Z</time></trkpt><trkpt lat="43.286402" lon="13.3326654"><ele>146.0</ele><time>2026-03-22T06:47:23.316Z</time></trkpt><trkpt lat="43.2862649" lon="13.3327255"><ele>146.0</ele><time>2026-03-22T06:47:24.317Z</time></trkpt><trkpt lat="43.2861175" lon="13.3327916"><ele>145.66666666666666</ele><time>2026-03-22T06:47:25.316Z</time></trkpt><trkpt lat="43.2859641" lon="13.3328639"><ele>145.33333333333334</ele><time>2026-03-22T06:47:26.315Z</time></trkpt><trkpt lat="43.2858083" lon="13.3329365"><ele>145.0</ele><time>2026-03-22T06:47:27.317Z</time></trkpt><trkpt lat="43.2856448" lon="13.3329978"><ele>144.0</ele><time>2026-03-22T06:47:28.315Z</time></trkpt><trkpt lat="43.2854804" lon="13.3330369"><ele>143.0</ele><time>2026-03-22T06:47:29.315Z</time></trkpt><trkpt lat="43.2853082" lon="13.3330479"><ele>142.0</ele><time>2026-03-22T06:47:30.317Z</time></trkpt><trkpt lat="43.2851405" lon="13.3330358"><ele>142.0</ele><time>2026-03-22T06:47:31.316Z</time></trkpt><trkpt lat="43.2849745" lon="13.3330161"><ele>142.0</ele><time>2026-03-22T06:47:32.316Z</time></trkpt><trkpt lat="43.2848194" lon="13.3329934"><ele>142.0</ele><time>2026-03-22T06:47:33.316Z</time></trkpt><trkpt lat="43.2846748" lon="13.3329705"><ele>141.75</ele><time>2026-03-22T06:47:34.318Z</time></trkpt><trkpt lat="43.2845309" lon="13.3329577"><ele>141.5</ele><time>2026-03-22T06:47:35.317Z</time></trkpt><trkpt lat="43.2843917" lon="13.3329514"><ele>141.25</ele><time>2026-03-22T06:47:36.316Z</time></trkpt><trkpt lat="43.284257" lon="13.3329605"><ele>141.0</ele><time>2026-03-22T06:47:37.317Z</time></trkpt><trkpt lat="43.2841252" lon="13.3329779"><ele>141.0</ele><time>2026-03-22T06:47:38.316Z</time></trkpt><trkpt lat="43.2840012" lon="13.3330009"><ele>141.0</ele><time>2026-03-22T06:47:39.317Z</time></trkpt><trkpt lat="43.2838859" lon="13.3330283"><ele>141.0</ele><time>2026-03-22T06:47:40.316Z</time></trkpt><trkpt lat="43.2837643" lon="13.3330736"><ele>141.0</ele><time>2026-03-22T06:47:41.316Z</time></trkpt><trkpt lat="43.2836468" lon="13.3331328"><ele>140.25</ele><time>2026-03-22T06:47:42.317Z</time></trkpt><trkpt lat="43.2835354" lon="13.3332251"><ele>139.5</ele><time>2026-03-22T06:47:43.316Z</time></trkpt><trkpt lat="43.2834272" lon="13.3333438"><ele>138.75</ele><time>2026-03-22T06:47:44.315Z</time></trkpt><trkpt lat="43.2833225" lon="13.333449"><ele>138.0</ele><time>2026-03-22T06:47:45.316Z</time></trkpt><trkpt lat="43.2832151" lon="13.333554"><ele>138.0</ele><time>2026-03-22T06:47:46.316Z</time></trkpt><trkpt lat="43.2831" lon="13.3336512"><ele>138.0</ele><time>2026-03-22T06:47:47.315Z</time></trkpt><trkpt lat="43.2829895" lon="13.3337502"><ele>138.0</ele><time>2026-03-22T06:47:48.317Z</time></trkpt><trkpt lat="43.2828872" lon="13.3338396"><ele>138.0</ele><time>2026-03-22T06:47:49.315Z</time></trkpt><trkpt lat="43.2827957" lon="13.3339271"><ele>139.4</ele><time>2026-03-22T06:47:50.315Z</time></trkpt><trkpt lat="43.2827109" lon="13.3340043"><ele>140.8</ele><time>2026-03-22T06:47:51.316Z</time></trkpt><trkpt lat="43.2826256" lon="13.3340766"><ele>142.2</ele><time>2026-03-22T06:47:52.315Z</time></trkpt><trkpt lat="43.2825323" lon="13.3341503"><ele>143.6</ele><time>2026-03-22T06:47:53.317Z</time></trkpt><trkpt lat="43.2824294" lon="13.3342157"><ele>145.0</ele><time>2026-03-22T06:47:54.317Z</time></trkpt><trkpt lat="43.2823083" lon="13.3342697"><ele>146.33333333333334</ele><time>2026-03-22T06:47:55.316Z</time></trkpt><trkpt lat="43.2821721" lon="13.3342948"><ele>147.66666666666666</ele><time>2026-03-22T06:47:56.315Z</time></trkpt><trkpt lat="43.2820262" lon="13.3342786"><ele>149.0</ele><time>2026-03-22T06:47:57.315Z</time></trkpt><trkpt lat="43.2818629" lon="13.3342334"><ele>149.0</ele><time>2026-03-22T06:47:58.317Z</time></trkpt><trkpt lat="43.2816909" lon="13.3341691"><ele>149.0</ele><time>2026-03-22T06:47:59.316Z</time></trkpt><trkpt lat="43.2815106" lon="13.3341016"><ele>149.0</ele><time>2026-03-22T06:48:00.316Z</time></trkpt><trkpt lat="43.281323" lon="13.3340342"><ele>150.66666666666666</ele><time>2026-03-22T06:48:01.315Z</time></trkpt><trkpt lat="43.281137" lon="13.3339578"><ele>152.33333333333334</ele><time>2026-03-22T06:48:02.315Z</time></trkpt><trkpt lat="43.2809556" lon="13.3338593"><ele>154.0</ele><time>2026-03-22T06:48:03.316Z</time></trkpt><trkpt lat="43.2807762" lon="13.3337451"><ele>151.66666666666669</ele><time>2026-03-22T06:48:04.317Z</time></trkpt><trkpt lat="43.2805998" lon="13.3336242"><ele>149.33333333333334</ele><time>2026-03-22T06:48:05.315Z</time></trkpt><trkpt lat="43.2804235" lon="13.3335052"><ele>147.0</ele><time>2026-03-22T06:48:06.316Z</time></trkpt><trkpt lat="43.2802468" lon="13.3334127"><ele>147.0</ele><time>2026-03-22T06:48:07.316Z</time></trkpt><trkpt lat="43.2800644" lon="13.3333642"><ele>147.0</ele><time>2026-03-22T06:48:08.316Z</time></trkpt><trkpt lat="43.2798986" lon="13.3332887"><ele>147.0</ele><time>2026-03-22T06:48:09.316Z</time></trkpt><trkpt lat="43.2797448" lon="13.3331751"><ele>146.66666666666666</ele><time>2026-03-22T06:48:10.316Z</time></trkpt><trkpt lat="43.2795916" lon="13.3330285"><ele>146.33333333333331</ele><time>2026-03-22T06:48:11.315Z</time></trkpt><trkpt lat="43.2794434" lon="13.3328591"><ele>146.0</ele><time>2026-03-22T06:48:12.315Z</time></trkpt><trkpt lat="43.2792939" lon="13.332683"><ele>146.0</ele><time>2026-03-22T06:48:13.315Z</time></trkpt><trkpt lat="43.2791482" lon="13.3325126"><ele>146.0</ele><time>2026-03-22T06:48:14.316Z</time></trkpt><trkpt lat="43.2790131" lon="13.3323491"><ele>146.0</ele><time>2026-03-22T06:48:15.316Z</time></trkpt><trkpt lat="43.2788838" lon="13.332201"><ele>145.66666666666666</ele><time>2026-03-22T06:48:16.316Z</time></trkpt><trkpt lat="43.2787524" lon="13.3320787"><ele>145.33333333333334</ele><time>2026-03-22T06:48:17.317Z</time></trkpt><trkpt lat="43.2786123" lon="13.3319779"><ele>145.0</ele><time>2026-03-22T06:48:18.317Z</time></trkpt><trkpt lat="43.2784549" lon="13.331924"><ele>145.0</ele><time>2026-03-22T06:48:19.316Z</time></trkpt><trkpt lat="43.2782858" lon="13.3319143"><ele>145.0</ele><time>2026-03-22T06:48:20.317Z</time></trkpt><trkpt lat="43.2781065" lon="13.3319249"><ele>145.0</ele><time>2026-03-22T06:48:21.317Z</time></trkpt><trkpt lat="43.2779244" lon="13.3319389"><ele>146.66666666666669</ele><time>2026-03-22T06:48:22.316Z</time></trkpt><trkpt lat="43.2777388" lon="13.3319585"><ele>148.33333333333334</ele><time>2026-03-22T06:48:23.316Z</time></trkpt><trkpt lat="43.2775561" lon="13.3319726"><ele>150.0</ele><time>2026-03-22T06:48:24.316Z</time></trkpt><trkpt lat="43.2773759" lon="13.3319769"><ele>149.33333333333334</ele><time>2026-03-22T06:48:25.316Z</time></trkpt><trkpt lat="43.2771937" lon="13.3319544"><ele>148.66666666666669</ele><time>2026-03-22T06:48:26.317Z</time></trkpt><trkpt lat="43.2770032" lon="13.3319017"><ele>148.0</ele><time>2026-03-22T06:48:27.316Z</time></trkpt><trkpt lat="43.2768118" lon="13.3318287"><ele>148.0</ele><time>2026-03-22T06:48:28.316Z</time></trkpt><trkpt lat="43.2766185" lon="13.3317471"><ele>148.0</ele><time>2026-03-22T06:48:29.315Z</time></trkpt><trkpt lat="43.2764235" lon="13.331658"><ele>148.0</ele><time>2026-03-22T06:48:30.316Z</time></trkpt><trkpt lat="43.2762342" lon="13.3315686"><ele>148.66666666666669</ele><time>2026-03-22T06:48:31.317Z</time></trkpt><trkpt lat="43.2760431" lon="13.3314788"><ele>149.33333333333334</ele><time>2026-03-22T06:48:32.316Z</time></trkpt><trkpt lat="43.2758536" lon="13.3313951"><ele>150.0</ele><time>2026-03-22T06:48:33.316Z</time></trkpt><trkpt lat="43.2756637" lon="13.331315"><ele>150.66666666666666</ele><time>2026-03-22T06:48:34.316Z</time></trkpt><trkpt lat="43.2754904" lon="13.3312393"><ele>151.33333333333331</ele><time>2026-03-22T06:48:35.316Z</time></trkpt><trkpt lat="43.2753244" lon="13.3311646"><ele>152.0</ele><time>2026-03-22T06:48:36.317Z</time></trkpt><trkpt lat="43.2751602" lon="13.3310853"><ele>152.0</ele><time>2026-03-22T06:48:37.316Z</time></trkpt><trkpt lat="43.2750106" lon="13.3309672"><ele>152.0</ele><time>2026-03-22T06:48:38.315Z</time></trkpt><trkpt lat="43.2748921" lon="13.3307996"><ele>152.0</ele><time>2026-03-22T06:48:39.316Z</time></trkpt><trkpt lat="43.2747937" lon="13.3306051"><ele>154.0</ele><time>2026-03-22T06:48:40.316Z</time></trkpt><trkpt lat="43.2747008" lon="13.330395"><ele>156.0</ele><time>2026-03-22T06:48:41.316Z</time></trkpt><trkpt lat="43.2746221" lon="13.3301611"><ele>158.0</ele><time>2026-03-22T06:48:42.317Z</time></trkpt><trkpt lat="43.2745478" lon="13.3299257"><ele>157.33333333333331</ele><time>2026-03-22T06:48:43.317Z</time></trkpt><trkpt lat="43.2744665" lon="13.329685"><ele>156.66666666666666</ele><time>2026-03-22T06:48:44.316Z</time></trkpt><trkpt lat="43.2743797" lon="13.3294466"><ele>156.0</ele><time>2026-03-22T06:48:45.316Z</time></trkpt><trkpt lat="43.2743002" lon="13.3292008"><ele>156.0</ele><time>2026-03-22T06:48:46.317Z</time></trkpt><trkpt lat="43.2742217" lon="13.3289471"><ele>156.0</ele><time>2026-03-22T06:48:47.317Z</time></trkpt><trkpt lat="43.2741449" lon="13.3286929"><ele>156.0</ele><time>2026-03-22T06:48:48.315Z</time></trkpt><trkpt lat="43.2740734" lon="13.3284323"><ele>155.0</ele><time>2026-03-22T06:48:49.317Z</time></trkpt><trkpt lat="43.2740064" lon="13.3281676"><ele>154.0</ele><time>2026-03-22T06:48:50.317Z</time></trkpt><trkpt lat="43.2739493" lon="13.327919"><ele>153.0</ele><time>2026-03-22T06:48:51.315Z</time></trkpt><trkpt lat="43.2738899" lon="13.3276748"><ele>153.0</ele><time>2026-03-22T06:48:52.316Z</time></trkpt><trkpt lat="43.2738062" lon="13.327453"><ele>153.0</ele><time>2026-03-22T06:48:53.317Z</time></trkpt><trkpt lat="43.2737101" lon="13.3272398"><ele>153.0</ele><time>2026-03-22T06:48:54.316Z</time></trkpt><trkpt lat="43.2735957" lon="13.3270365"><ele>153.0</ele><time>2026-03-22T06:48:55.317Z</time></trkpt><trkpt lat="43.2734652" lon="13.3268495"><ele>153.0</ele><time>2026-03-22T06:48:56.316Z</time></trkpt><trkpt lat="43.2733104" lon="13.3266697"><ele>153.0</ele><time>2026-03-22T06:48:57.317Z</time></trkpt><trkpt lat="43.2731477" lon="13.3264945"><ele>154.33333333333334</ele><time>2026-03-22T06:48:58.316Z</time></trkpt><trkpt lat="43.2729762" lon="13.3263169"><ele>155.66666666666669</ele><time>2026-03-22T06:48:59.315Z</time></trkpt><trkpt lat="43.2728069" lon="13.3261301"><ele>157.0</ele><time>2026-03-22T06:49:00.316Z</time></trkpt><trkpt lat="43.2726282" lon="13.3259493"><ele>157.0</ele><time>2026-03-22T06:49:01.317Z</time></trkpt><trkpt lat="43.2724462" lon="13.3257623"><ele>157.0</ele><time>2026-03-22T06:49:02.317Z</time></trkpt><trkpt lat="43.2722584" lon="13.325569"><ele>158.0</ele><time>2026-03-22T06:49:03.317Z</time></trkpt><trkpt lat="43.2720682" lon="13.3253696"><ele>159.0</ele><time>2026-03-22T06:49:04.316Z</time></trkpt><trkpt lat="43.2718744" lon="13.3251561"><ele>159.0</ele><time>2026-03-22T06:49:05.315Z</time></trkpt><trkpt lat="43.2716803" lon="13.3249375"><ele>159.0</ele><time>2026-03-22T06:49:06.317Z</time></trkpt><trkpt lat="43.2714878" lon="13.324713"><ele>159.0</ele><time>2026-03-22T06:49:07.316Z</time></trkpt><trkpt lat="43.2712993" lon="13.3244879"><ele>159.0</ele><time>2026-03-22T06:49:08.317Z</time></trkpt><trkpt lat="43.2711095" lon="13.3242697"><ele>159.0</ele><time>2026-03-22T06:49:09.317Z</time></trkpt><trkpt lat="43.2709329" lon="13.32406"><ele>159.0</ele><time>2026-03-22T06:49:10.317Z</time></trkpt><trkpt lat="43.2707704" lon="13.3238646"><ele>159.0</ele><time>2026-03-22T06:49:11.316Z</time></trkpt><trkpt lat="43.2706209" lon="13.3236822"><ele>161.33333333333334</ele><time>2026-03-22T06:49:12.314Z</time></trkpt><trkpt lat="43.2704787" lon="13.3235183"><ele>163.66666666666669</ele><time>2026-03-22T06:49:13.317Z</time></trkpt><trkpt lat="43.2703379" lon="13.3233626"><ele>166.0</ele><time>2026-03-22T06:49:14.315Z</time></trkpt><trkpt lat="43.2701673" lon="13.32327"><ele>166.0</ele><time>2026-03-22T06:49:15.317Z</time></trkpt><trkpt lat="43.2699755" lon="13.3232041"><ele>166.0</ele><time>2026-03-22T06:49:16.315Z</time></trkpt><trkpt lat="43.2697748" lon="13.3231654"><ele>166.0</ele><time>2026-03-22T06:49:17.317Z</time></trkpt><trkpt lat="43.2695801" lon="13.3231251"><ele>166.66666666666669</ele><time>2026-03-22T06:49:18.317Z</time></trkpt><trkpt lat="43.2693869" lon="13.3230654"><ele>167.33333333333334</ele><time>2026-03-22T06:49:19.317Z</time></trkpt><trkpt lat="43.2691928" lon="13.3229782"><ele>168.0</ele><time>2026-03-22T06:49:20.317Z</time></trkpt><trkpt lat="43.269029" lon="13.3228267"><ele>170.66666666666666</ele><time>2026-03-22T06:49:21.317Z</time></trkpt><trkpt lat="43.2688579" lon="13.3226716"><ele>173.33333333333331</ele><time>2026-03-22T06:49:22.316Z</time></trkpt><trkpt lat="43.2686944" lon="13.3225202"><ele>176.0</ele><time>2026-03-22T06:49:23.316Z</time></trkpt><trkpt lat="43.2685357" lon="13.3223691"><ele>175.33333333333331</ele><time>2026-03-22T06:49:24.316Z</time></trkpt><trkpt lat="43.2683869" lon="13.3222305"><ele>174.66666666666666</ele><time>2026-03-22T06:49:25.317Z</time></trkpt><trkpt lat="43.2682321" lon="13.3220904"><ele>174.0</ele><time>2026-03-22T06:49:26.317Z</time></trkpt><trkpt lat="43.2680792" lon="13.3219472"><ele>174.0</ele><time>2026-03-22T06:49:27.316Z</time></trkpt><trkpt lat="43.2679219" lon="13.3218005"><ele>174.0</ele><time>2026-03-22T06:49:28.315Z</time></trkpt><trkpt lat="43.2677679" lon="13.3216527"><ele>174.0</ele><time>2026-03-22T06:49:29.316Z</time></trkpt><trkpt lat="43.2676126" lon="13.321507"><ele>173.33333333333334</ele><time>2026-03-22T06:49:30.317Z</time></trkpt><trkpt lat="43.2674582" lon="13.3213628"><ele>172.66666666666669</ele><time>2026-03-22T06:49:31.316Z</time></trkpt><trkpt lat="43.2673033" lon="13.321213"><ele>172.0</ele><time>2026-03-22T06:49:32.315Z</time></trkpt><trkpt lat="43.267147" lon="13.3210656"><ele>173.66666666666669</ele><time>2026-03-22T06:49:33.317Z</time></trkpt><trkpt lat="43.2669856" lon="13.320918"><ele>175.33333333333334</ele><time>2026-03-22T06:49:34.317Z</time></trkpt><trkpt lat="43.2668242" lon="13.3207621"><ele>177.0</ele><time>2026-03-22T06:49:35.316Z</time></trkpt><trkpt lat="43.2666674" lon="13.3206211"><ele>176.0</ele><time>2026-03-22T06:49:36.317Z</time></trkpt><trkpt lat="43.26651" lon="13.3204731"><ele>175.0</ele><time>2026-03-22T06:49:37.317Z</time></trkpt><trkpt lat="43.2663525" lon="13.3203223"><ele>174.0</ele><time>2026-03-22T06:49:38.315Z</time></trkpt><trkpt lat="43.2661969" lon="13.3201742"><ele>174.0</ele><time>2026-03-22T06:49:39.317Z</time></trkpt><trkpt lat="43.2660442" lon="13.3200247"><ele>174.0</ele><time>2026-03-22T06:49:40.315Z</time></trkpt><trkpt lat="43.2658829" lon="13.3198794"><ele>174.0</ele><time>2026-03-22T06:49:41.316Z</time></trkpt><trkpt lat="43.2657214" lon="13.319728"><ele>174.33333333333334</ele><time>2026-03-22T06:49:42.316Z</time></trkpt><trkpt lat="43.2655543" lon="13.3195763"><ele>174.66666666666669</ele><time>2026-03-22T06:49:43.317Z</time></trkpt><trkpt lat="43.2653901" lon="13.3194237"><ele>175.0</ele><time>2026-03-22T06:49:44.317Z</time></trkpt><trkpt lat="43.2652265" lon="13.3192682"><ele>175.0</ele><time>2026-03-22T06:49:45.317Z</time></trkpt><trkpt lat="43.2650613" lon="13.3191095"><ele>175.0</ele><time>2026-03-22T06:49:46.317Z</time></trkpt><trkpt lat="43.2649032" lon="13.3189532"><ele>175.0</ele><time>2026-03-22T06:49:47.315Z</time></trkpt><trkpt lat="43.2647539" lon="13.3188091"><ele>174.66666666666669</ele><time>2026-03-22T06:49:48.315Z</time></trkpt><trkpt lat="43.2645994" lon="13.3186615"><ele>174.33333333333334</ele><time>2026-03-22T06:49:49.317Z</time></trkpt><trkpt lat="43.2644387" lon="13.3185053"><ele>174.0</ele><time>2026-03-22T06:49:50.317Z</time></trkpt><trkpt lat="43.2642716" lon="13.3183364"><ele>174.0</ele><time>2026-03-22T06:49:51.317Z</time></trkpt><trkpt lat="43.2640996" lon="13.3181566"><ele>174.0</ele><time>2026-03-22T06:49:52.317Z</time></trkpt><trkpt lat="43.2639227" lon="13.317967"><ele>174.0</ele><time>2026-03-22T06:49:53.317Z</time></trkpt><trkpt lat="43.263739" lon="13.3177708"><ele>171.5</ele><time>2026-03-22T06:49:54.317Z</time></trkpt><trkpt lat="43.2635547" lon="13.3175695"><ele>169.0</ele><time>2026-03-22T06:49:55.316Z</time></trkpt><trkpt lat="43.2633721" lon="13.3173742"><ele>169.5</ele><time>2026-03-22T06:49:56.317Z</time></trkpt><trkpt lat="43.2631849" lon="13.3171749"><ele>170.0</ele><time>2026-03-22T06:49:57.317Z</time></trkpt><trkpt lat="43.2630083" lon="13.3169776"><ele>170.0</ele><time>2026-03-22T06:49:58.316Z</time></trkpt><trkpt lat="43.2628412" lon="13.3167901"><ele>170.0</ele><time>2026-03-22T06:49:59.317Z</time></trkpt><trkpt lat="43.2626765" lon="13.316608"><ele>170.0</ele><time>2026-03-22T06:50:00.315Z</time></trkpt><trkpt lat="43.2625128" lon="13.3164238"><ele>170.66666666666666</ele><time>2026-03-22T06:50:01.316Z</time></trkpt><trkpt lat="43.2623511" lon="13.3162473"><ele>171.33333333333334</ele><time>2026-03-22T06:50:02.316Z</time></trkpt><trkpt lat="43.2621914" lon="13.3160672"><ele>172.0</ele><time>2026-03-22T06:50:03.316Z</time></trkpt><trkpt lat="43.2620338" lon="13.3158903"><ele>172.33333333333334</ele><time>2026-03-22T06:50:04.317Z</time></trkpt><trkpt lat="43.2618813" lon="13.3157194"><ele>172.66666666666666</ele><time>2026-03-22T06:50:05.317Z</time></trkpt><trkpt lat="43.2617361" lon="13.3155592"><ele>173.0</ele><time>2026-03-22T06:50:06.315Z</time></trkpt><trkpt lat="43.2615913" lon="13.3154049"><ele>172.66666666666666</ele><time>2026-03-22T06:50:07.317Z</time></trkpt><trkpt lat="43.2614324" lon="13.3152795"><ele>172.33333333333334</ele><time>2026-03-22T06:50:08.316Z</time></trkpt><trkpt lat="43.2612607" lon="13.3151878"><ele>172.0</ele><time>2026-03-22T06:50:09.317Z</time></trkpt><trkpt lat="43.2610743" lon="13.315129"><ele>172.0</ele><time>2026-03-22T06:50:10.317Z</time></trkpt><trkpt lat="43.2608714" lon="13.31509"><ele>172.0</ele><time>2026-03-22T06:50:11.317Z</time></trkpt><trkpt lat="43.2606748" lon="13.3150516"><ele>172.0</ele><time>2026-03-22T06:50:12.315Z</time></trkpt><trkpt lat="43.2604792" lon="13.3150159"><ele>173.66666666666669</ele><time>2026-03-22T06:50:13.316Z</time></trkpt><trkpt lat="43.260284" lon="13.3149815"><ele>175.33333333333334</ele><time>2026-03-22T06:50:14.317Z</time></trkpt><trkpt lat="43.2600901" lon="13.3149383"><ele>177.0</ele><time>2026-03-22T06:50:15.317Z</time></trkpt><trkpt lat="43.2599093" lon="13.3149021"><ele>176.5</ele><time>2026-03-22T06:50:16.315Z</time></trkpt><trkpt lat="43.2597495" lon="13.3148838"><ele>176.0</ele><time>2026-03-22T06:50:17.316Z</time></trkpt><trkpt lat="43.2596035" lon="13.3148953"><ele>175.5</ele><time>2026-03-22T06:50:18.317Z</time></trkpt><trkpt lat="43.2594723" lon="13.3149463"><ele>175.0</ele><time>2026-03-22T06:50:19.317Z</time></trkpt><trkpt lat="43.2593515" lon="13.3150439"><ele>175.0</ele><time>2026-03-22T06:50:20.314Z</time></trkpt><trkpt lat="43.2592469" lon="13.3151767"><ele>175.0</ele><time>2026-03-22T06:50:21.316Z</time></trkpt><trkpt lat="43.2591884" lon="13.3153634"><ele>175.0</ele><time>2026-03-22T06:50:22.315Z</time></trkpt><trkpt lat="43.2591482" lon="13.3155593"><ele>175.0</ele><time>2026-03-22T06:50:23.316Z</time></trkpt><trkpt lat="43.2591173" lon="13.3157592"><ele>176.66666666666669</ele><time>2026-03-22T06:50:24.316Z</time></trkpt><trkpt lat="43.2590863" lon="13.3159695"><ele>178.33333333333334</ele><time>2026-03-22T06:50:25.317Z</time></trkpt><trkpt lat="43.2590364" lon="13.3161833"><ele>180.0</ele><time>2026-03-22T06:50:26.316Z</time></trkpt><trkpt lat="43.2589778" lon="13.3163978"><ele>180.0</ele><time>2026-03-22T06:50:27.317Z</time></trkpt><trkpt lat="43.2589066" lon="13.3166063"><ele>180.0</ele><time>2026-03-22T06:50:28.316Z</time></trkpt><trkpt lat="43.2588217" lon="13.3168055"><ele>180.0</ele><time>2026-03-22T06:50:29.317Z</time></trkpt><trkpt lat="43.2587162" lon="13.3169892"><ele>180.0</ele><time>2026-03-22T06:50:30.316Z</time></trkpt><trkpt lat="43.2585912" lon="13.3171564"><ele>180.0</ele><time>2026-03-22T06:50:31.316Z</time></trkpt><trkpt lat="43.2584569" lon="13.3173126"><ele>180.0</ele><time>2026-03-22T06:50:32.316Z</time></trkpt><trkpt lat="43.2583145" lon="13.3174562"><ele>181.66666666666666</ele><time>2026-03-22T06:50:33.317Z</time></trkpt><trkpt lat="43.2581605" lon="13.3175843"><ele>183.33333333333331</ele><time>2026-03-22T06:50:34.317Z</time></trkpt><trkpt lat="43.257999" lon="13.3177071"><ele>185.0</ele><time>2026-03-22T06:50:35.315Z</time></trkpt><trkpt lat="43.2578372" lon="13.317833"><ele>185.0</ele><time>2026-03-22T06:50:36.316Z</time></trkpt><trkpt lat="43.2576744" lon="13.3179597"><ele>185.0</ele><time>2026-03-22T06:50:37.317Z</time></trkpt><trkpt lat="43.25751" lon="13.3180897"><ele>185.0</ele><time>2026-03-22T06:50:38.317Z</time></trkpt><trkpt lat="43.2573429" lon="13.3182181"><ele>186.33333333333331</ele><time>2026-03-22T06:50:39.316Z</time></trkpt><trkpt lat="43.2571736" lon="13.318352"><ele>187.66666666666666</ele><time>2026-03-22T06:50:40.315Z</time></trkpt><trkpt lat="43.2570047" lon="13.3184888"><ele>189.0</ele><time>2026-03-22T06:50:41.315Z</time></trkpt><trkpt lat="43.2568378" lon="13.3186174"><ele>189.0</ele><time>2026-03-22T06:50:42.316Z</time></trkpt><trkpt lat="43.2566793" lon="13.3187327"><ele>189.0</ele><time>2026-03-22T06:50:43.317Z</time></trkpt><trkpt lat="43.2565138" lon="13.3188101"><ele>189.0</ele><time>2026-03-22T06:50:44.317Z</time></trkpt><trkpt lat="43.2563383" lon="13.3188584"><ele>189.33333333333334</ele><time>2026-03-22T06:50:45.317Z</time></trkpt><trkpt lat="43.2561643" lon="13.3188811"><ele>189.66666666666669</ele><time>2026-03-22T06:50:46.316Z</time></trkpt><trkpt lat="43.2559872" lon="13.3188906"><ele>190.0</ele><time>2026-03-22T06:50:47.316Z</time></trkpt><trkpt lat="43.2558174" lon="13.3188979"><ele>192.0</ele><time>2026-03-22T06:50:48.316Z</time></trkpt><trkpt lat="43.2556428" lon="13.3189215"><ele>194.0</ele><time>2026-03-22T06:50:49.316Z</time></trkpt><trkpt lat="43.2554654" lon="13.3189703"><ele>196.0</ele><time>2026-03-22T06:50:50.317Z</time></trkpt><trkpt lat="43.2552899" lon="13.3190565"><ele>197.0</ele><time>2026-03-22T06:50:51.317Z</time></trkpt><trkpt lat="43.2551173" lon="13.319161"><ele>198.0</ele><time>2026-03-22T06:50:52.317Z</time></trkpt><trkpt lat="43.2549563" lon="13.3192638"><ele>199.0</ele><time>2026-03-22T06:50:53.316Z</time></trkpt><trkpt lat="43.2547939" lon="13.3193488"><ele>199.33333333333331</ele><time>2026-03-22T06:50:54.317Z</time></trkpt><trkpt lat="43.2546347" lon="13.3194209"><ele>199.66666666666669</ele><time>2026-03-22T06:50:55.317Z</time></trkpt><trkpt lat="43.2544753" lon="13.3194466"><ele>200.0</ele><time>2026-03-22T06:50:56.316Z</time></trkpt><trkpt lat="43.2543154" lon="13.3194072"><ele>200.0</ele><time>2026-03-22T06:50:57.317Z</time></trkpt><trkpt lat="43.2541572" lon="13.3193309"><ele>200.0</ele><time>2026-03-22T06:50:58.316Z</time></trkpt><trkpt lat="43.2540078" lon="13.319239"><ele>200.0</ele><time>2026-03-22T06:50:59.316Z</time></trkpt><trkpt lat="43.2538716" lon="13.319142"><ele>201.25</ele><time>2026-03-22T06:51:00.317Z</time></trkpt><trkpt lat="43.2537442" lon="13.3190399"><ele>202.5</ele><time>2026-03-22T06:51:01.316Z</time></trkpt><trkpt lat="43.2536378" lon="13.3189176"><ele>203.75</ele><time>2026-03-22T06:51:02.317Z</time></trkpt><trkpt lat="43.2535555" lon="13.3187684"><ele>205.0</ele><time>2026-03-22T06:51:03.317Z</time></trkpt><trkpt lat="43.2535033" lon="13.318605"><ele>205.0</ele><time>2026-03-22T06:51:04.316Z</time></trkpt><trkpt lat="43.2534643" lon="13.3184314"><ele>205.0</ele><time>2026-03-22T06:51:05.317Z</time></trkpt><trkpt lat="43.2534257" lon="13.3182552"><ele>205.0</ele><time>2026-03-22T06:51:06.316Z</time></trkpt><trkpt lat="43.2533712" lon="13.3180755"><ele>205.0</ele><time>2026-03-22T06:51:07.316Z</time></trkpt><trkpt lat="43.2532992" lon="13.317913"><ele>205.0</ele><time>2026-03-22T06:51:08.316Z</time></trkpt><trkpt lat="43.2532121" lon="13.3177892"><ele>205.0</ele><time>2026-03-22T06:51:09.317Z</time></trkpt><trkpt lat="43.2531065" lon="13.3177039"><ele>205.0</ele><time>2026-03-22T06:51:10.316Z</time></trkpt><trkpt lat="43.2529899" lon="13.3176677"><ele>205.0</ele><time>2026-03-22T06:51:11.316Z</time></trkpt><trkpt lat="43.2528768" lon="13.3176748"><ele>205.0</ele><time>2026-03-22T06:51:12.316Z</time></trkpt><trkpt lat="43.2527676" lon="13.3177724"><ele>205.0</ele><time>2026-03-22T06:51:13.317Z</time></trkpt><trkpt lat="43.2526638" lon="13.3179171"><ele>205.0</ele><time>2026-03-22T06:51:14.317Z</time></trkpt><trkpt lat="43.2525645" lon="13.3181025"><ele>205.0</ele><time>2026-03-22T06:51:15.317Z</time></trkpt><trkpt lat="43.2524312" lon="13.318301"><ele>206.0</ele><time>2026-03-22T06:51:16.316Z</time></trkpt><trkpt lat="43.2522756" lon="13.3185064"><ele>207.0</ele><time>2026-03-22T06:51:17.316Z</time></trkpt><trkpt lat="43.252132" lon="13.3187184"><ele>208.0</ele><time>2026-03-22T06:51:18.317Z</time></trkpt><trkpt lat="43.2520134" lon="13.3189503"><ele>210.0</ele><time>2026-03-22T06:51:19.316Z</time></trkpt><trkpt lat="43.2519194" lon="13.3191758"><ele>212.0</ele><time>2026-03-22T06:51:20.316Z</time></trkpt><trkpt lat="43.251834" lon="13.3193695"><ele>214.0</ele><time>2026-03-22T06:51:21.316Z</time></trkpt><trkpt lat="43.2517381" lon="13.3195407"><ele>214.0</ele><time>2026-03-22T06:51:22.317Z</time></trkpt><trkpt lat="43.2516429" lon="13.3196675"><ele>213.99999999999997</ele><time>2026-03-22T06:51:23.317Z</time></trkpt><trkpt lat="43.251547" lon="13.3197363"><ele>213.99999999999997</ele><time>2026-03-22T06:51:24.316Z</time></trkpt><trkpt lat="43.2514475" lon="13.3197357"><ele>214.0</ele><time>2026-03-22T06:51:25.315Z</time></trkpt><trkpt lat="43.2513497" lon="13.3196922"><ele>214.0</ele><time>2026-03-22T06:51:26.316Z</time></trkpt><trkpt lat="43.2512566" lon="13.3195612"><ele>216.66666666666666</ele><time>2026-03-22T06:51:27.317Z</time></trkpt><trkpt lat="43.2511624" lon="13.3194038"><ele>219.33333333333331</ele><time>2026-03-22T06:51:28.317Z</time></trkpt><trkpt lat="43.251062" lon="13.3192174"><ele>222.0</ele><time>2026-03-22T06:51:29.317Z</time></trkpt><trkpt lat="43.2509514" lon="13.3190345"><ele>221.25</ele><time>2026-03-22T06:51:30.317Z</time></trkpt><trkpt lat="43.2508457" lon="13.318871"><ele>220.5</ele><time>2026-03-22T06:51:31.316Z</time></trkpt><trkpt lat="43.2507453" lon="13.3187365"><ele>219.75</ele><time>2026-03-22T06:51:32.316Z</time></trkpt><trkpt lat="43.2506299" lon="13.3186451"><ele>219.0</ele><time>2026-03-22T06:51:33.316Z</time></trkpt><trkpt lat="43.2505071" lon="13.3185876"><ele>219.0</ele><time>2026-03-22T06:51:34.317Z</time></trkpt><trkpt lat="43.250363" lon="13.3186126"><ele>219.0</ele><time>2026-03-22T06:51:35.316Z</time></trkpt><trkpt lat="43.2502155" lon="13.3186758"><ele>219.0</ele><time>2026-03-22T06:51:36.316Z</time></trkpt><trkpt lat="43.2500584" lon="13.31877"><ele>219.0</ele><time>2026-03-22T06:51:37.318Z</time></trkpt><trkpt lat="43.249906" lon="13.3188585"><ele>219.0</ele><time>2026-03-22T06:51:38.317Z</time></trkpt><trkpt lat="43.2497508" lon="13.318923"><ele>219.0</ele><time>2026-03-22T06:51:39.318Z</time></trkpt><trkpt lat="43.2496159" lon="13.3189072"><ele>220.0</ele><time>2026-03-22T06:51:40.316Z</time></trkpt><trkpt lat="43.2494665" lon="13.3188639"><ele>221.0</ele><time>2026-03-22T06:51:41.316Z</time></trkpt><trkpt lat="43.2493097" lon="13.3187687"><ele>222.0</ele><time>2026-03-22T06:51:42.317Z</time></trkpt><trkpt lat="43.2491499" lon="13.3186355"><ele>222.0</ele><time>2026-03-22T06:51:43.317Z</time></trkpt><trkpt lat="43.2489918" lon="13.3185127"><ele>222.0</ele><time>2026-03-22T06:51:44.317Z</time></trkpt><trkpt lat="43.248823" lon="13.3183901"><ele>222.0</ele><time>2026-03-22T06:51:45.315Z</time></trkpt><trkpt lat="43.2486495" lon="13.3182872"><ele>225.0</ele><time>2026-03-22T06:51:46.316Z</time></trkpt><trkpt lat="43.2484709" lon="13.3181928"><ele>228.0</ele><time>2026-03-22T06:51:47.317Z</time></trkpt><trkpt lat="43.248278" lon="13.3181165"><ele>231.0</ele><time>2026-03-22T06:51:48.317Z</time></trkpt><trkpt lat="43.2480911" lon="13.3180404"><ele>231.33333333333331</ele><time>2026-03-22T06:51:49.317Z</time></trkpt><trkpt lat="43.2479061" lon="13.3179727"><ele>231.66666666666666</ele><time>2026-03-22T06:51:50.317Z</time></trkpt><trkpt lat="43.2477456" lon="13.3179115"><ele>232.0</ele><time>2026-03-22T06:51:51.317Z</time></trkpt><trkpt lat="43.2476065" lon="13.3178574"><ele>232.0</ele><time>2026-03-22T06:51:52.317Z</time></trkpt><trkpt lat="43.247471" lon="13.3178066"><ele>232.0</ele><time>2026-03-22T06:51:53.317Z</time></trkpt><trkpt lat="43.2473238" lon="13.3177408"><ele>232.0</ele><time>2026-03-22T06:51:54.318Z</time></trkpt><trkpt lat="43.2471715" lon="13.3176664"><ele>232.0</ele><time>2026-03-22T06:51:55.318Z</time></trkpt><trkpt lat="43.2470118" lon="13.3175762"><ele>232.0</ele><time>2026-03-22T06:51:56.317Z</time></trkpt><trkpt lat="43.2468423" lon="13.3174607"><ele>232.0</ele><time>2026-03-22T06:51:57.316Z</time></trkpt><trkpt lat="43.2466646" lon="13.3173417"><ele>233.0</ele><time>2026-03-22T06:51:58.316Z</time></trkpt><trkpt lat="43.2464867" lon="13.3172144"><ele>234.0</ele><time>2026-03-22T06:51:59.317Z</time></trkpt><trkpt lat="43.2463067" lon="13.3170896"><ele>235.0</ele><time>2026-03-22T06:52:00.317Z</time></trkpt><trkpt lat="43.2461273" lon="13.3169753"><ele>235.0</ele><time>2026-03-22T06:52:01.317Z</time></trkpt><trkpt lat="43.245947" lon="13.3168579"><ele>235.0</ele><time>2026-03-22T06:52:02.318Z</time></trkpt><trkpt lat="43.2457736" lon="13.3167404"><ele>235.0</ele><time>2026-03-22T06:52:03.316Z</time></trkpt><trkpt lat="43.2456073" lon="13.3166371"><ele>235.0</ele><time>2026-03-22T06:52:04.317Z</time></trkpt><trkpt lat="43.2454387" lon="13.3165597"><ele>235.0</ele><time>2026-03-22T06:52:05.317Z</time></trkpt><trkpt lat="43.2452817" lon="13.3165268"><ele>235.0</ele><time>2026-03-22T06:52:06.317Z</time></trkpt><trkpt lat="43.2451277" lon="13.3165508"><ele>235.0</ele><time>2026-03-22T06:52:07.317Z</time></trkpt><trkpt lat="43.2449959" lon="13.3166327"><ele>235.0</ele><time>2026-03-22T06:52:08.316Z</time></trkpt><trkpt lat="43.244879" lon="13.3167767"><ele>235.0</ele><time>2026-03-22T06:52:09.317Z</time></trkpt><trkpt lat="43.2447634" lon="13.3169567"><ele>235.33333333333331</ele><time>2026-03-22T06:52:10.316Z</time></trkpt><trkpt lat="43.2446523" lon="13.3171737"><ele>235.66666666666669</ele><time>2026-03-22T06:52:11.318Z</time></trkpt><trkpt lat="43.2445373" lon="13.3173915"><ele>236.0</ele><time>2026-03-22T06:52:12.317Z</time></trkpt><trkpt lat="43.2444289" lon="13.3176045"><ele>236.0</ele><time>2026-03-22T06:52:13.317Z</time></trkpt><trkpt lat="43.2443287" lon="13.3178065"><ele>236.0</ele><time>2026-03-22T06:52:14.316Z</time></trkpt><trkpt lat="43.244232" lon="13.3180006"><ele>236.0</ele><time>2026-03-22T06:52:15.316Z</time></trkpt><trkpt lat="43.244133" lon="13.3181688"><ele>236.0</ele><time>2026-03-22T06:52:16.317Z</time></trkpt><trkpt lat="43.2440302" lon="13.318309"><ele>236.0</ele><time>2026-03-22T06:52:17.316Z</time></trkpt><trkpt lat="43.2439152" lon="13.3184357"><ele>236.0</ele><time>2026-03-22T06:52:18.316Z</time></trkpt><trkpt lat="43.2437768" lon="13.3185293"><ele>236.0</ele><time>2026-03-22T06:52:19.317Z</time></trkpt><trkpt lat="43.2436413" lon="13.318608"><ele>236.0</ele><time>2026-03-22T06:52:20.317Z</time></trkpt><trkpt lat="43.2435024" lon="13.3186562"><ele>236.0</ele><time>2026-03-22T06:52:21.316Z</time></trkpt><trkpt lat="43.2433611" lon="13.3186752"><ele>236.0</ele><time>2026-03-22T06:52:22.317Z</time></trkpt><trkpt lat="43.2432276" lon="13.3186398"><ele>236.0</ele><time>2026-03-22T06:52:23.316Z</time></trkpt><trkpt lat="43.2430942" lon="13.3185631"><ele>233.0</ele><time>2026-03-22T06:52:24.316Z</time></trkpt><trkpt lat="43.2429621" lon="13.3184303"><ele>230.0</ele><time>2026-03-22T06:52:25.316Z</time></trkpt><trkpt lat="43.2428366" lon="13.3182687"><ele>227.0</ele><time>2026-03-22T06:52:26.316Z</time></trkpt><trkpt lat="43.2427055" lon="13.31809"><ele>229.0</ele><time>2026-03-22T06:52:27.317Z</time></trkpt><trkpt lat="43.2425695" lon="13.3178943"><ele>231.0</ele><time>2026-03-22T06:52:28.317Z</time></trkpt><trkpt lat="43.2424286" lon="13.3176915"><ele>233.0</ele><time>2026-03-22T06:52:29.316Z</time></trkpt><trkpt lat="43.2422839" lon="13.3174895"><ele>232.0</ele><time>2026-03-22T06:52:30.317Z</time></trkpt><trkpt lat="43.2421386" lon="13.3172767"><ele>231.0</ele><time>2026-03-22T06:52:31.317Z</time></trkpt><trkpt lat="43.242005" lon="13.3170768"><ele>230.0</ele><time>2026-03-22T06:52:32.316Z</time></trkpt><trkpt lat="43.2418789" lon="13.3168892"><ele>230.0</ele><time>2026-03-22T06:52:33.316Z</time></trkpt><trkpt lat="43.2417671" lon="13.3167215"><ele>230.0</ele><time>2026-03-22T06:52:34.316Z</time></trkpt><trkpt lat="43.2416538" lon="13.3165774"><ele>230.0</ele><time>2026-03-22T06:52:35.317Z</time></trkpt><trkpt lat="43.2415369" lon="13.3164569"><ele>229.75</ele><time>2026-03-22T06:52:36.317Z</time></trkpt><trkpt lat="43.2414071" lon="13.3163968"><ele>229.5</ele><time>2026-03-22T06:52:37.317Z</time></trkpt><trkpt lat="43.2412779" lon="13.3163818"><ele>229.25</ele><time>2026-03-22T06:52:38.316Z</time></trkpt><trkpt lat="43.2411524" lon="13.3164227"><ele>229.0</ele><time>2026-03-22T06:52:39.316Z</time></trkpt><trkpt lat="43.2410512" lon="13.316508"><ele>229.0</ele><time>2026-03-22T06:52:40.317Z</time></trkpt><trkpt lat="43.2409742" lon="13.3166449"><ele>229.0</ele><time>2026-03-22T06:52:41.317Z</time></trkpt><trkpt lat="43.2409372" lon="13.3168193"><ele>229.0</ele><time>2026-03-22T06:52:42.317Z</time></trkpt><trkpt lat="43.2409298" lon="13.3170338"><ele>229.0</ele><time>2026-03-22T06:52:43.317Z</time></trkpt><trkpt lat="43.240936" lon="13.3172825"><ele>228.0</ele><time>2026-03-22T06:52:44.316Z</time></trkpt><trkpt lat="43.2409451" lon="13.3175454"><ele>227.0</ele><time>2026-03-22T06:52:45.317Z</time></trkpt><trkpt lat="43.2409558" lon="13.3178246"><ele>226.0</ele><time>2026-03-22T06:52:46.317Z</time></trkpt><trkpt lat="43.2409568" lon="13.3181032"><ele>226.0</ele><time>2026-03-22T06:52:47.316Z</time></trkpt><trkpt lat="43.2409558" lon="13.3183652"><ele>226.0</ele><time>2026-03-22T06:52:48.316Z</time></trkpt><trkpt lat="43.2409452" lon="13.3185992"><ele>226.0</ele><time>2026-03-22T06:52:49.317Z</time></trkpt><trkpt lat="43.2409075" lon="13.3188169"><ele>224.66666666666666</ele><time>2026-03-22T06:52:50.317Z</time></trkpt><trkpt lat="43.2408466" lon="13.3190073"><ele>223.33333333333331</ele><time>2026-03-22T06:52:51.317Z</time></trkpt><trkpt lat="43.2407638" lon="13.3191831"><ele>222.0</ele><time>2026-03-22T06:52:52.317Z</time></trkpt><trkpt lat="43.2406299" lon="13.3193092"><ele>224.66666666666669</ele><time>2026-03-22T06:52:53.317Z</time></trkpt><trkpt lat="43.2404809" lon="13.3194178"><ele>227.33333333333334</ele><time>2026-03-22T06:52:54.317Z</time></trkpt><trkpt lat="43.2403034" lon="13.319527"><ele>230.0</ele><time>2026-03-22T06:52:55.316Z</time></trkpt><trkpt lat="43.2401141" lon="13.3196464"><ele>229.0</ele><time>2026-03-22T06:52:56.318Z</time></trkpt><trkpt lat="43.2399179" lon="13.3197694"><ele>228.0</ele><time>2026-03-22T06:52:57.317Z</time></trkpt><trkpt lat="43.2397249" lon="13.3198985"><ele>227.0</ele><time>2026-03-22T06:52:58.316Z</time></trkpt><trkpt lat="43.2395247" lon="13.3200297"><ele>227.0</ele><time>2026-03-22T06:52:59.317Z</time></trkpt><trkpt lat="43.2393241" lon="13.3201596"><ele>227.0</ele><time>2026-03-22T06:53:00.317Z</time></trkpt><trkpt lat="43.2391247" lon="13.3202828"><ele>227.0</ele><time>2026-03-22T06:53:01.317Z</time></trkpt><trkpt lat="43.238929" lon="13.3203968"><ele>227.66666666666669</ele><time>2026-03-22T06:53:02.316Z</time></trkpt><trkpt lat="43.2387358" lon="13.3204878"><ele>228.33333333333331</ele><time>2026-03-22T06:53:03.318Z</time></trkpt><trkpt lat="43.2385445" lon="13.3205096"><ele>229.0</ele><time>2026-03-22T06:53:04.318Z</time></trkpt><trkpt lat="43.2383512" lon="13.3204948"><ele>229.0</ele><time>2026-03-22T06:53:05.317Z</time></trkpt><trkpt lat="43.2381498" lon="13.3204514"><ele>229.0</ele><time>2026-03-22T06:53:06.317Z</time></trkpt><trkpt lat="43.2379832" lon="13.3203619"><ele>229.0</ele><time>2026-03-22T06:53:07.317Z</time></trkpt><trkpt lat="43.237823" lon="13.3202917"><ele>227.0</ele><time>2026-03-22T06:53:08.316Z</time></trkpt><trkpt lat="43.2376808" lon="13.3202537"><ele>225.0</ele><time>2026-03-22T06:53:09.317Z</time></trkpt><trkpt lat="43.237552" lon="13.3202559"><ele>223.0</ele><time>2026-03-22T06:53:10.315Z</time></trkpt><trkpt lat="43.2374353" lon="13.3203073"><ele>221.0</ele><time>2026-03-22T06:53:11.316Z</time></trkpt><trkpt lat="43.2373364" lon="13.3204081"><ele>222.33333333333334</ele><time>2026-03-22T06:53:12.317Z</time></trkpt><trkpt lat="43.2372386" lon="13.3205629"><ele>223.66666666666669</ele><time>2026-03-22T06:53:13.317Z</time></trkpt><trkpt lat="43.2371299" lon="13.3207548"><ele>225.0</ele><time>2026-03-22T06:53:14.316Z</time></trkpt><trkpt lat="43.237009" lon="13.3209647"><ele>225.0</ele><time>2026-03-22T06:53:15.317Z</time></trkpt><trkpt lat="43.2368739" lon="13.3211835"><ele>225.0</ele><time>2026-03-22T06:53:16.316Z</time></trkpt><trkpt lat="43.2367305" lon="13.321411"><ele>225.0</ele><time>2026-03-22T06:53:17.316Z</time></trkpt><trkpt lat="43.2365912" lon="13.3216374"><ele>225.0</ele><time>2026-03-22T06:53:18.317Z</time></trkpt><trkpt lat="43.2364478" lon="13.3218594"><ele>225.0</ele><time>2026-03-22T06:53:19.318Z</time></trkpt><trkpt lat="43.2363057" lon="13.3220735"><ele>225.0</ele><time>2026-03-22T06:53:20.318Z</time></trkpt><trkpt lat="43.2361474" lon="13.3222761"><ele>222.33333333333331</ele><time>2026-03-22T06:53:21.317Z</time></trkpt><trkpt lat="43.2359873" lon="13.3224873"><ele>219.66666666666666</ele><time>2026-03-22T06:53:22.317Z</time></trkpt><trkpt lat="43.2358282" lon="13.3227052"><ele>217.0</ele><time>2026-03-22T06:53:23.316Z</time></trkpt><trkpt lat="43.2356628" lon="13.3229228"><ele>216.5</ele><time>2026-03-22T06:53:24.317Z</time></trkpt><trkpt lat="43.235496" lon="13.3231351"><ele>216.0</ele><time>2026-03-22T06:53:25.316Z</time></trkpt><trkpt lat="43.2353298" lon="13.3233597"><ele>216.0</ele><time>2026-03-22T06:53:26.317Z</time></trkpt><trkpt lat="43.2351577" lon="13.3235803"><ele>216.0</ele><time>2026-03-22T06:53:27.316Z</time></trkpt><trkpt lat="43.2349881" lon="13.3237942"><ele>215.5</ele><time>2026-03-22T06:53:28.318Z</time></trkpt><trkpt lat="43.2348141" lon="13.3240108"><ele>215.0</ele><time>2026-03-22T06:53:29.317Z</time></trkpt><trkpt lat="43.2346459" lon="13.324223"><ele>215.0</ele><time>2026-03-22T06:53:30.316Z</time></trkpt><trkpt lat="43.2344786" lon="13.3244353"><ele>215.0</ele><time>2026-03-22T06:53:31.317Z</time></trkpt><trkpt lat="43.2343145" lon="13.3246484"><ele>214.0</ele><time>2026-03-22T06:53:32.316Z</time></trkpt><trkpt lat="43.2341565" lon="13.324855"><ele>213.0</ele><time>2026-03-22T06:53:33.317Z</time></trkpt><trkpt lat="43.2339979" lon="13.325065"><ele>212.0</ele><time>2026-03-22T06:53:34.316Z</time></trkpt><trkpt lat="43.2338369" lon="13.3252628"><ele>212.0</ele><time>2026-03-22T06:53:35.317Z</time></trkpt><trkpt lat="43.2336784" lon="13.3254411"><ele>212.0</ele><time>2026-03-22T06:53:36.317Z</time></trkpt><trkpt lat="43.2335116" lon="13.325595"><ele>212.0</ele><time>2026-03-22T06:53:37.316Z</time></trkpt><trkpt lat="43.2333405" lon="13.3257175"><ele>211.33333333333334</ele><time>2026-03-22T06:53:38.317Z</time></trkpt><trkpt lat="43.2331699" lon="13.3258081"><ele>210.66666666666669</ele><time>2026-03-22T06:53:39.317Z</time></trkpt><trkpt lat="43.2329877" lon="13.325877"><ele>210.0</ele><time>2026-03-22T06:53:40.317Z</time></trkpt><trkpt lat="43.2327971" lon="13.3259269"><ele>210.0</ele><time>2026-03-22T06:53:41.316Z</time></trkpt><trkpt lat="43.232605" lon="13.3259492"><ele>210.0</ele><time>2026-03-22T06:53:42.316Z</time></trkpt><trkpt lat="43.2324143" lon="13.3259431"><ele>210.0</ele><time>2026-03-22T06:53:43.317Z</time></trkpt><trkpt lat="43.2322251" lon="13.3259078"><ele>208.33333333333331</ele><time>2026-03-22T06:53:44.316Z</time></trkpt><trkpt lat="43.2320427" lon="13.325844"><ele>206.66666666666666</ele><time>2026-03-22T06:53:45.318Z</time></trkpt><trkpt lat="43.2318682" lon="13.3257508"><ele>205.0</ele><time>2026-03-22T06:53:46.317Z</time></trkpt><trkpt lat="43.2316951" lon="13.3256404"><ele>204.0</ele><time>2026-03-22T06:53:47.317Z</time></trkpt><trkpt lat="43.2315274" lon="13.3254875"><ele>203.0</ele><time>2026-03-22T06:53:48.317Z</time></trkpt><trkpt lat="43.2313492" lon="13.3253158"><ele>202.0</ele><time>2026-03-22T06:53:49.317Z</time></trkpt><trkpt lat="43.2311681" lon="13.3251283"><ele>202.0</ele><time>2026-03-22T06:53:50.317Z</time></trkpt><trkpt lat="43.2309819" lon="13.3249341"><ele>202.0</ele><time>2026-03-22T06:53:51.317Z</time></trkpt><trkpt lat="43.2307939" lon="13.3247431"><ele>201.0</ele><time>2026-03-22T06:53:52.316Z</time></trkpt><trkpt lat="43.2306077" lon="13.3245439"><ele>200.0</ele><time>2026-03-22T06:53:53.317Z</time></trkpt><trkpt lat="43.230415" lon="13.3243502"><ele>200.0</ele><time>2026-03-22T06:53:54.317Z</time></trkpt><trkpt lat="43.2302223" lon="13.3241466"><ele>200.0</ele><time>2026-03-22T06:53:55.318Z</time></trkpt><trkpt lat="43.2300272" lon="13.3239446"><ele>199.5</ele><time>2026-03-22T06:53:56.317Z</time></trkpt><trkpt lat="43.2298304" lon="13.323744"><ele>199.0</ele><time>2026-03-22T06:53:57.316Z</time></trkpt><trkpt lat="43.229629" lon="13.3235305"><ele>199.0</ele><time>2026-03-22T06:53:58.316Z</time></trkpt><trkpt lat="43.229428" lon="13.3233185"><ele>199.0</ele><time>2026-03-22T06:53:59.318Z</time></trkpt><trkpt lat="43.2292237" lon="13.3231236"><ele>199.0</ele><time>2026-03-22T06:54:00.316Z</time></trkpt><trkpt lat="43.2290176" lon="13.3229352"><ele>199.0</ele><time>2026-03-22T06:54:01.317Z</time></trkpt><trkpt lat="43.2288028" lon="13.3227735"><ele>199.0</ele><time>2026-03-22T06:54:02.316Z</time></trkpt><trkpt lat="43.2285794" lon="13.3226114"><ele>199.0</ele><time>2026-03-22T06:54:03.316Z</time></trkpt><trkpt lat="43.2283588" lon="13.3224554"><ele>199.0</ele><time>2026-03-22T06:54:04.318Z</time></trkpt><trkpt lat="43.2281396" lon="13.3222864"><ele>199.0</ele><time>2026-03-22T06:54:05.317Z</time></trkpt><trkpt lat="43.2279079" lon="13.3221257"><ele>199.0</ele><time>2026-03-22T06:54:06.317Z</time></trkpt><trkpt lat="43.2276789" lon="13.3219663"><ele>199.0</ele><time>2026-03-22T06:54:07.317Z</time></trkpt><trkpt lat="43.2274544" lon="13.3218103"><ele>200.0</ele><time>2026-03-22T06:54:08.317Z</time></trkpt><trkpt lat="43.2272328" lon="13.321657"><ele>201.0</ele><time>2026-03-22T06:54:09.317Z</time></trkpt><trkpt lat="43.22702" lon="13.3215051"><ele>200.5</ele><time>2026-03-22T06:54:10.318Z</time></trkpt><trkpt lat="43.2268088" lon="13.3213646"><ele>200.0</ele><time>2026-03-22T06:54:11.317Z</time></trkpt><trkpt lat="43.2266141" lon="13.3212281"><ele>200.33333333333334</ele><time>2026-03-22T06:54:12.318Z</time></trkpt><trkpt lat="43.2264313" lon="13.3210991"><ele>200.66666666666669</ele><time>2026-03-22T06:54:13.317Z</time></trkpt><trkpt lat="43.2262543" lon="13.320975"><ele>201.0</ele><time>2026-03-22T06:54:14.317Z</time></trkpt><trkpt lat="43.2260832" lon="13.3208468"><ele>201.0</ele><time>2026-03-22T06:54:15.317Z</time></trkpt><trkpt lat="43.2259102" lon="13.3207232"><ele>201.0</ele><time>2026-03-22T06:54:16.317Z</time></trkpt><trkpt lat="43.2257415" lon="13.3206099"><ele>201.0</ele><time>2026-03-22T06:54:17.316Z</time></trkpt><trkpt lat="43.2255777" lon="13.3204935"><ele>201.0</ele><time>2026-03-22T06:54:18.317Z</time></trkpt><trkpt lat="43.2254149" lon="13.3203816"><ele>201.0</ele><time>2026-03-22T06:54:19.317Z</time></trkpt><trkpt lat="43.2252482" lon="13.3202642"><ele>201.0</ele><time>2026-03-22T06:54:20.317Z</time></trkpt><trkpt lat="43.2250788" lon="13.3201473"><ele>201.0</ele><time>2026-03-22T06:54:21.317Z</time></trkpt><trkpt lat="43.2249097" lon="13.3200384"><ele>201.0</ele><time>2026-03-22T06:54:22.317Z</time></trkpt><trkpt lat="43.2247481" lon="13.3199195"><ele>201.0</ele><time>2026-03-22T06:54:23.317Z</time></trkpt><trkpt lat="43.2245827" lon="13.3198043"><ele>201.0</ele><time>2026-03-22T06:54:24.316Z</time></trkpt><trkpt lat="43.2244125" lon="13.3196916"><ele>201.0</ele><time>2026-03-22T06:54:25.316Z</time></trkpt><trkpt lat="43.2242432" lon="13.3195683"><ele>201.0</ele><time>2026-03-22T06:54:26.315Z</time></trkpt><trkpt lat="43.224078" lon="13.3194475"><ele>200.33333333333331</ele><time>2026-03-22T06:54:27.317Z</time></trkpt><trkpt lat="43.2239144" lon="13.3193325"><ele>199.66666666666666</ele><time>2026-03-22T06:54:28.317Z</time></trkpt><trkpt lat="43.223751" lon="13.3192156"><ele>199.0</ele><time>2026-03-22T06:54:29.317Z</time></trkpt><trkpt lat="43.2235921" lon="13.319101"><ele>199.0</ele><time>2026-03-22T06:54:30.317Z</time></trkpt><trkpt lat="43.2234221" lon="13.318982"><ele>199.0</ele><time>2026-03-22T06:54:31.317Z</time></trkpt><trkpt lat="43.223258" lon="13.3188659"><ele>199.0</ele><time>2026-03-22T06:54:32.317Z</time></trkpt><trkpt lat="43.2230892" lon="13.3187454"><ele>199.0</ele><time>2026-03-22T06:54:33.317Z</time></trkpt><trkpt lat="43.222923" lon="13.3186265"><ele>199.0</ele><time>2026-03-22T06:54:34.316Z</time></trkpt><trkpt lat="43.2227608" lon="13.3185138"><ele>199.0</ele><time>2026-03-22T06:54:35.316Z</time></trkpt><trkpt lat="43.2225964" lon="13.3183992"><ele>199.0</ele><time>2026-03-22T06:54:36.316Z</time></trkpt><trkpt lat="43.2224304" lon="13.318282"><ele>199.0</ele><time>2026-03-22T06:54:37.316Z</time></trkpt><trkpt lat="43.2222778" lon="13.3181704"><ele>199.0</ele><time>2026-03-22T06:54:38.317Z</time></trkpt><trkpt lat="43.2221324" lon="13.3180684"><ele>198.66666666666666</ele><time>2026-03-22T06:54:39.316Z</time></trkpt><trkpt lat="43.2219885" lon="13.3179632"><ele>198.33333333333331</ele><time>2026-03-22T06:54:40.317Z</time></trkpt><trkpt lat="43.2218548" lon="13.3178736"><ele>198.0</ele><time>2026-03-22T06:54:41.317Z</time></trkpt><trkpt lat="43.2217287" lon="13.3177777"><ele>198.0</ele><time>2026-03-22T06:54:42.317Z</time></trkpt><trkpt lat="43.2216131" lon="13.3177023"><ele>198.0</ele><time>2026-03-22T06:54:43.317Z</time></trkpt><trkpt lat="43.2214996" lon="13.3176184"><ele>198.0</ele><time>2026-03-22T06:54:44.318Z</time></trkpt><trkpt lat="43.2213955" lon="13.3175299"><ele>198.0</ele><time>2026-03-22T06:54:45.316Z</time></trkpt><trkpt lat="43.2213099" lon="13.3174299"><ele>198.0</ele><time>2026-03-22T06:54:46.317Z</time></trkpt><trkpt lat="43.2212398" lon="13.3173096"><ele>198.0</ele><time>2026-03-22T06:54:47.317Z</time></trkpt><trkpt lat="43.2211927" lon="13.3171741"><ele>198.0</ele><time>2026-03-22T06:54:48.317Z</time></trkpt><trkpt lat="43.2211541" lon="13.3170253"><ele>198.0</ele><time>2026-03-22T06:54:49.316Z</time></trkpt><trkpt lat="43.2211163" lon="13.316866"><ele>198.0</ele><time>2026-03-22T06:54:50.316Z</time></trkpt><trkpt lat="43.2210783" lon="13.3166957"><ele>198.0</ele><time>2026-03-22T06:54:51.318Z</time></trkpt><trkpt lat="43.2210399" lon="13.3165098"><ele>198.0</ele><time>2026-03-22T06:54:52.318Z</time></trkpt><trkpt lat="43.2209997" lon="13.3163033"><ele>198.0</ele><time>2026-03-22T06:54:53.316Z</time></trkpt><trkpt lat="43.2209549" lon="13.3160829"><ele>198.0</ele><time>2026-03-22T06:54:54.316Z</time></trkpt><trkpt lat="43.2209134" lon="13.3158543"><ele>198.0</ele><time>2026-03-22T06:54:55.317Z</time></trkpt><trkpt lat="43.2208639" lon="13.31563"><ele>198.0</ele><time>2026-03-22T06:54:56.316Z</time></trkpt><trkpt lat="43.2208273" lon="13.3154186"><ele>198.0</ele><time>2026-03-22T06:54:57.317Z</time></trkpt><trkpt lat="43.2207996" lon="13.3152233"><ele>198.0</ele><time>2026-03-22T06:54:58.318Z</time></trkpt><trkpt lat="43.2207736" lon="13.3150303"><ele>198.0</ele><time>2026-03-22T06:54:59.317Z</time></trkpt><trkpt lat="43.2207557" lon="13.3148476"><ele>198.0</ele><time>2026-03-22T06:55:00.317Z</time></trkpt><trkpt lat="43.2207221" lon="13.3146857"><ele>198.2</ele><time>2026-03-22T06:55:01.316Z</time></trkpt><trkpt lat="43.2206805" lon="13.314553"><ele>198.4</ele><time>2026-03-22T06:55:02.317Z</time></trkpt><trkpt lat="43.2206173" lon="13.3144693"><ele>198.6</ele><time>2026-03-22T06:55:03.317Z</time></trkpt><trkpt lat="43.220547" lon="13.314444"><ele>198.79999999999998</ele><time>2026-03-22T06:55:04.316Z</time></trkpt><trkpt lat="43.2204481" lon="13.3144744"><ele>199.0</ele><time>2026-03-22T06:55:05.316Z</time></trkpt><trkpt lat="43.2203584" lon="13.314505"><ele>199.2</ele><time>2026-03-22T06:55:06.317Z</time></trkpt><trkpt lat="43.2202602" lon="13.3145265"><ele>199.39999999999998</ele><time>2026-03-22T06:55:07.317Z</time></trkpt><trkpt lat="43.2201621" lon="13.3145597"><ele>199.6</ele><time>2026-03-22T06:55:08.316Z</time></trkpt><trkpt lat="43.2200674" lon="13.3145863"><ele>199.8</ele><time>2026-03-22T06:55:09.318Z</time></trkpt><trkpt lat="43.2199779" lon="13.314607"><ele>200.0</ele><time>2026-03-22T06:55:10.317Z</time></trkpt><trkpt lat="43.219895" lon="13.3146368"><ele>199.16666666666669</ele><time>2026-03-22T06:55:11.317Z</time></trkpt><trkpt lat="43.2198109" lon="13.3146442"><ele>198.33333333333334</ele><time>2026-03-22T06:55:12.317Z</time></trkpt><trkpt lat="43.2197388" lon="13.3146355"><ele>197.5</ele><time>2026-03-22T06:55:13.316Z</time></trkpt><trkpt lat="43.2196794" lon="13.3145959"><ele>196.66666666666669</ele><time>2026-03-22T06:55:14.317Z</time></trkpt><trkpt lat="43.2196017" lon="13.3144795"><ele>195.83333333333334</ele><time>2026-03-22T06:55:16.318Z</time></trkpt><trkpt lat="43.2195804" lon="13.3143755"><ele>195.0</ele><time>2026-03-22T06:55:17.318Z</time></trkpt><trkpt lat="43.2195555" lon="13.3142539"><ele>195.0</ele><time>2026-03-22T06:55:18.317Z</time></trkpt><trkpt lat="43.2195273" lon="13.314125"><ele>195.0</ele><time>2026-03-22T06:55:19.316Z</time></trkpt><trkpt lat="43.2194963" lon="13.3139663"><ele>195.0</ele><time>2026-03-22T06:55:20.318Z</time></trkpt><trkpt lat="43.2194602" lon="13.3138017"><ele>195.0</ele><time>2026-03-22T06:55:21.317Z</time></trkpt><trkpt lat="43.2194087" lon="13.3136313"><ele>195.75</ele><time>2026-03-22T06:55:22.318Z</time></trkpt><trkpt lat="43.2193452" lon="13.3134651"><ele>196.5</ele><time>2026-03-22T06:55:23.318Z</time></trkpt><trkpt lat="43.2192796" lon="13.3133079"><ele>197.25</ele><time>2026-03-22T06:55:24.317Z</time></trkpt><trkpt lat="43.2191996" lon="13.3131465"><ele>198.0</ele><time>2026-03-22T06:55:25.317Z</time></trkpt><trkpt lat="43.2191084" lon="13.3129905"><ele>198.66666666666669</ele><time>2026-03-22T06:55:26.317Z</time></trkpt><trkpt lat="43.2190016" lon="13.3128428"><ele>199.33333333333334</ele><time>2026-03-22T06:55:27.318Z</time></trkpt><trkpt lat="43.218885" lon="13.3127082"><ele>200.0</ele><time>2026-03-22T06:55:28.317Z</time></trkpt><trkpt lat="43.2187689" lon="13.3125817"><ele>200.25</ele><time>2026-03-22T06:55:29.316Z</time></trkpt><trkpt lat="43.218651" lon="13.3124654"><ele>200.5</ele><time>2026-03-22T06:55:30.317Z</time></trkpt><trkpt lat="43.2185343" lon="13.3123578"><ele>200.75</ele><time>2026-03-22T06:55:31.316Z</time></trkpt><trkpt lat="43.2184237" lon="13.3122438"><ele>201.0</ele><time>2026-03-22T06:55:32.316Z</time></trkpt><trkpt lat="43.2183123" lon="13.3121259"><ele>201.0</ele><time>2026-03-22T06:55:33.316Z</time></trkpt><trkpt lat="43.2181939" lon="13.3120183"><ele>201.0</ele><time>2026-03-22T06:55:34.317Z</time></trkpt><trkpt lat="43.2180774" lon="13.311909"><ele>201.0</ele><time>2026-03-22T06:55:35.316Z</time></trkpt><trkpt lat="43.2179644" lon="13.311796"><ele>201.0</ele><time>2026-03-22T06:55:36.318Z</time></trkpt><trkpt lat="43.2178537" lon="13.3116943"><ele>201.4</ele><time>2026-03-22T06:55:37.317Z</time></trkpt><trkpt lat="43.2177512" lon="13.3115956"><ele>201.8</ele><time>2026-03-22T06:55:38.317Z</time></trkpt><trkpt lat="43.2176631" lon="13.3115028"><ele>202.20000000000002</ele><time>2026-03-22T06:55:39.318Z</time></trkpt><trkpt lat="43.2175875" lon="13.3114182"><ele>202.60000000000002</ele><time>2026-03-22T06:55:40.318Z</time></trkpt><trkpt lat="43.2175311" lon="13.3113472"><ele>203.0</ele><time>2026-03-22T06:55:41.317Z</time></trkpt><trkpt lat="43.2174772" lon="13.3112358"><ele>203.0</ele><time>2026-03-22T06:55:43.316Z</time></trkpt><trkpt lat="43.2174458" lon="13.3111267"><ele>203.0</ele><time>2026-03-22T06:55:45.317Z</time></trkpt><trkpt lat="43.2173615" lon="13.3110112"><ele>203.0</ele><time>2026-03-22T06:55:47.318Z</time></trkpt><trkpt lat="43.2172295" lon="13.3109681"><ele>203.0</ele><time>2026-03-22T06:55:49.317Z</time></trkpt><trkpt lat="43.2171535" lon="13.3109418"><ele>203.0</ele><time>2026-03-22T06:55:50.316Z</time></trkpt><trkpt lat="43.2170709" lon="13.3108898"><ele>202.60000000000002</ele><time>2026-03-22T06:55:51.316Z</time></trkpt><trkpt lat="43.2169918" lon="13.3108234"><ele>202.20000000000002</ele><time>2026-03-22T06:55:52.317Z</time></trkpt><trkpt lat="43.2169123" lon="13.3107517"><ele>201.8</ele><time>2026-03-22T06:55:53.317Z</time></trkpt><trkpt lat="43.2168262" lon="13.3106699"><ele>201.4</ele><time>2026-03-22T06:55:54.316Z</time></trkpt><trkpt lat="43.2167333" lon="13.3105782"><ele>201.0</ele><time>2026-03-22T06:55:55.316Z</time></trkpt><trkpt lat="43.2166376" lon="13.3104822"><ele>201.0</ele><time>2026-03-22T06:55:56.316Z</time></trkpt><trkpt lat="43.2165436" lon="13.3103817"><ele>201.0</ele><time>2026-03-22T06:55:57.317Z</time></trkpt><trkpt lat="43.2164436" lon="13.3102721"><ele>201.0</ele><time>2026-03-22T06:55:58.317Z</time></trkpt><trkpt lat="43.2163504" lon="13.3101559"><ele>201.0</ele><time>2026-03-22T06:55:59.317Z</time></trkpt><trkpt lat="43.2162659" lon="13.3100267"><ele>200.4</ele><time>2026-03-22T06:56:00.317Z</time></trkpt><trkpt lat="43.2161893" lon="13.3099045"><ele>199.8</ele><time>2026-03-22T06:56:01.317Z</time></trkpt><trkpt lat="43.2161131" lon="13.3097846"><ele>199.20000000000002</ele><time>2026-03-22T06:56:02.317Z</time></trkpt><trkpt lat="43.2160434" lon="13.3096677"><ele>198.60000000000002</ele><time>2026-03-22T06:56:03.316Z</time></trkpt><trkpt lat="43.2159902" lon="13.3095511"><ele>198.0</ele><time>2026-03-22T06:56:04.317Z</time></trkpt><trkpt lat="43.2159447" lon="13.3094424"><ele>198.0</ele><time>2026-03-22T06:56:05.317Z</time></trkpt><trkpt lat="43.2159052" lon="13.3093307"><ele>198.0</ele><time>2026-03-22T06:56:06.317Z</time></trkpt><trkpt lat="43.2158781" lon="13.3092198"><ele>198.0</ele><time>2026-03-22T06:56:07.318Z</time></trkpt><trkpt lat="43.2158657" lon="13.3091142"><ele>198.0</ele><time>2026-03-22T06:56:08.317Z</time></trkpt><trkpt lat="43.2158463" lon="13.3090152"><ele>198.0</ele><time>2026-03-22T06:56:09.317Z</time></trkpt><trkpt lat="43.2158189" lon="13.3089319"><ele>198.0</ele><time>2026-03-22T06:56:10.316Z</time></trkpt><trkpt lat="43.2157547" lon="13.3088266"><ele>198.4</ele><time>2026-03-22T06:56:12.316Z</time></trkpt><trkpt lat="43.2156889" lon="13.3087936"><ele>198.8</ele><time>2026-03-22T06:56:14.316Z</time></trkpt><trkpt lat="43.2156146" lon="13.3087902"><ele>199.2</ele><time>2026-03-22T06:56:17.317Z</time></trkpt><trkpt lat="43.2155485" lon="13.3087529"><ele>199.6</ele><time>2026-03-22T06:57:05.317Z</time></trkpt><trkpt lat="43.2154897" lon="13.3085818"><ele>200.0</ele><time>2026-03-22T06:57:07.316Z</time></trkpt><trkpt lat="43.2154341" lon="13.3084401"><ele>198.33333333333334</ele><time>2026-03-22T06:57:08.317Z</time></trkpt><trkpt lat="43.2153663" lon="13.3082813"><ele>196.66666666666669</ele><time>2026-03-22T06:57:09.316Z</time></trkpt><trkpt lat="43.2152875" lon="13.3081042"><ele>195.0</ele><time>2026-03-22T06:57:10.317Z</time></trkpt><trkpt lat="43.2151969" lon="13.307908"><ele>195.0</ele><time>2026-03-22T06:57:11.317Z</time></trkpt><trkpt lat="43.2150954" lon="13.3077043"><ele>195.0</ele><time>2026-03-22T06:57:12.318Z</time></trkpt><trkpt lat="43.2149861" lon="13.3074876"><ele>195.0</ele><time>2026-03-22T06:57:13.317Z</time></trkpt><trkpt lat="43.2148729" lon="13.3072686"><ele>193.66666666666666</ele><time>2026-03-22T06:57:14.317Z</time></trkpt><trkpt lat="43.2147548" lon="13.3070533"><ele>192.33333333333331</ele><time>2026-03-22T06:57:15.317Z</time></trkpt><trkpt lat="43.2146459" lon="13.3068541"><ele>191.0</ele><time>2026-03-22T06:57:16.317Z</time></trkpt><trkpt lat="43.2145438" lon="13.306675"><ele>191.0</ele><time>2026-03-22T06:57:17.318Z</time></trkpt><trkpt lat="43.2144589" lon="13.3065261"><ele>191.0</ele><time>2026-03-22T06:57:18.318Z</time></trkpt><trkpt lat="43.2143945" lon="13.3063938"><ele>191.0</ele><time>2026-03-22T06:57:19.317Z</time></trkpt><trkpt lat="43.2143331" lon="13.3062623"><ele>191.0</ele><time>2026-03-22T06:57:20.316Z</time></trkpt><trkpt lat="43.2142958" lon="13.3061576"><ele>190.5</ele><time>2026-03-22T06:57:21.318Z</time></trkpt><trkpt lat="43.214265" lon="13.3060462"><ele>190.0</ele><time>2026-03-22T06:57:22.317Z</time></trkpt><trkpt lat="43.2142445" lon="13.305941"><ele>189.5</ele><time>2026-03-22T06:57:23.317Z</time></trkpt><trkpt lat="43.2142249" lon="13.3058505"><ele>189.0</ele><time>2026-03-22T06:57:24.318Z</time></trkpt><trkpt lat="43.2141934" lon="13.3057685"><ele>188.5</ele><time>2026-03-22T06:57:25.318Z</time></trkpt><trkpt lat="43.2140973" lon="13.3056715"><ele>188.0</ele><time>2026-03-22T06:57:27.318Z</time></trkpt><trkpt lat="43.2139877" lon="13.3056761"><ele>188.0</ele><time>2026-03-22T06:57:29.316Z</time></trkpt><trkpt lat="43.2139133" lon="13.305731"><ele>188.0</ele><time>2026-03-22T06:57:31.318Z</time></trkpt><trkpt lat="43.2138607" lon="13.305787"><ele>188.0</ele><time>2026-03-22T06:57:33.316Z</time></trkpt><trkpt lat="43.2138468" lon="13.3058722"><ele>188.0</ele><time>2026-03-22T06:57:36.318Z</time></trkpt></trkseg></trk></gpx>